<?xml version="1.0" encoding="UTF-8"?>
<gpx version="1.1" creator="https://www.youtrack.es" xsi:schemaLocation="http://www.topografix.com/GPX/1/1 http://www.topografix.com/GPX/1/1/gpx.xsd http://www.garmin.com/xmlschemas/GpxExtensions/v3 http://www.garmin.com/xmlschemas/GpxExtensionsv3.xsd http://www.garmin.com/xmlschemas/TrackPointExtension/v1 http://www.garmin.com/xmlschemas/TrackPointExtensionv1.xsd" xmlns:gpxtpx="http://www.garmin.com/xmlschemas/TrackPointExtension/v1" xmlns:gpxx="http://www.garmin.com/xmlschemas/GpxExtensions/v3" xmlns:xsi="http://www.w3.org/2001/XMLSchema-instance">
  <metadata>
    <link href="https://www.youtrack.es">
      <text>YouTrack.es</text>
    </link>
    <time>2026-05-10T13:39:06Z</time>
  </metadata>
  <trk>
    <src>https://www.youtrack.es</src>
    <link href="https://www.youtrack.es/ruta/2495-regreso-ao-vixiador">
      <text>YouTrack.es</text>
    </link>
    <trkseg>
      <trkpt lat="42.19584768" lon="-8.6474464">
        <ele>180.0</ele>
        <time>2018-10-10T11:50:33Z</time>
      </trkpt>
      <trkpt lat="42.19584768" lon="-8.6474464">
        <ele>178.4499969482422</ele>
        <time>2018-10-10T11:50:34Z</time>
      </trkpt>
      <trkpt lat="42.19584768" lon="-8.6474464">
        <ele>178.4499969482422</ele>
        <time>2018-10-10T11:50:35Z</time>
      </trkpt>
      <trkpt lat="42.19584768" lon="-8.64744448">
        <ele>178.4499969482422</ele>
        <time>2018-10-10T11:50:36Z</time>
      </trkpt>
      <trkpt lat="42.19584768" lon="-8.64744448">
        <ele>180.36000061035156</ele>
        <time>2018-10-10T11:50:37Z</time>
      </trkpt>
      <trkpt lat="42.19577088" lon="-8.64739008">
        <ele>181.5399932861328</ele>
        <time>2018-10-10T11:50:46Z</time>
      </trkpt>
      <trkpt lat="42.19574272" lon="-8.64737536">
        <ele>181.5399932861328</ele>
        <time>2018-10-10T11:50:47Z</time>
      </trkpt>
      <trkpt lat="42.19570944" lon="-8.64736">
        <ele>181.5399932861328</ele>
        <time>2018-10-10T11:50:48Z</time>
      </trkpt>
      <trkpt lat="42.19567872" lon="-8.64733952">
        <ele>182.72000122070312</ele>
        <time>2018-10-10T11:50:49Z</time>
      </trkpt>
      <trkpt lat="42.19561728" lon="-8.64731136">
        <ele>182.72000122070312</ele>
        <time>2018-10-10T11:50:51Z</time>
      </trkpt>
      <trkpt lat="42.1955712" lon="-8.64728192">
        <ele>182.72000122070312</ele>
        <time>2018-10-10T11:50:53Z</time>
      </trkpt>
      <trkpt lat="42.19553024" lon="-8.64729664">
        <ele>182.72000122070312</ele>
        <time>2018-10-10T11:50:56Z</time>
      </trkpt>
      <trkpt lat="42.19556096" lon="-8.64736448">
        <ele>182.72000122070312</ele>
        <time>2018-10-10T11:51:01Z</time>
      </trkpt>
      <trkpt lat="42.19560704" lon="-8.6474304">
        <ele>182.72000122070312</ele>
        <time>2018-10-10T11:51:04Z</time>
      </trkpt>
      <trkpt lat="42.19565568" lon="-8.64750016">
        <ele>183.89999389648438</ele>
        <time>2018-10-10T11:51:07Z</time>
      </trkpt>
      <trkpt lat="42.19569664" lon="-8.64754688">
        <ele>185.08999633789062</ele>
        <time>2018-10-10T11:51:09Z</time>
      </trkpt>
      <trkpt lat="42.19573504" lon="-8.64758848">
        <ele>185.08999633789062</ele>
        <time>2018-10-10T11:51:11Z</time>
      </trkpt>
      <trkpt lat="42.19578624" lon="-8.64762624">
        <ele>185.08999633789062</ele>
        <time>2018-10-10T11:51:14Z</time>
      </trkpt>
      <trkpt lat="42.19583232" lon="-8.64765568">
        <ele>186.36000061035156</ele>
        <time>2018-10-10T11:51:16Z</time>
      </trkpt>
      <trkpt lat="42.19588096" lon="-8.64767936">
        <ele>186.36000061035156</ele>
        <time>2018-10-10T11:51:18Z</time>
      </trkpt>
      <trkpt lat="42.19593472" lon="-8.64769664">
        <ele>186.36000061035156</ele>
        <time>2018-10-10T11:51:20Z</time>
      </trkpt>
      <trkpt lat="42.19599104" lon="-8.64770496">
        <ele>186.36000061035156</ele>
        <time>2018-10-10T11:51:22Z</time>
      </trkpt>
      <trkpt lat="42.19604224" lon="-8.64770048">
        <ele>186.36000061035156</ele>
        <time>2018-10-10T11:51:24Z</time>
      </trkpt>
      <trkpt lat="42.1961088" lon="-8.64769088">
        <ele>186.36000061035156</ele>
        <time>2018-10-10T11:51:27Z</time>
      </trkpt>
      <trkpt lat="42.19617536" lon="-8.64767616">
        <ele>186.36000061035156</ele>
        <time>2018-10-10T11:51:30Z</time>
      </trkpt>
      <trkpt lat="42.1962368" lon="-8.64767168">
        <ele>186.36000061035156</ele>
        <time>2018-10-10T11:51:33Z</time>
      </trkpt>
      <trkpt lat="42.19629568" lon="-8.64766912">
        <ele>186.36000061035156</ele>
        <time>2018-10-10T11:51:36Z</time>
      </trkpt>
      <trkpt lat="42.1963648" lon="-8.64766208">
        <ele>186.36000061035156</ele>
        <time>2018-10-10T11:51:39Z</time>
      </trkpt>
      <trkpt lat="42.19643904" lon="-8.6476544">
        <ele>187.5399932861328</ele>
        <time>2018-10-10T11:51:42Z</time>
      </trkpt>
      <trkpt lat="42.1965056" lon="-8.64766784">
        <ele>187.5399932861328</ele>
        <time>2018-10-10T11:51:45Z</time>
      </trkpt>
      <trkpt lat="42.19657472" lon="-8.64770496">
        <ele>187.5399932861328</ele>
        <time>2018-10-10T11:51:48Z</time>
      </trkpt>
      <trkpt lat="42.19662592" lon="-8.64773568">
        <ele>187.5399932861328</ele>
        <time>2018-10-10T11:51:50Z</time>
      </trkpt>
      <trkpt lat="42.19667456" lon="-8.64776896">
        <ele>187.5399932861328</ele>
        <time>2018-10-10T11:51:52Z</time>
      </trkpt>
      <trkpt lat="42.19672832" lon="-8.64779968">
        <ele>187.5399932861328</ele>
        <time>2018-10-10T11:51:54Z</time>
      </trkpt>
      <trkpt lat="42.19678208" lon="-8.64782784">
        <ele>188.80999755859375</ele>
        <time>2018-10-10T11:51:56Z</time>
      </trkpt>
      <trkpt lat="42.19683584" lon="-8.64785216">
        <ele>188.80999755859375</ele>
        <time>2018-10-10T11:51:58Z</time>
      </trkpt>
      <trkpt lat="42.19689216" lon="-8.64787264">
        <ele>188.80999755859375</ele>
        <time>2018-10-10T11:52:00Z</time>
      </trkpt>
      <trkpt lat="42.19694848" lon="-8.64789184">
        <ele>188.80999755859375</ele>
        <time>2018-10-10T11:52:02Z</time>
      </trkpt>
      <trkpt lat="42.19700992" lon="-8.64791296">
        <ele>188.80999755859375</ele>
        <time>2018-10-10T11:52:04Z</time>
      </trkpt>
      <trkpt lat="42.19706624" lon="-8.64793408">
        <ele>188.80999755859375</ele>
        <time>2018-10-10T11:52:06Z</time>
      </trkpt>
      <trkpt lat="42.19712768" lon="-8.64795328">
        <ele>188.80999755859375</ele>
        <time>2018-10-10T11:52:08Z</time>
      </trkpt>
      <trkpt lat="42.19719424" lon="-8.64797376">
        <ele>188.80999755859375</ele>
        <time>2018-10-10T11:52:10Z</time>
      </trkpt>
      <trkpt lat="42.19725824" lon="-8.64800256">
        <ele>190.0</ele>
        <time>2018-10-10T11:52:12Z</time>
      </trkpt>
      <trkpt lat="42.19731968" lon="-8.64805696">
        <ele>190.0</ele>
        <time>2018-10-10T11:52:14Z</time>
      </trkpt>
      <trkpt lat="42.19737344" lon="-8.64810304">
        <ele>190.0</ele>
        <time>2018-10-10T11:52:16Z</time>
      </trkpt>
      <trkpt lat="42.19742976" lon="-8.64815168">
        <ele>190.0</ele>
        <time>2018-10-10T11:52:18Z</time>
      </trkpt>
      <trkpt lat="42.19748352" lon="-8.64820032">
        <ele>190.0</ele>
        <time>2018-10-10T11:52:20Z</time>
      </trkpt>
      <trkpt lat="42.19753728" lon="-8.64824704">
        <ele>190.0</ele>
        <time>2018-10-10T11:52:22Z</time>
      </trkpt>
      <trkpt lat="42.19758592" lon="-8.64829952">
        <ele>190.0</ele>
        <time>2018-10-10T11:52:24Z</time>
      </trkpt>
      <trkpt lat="42.19762688" lon="-8.64836992">
        <ele>190.0</ele>
        <time>2018-10-10T11:52:26Z</time>
      </trkpt>
      <trkpt lat="42.19766272" lon="-8.64845056">
        <ele>190.0</ele>
        <time>2018-10-10T11:52:28Z</time>
      </trkpt>
      <trkpt lat="42.19768576" lon="-8.64853952">
        <ele>190.0</ele>
        <time>2018-10-10T11:52:30Z</time>
      </trkpt>
      <trkpt lat="42.19771136" lon="-8.64863296">
        <ele>190.0</ele>
        <time>2018-10-10T11:52:32Z</time>
      </trkpt>
      <trkpt lat="42.1977344" lon="-8.6487264">
        <ele>188.80999755859375</ele>
        <time>2018-10-10T11:52:34Z</time>
      </trkpt>
      <trkpt lat="42.19775744" lon="-8.64881792">
        <ele>188.80999755859375</ele>
        <time>2018-10-10T11:52:36Z</time>
      </trkpt>
      <trkpt lat="42.19776512" lon="-8.64890752">
        <ele>188.80999755859375</ele>
        <time>2018-10-10T11:52:38Z</time>
      </trkpt>
      <trkpt lat="42.19780352" lon="-8.64900288">
        <ele>187.6300048828125</ele>
        <time>2018-10-10T11:52:41Z</time>
      </trkpt>
      <trkpt lat="42.197888" lon="-8.64899904">
        <ele>187.6300048828125</ele>
        <time>2018-10-10T11:52:44Z</time>
      </trkpt>
      <trkpt lat="42.197952" lon="-8.64897472">
        <ele>187.6300048828125</ele>
        <time>2018-10-10T11:52:46Z</time>
      </trkpt>
      <trkpt lat="42.19803136" lon="-8.64894784">
        <ele>187.6300048828125</ele>
        <time>2018-10-10T11:52:48Z</time>
      </trkpt>
      <trkpt lat="42.19812352" lon="-8.64892096">
        <ele>187.6300048828125</ele>
        <time>2018-10-10T11:52:50Z</time>
      </trkpt>
      <trkpt lat="42.19822336" lon="-8.64889024">
        <ele>187.6300048828125</ele>
        <time>2018-10-10T11:52:52Z</time>
      </trkpt>
      <trkpt lat="42.19833088" lon="-8.64886464">
        <ele>187.6300048828125</ele>
        <time>2018-10-10T11:52:54Z</time>
      </trkpt>
      <trkpt lat="42.19844864" lon="-8.64884352">
        <ele>187.6300048828125</ele>
        <time>2018-10-10T11:52:56Z</time>
      </trkpt>
      <trkpt lat="42.19851008" lon="-8.64883328">
        <ele>187.6300048828125</ele>
        <time>2018-10-10T11:52:57Z</time>
      </trkpt>
      <trkpt lat="42.19857408" lon="-8.64882368">
        <ele>187.6300048828125</ele>
        <time>2018-10-10T11:52:58Z</time>
      </trkpt>
      <trkpt lat="42.19863552" lon="-8.648816">
        <ele>187.6300048828125</ele>
        <time>2018-10-10T11:52:59Z</time>
      </trkpt>
      <trkpt lat="42.19869952" lon="-8.64880768">
        <ele>187.6300048828125</ele>
        <time>2018-10-10T11:53:00Z</time>
      </trkpt>
      <trkpt lat="42.1987712" lon="-8.64879808">
        <ele>187.6300048828125</ele>
        <time>2018-10-10T11:53:01Z</time>
      </trkpt>
      <trkpt lat="42.19883776" lon="-8.6487904">
        <ele>187.6300048828125</ele>
        <time>2018-10-10T11:53:02Z</time>
      </trkpt>
      <trkpt lat="42.19890176" lon="-8.648784">
        <ele>187.6300048828125</ele>
        <time>2018-10-10T11:53:03Z</time>
      </trkpt>
      <trkpt lat="42.19896576" lon="-8.64877632">
        <ele>187.6300048828125</ele>
        <time>2018-10-10T11:53:04Z</time>
      </trkpt>
      <trkpt lat="42.19903232" lon="-8.64876864">
        <ele>187.6300048828125</ele>
        <time>2018-10-10T11:53:05Z</time>
      </trkpt>
      <trkpt lat="42.19910912" lon="-8.64876096">
        <ele>187.6300048828125</ele>
        <time>2018-10-10T11:53:06Z</time>
      </trkpt>
      <trkpt lat="42.199168" lon="-8.648752">
        <ele>186.4499969482422</ele>
        <time>2018-10-10T11:53:07Z</time>
      </trkpt>
      <trkpt lat="42.19923712" lon="-8.64874368">
        <ele>186.4499969482422</ele>
        <time>2018-10-10T11:53:08Z</time>
      </trkpt>
      <trkpt lat="42.19931136" lon="-8.64873216">
        <ele>186.4499969482422</ele>
        <time>2018-10-10T11:53:09Z</time>
      </trkpt>
      <trkpt lat="42.19937792" lon="-8.64872256">
        <ele>186.4499969482422</ele>
        <time>2018-10-10T11:53:10Z</time>
      </trkpt>
      <trkpt lat="42.19943936" lon="-8.64871296">
        <ele>186.4499969482422</ele>
        <time>2018-10-10T11:53:11Z</time>
      </trkpt>
      <trkpt lat="42.1995008" lon="-8.64870272">
        <ele>186.4499969482422</ele>
        <time>2018-10-10T11:53:12Z</time>
      </trkpt>
      <trkpt lat="42.19956224" lon="-8.6486912">
        <ele>186.4499969482422</ele>
        <time>2018-10-10T11:53:13Z</time>
      </trkpt>
      <trkpt lat="42.19962624" lon="-8.64867968">
        <ele>186.4499969482422</ele>
        <time>2018-10-10T11:53:14Z</time>
      </trkpt>
      <trkpt lat="42.1996928" lon="-8.64866816">
        <ele>186.4499969482422</ele>
        <time>2018-10-10T11:53:15Z</time>
      </trkpt>
      <trkpt lat="42.19974912" lon="-8.64865792">
        <ele>186.4499969482422</ele>
        <time>2018-10-10T11:53:16Z</time>
      </trkpt>
      <trkpt lat="42.19981312" lon="-8.6486464">
        <ele>186.4499969482422</ele>
        <time>2018-10-10T11:53:17Z</time>
      </trkpt>
      <trkpt lat="42.199872" lon="-8.6486368">
        <ele>186.4499969482422</ele>
        <time>2018-10-10T11:53:18Z</time>
      </trkpt>
      <trkpt lat="42.19993088" lon="-8.6486272">
        <ele>186.4499969482422</ele>
        <time>2018-10-10T11:53:19Z</time>
      </trkpt>
      <trkpt lat="42.19999232" lon="-8.6486176">
        <ele>186.4499969482422</ele>
        <time>2018-10-10T11:53:20Z</time>
      </trkpt>
      <trkpt lat="42.20004352" lon="-8.648608">
        <ele>186.4499969482422</ele>
        <time>2018-10-10T11:53:21Z</time>
      </trkpt>
      <trkpt lat="42.20014848" lon="-8.6485728">
        <ele>186.4499969482422</ele>
        <time>2018-10-10T11:53:23Z</time>
      </trkpt>
      <trkpt lat="42.20019456" lon="-8.64854976">
        <ele>186.4499969482422</ele>
        <time>2018-10-10T11:53:24Z</time>
      </trkpt>
      <trkpt lat="42.2002944" lon="-8.64849856">
        <ele>186.4499969482422</ele>
        <time>2018-10-10T11:53:26Z</time>
      </trkpt>
      <trkpt lat="42.20033536" lon="-8.64847296">
        <ele>186.4499969482422</ele>
        <time>2018-10-10T11:53:27Z</time>
      </trkpt>
      <trkpt lat="42.20041984" lon="-8.64841472">
        <ele>186.4499969482422</ele>
        <time>2018-10-10T11:53:29Z</time>
      </trkpt>
      <trkpt lat="42.20049408" lon="-8.64835456">
        <ele>186.4499969482422</ele>
        <time>2018-10-10T11:53:31Z</time>
      </trkpt>
      <trkpt lat="42.20056064" lon="-8.6482944">
        <ele>186.4499969482422</ele>
        <time>2018-10-10T11:53:33Z</time>
      </trkpt>
      <trkpt lat="42.2006272" lon="-8.64822976">
        <ele>187.72000122070312</ele>
        <time>2018-10-10T11:53:35Z</time>
      </trkpt>
      <trkpt lat="42.20068352" lon="-8.6481664">
        <ele>187.72000122070312</ele>
        <time>2018-10-10T11:53:37Z</time>
      </trkpt>
      <trkpt lat="42.20073984" lon="-8.64810176">
        <ele>187.72000122070312</ele>
        <time>2018-10-10T11:53:39Z</time>
      </trkpt>
      <trkpt lat="42.20079104" lon="-8.64803584">
        <ele>188.99000549316406</ele>
        <time>2018-10-10T11:53:41Z</time>
      </trkpt>
      <trkpt lat="42.20083968" lon="-8.64797376">
        <ele>188.99000549316406</ele>
        <time>2018-10-10T11:53:43Z</time>
      </trkpt>
      <trkpt lat="42.20087808" lon="-8.64791872">
        <ele>190.6300048828125</ele>
        <time>2018-10-10T11:53:45Z</time>
      </trkpt>
      <trkpt lat="42.20092416" lon="-8.64785984">
        <ele>190.6300048828125</ele>
        <time>2018-10-10T11:53:47Z</time>
      </trkpt>
      <trkpt lat="42.20096512" lon="-8.64779776">
        <ele>191.99000549316406</ele>
        <time>2018-10-10T11:53:49Z</time>
      </trkpt>
      <trkpt lat="42.20103424" lon="-8.6476992">
        <ele>191.99000549316406</ele>
        <time>2018-10-10T11:53:52Z</time>
      </trkpt>
      <trkpt lat="42.20109568" lon="-8.6476032">
        <ele>193.36000061035156</ele>
        <time>2018-10-10T11:53:55Z</time>
      </trkpt>
      <trkpt lat="42.20113664" lon="-8.64754112">
        <ele>193.36000061035156</ele>
        <time>2018-10-10T11:53:57Z</time>
      </trkpt>
      <trkpt lat="42.20118016" lon="-8.64748096">
        <ele>193.36000061035156</ele>
        <time>2018-10-10T11:53:59Z</time>
      </trkpt>
      <trkpt lat="42.20122624" lon="-8.64741888">
        <ele>193.36000061035156</ele>
        <time>2018-10-10T11:54:01Z</time>
      </trkpt>
      <trkpt lat="42.2012672" lon="-8.64735616">
        <ele>194.5399932861328</ele>
        <time>2018-10-10T11:54:03Z</time>
      </trkpt>
      <trkpt lat="42.20130816" lon="-8.64729472">
        <ele>194.5399932861328</ele>
        <time>2018-10-10T11:54:05Z</time>
      </trkpt>
      <trkpt lat="42.20135168" lon="-8.647232">
        <ele>194.5399932861328</ele>
        <time>2018-10-10T11:54:07Z</time>
      </trkpt>
      <trkpt lat="42.20139776" lon="-8.64716608">
        <ele>194.5399932861328</ele>
        <time>2018-10-10T11:54:09Z</time>
      </trkpt>
      <trkpt lat="42.20143872" lon="-8.64710016">
        <ele>195.80999755859375</ele>
        <time>2018-10-10T11:54:11Z</time>
      </trkpt>
      <trkpt lat="42.20147968" lon="-8.64703104">
        <ele>195.80999755859375</ele>
        <time>2018-10-10T11:54:13Z</time>
      </trkpt>
      <trkpt lat="42.2015232" lon="-8.64696128">
        <ele>195.80999755859375</ele>
        <time>2018-10-10T11:54:15Z</time>
      </trkpt>
      <trkpt lat="42.20156416" lon="-8.64689088">
        <ele>195.80999755859375</ele>
        <time>2018-10-10T11:54:17Z</time>
      </trkpt>
      <trkpt lat="42.20161024" lon="-8.64681792">
        <ele>195.80999755859375</ele>
        <time>2018-10-10T11:54:19Z</time>
      </trkpt>
      <trkpt lat="42.20165376" lon="-8.6467456">
        <ele>196.99000549316406</ele>
        <time>2018-10-10T11:54:21Z</time>
      </trkpt>
      <trkpt lat="42.20169472" lon="-8.64667584">
        <ele>196.99000549316406</ele>
        <time>2018-10-10T11:54:23Z</time>
      </trkpt>
      <trkpt lat="42.20173312" lon="-8.64660928">
        <ele>196.99000549316406</ele>
        <time>2018-10-10T11:54:25Z</time>
      </trkpt>
      <trkpt lat="42.20177152" lon="-8.6465408">
        <ele>196.99000549316406</ele>
        <time>2018-10-10T11:54:27Z</time>
      </trkpt>
      <trkpt lat="42.20181248" lon="-8.64646912">
        <ele>196.99000549316406</ele>
        <time>2018-10-10T11:54:29Z</time>
      </trkpt>
      <trkpt lat="42.20185088" lon="-8.64640064">
        <ele>196.99000549316406</ele>
        <time>2018-10-10T11:54:31Z</time>
      </trkpt>
      <trkpt lat="42.20186624" lon="-8.64632576">
        <ele>196.99000549316406</ele>
        <time>2018-10-10T11:54:33Z</time>
      </trkpt>
      <trkpt lat="42.20188416" lon="-8.64625088">
        <ele>195.80999755859375</ele>
        <time>2018-10-10T11:54:35Z</time>
      </trkpt>
      <trkpt lat="42.2019072" lon="-8.64617472">
        <ele>195.80999755859375</ele>
        <time>2018-10-10T11:54:37Z</time>
      </trkpt>
      <trkpt lat="42.20192256" lon="-8.6460896">
        <ele>196.99000549316406</ele>
        <time>2018-10-10T11:54:39Z</time>
      </trkpt>
      <trkpt lat="42.20193792" lon="-8.64600256">
        <ele>198.36000061035156</ele>
        <time>2018-10-10T11:54:41Z</time>
      </trkpt>
      <trkpt lat="42.20195072" lon="-8.64591616">
        <ele>198.36000061035156</ele>
        <time>2018-10-10T11:54:43Z</time>
      </trkpt>
      <trkpt lat="42.20196096" lon="-8.64583232">
        <ele>198.36000061035156</ele>
        <time>2018-10-10T11:54:45Z</time>
      </trkpt>
      <trkpt lat="42.20197376" lon="-8.64575872">
        <ele>198.36000061035156</ele>
        <time>2018-10-10T11:54:46Z</time>
      </trkpt>
      <trkpt lat="42.20198912" lon="-8.64565376">
        <ele>198.36000061035156</ele>
        <time>2018-10-10T11:54:49Z</time>
      </trkpt>
      <trkpt lat="42.20201216" lon="-8.64551936">
        <ele>198.36000061035156</ele>
        <time>2018-10-10T11:54:52Z</time>
      </trkpt>
      <trkpt lat="42.2020352" lon="-8.645424">
        <ele>198.36000061035156</ele>
        <time>2018-10-10T11:54:54Z</time>
      </trkpt>
      <trkpt lat="42.20205568" lon="-8.64532672">
        <ele>198.36000061035156</ele>
        <time>2018-10-10T11:54:56Z</time>
      </trkpt>
      <trkpt lat="42.2020864" lon="-8.64523008">
        <ele>199.5399932861328</ele>
        <time>2018-10-10T11:54:58Z</time>
      </trkpt>
      <trkpt lat="42.20212992" lon="-8.64513472">
        <ele>199.5399932861328</ele>
        <time>2018-10-10T11:55:00Z</time>
      </trkpt>
      <trkpt lat="42.20217088" lon="-8.6450432">
        <ele>199.5399932861328</ele>
        <time>2018-10-10T11:55:02Z</time>
      </trkpt>
      <trkpt lat="42.20222208" lon="-8.64495296">
        <ele>198.36000061035156</ele>
        <time>2018-10-10T11:55:04Z</time>
      </trkpt>
      <trkpt lat="42.20227328" lon="-8.644864">
        <ele>198.36000061035156</ele>
        <time>2018-10-10T11:55:06Z</time>
      </trkpt>
      <trkpt lat="42.20232704" lon="-8.64478784">
        <ele>198.36000061035156</ele>
        <time>2018-10-10T11:55:08Z</time>
      </trkpt>
      <trkpt lat="42.20238848" lon="-8.6447136">
        <ele>198.36000061035156</ele>
        <time>2018-10-10T11:55:10Z</time>
      </trkpt>
      <trkpt lat="42.20245248" lon="-8.64464448">
        <ele>198.36000061035156</ele>
        <time>2018-10-10T11:55:12Z</time>
      </trkpt>
      <trkpt lat="42.2025216" lon="-8.64458304">
        <ele>198.36000061035156</ele>
        <time>2018-10-10T11:55:14Z</time>
      </trkpt>
      <trkpt lat="42.20258816" lon="-8.6445216">
        <ele>198.36000061035156</ele>
        <time>2018-10-10T11:55:16Z</time>
      </trkpt>
      <trkpt lat="42.2026368" lon="-8.64447616">
        <ele>199.6300048828125</ele>
        <time>2018-10-10T11:55:17Z</time>
      </trkpt>
      <trkpt lat="42.20269312" lon="-8.6444224">
        <ele>201.08999633789062</ele>
        <time>2018-10-10T11:55:19Z</time>
      </trkpt>
      <trkpt lat="42.20275456" lon="-8.64437184">
        <ele>201.08999633789062</ele>
        <time>2018-10-10T11:55:21Z</time>
      </trkpt>
      <trkpt lat="42.20284672" lon="-8.64429568">
        <ele>201.08999633789062</ele>
        <time>2018-10-10T11:55:23Z</time>
      </trkpt>
      <trkpt lat="42.20286464" lon="-8.64428352">
        <ele>202.36000061035156</ele>
        <time>2018-10-10T11:55:24Z</time>
      </trkpt>
      <trkpt lat="42.2029184" lon="-8.64424128">
        <ele>202.36000061035156</ele>
        <time>2018-10-10T11:55:26Z</time>
      </trkpt>
      <trkpt lat="42.20298752" lon="-8.64419264">
        <ele>202.36000061035156</ele>
        <time>2018-10-10T11:55:28Z</time>
      </trkpt>
      <trkpt lat="42.2030592" lon="-8.64414336">
        <ele>202.36000061035156</ele>
        <time>2018-10-10T11:55:30Z</time>
      </trkpt>
      <trkpt lat="42.20312832" lon="-8.6441024">
        <ele>202.36000061035156</ele>
        <time>2018-10-10T11:55:32Z</time>
      </trkpt>
      <trkpt lat="42.20320256" lon="-8.6440896">
        <ele>202.36000061035156</ele>
        <time>2018-10-10T11:55:34Z</time>
      </trkpt>
      <trkpt lat="42.2032768" lon="-8.64406976">
        <ele>202.36000061035156</ele>
        <time>2018-10-10T11:55:36Z</time>
      </trkpt>
      <trkpt lat="42.20335104" lon="-8.6440544">
        <ele>202.36000061035156</ele>
        <time>2018-10-10T11:55:38Z</time>
      </trkpt>
      <trkpt lat="42.2034304" lon="-8.64404288">
        <ele>203.72000122070312</ele>
        <time>2018-10-10T11:55:40Z</time>
      </trkpt>
      <trkpt lat="42.20349952" lon="-8.64404032">
        <ele>203.72000122070312</ele>
        <time>2018-10-10T11:55:42Z</time>
      </trkpt>
      <trkpt lat="42.20357632" lon="-8.64404416">
        <ele>205.08999633789062</ele>
        <time>2018-10-10T11:55:44Z</time>
      </trkpt>
      <trkpt lat="42.20364288" lon="-8.64405696">
        <ele>205.08999633789062</ele>
        <time>2018-10-10T11:55:46Z</time>
      </trkpt>
      <trkpt lat="42.20371712" lon="-8.64407168">
        <ele>205.08999633789062</ele>
        <time>2018-10-10T11:55:48Z</time>
      </trkpt>
      <trkpt lat="42.2037888" lon="-8.64408704">
        <ele>205.08999633789062</ele>
        <time>2018-10-10T11:55:50Z</time>
      </trkpt>
      <trkpt lat="42.20386048" lon="-8.64410432">
        <ele>206.27000427246094</ele>
        <time>2018-10-10T11:55:52Z</time>
      </trkpt>
      <trkpt lat="42.2039296" lon="-8.64412992">
        <ele>206.27000427246094</ele>
        <time>2018-10-10T11:55:54Z</time>
      </trkpt>
      <trkpt lat="42.20399872" lon="-8.64415808">
        <ele>206.27000427246094</ele>
        <time>2018-10-10T11:55:56Z</time>
      </trkpt>
      <trkpt lat="42.20406272" lon="-8.64419264">
        <ele>206.27000427246094</ele>
        <time>2018-10-10T11:55:58Z</time>
      </trkpt>
      <trkpt lat="42.20413184" lon="-8.64422336">
        <ele>206.27000427246094</ele>
        <time>2018-10-10T11:56:00Z</time>
      </trkpt>
      <trkpt lat="42.20420096" lon="-8.64425472">
        <ele>207.4499969482422</ele>
        <time>2018-10-10T11:56:02Z</time>
      </trkpt>
      <trkpt lat="42.20426496" lon="-8.64428544">
        <ele>207.4499969482422</ele>
        <time>2018-10-10T11:56:04Z</time>
      </trkpt>
      <trkpt lat="42.20433408" lon="-8.64431488">
        <ele>207.4499969482422</ele>
        <time>2018-10-10T11:56:06Z</time>
      </trkpt>
      <trkpt lat="42.20439808" lon="-8.6443424">
        <ele>208.6300048828125</ele>
        <time>2018-10-10T11:56:08Z</time>
      </trkpt>
      <trkpt lat="42.20446464" lon="-8.64436736">
        <ele>208.6300048828125</ele>
        <time>2018-10-10T11:56:10Z</time>
      </trkpt>
      <trkpt lat="42.20452864" lon="-8.64439104">
        <ele>208.6300048828125</ele>
        <time>2018-10-10T11:56:12Z</time>
      </trkpt>
      <trkpt lat="42.20458496" lon="-8.64441216">
        <ele>208.6300048828125</ele>
        <time>2018-10-10T11:56:14Z</time>
      </trkpt>
      <trkpt lat="42.20464384" lon="-8.644432">
        <ele>209.80999755859375</ele>
        <time>2018-10-10T11:56:16Z</time>
      </trkpt>
      <trkpt lat="42.20470528" lon="-8.64445376">
        <ele>209.80999755859375</ele>
        <time>2018-10-10T11:56:18Z</time>
      </trkpt>
      <trkpt lat="42.20476416" lon="-8.64447616">
        <ele>209.80999755859375</ele>
        <time>2018-10-10T11:56:20Z</time>
      </trkpt>
      <trkpt lat="42.20482304" lon="-8.64449792">
        <ele>209.80999755859375</ele>
        <time>2018-10-10T11:56:22Z</time>
      </trkpt>
      <trkpt lat="42.20487936" lon="-8.6445216">
        <ele>209.80999755859375</ele>
        <time>2018-10-10T11:56:24Z</time>
      </trkpt>
      <trkpt lat="42.20493824" lon="-8.64454464">
        <ele>211.08999633789062</ele>
        <time>2018-10-10T11:56:26Z</time>
      </trkpt>
      <trkpt lat="42.20499456" lon="-8.64456768">
        <ele>211.08999633789062</ele>
        <time>2018-10-10T11:56:28Z</time>
      </trkpt>
      <trkpt lat="42.205056" lon="-8.64459008">
        <ele>211.08999633789062</ele>
        <time>2018-10-10T11:56:30Z</time>
      </trkpt>
      <trkpt lat="42.20511232" lon="-8.6446144">
        <ele>211.08999633789062</ele>
        <time>2018-10-10T11:56:32Z</time>
      </trkpt>
      <trkpt lat="42.20517376" lon="-8.6446368">
        <ele>212.27000427246094</ele>
        <time>2018-10-10T11:56:34Z</time>
      </trkpt>
      <trkpt lat="42.20523776" lon="-8.6446592">
        <ele>212.27000427246094</ele>
        <time>2018-10-10T11:56:36Z</time>
      </trkpt>
      <trkpt lat="42.20530432" lon="-8.64466176">
        <ele>212.27000427246094</ele>
        <time>2018-10-10T11:56:38Z</time>
      </trkpt>
      <trkpt lat="42.20536832" lon="-8.6446592">
        <ele>212.27000427246094</ele>
        <time>2018-10-10T11:56:40Z</time>
      </trkpt>
      <trkpt lat="42.20543232" lon="-8.6446592">
        <ele>212.27000427246094</ele>
        <time>2018-10-10T11:56:42Z</time>
      </trkpt>
      <trkpt lat="42.2054912" lon="-8.6446592">
        <ele>213.4499969482422</ele>
        <time>2018-10-10T11:56:44Z</time>
      </trkpt>
      <trkpt lat="42.20554752" lon="-8.64465024">
        <ele>213.4499969482422</ele>
        <time>2018-10-10T11:56:46Z</time>
      </trkpt>
      <trkpt lat="42.20560384" lon="-8.64463424">
        <ele>213.4499969482422</ele>
        <time>2018-10-10T11:56:48Z</time>
      </trkpt>
      <trkpt lat="42.20566272" lon="-8.64459712">
        <ele>213.4499969482422</ele>
        <time>2018-10-10T11:56:50Z</time>
      </trkpt>
      <trkpt lat="42.20571904" lon="-8.64455808">
        <ele>213.4499969482422</ele>
        <time>2018-10-10T11:56:52Z</time>
      </trkpt>
      <trkpt lat="42.20577536" lon="-8.64451584">
        <ele>213.4499969482422</ele>
        <time>2018-10-10T11:56:54Z</time>
      </trkpt>
      <trkpt lat="42.20583424" lon="-8.64446912">
        <ele>213.4499969482422</ele>
        <time>2018-10-10T11:56:56Z</time>
      </trkpt>
      <trkpt lat="42.205888" lon="-8.64442176">
        <ele>214.80999755859375</ele>
        <time>2018-10-10T11:56:58Z</time>
      </trkpt>
      <trkpt lat="42.20593664" lon="-8.64437312">
        <ele>214.80999755859375</ele>
        <time>2018-10-10T11:57:00Z</time>
      </trkpt>
      <trkpt lat="42.2059904" lon="-8.64432448">
        <ele>216.17999267578125</ele>
        <time>2018-10-10T11:57:02Z</time>
      </trkpt>
      <trkpt lat="42.20604416" lon="-8.64427584">
        <ele>216.17999267578125</ele>
        <time>2018-10-10T11:57:04Z</time>
      </trkpt>
      <trkpt lat="42.20610048" lon="-8.64422912">
        <ele>216.17999267578125</ele>
        <time>2018-10-10T11:57:06Z</time>
      </trkpt>
      <trkpt lat="42.2061568" lon="-8.64418624">
        <ele>216.17999267578125</ele>
        <time>2018-10-10T11:57:08Z</time>
      </trkpt>
      <trkpt lat="42.20621056" lon="-8.64414784">
        <ele>217.36000061035156</ele>
        <time>2018-10-10T11:57:10Z</time>
      </trkpt>
      <trkpt lat="42.20626944" lon="-8.6441152">
        <ele>217.36000061035156</ele>
        <time>2018-10-10T11:57:12Z</time>
      </trkpt>
      <trkpt lat="42.20631808" lon="-8.64408512">
        <ele>217.36000061035156</ele>
        <time>2018-10-10T11:57:14Z</time>
      </trkpt>
      <trkpt lat="42.20638208" lon="-8.64404416">
        <ele>217.36000061035156</ele>
        <time>2018-10-10T11:57:17Z</time>
      </trkpt>
      <trkpt lat="42.20644864" lon="-8.6440032">
        <ele>217.36000061035156</ele>
        <time>2018-10-10T11:57:20Z</time>
      </trkpt>
      <trkpt lat="42.20652288" lon="-8.64396288">
        <ele>217.36000061035156</ele>
        <time>2018-10-10T11:57:23Z</time>
      </trkpt>
      <trkpt lat="42.20658944" lon="-8.64396288">
        <ele>217.36000061035156</ele>
        <time>2018-10-10T11:57:25Z</time>
      </trkpt>
      <trkpt lat="42.20665344" lon="-8.64395264">
        <ele>218.72000122070312</ele>
        <time>2018-10-10T11:57:27Z</time>
      </trkpt>
      <trkpt lat="42.20671488" lon="-8.64393792">
        <ele>218.72000122070312</ele>
        <time>2018-10-10T11:57:29Z</time>
      </trkpt>
      <trkpt lat="42.20677632" lon="-8.64392576">
        <ele>218.72000122070312</ele>
        <time>2018-10-10T11:57:31Z</time>
      </trkpt>
      <trkpt lat="42.20683264" lon="-8.6439168">
        <ele>219.89999389648438</ele>
        <time>2018-10-10T11:57:33Z</time>
      </trkpt>
      <trkpt lat="42.20689408" lon="-8.64391168">
        <ele>219.89999389648438</ele>
        <time>2018-10-10T11:57:35Z</time>
      </trkpt>
      <trkpt lat="42.20695552" lon="-8.64390464">
        <ele>219.89999389648438</ele>
        <time>2018-10-10T11:57:37Z</time>
      </trkpt>
      <trkpt lat="42.20701184" lon="-8.64389696">
        <ele>221.27000427246094</ele>
        <time>2018-10-10T11:57:39Z</time>
      </trkpt>
      <trkpt lat="42.2070656" lon="-8.64388928">
        <ele>221.27000427246094</ele>
        <time>2018-10-10T11:57:41Z</time>
      </trkpt>
      <trkpt lat="42.20711936" lon="-8.64388288">
        <ele>221.27000427246094</ele>
        <time>2018-10-10T11:57:43Z</time>
      </trkpt>
      <trkpt lat="42.20719616" lon="-8.64387136">
        <ele>221.27000427246094</ele>
        <time>2018-10-10T11:57:46Z</time>
      </trkpt>
      <trkpt lat="42.2072448" lon="-8.64386368">
        <ele>221.27000427246094</ele>
        <time>2018-10-10T11:57:48Z</time>
      </trkpt>
      <trkpt lat="42.20729344" lon="-8.64385536">
        <ele>221.27000427246094</ele>
        <time>2018-10-10T11:57:50Z</time>
      </trkpt>
      <trkpt lat="42.20734464" lon="-8.6438464">
        <ele>221.27000427246094</ele>
        <time>2018-10-10T11:57:52Z</time>
      </trkpt>
      <trkpt lat="42.20742144" lon="-8.64383872">
        <ele>222.72000122070312</ele>
        <time>2018-10-10T11:57:55Z</time>
      </trkpt>
      <trkpt lat="42.20747264" lon="-8.64383488">
        <ele>224.17999267578125</ele>
        <time>2018-10-10T11:57:57Z</time>
      </trkpt>
      <trkpt lat="42.2075264" lon="-8.64383104">
        <ele>225.5399932861328</ele>
        <time>2018-10-10T11:57:59Z</time>
      </trkpt>
      <trkpt lat="42.2075776" lon="-8.64382528">
        <ele>225.5399932861328</ele>
        <time>2018-10-10T11:58:01Z</time>
      </trkpt>
      <trkpt lat="42.20764416" lon="-8.6438208">
        <ele>226.72000122070312</ele>
        <time>2018-10-10T11:58:04Z</time>
      </trkpt>
      <trkpt lat="42.20771328" lon="-8.64381952">
        <ele>226.72000122070312</ele>
        <time>2018-10-10T11:58:07Z</time>
      </trkpt>
      <trkpt lat="42.20775936" lon="-8.6438208">
        <ele>226.72000122070312</ele>
        <time>2018-10-10T11:58:09Z</time>
      </trkpt>
      <trkpt lat="42.20782848" lon="-8.64382528">
        <ele>226.72000122070312</ele>
        <time>2018-10-10T11:58:12Z</time>
      </trkpt>
      <trkpt lat="42.20788992" lon="-8.6438304">
        <ele>226.72000122070312</ele>
        <time>2018-10-10T11:58:15Z</time>
      </trkpt>
      <trkpt lat="42.20794624" lon="-8.64383808">
        <ele>226.72000122070312</ele>
        <time>2018-10-10T11:58:18Z</time>
      </trkpt>
      <trkpt lat="42.2080128" lon="-8.6438496">
        <ele>226.72000122070312</ele>
        <time>2018-10-10T11:58:21Z</time>
      </trkpt>
      <trkpt lat="42.20807936" lon="-8.64386432">
        <ele>226.72000122070312</ele>
        <time>2018-10-10T11:58:24Z</time>
      </trkpt>
      <trkpt lat="42.20812288" lon="-8.64387712">
        <ele>227.99000549316406</ele>
        <time>2018-10-10T11:58:26Z</time>
      </trkpt>
      <trkpt lat="42.20820224" lon="-8.64390208">
        <ele>227.99000549316406</ele>
        <time>2018-10-10T11:58:29Z</time>
      </trkpt>
      <trkpt lat="42.20825856" lon="-8.64388864">
        <ele>229.17999267578125</ele>
        <time>2018-10-10T11:58:31Z</time>
      </trkpt>
      <trkpt lat="42.2083328" lon="-8.64386624">
        <ele>229.17999267578125</ele>
        <time>2018-10-10T11:58:33Z</time>
      </trkpt>
      <trkpt lat="42.20840448" lon="-8.6438496">
        <ele>230.36000061035156</ele>
        <time>2018-10-10T11:58:35Z</time>
      </trkpt>
      <trkpt lat="42.20847616" lon="-8.64383808">
        <ele>230.36000061035156</ele>
        <time>2018-10-10T11:58:37Z</time>
      </trkpt>
      <trkpt lat="42.20854528" lon="-8.64383232">
        <ele>230.36000061035156</ele>
        <time>2018-10-10T11:58:39Z</time>
      </trkpt>
      <trkpt lat="42.20860928" lon="-8.64382912">
        <ele>231.6300048828125</ele>
        <time>2018-10-10T11:58:41Z</time>
      </trkpt>
      <trkpt lat="42.20866816" lon="-8.64382912">
        <ele>231.6300048828125</ele>
        <time>2018-10-10T11:58:43Z</time>
      </trkpt>
      <trkpt lat="42.20873728" lon="-8.64383616">
        <ele>231.6300048828125</ele>
        <time>2018-10-10T11:58:46Z</time>
      </trkpt>
      <trkpt lat="42.2087936" lon="-8.64384256">
        <ele>231.6300048828125</ele>
        <time>2018-10-10T11:58:49Z</time>
      </trkpt>
      <trkpt lat="42.20884992" lon="-8.64384448">
        <ele>231.6300048828125</ele>
        <time>2018-10-10T11:58:52Z</time>
      </trkpt>
      <trkpt lat="42.20891904" lon="-8.64384">
        <ele>232.89999389648438</ele>
        <time>2018-10-10T11:58:55Z</time>
      </trkpt>
      <trkpt lat="42.20898048" lon="-8.64383232">
        <ele>232.89999389648438</ele>
        <time>2018-10-10T11:58:58Z</time>
      </trkpt>
      <trkpt lat="42.2090496" lon="-8.64381568">
        <ele>234.08999633789062</ele>
        <time>2018-10-10T11:59:01Z</time>
      </trkpt>
      <trkpt lat="42.2091136" lon="-8.64379392">
        <ele>234.08999633789062</ele>
        <time>2018-10-10T11:59:04Z</time>
      </trkpt>
      <trkpt lat="42.20917248" lon="-8.64376832">
        <ele>234.08999633789062</ele>
        <time>2018-10-10T11:59:07Z</time>
      </trkpt>
      <trkpt lat="42.20922112" lon="-8.64373888">
        <ele>234.08999633789062</ele>
        <time>2018-10-10T11:59:10Z</time>
      </trkpt>
      <trkpt lat="42.20928256" lon="-8.64370432">
        <ele>235.36000061035156</ele>
        <time>2018-10-10T11:59:13Z</time>
      </trkpt>
      <trkpt lat="42.20933888" lon="-8.64366528">
        <ele>235.36000061035156</ele>
        <time>2018-10-10T11:59:16Z</time>
      </trkpt>
      <trkpt lat="42.20940288" lon="-8.6436224">
        <ele>235.36000061035156</ele>
        <time>2018-10-10T11:59:19Z</time>
      </trkpt>
      <trkpt lat="42.209472" lon="-8.64356544">
        <ele>235.36000061035156</ele>
        <time>2018-10-10T11:59:22Z</time>
      </trkpt>
      <trkpt lat="42.20953088" lon="-8.6435072">
        <ele>236.5399932861328</ele>
        <time>2018-10-10T11:59:25Z</time>
      </trkpt>
      <trkpt lat="42.20957952" lon="-8.64345088">
        <ele>236.5399932861328</ele>
        <time>2018-10-10T11:59:28Z</time>
      </trkpt>
      <trkpt lat="42.20964096" lon="-8.64339072">
        <ele>236.5399932861328</ele>
        <time>2018-10-10T11:59:31Z</time>
      </trkpt>
      <trkpt lat="42.20971008" lon="-8.64333248">
        <ele>236.5399932861328</ele>
        <time>2018-10-10T11:59:34Z</time>
      </trkpt>
      <trkpt lat="42.20975872" lon="-8.64328832">
        <ele>236.5399932861328</ele>
        <time>2018-10-10T11:59:37Z</time>
      </trkpt>
      <trkpt lat="42.20982784" lon="-8.64323712">
        <ele>236.5399932861328</ele>
        <time>2018-10-10T11:59:40Z</time>
      </trkpt>
      <trkpt lat="42.20989952" lon="-8.64319424">
        <ele>236.5399932861328</ele>
        <time>2018-10-10T11:59:43Z</time>
      </trkpt>
      <trkpt lat="42.20995072" lon="-8.64316864">
        <ele>237.72000122070312</ele>
        <time>2018-10-10T11:59:45Z</time>
      </trkpt>
      <trkpt lat="42.2100096" lon="-8.64314176">
        <ele>237.72000122070312</ele>
        <time>2018-10-10T11:59:47Z</time>
      </trkpt>
      <trkpt lat="42.21006848" lon="-8.64316544">
        <ele>237.72000122070312</ele>
        <time>2018-10-10T11:59:49Z</time>
      </trkpt>
      <trkpt lat="42.21012992" lon="-8.6431968">
        <ele>237.72000122070312</ele>
        <time>2018-10-10T11:59:51Z</time>
      </trkpt>
      <trkpt lat="42.21018624" lon="-8.64321152">
        <ele>237.72000122070312</ele>
        <time>2018-10-10T11:59:53Z</time>
      </trkpt>
      <trkpt lat="42.21024" lon="-8.64322496">
        <ele>237.72000122070312</ele>
        <time>2018-10-10T11:59:55Z</time>
      </trkpt>
      <trkpt lat="42.21030144" lon="-8.64324544">
        <ele>238.89999389648438</ele>
        <time>2018-10-10T11:59:57Z</time>
      </trkpt>
      <trkpt lat="42.21035776" lon="-8.64326592">
        <ele>238.89999389648438</ele>
        <time>2018-10-10T11:59:59Z</time>
      </trkpt>
      <trkpt lat="42.21041408" lon="-8.64328192">
        <ele>238.89999389648438</ele>
        <time>2018-10-10T12:00:01Z</time>
      </trkpt>
      <trkpt lat="42.21047296" lon="-8.64330176">
        <ele>238.89999389648438</ele>
        <time>2018-10-10T12:00:03Z</time>
      </trkpt>
      <trkpt lat="42.2105344" lon="-8.64332224">
        <ele>240.08999633789062</ele>
        <time>2018-10-10T12:00:05Z</time>
      </trkpt>
      <trkpt lat="42.21059072" lon="-8.64334208">
        <ele>240.08999633789062</ele>
        <time>2018-10-10T12:00:07Z</time>
      </trkpt>
      <trkpt lat="42.21065216" lon="-8.64336192">
        <ele>240.08999633789062</ele>
        <time>2018-10-10T12:00:09Z</time>
      </trkpt>
      <trkpt lat="42.21070848" lon="-8.64338176">
        <ele>240.08999633789062</ele>
        <time>2018-10-10T12:00:11Z</time>
      </trkpt>
      <trkpt lat="42.21076992" lon="-8.64340032">
        <ele>238.89999389648438</ele>
        <time>2018-10-10T12:00:13Z</time>
      </trkpt>
      <trkpt lat="42.21082368" lon="-8.6434176">
        <ele>238.89999389648438</ele>
        <time>2018-10-10T12:00:15Z</time>
      </trkpt>
      <trkpt lat="42.21087744" lon="-8.64343232">
        <ele>240.36000061035156</ele>
        <time>2018-10-10T12:00:17Z</time>
      </trkpt>
      <trkpt lat="42.21093376" lon="-8.6434496">
        <ele>240.36000061035156</ele>
        <time>2018-10-10T12:00:19Z</time>
      </trkpt>
      <trkpt lat="42.21098752" lon="-8.64346688">
        <ele>240.36000061035156</ele>
        <time>2018-10-10T12:00:21Z</time>
      </trkpt>
      <trkpt lat="42.21104128" lon="-8.64348416">
        <ele>240.36000061035156</ele>
        <time>2018-10-10T12:00:23Z</time>
      </trkpt>
      <trkpt lat="42.2110976" lon="-8.64350336">
        <ele>240.36000061035156</ele>
        <time>2018-10-10T12:00:25Z</time>
      </trkpt>
      <trkpt lat="42.21115136" lon="-8.64352128">
        <ele>240.36000061035156</ele>
        <time>2018-10-10T12:00:27Z</time>
      </trkpt>
      <trkpt lat="42.21120512" lon="-8.6435392">
        <ele>240.36000061035156</ele>
        <time>2018-10-10T12:00:29Z</time>
      </trkpt>
      <trkpt lat="42.21126656" lon="-8.64355456">
        <ele>240.36000061035156</ele>
        <time>2018-10-10T12:00:31Z</time>
      </trkpt>
      <trkpt lat="42.21132288" lon="-8.643568">
        <ele>240.36000061035156</ele>
        <time>2018-10-10T12:00:33Z</time>
      </trkpt>
      <trkpt lat="42.21137664" lon="-8.64357952">
        <ele>240.36000061035156</ele>
        <time>2018-10-10T12:00:35Z</time>
      </trkpt>
      <trkpt lat="42.211456" lon="-8.64359296">
        <ele>241.5399932861328</ele>
        <time>2018-10-10T12:00:38Z</time>
      </trkpt>
      <trkpt lat="42.21151232" lon="-8.64360064">
        <ele>242.80999755859375</ele>
        <time>2018-10-10T12:00:40Z</time>
      </trkpt>
      <trkpt lat="42.2115712" lon="-8.64360512">
        <ele>242.80999755859375</ele>
        <time>2018-10-10T12:00:42Z</time>
      </trkpt>
      <trkpt lat="42.21161984" lon="-8.64360896">
        <ele>244.08999633789062</ele>
        <time>2018-10-10T12:00:44Z</time>
      </trkpt>
      <trkpt lat="42.2116736" lon="-8.64360896">
        <ele>244.08999633789062</ele>
        <time>2018-10-10T12:00:46Z</time>
      </trkpt>
      <trkpt lat="42.21172736" lon="-8.64361024">
        <ele>245.4499969482422</ele>
        <time>2018-10-10T12:00:48Z</time>
      </trkpt>
      <trkpt lat="42.21178368" lon="-8.64360448">
        <ele>245.4499969482422</ele>
        <time>2018-10-10T12:00:50Z</time>
      </trkpt>
      <trkpt lat="42.21183744" lon="-8.64359552">
        <ele>245.4499969482422</ele>
        <time>2018-10-10T12:00:52Z</time>
      </trkpt>
      <trkpt lat="42.21189376" lon="-8.64358336">
        <ele>245.4499969482422</ele>
        <time>2018-10-10T12:00:54Z</time>
      </trkpt>
      <trkpt lat="42.21195264" lon="-8.643568">
        <ele>246.80999755859375</ele>
        <time>2018-10-10T12:00:56Z</time>
      </trkpt>
      <trkpt lat="42.21200896" lon="-8.64355008">
        <ele>246.80999755859375</ele>
        <time>2018-10-10T12:00:58Z</time>
      </trkpt>
      <trkpt lat="42.2120704" lon="-8.64352704">
        <ele>246.80999755859375</ele>
        <time>2018-10-10T12:01:00Z</time>
      </trkpt>
      <trkpt lat="42.21212416" lon="-8.64341056">
        <ele>246.80999755859375</ele>
        <time>2018-10-10T12:01:02Z</time>
      </trkpt>
      <trkpt lat="42.2121728" lon="-8.64335552">
        <ele>247.99000549316406</ele>
        <time>2018-10-10T12:01:04Z</time>
      </trkpt>
      <trkpt lat="42.21222656" lon="-8.6433184">
        <ele>247.99000549316406</ele>
        <time>2018-10-10T12:01:06Z</time>
      </trkpt>
      <trkpt lat="42.21228032" lon="-8.64328832">
        <ele>247.99000549316406</ele>
        <time>2018-10-10T12:01:08Z</time>
      </trkpt>
      <trkpt lat="42.21233664" lon="-8.64325888">
        <ele>247.99000549316406</ele>
        <time>2018-10-10T12:01:10Z</time>
      </trkpt>
      <trkpt lat="42.2123904" lon="-8.64322752">
        <ele>247.99000549316406</ele>
        <time>2018-10-10T12:01:12Z</time>
      </trkpt>
      <trkpt lat="42.2124416" lon="-8.64319808">
        <ele>249.17999267578125</ele>
        <time>2018-10-10T12:01:14Z</time>
      </trkpt>
      <trkpt lat="42.2124928" lon="-8.64316736">
        <ele>249.17999267578125</ele>
        <time>2018-10-10T12:01:16Z</time>
      </trkpt>
      <trkpt lat="42.212544" lon="-8.64313792">
        <ele>249.17999267578125</ele>
        <time>2018-10-10T12:01:18Z</time>
      </trkpt>
      <trkpt lat="42.21259264" lon="-8.64311232">
        <ele>249.17999267578125</ele>
        <time>2018-10-10T12:01:20Z</time>
      </trkpt>
      <trkpt lat="42.21264384" lon="-8.6430848">
        <ele>249.17999267578125</ele>
        <time>2018-10-10T12:01:22Z</time>
      </trkpt>
      <trkpt lat="42.21269248" lon="-8.643056">
        <ele>249.17999267578125</ele>
        <time>2018-10-10T12:01:24Z</time>
      </trkpt>
      <trkpt lat="42.21274112" lon="-8.64303232">
        <ele>250.36000061035156</ele>
        <time>2018-10-10T12:01:26Z</time>
      </trkpt>
      <trkpt lat="42.21279232" lon="-8.64300928">
        <ele>250.36000061035156</ele>
        <time>2018-10-10T12:01:28Z</time>
      </trkpt>
      <trkpt lat="42.21284608" lon="-8.64298752">
        <ele>250.36000061035156</ele>
        <time>2018-10-10T12:01:30Z</time>
      </trkpt>
      <trkpt lat="42.21289472" lon="-8.64296448">
        <ele>250.36000061035156</ele>
        <time>2018-10-10T12:01:32Z</time>
      </trkpt>
      <trkpt lat="42.21294336" lon="-8.64294144">
        <ele>250.36000061035156</ele>
        <time>2018-10-10T12:01:34Z</time>
      </trkpt>
      <trkpt lat="42.21300224" lon="-8.64291584">
        <ele>250.36000061035156</ele>
        <time>2018-10-10T12:01:36Z</time>
      </trkpt>
      <trkpt lat="42.21305856" lon="-8.64288704">
        <ele>250.36000061035156</ele>
        <time>2018-10-10T12:01:38Z</time>
      </trkpt>
      <trkpt lat="42.21311488" lon="-8.64285568">
        <ele>250.36000061035156</ele>
        <time>2018-10-10T12:01:40Z</time>
      </trkpt>
      <trkpt lat="42.21317632" lon="-8.64282112">
        <ele>250.36000061035156</ele>
        <time>2018-10-10T12:01:42Z</time>
      </trkpt>
      <trkpt lat="42.2132352" lon="-8.642784">
        <ele>250.36000061035156</ele>
        <time>2018-10-10T12:01:44Z</time>
      </trkpt>
      <trkpt lat="42.21329152" lon="-8.64268672">
        <ele>251.72000122070312</ele>
        <time>2018-10-10T12:01:46Z</time>
      </trkpt>
      <trkpt lat="42.21334528" lon="-8.64260608">
        <ele>251.72000122070312</ele>
        <time>2018-10-10T12:01:48Z</time>
      </trkpt>
      <trkpt lat="42.21339392" lon="-8.64252672">
        <ele>251.72000122070312</ele>
        <time>2018-10-10T12:01:50Z</time>
      </trkpt>
      <trkpt lat="42.21344256" lon="-8.64244096">
        <ele>252.99000549316406</ele>
        <time>2018-10-10T12:01:52Z</time>
      </trkpt>
      <trkpt lat="42.21349376" lon="-8.642352">
        <ele>252.99000549316406</ele>
        <time>2018-10-10T12:01:54Z</time>
      </trkpt>
      <trkpt lat="42.21353984" lon="-8.64226368">
        <ele>252.99000549316406</ele>
        <time>2018-10-10T12:01:56Z</time>
      </trkpt>
      <trkpt lat="42.2135808" lon="-8.64217664">
        <ele>252.99000549316406</ele>
        <time>2018-10-10T12:01:58Z</time>
      </trkpt>
      <trkpt lat="42.21361664" lon="-8.6420896">
        <ele>252.99000549316406</ele>
        <time>2018-10-10T12:02:00Z</time>
      </trkpt>
      <trkpt lat="42.21365248" lon="-8.642">
        <ele>252.99000549316406</ele>
        <time>2018-10-10T12:02:02Z</time>
      </trkpt>
      <trkpt lat="42.21368832" lon="-8.64191616">
        <ele>252.99000549316406</ele>
        <time>2018-10-10T12:02:04Z</time>
      </trkpt>
      <trkpt lat="42.2137216" lon="-8.64184">
        <ele>252.99000549316406</ele>
        <time>2018-10-10T12:02:06Z</time>
      </trkpt>
      <trkpt lat="42.21375744" lon="-8.64177024">
        <ele>254.17999267578125</ele>
        <time>2018-10-10T12:02:08Z</time>
      </trkpt>
      <trkpt lat="42.21379072" lon="-8.64169664">
        <ele>254.17999267578125</ele>
        <time>2018-10-10T12:02:10Z</time>
      </trkpt>
      <trkpt lat="42.213824" lon="-8.64162816">
        <ele>254.17999267578125</ele>
        <time>2018-10-10T12:02:12Z</time>
      </trkpt>
      <trkpt lat="42.21385472" lon="-8.64156032">
        <ele>254.17999267578125</ele>
        <time>2018-10-10T12:02:14Z</time>
      </trkpt>
      <trkpt lat="42.21389056" lon="-8.6414912">
        <ele>255.5399932861328</ele>
        <time>2018-10-10T12:02:16Z</time>
      </trkpt>
      <trkpt lat="42.21391616" lon="-8.64142336">
        <ele>255.5399932861328</ele>
        <time>2018-10-10T12:02:18Z</time>
      </trkpt>
      <trkpt lat="42.21406976" lon="-8.64105152">
        <ele>256.7200012207031</ele>
        <time>2018-10-10T12:02:28Z</time>
      </trkpt>
      <trkpt lat="42.21410304" lon="-8.64096">
        <ele>256.7200012207031</ele>
        <time>2018-10-10T12:02:32Z</time>
      </trkpt>
      <trkpt lat="42.21413888" lon="-8.64086528">
        <ele>256.7200012207031</ele>
        <time>2018-10-10T12:02:35Z</time>
      </trkpt>
      <trkpt lat="42.21416448" lon="-8.64079936">
        <ele>258.0899963378906</ele>
        <time>2018-10-10T12:02:37Z</time>
      </trkpt>
      <trkpt lat="42.21419264" lon="-8.6407328">
        <ele>258.0899963378906</ele>
        <time>2018-10-10T12:02:39Z</time>
      </trkpt>
      <trkpt lat="42.21421824" lon="-8.64063232">
        <ele>258.0899963378906</ele>
        <time>2018-10-10T12:02:42Z</time>
      </trkpt>
      <trkpt lat="42.21423616" lon="-8.64056768">
        <ele>258.0899963378906</ele>
        <time>2018-10-10T12:02:44Z</time>
      </trkpt>
      <trkpt lat="42.2142592" lon="-8.64050368">
        <ele>259.2699890136719</ele>
        <time>2018-10-10T12:02:46Z</time>
      </trkpt>
      <trkpt lat="42.21427968" lon="-8.64043776">
        <ele>259.2699890136719</ele>
        <time>2018-10-10T12:02:48Z</time>
      </trkpt>
      <trkpt lat="42.21430528" lon="-8.6403712">
        <ele>259.2699890136719</ele>
        <time>2018-10-10T12:02:50Z</time>
      </trkpt>
      <trkpt lat="42.21432832" lon="-8.64030656">
        <ele>259.2699890136719</ele>
        <time>2018-10-10T12:02:52Z</time>
      </trkpt>
      <trkpt lat="42.21435648" lon="-8.64024192">
        <ele>259.2699890136719</ele>
        <time>2018-10-10T12:02:54Z</time>
      </trkpt>
      <trkpt lat="42.21438208" lon="-8.64017856">
        <ele>260.45001220703125</ele>
        <time>2018-10-10T12:02:56Z</time>
      </trkpt>
      <trkpt lat="42.21440768" lon="-8.64011648">
        <ele>260.45001220703125</ele>
        <time>2018-10-10T12:02:58Z</time>
      </trkpt>
      <trkpt lat="42.2144512" lon="-8.64005824">
        <ele>260.45001220703125</ele>
        <time>2018-10-10T12:03:00Z</time>
      </trkpt>
      <trkpt lat="42.21449984" lon="-8.64000256">
        <ele>260.45001220703125</ele>
        <time>2018-10-10T12:03:02Z</time>
      </trkpt>
      <trkpt lat="42.21455104" lon="-8.63994496">
        <ele>260.45001220703125</ele>
        <time>2018-10-10T12:03:04Z</time>
      </trkpt>
      <trkpt lat="42.214592" lon="-8.639888">
        <ele>260.45001220703125</ele>
        <time>2018-10-10T12:03:06Z</time>
      </trkpt>
      <trkpt lat="42.21463808" lon="-8.6398304">
        <ele>260.45001220703125</ele>
        <time>2018-10-10T12:03:08Z</time>
      </trkpt>
      <trkpt lat="42.21468672" lon="-8.63977024">
        <ele>260.45001220703125</ele>
        <time>2018-10-10T12:03:10Z</time>
      </trkpt>
      <trkpt lat="42.2147328" lon="-8.63971072">
        <ele>261.7200012207031</ele>
        <time>2018-10-10T12:03:12Z</time>
      </trkpt>
      <trkpt lat="42.21477888" lon="-8.63964928">
        <ele>261.7200012207031</ele>
        <time>2018-10-10T12:03:14Z</time>
      </trkpt>
      <trkpt lat="42.21482752" lon="-8.63959104">
        <ele>261.7200012207031</ele>
        <time>2018-10-10T12:03:16Z</time>
      </trkpt>
      <trkpt lat="42.2148736" lon="-8.63953216">
        <ele>261.7200012207031</ele>
        <time>2018-10-10T12:03:18Z</time>
      </trkpt>
      <trkpt lat="42.2149248" lon="-8.63947328">
        <ele>263.0</ele>
        <time>2018-10-10T12:03:20Z</time>
      </trkpt>
      <trkpt lat="42.21496576" lon="-8.6394176">
        <ele>263.0</ele>
        <time>2018-10-10T12:03:22Z</time>
      </trkpt>
      <trkpt lat="42.21500672" lon="-8.63936512">
        <ele>263.0</ele>
        <time>2018-10-10T12:03:24Z</time>
      </trkpt>
      <trkpt lat="42.21505024" lon="-8.63931456">
        <ele>263.0</ele>
        <time>2018-10-10T12:03:26Z</time>
      </trkpt>
      <trkpt lat="42.2150912" lon="-8.63926784">
        <ele>263.0</ele>
        <time>2018-10-10T12:03:28Z</time>
      </trkpt>
      <trkpt lat="42.2151296" lon="-8.63922048">
        <ele>264.17999267578125</ele>
        <time>2018-10-10T12:03:30Z</time>
      </trkpt>
      <trkpt lat="42.215168" lon="-8.63917184">
        <ele>264.17999267578125</ele>
        <time>2018-10-10T12:03:32Z</time>
      </trkpt>
      <trkpt lat="42.21520896" lon="-8.6391232">
        <ele>264.17999267578125</ele>
        <time>2018-10-10T12:03:34Z</time>
      </trkpt>
      <trkpt lat="42.21523968" lon="-8.63906496">
        <ele>264.17999267578125</ele>
        <time>2018-10-10T12:03:36Z</time>
      </trkpt>
      <trkpt lat="42.21527552" lon="-8.6390048">
        <ele>264.17999267578125</ele>
        <time>2018-10-10T12:03:38Z</time>
      </trkpt>
      <trkpt lat="42.21531648" lon="-8.63894528">
        <ele>263.0</ele>
        <time>2018-10-10T12:03:40Z</time>
      </trkpt>
      <trkpt lat="42.21536256" lon="-8.63888768">
        <ele>263.0</ele>
        <time>2018-10-10T12:03:42Z</time>
      </trkpt>
      <trkpt lat="42.21541632" lon="-8.63883392">
        <ele>263.0</ele>
        <time>2018-10-10T12:03:44Z</time>
      </trkpt>
      <trkpt lat="42.21547008" lon="-8.63877888">
        <ele>263.0</ele>
        <time>2018-10-10T12:03:46Z</time>
      </trkpt>
      <trkpt lat="42.21551104" lon="-8.63872448">
        <ele>263.0</ele>
        <time>2018-10-10T12:03:48Z</time>
      </trkpt>
      <trkpt lat="42.21555968" lon="-8.63866304">
        <ele>263.0</ele>
        <time>2018-10-10T12:03:50Z</time>
      </trkpt>
      <trkpt lat="42.2156032" lon="-8.63860224">
        <ele>263.0</ele>
        <time>2018-10-10T12:03:52Z</time>
      </trkpt>
      <trkpt lat="42.21564928" lon="-8.63853184">
        <ele>263.0</ele>
        <time>2018-10-10T12:03:54Z</time>
      </trkpt>
      <trkpt lat="42.21569024" lon="-8.6384608">
        <ele>263.0</ele>
        <time>2018-10-10T12:03:56Z</time>
      </trkpt>
      <trkpt lat="42.21573376" lon="-8.6383936">
        <ele>264.5400085449219</ele>
        <time>2018-10-10T12:03:58Z</time>
      </trkpt>
      <trkpt lat="42.2157696" lon="-8.63832832">
        <ele>266.0899963378906</ele>
        <time>2018-10-10T12:04:00Z</time>
      </trkpt>
      <trkpt lat="42.21581312" lon="-8.63826688">
        <ele>266.0899963378906</ele>
        <time>2018-10-10T12:04:02Z</time>
      </trkpt>
      <trkpt lat="42.2158592" lon="-8.63820288">
        <ele>266.0899963378906</ele>
        <time>2018-10-10T12:04:04Z</time>
      </trkpt>
      <trkpt lat="42.2158976" lon="-8.63814272">
        <ele>266.0899963378906</ele>
        <time>2018-10-10T12:04:06Z</time>
      </trkpt>
      <trkpt lat="42.21594112" lon="-8.63807872">
        <ele>267.2699890136719</ele>
        <time>2018-10-10T12:04:08Z</time>
      </trkpt>
      <trkpt lat="42.21597952" lon="-8.63802176">
        <ele>267.2699890136719</ele>
        <time>2018-10-10T12:04:10Z</time>
      </trkpt>
      <trkpt lat="42.21603072" lon="-8.6379616">
        <ele>268.45001220703125</ele>
        <time>2018-10-10T12:04:12Z</time>
      </trkpt>
      <trkpt lat="42.21607936" lon="-8.63789824">
        <ele>268.45001220703125</ele>
        <time>2018-10-10T12:04:14Z</time>
      </trkpt>
      <trkpt lat="42.21612544" lon="-8.6378336">
        <ele>269.6300048828125</ele>
        <time>2018-10-10T12:04:16Z</time>
      </trkpt>
      <trkpt lat="42.21617408" lon="-8.63776896">
        <ele>269.6300048828125</ele>
        <time>2018-10-10T12:04:18Z</time>
      </trkpt>
      <trkpt lat="42.21622528" lon="-8.63770304">
        <ele>269.6300048828125</ele>
        <time>2018-10-10T12:04:20Z</time>
      </trkpt>
      <trkpt lat="42.21627392" lon="-8.63763712">
        <ele>269.6300048828125</ele>
        <time>2018-10-10T12:04:22Z</time>
      </trkpt>
      <trkpt lat="42.21632512" lon="-8.63757312">
        <ele>269.6300048828125</ele>
        <time>2018-10-10T12:04:24Z</time>
      </trkpt>
      <trkpt lat="42.21637376" lon="-8.63750848">
        <ele>269.6300048828125</ele>
        <time>2018-10-10T12:04:26Z</time>
      </trkpt>
      <trkpt lat="42.21641984" lon="-8.63743872">
        <ele>269.6300048828125</ele>
        <time>2018-10-10T12:04:28Z</time>
      </trkpt>
      <trkpt lat="42.21645824" lon="-8.63735936">
        <ele>269.6300048828125</ele>
        <time>2018-10-10T12:04:30Z</time>
      </trkpt>
      <trkpt lat="42.21649152" lon="-8.63727936">
        <ele>269.6300048828125</ele>
        <time>2018-10-10T12:04:32Z</time>
      </trkpt>
      <trkpt lat="42.21652224" lon="-8.63719936">
        <ele>269.6300048828125</ele>
        <time>2018-10-10T12:04:34Z</time>
      </trkpt>
      <trkpt lat="42.21654784" lon="-8.63711936">
        <ele>269.6300048828125</ele>
        <time>2018-10-10T12:04:36Z</time>
      </trkpt>
      <trkpt lat="42.21657856" lon="-8.63703744">
        <ele>270.80999755859375</ele>
        <time>2018-10-10T12:04:38Z</time>
      </trkpt>
      <trkpt lat="42.21660672" lon="-8.63695936">
        <ele>270.80999755859375</ele>
        <time>2018-10-10T12:04:40Z</time>
      </trkpt>
      <trkpt lat="42.21663744" lon="-8.63688064">
        <ele>270.80999755859375</ele>
        <time>2018-10-10T12:04:42Z</time>
      </trkpt>
      <trkpt lat="42.21666304" lon="-8.63680576">
        <ele>270.80999755859375</ele>
        <time>2018-10-10T12:04:44Z</time>
      </trkpt>
      <trkpt lat="42.2166912" lon="-8.63673408">
        <ele>272.0</ele>
        <time>2018-10-10T12:04:46Z</time>
      </trkpt>
      <trkpt lat="42.2167168" lon="-8.63665984">
        <ele>272.0</ele>
        <time>2018-10-10T12:04:48Z</time>
      </trkpt>
      <trkpt lat="42.21674752" lon="-8.63659008">
        <ele>272.0</ele>
        <time>2018-10-10T12:04:50Z</time>
      </trkpt>
      <trkpt lat="42.2167808" lon="-8.63651456">
        <ele>272.0</ele>
        <time>2018-10-10T12:04:52Z</time>
      </trkpt>
      <trkpt lat="42.21681152" lon="-8.63644416">
        <ele>272.0</ele>
        <time>2018-10-10T12:04:54Z</time>
      </trkpt>
      <trkpt lat="42.21684224" lon="-8.6363744">
        <ele>273.17999267578125</ele>
        <time>2018-10-10T12:04:56Z</time>
      </trkpt>
      <trkpt lat="42.21687808" lon="-8.63630848">
        <ele>273.17999267578125</ele>
        <time>2018-10-10T12:04:58Z</time>
      </trkpt>
      <trkpt lat="42.2169216" lon="-8.63624576">
        <ele>273.17999267578125</ele>
        <time>2018-10-10T12:05:00Z</time>
      </trkpt>
      <trkpt lat="42.21696768" lon="-8.63618752">
        <ele>273.17999267578125</ele>
        <time>2018-10-10T12:05:02Z</time>
      </trkpt>
      <trkpt lat="42.21701376" lon="-8.6361312">
        <ele>274.45001220703125</ele>
        <time>2018-10-10T12:05:04Z</time>
      </trkpt>
      <trkpt lat="42.21706496" lon="-8.6360864">
        <ele>274.45001220703125</ele>
        <time>2018-10-10T12:05:06Z</time>
      </trkpt>
      <trkpt lat="42.2171136" lon="-8.6360448">
        <ele>274.45001220703125</ele>
        <time>2018-10-10T12:05:08Z</time>
      </trkpt>
      <trkpt lat="42.21716224" lon="-8.63600128">
        <ele>274.45001220703125</ele>
        <time>2018-10-10T12:05:10Z</time>
      </trkpt>
      <trkpt lat="42.21721344" lon="-8.63596032">
        <ele>275.7200012207031</ele>
        <time>2018-10-10T12:05:12Z</time>
      </trkpt>
      <trkpt lat="42.21725952" lon="-8.63592512">
        <ele>275.7200012207031</ele>
        <time>2018-10-10T12:05:14Z</time>
      </trkpt>
      <trkpt lat="42.21730816" lon="-8.635888">
        <ele>275.7200012207031</ele>
        <time>2018-10-10T12:05:16Z</time>
      </trkpt>
      <trkpt lat="42.21736192" lon="-8.63585088">
        <ele>276.8999938964844</ele>
        <time>2018-10-10T12:05:18Z</time>
      </trkpt>
      <trkpt lat="42.21741056" lon="-8.63581376">
        <ele>276.8999938964844</ele>
        <time>2018-10-10T12:05:20Z</time>
      </trkpt>
      <trkpt lat="42.21746176" lon="-8.63577728">
        <ele>276.8999938964844</ele>
        <time>2018-10-10T12:05:22Z</time>
      </trkpt>
      <trkpt lat="42.2175104" lon="-8.63574208">
        <ele>276.8999938964844</ele>
        <time>2018-10-10T12:05:24Z</time>
      </trkpt>
      <trkpt lat="42.21755648" lon="-8.6357088">
        <ele>276.8999938964844</ele>
        <time>2018-10-10T12:05:26Z</time>
      </trkpt>
      <trkpt lat="42.21759744" lon="-8.63567744">
        <ele>276.8999938964844</ele>
        <time>2018-10-10T12:05:28Z</time>
      </trkpt>
      <trkpt lat="42.217664" lon="-8.63562944">
        <ele>276.8999938964844</ele>
        <time>2018-10-10T12:05:31Z</time>
      </trkpt>
      <trkpt lat="42.21769984" lon="-8.63559744">
        <ele>276.8999938964844</ele>
        <time>2018-10-10T12:05:33Z</time>
      </trkpt>
      <trkpt lat="42.2177664" lon="-8.63554688">
        <ele>276.8999938964844</ele>
        <time>2018-10-10T12:05:36Z</time>
      </trkpt>
      <trkpt lat="42.21780736" lon="-8.63551232">
        <ele>276.8999938964844</ele>
        <time>2018-10-10T12:05:38Z</time>
      </trkpt>
      <trkpt lat="42.2178432" lon="-8.63548096">
        <ele>276.8999938964844</ele>
        <time>2018-10-10T12:05:40Z</time>
      </trkpt>
      <trkpt lat="42.21790208" lon="-8.6354304">
        <ele>276.8999938964844</ele>
        <time>2018-10-10T12:05:43Z</time>
      </trkpt>
      <trkpt lat="42.2179456" lon="-8.63539328">
        <ele>276.8999938964844</ele>
        <time>2018-10-10T12:05:45Z</time>
      </trkpt>
      <trkpt lat="42.21800704" lon="-8.63533504">
        <ele>276.8999938964844</ele>
        <time>2018-10-10T12:05:48Z</time>
      </trkpt>
      <trkpt lat="42.21806592" lon="-8.6352704">
        <ele>276.8999938964844</ele>
        <time>2018-10-10T12:05:51Z</time>
      </trkpt>
      <trkpt lat="42.218112" lon="-8.63522176">
        <ele>276.8999938964844</ele>
        <time>2018-10-10T12:05:53Z</time>
      </trkpt>
      <trkpt lat="42.21815808" lon="-8.6351712">
        <ele>276.8999938964844</ele>
        <time>2018-10-10T12:05:55Z</time>
      </trkpt>
      <trkpt lat="42.21820928" lon="-8.63511488">
        <ele>276.8999938964844</ele>
        <time>2018-10-10T12:05:57Z</time>
      </trkpt>
      <trkpt lat="42.21825536" lon="-8.63506048">
        <ele>276.8999938964844</ele>
        <time>2018-10-10T12:05:59Z</time>
      </trkpt>
      <trkpt lat="42.21829632" lon="-8.63492288">
        <ele>276.8999938964844</ele>
        <time>2018-10-10T12:06:01Z</time>
      </trkpt>
      <trkpt lat="42.21831424" lon="-8.63487168">
        <ele>278.0899963378906</ele>
        <time>2018-10-10T12:06:02Z</time>
      </trkpt>
      <trkpt lat="42.21835264" lon="-8.63478016">
        <ele>278.0899963378906</ele>
        <time>2018-10-10T12:06:04Z</time>
      </trkpt>
      <trkpt lat="42.21839104" lon="-8.6346976">
        <ele>279.2699890136719</ele>
        <time>2018-10-10T12:06:06Z</time>
      </trkpt>
      <trkpt lat="42.21843456" lon="-8.6346176">
        <ele>279.2699890136719</ele>
        <time>2018-10-10T12:06:08Z</time>
      </trkpt>
      <trkpt lat="42.2184704" lon="-8.63453504">
        <ele>279.2699890136719</ele>
        <time>2018-10-10T12:06:10Z</time>
      </trkpt>
      <trkpt lat="42.2185088" lon="-8.6344512">
        <ele>279.2699890136719</ele>
        <time>2018-10-10T12:06:12Z</time>
      </trkpt>
      <trkpt lat="42.2185472" lon="-8.6343648">
        <ele>279.2699890136719</ele>
        <time>2018-10-10T12:06:14Z</time>
      </trkpt>
      <trkpt lat="42.2185856" lon="-8.63427456">
        <ele>279.2699890136719</ele>
        <time>2018-10-10T12:06:16Z</time>
      </trkpt>
      <trkpt lat="42.218624" lon="-8.63418368">
        <ele>278.0899963378906</ele>
        <time>2018-10-10T12:06:18Z</time>
      </trkpt>
      <trkpt lat="42.2186624" lon="-8.63409024">
        <ele>278.0899963378906</ele>
        <time>2018-10-10T12:06:20Z</time>
      </trkpt>
      <trkpt lat="42.2187008" lon="-8.63399424">
        <ele>278.0899963378906</ele>
        <time>2018-10-10T12:06:22Z</time>
      </trkpt>
      <trkpt lat="42.21874176" lon="-8.63389184">
        <ele>276.6300048828125</ele>
        <time>2018-10-10T12:06:24Z</time>
      </trkpt>
      <trkpt lat="42.21876224" lon="-8.63384448">
        <ele>276.6300048828125</ele>
        <time>2018-10-10T12:06:25Z</time>
      </trkpt>
      <trkpt lat="42.21880064" lon="-8.63374208">
        <ele>275.2699890136719</ele>
        <time>2018-10-10T12:06:27Z</time>
      </trkpt>
      <trkpt lat="42.2188416" lon="-8.63363456">
        <ele>275.2699890136719</ele>
        <time>2018-10-10T12:06:29Z</time>
      </trkpt>
      <trkpt lat="42.21889024" lon="-8.63352">
        <ele>275.2699890136719</ele>
        <time>2018-10-10T12:06:31Z</time>
      </trkpt>
      <trkpt lat="42.21892864" lon="-8.63346112">
        <ele>275.2699890136719</ele>
        <time>2018-10-10T12:06:32Z</time>
      </trkpt>
      <trkpt lat="42.21896448" lon="-8.63340288">
        <ele>275.2699890136719</ele>
        <time>2018-10-10T12:06:33Z</time>
      </trkpt>
      <trkpt lat="42.21900288" lon="-8.63334912">
        <ele>275.2699890136719</ele>
        <time>2018-10-10T12:06:34Z</time>
      </trkpt>
      <trkpt lat="42.21903616" lon="-8.63330048">
        <ele>275.2699890136719</ele>
        <time>2018-10-10T12:06:35Z</time>
      </trkpt>
      <trkpt lat="42.21906688" lon="-8.63325696">
        <ele>275.2699890136719</ele>
        <time>2018-10-10T12:06:36Z</time>
      </trkpt>
      <trkpt lat="42.21913088" lon="-8.633168">
        <ele>275.2699890136719</ele>
        <time>2018-10-10T12:06:38Z</time>
      </trkpt>
      <trkpt lat="42.21919744" lon="-8.63309568">
        <ele>275.2699890136719</ele>
        <time>2018-10-10T12:06:40Z</time>
      </trkpt>
      <trkpt lat="42.21928448" lon="-8.6330464">
        <ele>275.2699890136719</ele>
        <time>2018-10-10T12:06:42Z</time>
      </trkpt>
      <trkpt lat="42.21942528" lon="-8.6330016">
        <ele>275.2699890136719</ele>
        <time>2018-10-10T12:06:44Z</time>
      </trkpt>
      <trkpt lat="42.21945088" lon="-8.63299648">
        <ele>275.2699890136719</ele>
        <time>2018-10-10T12:06:45Z</time>
      </trkpt>
      <trkpt lat="42.21952768" lon="-8.6329824">
        <ele>274.0899963378906</ele>
        <time>2018-10-10T12:06:47Z</time>
      </trkpt>
      <trkpt lat="42.21961984" lon="-8.63297152">
        <ele>274.0899963378906</ele>
        <time>2018-10-10T12:06:49Z</time>
      </trkpt>
      <trkpt lat="42.21971968" lon="-8.63296512">
        <ele>274.0899963378906</ele>
        <time>2018-10-10T12:06:51Z</time>
      </trkpt>
      <trkpt lat="42.21982208" lon="-8.6329696">
        <ele>274.0899963378906</ele>
        <time>2018-10-10T12:06:53Z</time>
      </trkpt>
      <trkpt lat="42.21987584" lon="-8.63297344">
        <ele>274.0899963378906</ele>
        <time>2018-10-10T12:06:54Z</time>
      </trkpt>
      <trkpt lat="42.2199296" lon="-8.63298048">
        <ele>274.0899963378906</ele>
        <time>2018-10-10T12:06:55Z</time>
      </trkpt>
      <trkpt lat="42.22003968" lon="-8.63300608">
        <ele>274.0899963378906</ele>
        <time>2018-10-10T12:06:57Z</time>
      </trkpt>
      <trkpt lat="42.22009344" lon="-8.63302528">
        <ele>272.80999755859375</ele>
        <time>2018-10-10T12:06:58Z</time>
      </trkpt>
      <trkpt lat="42.2201472" lon="-8.63304896">
        <ele>272.80999755859375</ele>
        <time>2018-10-10T12:06:59Z</time>
      </trkpt>
      <trkpt lat="42.2201984" lon="-8.63307776">
        <ele>272.80999755859375</ele>
        <time>2018-10-10T12:07:00Z</time>
      </trkpt>
      <trkpt lat="42.22025216" lon="-8.63310976">
        <ele>272.80999755859375</ele>
        <time>2018-10-10T12:07:01Z</time>
      </trkpt>
      <trkpt lat="42.22030592" lon="-8.6331456">
        <ele>272.80999755859375</ele>
        <time>2018-10-10T12:07:02Z</time>
      </trkpt>
      <trkpt lat="42.22035968" lon="-8.6331808">
        <ele>272.80999755859375</ele>
        <time>2018-10-10T12:07:03Z</time>
      </trkpt>
      <trkpt lat="42.22041344" lon="-8.63321856">
        <ele>272.80999755859375</ele>
        <time>2018-10-10T12:07:04Z</time>
      </trkpt>
      <trkpt lat="42.2204672" lon="-8.63325568">
        <ele>272.80999755859375</ele>
        <time>2018-10-10T12:07:05Z</time>
      </trkpt>
      <trkpt lat="42.22052096" lon="-8.63329344">
        <ele>272.80999755859375</ele>
        <time>2018-10-10T12:07:06Z</time>
      </trkpt>
      <trkpt lat="42.22057216" lon="-8.63333056">
        <ele>272.80999755859375</ele>
        <time>2018-10-10T12:07:07Z</time>
      </trkpt>
      <trkpt lat="42.22063104" lon="-8.6333664">
        <ele>271.6300048828125</ele>
        <time>2018-10-10T12:07:08Z</time>
      </trkpt>
      <trkpt lat="42.22068736" lon="-8.63340288">
        <ele>271.6300048828125</ele>
        <time>2018-10-10T12:07:09Z</time>
      </trkpt>
      <trkpt lat="42.22073856" lon="-8.63343936">
        <ele>270.45001220703125</ele>
        <time>2018-10-10T12:07:10Z</time>
      </trkpt>
      <trkpt lat="42.22078976" lon="-8.6334752">
        <ele>270.45001220703125</ele>
        <time>2018-10-10T12:07:11Z</time>
      </trkpt>
      <trkpt lat="42.22084352" lon="-8.6335104">
        <ele>269.0899963378906</ele>
        <time>2018-10-10T12:07:12Z</time>
      </trkpt>
      <trkpt lat="42.22089472" lon="-8.63354112">
        <ele>267.8999938964844</ele>
        <time>2018-10-10T12:07:13Z</time>
      </trkpt>
      <trkpt lat="42.22094336" lon="-8.6335584">
        <ele>267.8999938964844</ele>
        <time>2018-10-10T12:07:14Z</time>
      </trkpt>
      <trkpt lat="42.22102016" lon="-8.63347904">
        <ele>265.8999938964844</ele>
        <time>2018-10-10T12:07:16Z</time>
      </trkpt>
      <trkpt lat="42.22102016" lon="-8.63339264">
        <ele>265.8999938964844</ele>
        <time>2018-10-10T12:07:18Z</time>
      </trkpt>
      <trkpt lat="42.22098944" lon="-8.63327424">
        <ele>264.17999267578125</ele>
        <time>2018-10-10T12:07:20Z</time>
      </trkpt>
      <trkpt lat="42.22090496" lon="-8.63322368">
        <ele>264.17999267578125</ele>
        <time>2018-10-10T12:07:21Z</time>
      </trkpt>
      <trkpt lat="42.22073088" lon="-8.63313984">
        <ele>262.45001220703125</ele>
        <time>2018-10-10T12:07:23Z</time>
      </trkpt>
      <trkpt lat="42.220608" lon="-8.63307648">
        <ele>262.45001220703125</ele>
        <time>2018-10-10T12:07:24Z</time>
      </trkpt>
      <trkpt lat="42.2205056" lon="-8.63301632">
        <ele>260.7200012207031</ele>
        <time>2018-10-10T12:07:25Z</time>
      </trkpt>
      <trkpt lat="42.2204288" lon="-8.63296128">
        <ele>260.7200012207031</ele>
        <time>2018-10-10T12:07:26Z</time>
      </trkpt>
      <trkpt lat="42.220352" lon="-8.63289664">
        <ele>260.7200012207031</ele>
        <time>2018-10-10T12:07:27Z</time>
      </trkpt>
      <trkpt lat="42.220288" lon="-8.63283136">
        <ele>259.2699890136719</ele>
        <time>2018-10-10T12:07:28Z</time>
      </trkpt>
      <trkpt lat="42.22022144" lon="-8.63276224">
        <ele>259.2699890136719</ele>
        <time>2018-10-10T12:07:29Z</time>
      </trkpt>
      <trkpt lat="42.22015488" lon="-8.63268864">
        <ele>259.2699890136719</ele>
        <time>2018-10-10T12:07:30Z</time>
      </trkpt>
      <trkpt lat="42.22007808" lon="-8.63260736">
        <ele>258.0899963378906</ele>
        <time>2018-10-10T12:07:31Z</time>
      </trkpt>
      <trkpt lat="42.22000896" lon="-8.63253888">
        <ele>258.0899963378906</ele>
        <time>2018-10-10T12:07:32Z</time>
      </trkpt>
      <trkpt lat="42.21993216" lon="-8.63245888">
        <ele>256.8999938964844</ele>
        <time>2018-10-10T12:07:33Z</time>
      </trkpt>
      <trkpt lat="42.21986304" lon="-8.63238912">
        <ele>256.8999938964844</ele>
        <time>2018-10-10T12:07:34Z</time>
      </trkpt>
      <trkpt lat="42.21979904" lon="-8.63230144">
        <ele>255.4499969482422</ele>
        <time>2018-10-10T12:07:35Z</time>
      </trkpt>
      <trkpt lat="42.2197376" lon="-8.63220864">
        <ele>255.4499969482422</ele>
        <time>2018-10-10T12:07:36Z</time>
      </trkpt>
      <trkpt lat="42.21968384" lon="-8.63211072">
        <ele>253.4499969482422</ele>
        <time>2018-10-10T12:07:37Z</time>
      </trkpt>
      <trkpt lat="42.21963776" lon="-8.63200768">
        <ele>253.4499969482422</ele>
        <time>2018-10-10T12:07:38Z</time>
      </trkpt>
      <trkpt lat="42.21960192" lon="-8.63190464">
        <ele>251.4499969482422</ele>
        <time>2018-10-10T12:07:39Z</time>
      </trkpt>
      <trkpt lat="42.21956608" lon="-8.6318016">
        <ele>251.4499969482422</ele>
        <time>2018-10-10T12:07:40Z</time>
      </trkpt>
      <trkpt lat="42.21954048" lon="-8.6316832">
        <ele>249.72000122070312</ele>
        <time>2018-10-10T12:07:41Z</time>
      </trkpt>
      <trkpt lat="42.21952768" lon="-8.63156224">
        <ele>249.72000122070312</ele>
        <time>2018-10-10T12:07:42Z</time>
      </trkpt>
      <trkpt lat="42.21953536" lon="-8.63144768">
        <ele>249.72000122070312</ele>
        <time>2018-10-10T12:07:43Z</time>
      </trkpt>
      <trkpt lat="42.21955072" lon="-8.63132672">
        <ele>248.17999267578125</ele>
        <time>2018-10-10T12:07:44Z</time>
      </trkpt>
      <trkpt lat="42.21957888" lon="-8.63119872">
        <ele>248.17999267578125</ele>
        <time>2018-10-10T12:07:45Z</time>
      </trkpt>
      <trkpt lat="42.21960448" lon="-8.6310656">
        <ele>246.4499969482422</ele>
        <time>2018-10-10T12:07:46Z</time>
      </trkpt>
      <trkpt lat="42.21961984" lon="-8.63091456">
        <ele>246.4499969482422</ele>
        <time>2018-10-10T12:07:47Z</time>
      </trkpt>
      <trkpt lat="42.21961984" lon="-8.63078528">
        <ele>246.4499969482422</ele>
        <time>2018-10-10T12:07:48Z</time>
      </trkpt>
      <trkpt lat="42.21960704" lon="-8.63065408">
        <ele>244.6300048828125</ele>
        <time>2018-10-10T12:07:49Z</time>
      </trkpt>
      <trkpt lat="42.21958912" lon="-8.63052672">
        <ele>244.6300048828125</ele>
        <time>2018-10-10T12:07:50Z</time>
      </trkpt>
      <trkpt lat="42.21956352" lon="-8.63040064">
        <ele>243.08999633789062</ele>
        <time>2018-10-10T12:07:51Z</time>
      </trkpt>
      <trkpt lat="42.21953536" lon="-8.63027648">
        <ele>243.08999633789062</ele>
        <time>2018-10-10T12:07:52Z</time>
      </trkpt>
      <trkpt lat="42.21950976" lon="-8.63015488">
        <ele>243.08999633789062</ele>
        <time>2018-10-10T12:07:53Z</time>
      </trkpt>
      <trkpt lat="42.21948672" lon="-8.6300352">
        <ele>241.80999755859375</ele>
        <time>2018-10-10T12:07:54Z</time>
      </trkpt>
      <trkpt lat="42.21946624" lon="-8.62991744">
        <ele>241.80999755859375</ele>
        <time>2018-10-10T12:07:55Z</time>
      </trkpt>
      <trkpt lat="42.21945088" lon="-8.62979904">
        <ele>241.80999755859375</ele>
        <time>2018-10-10T12:07:56Z</time>
      </trkpt>
      <trkpt lat="42.21945088" lon="-8.6296832">
        <ele>241.80999755859375</ele>
        <time>2018-10-10T12:07:57Z</time>
      </trkpt>
      <trkpt lat="42.21945088" lon="-8.62957504">
        <ele>240.36000061035156</ele>
        <time>2018-10-10T12:07:58Z</time>
      </trkpt>
      <trkpt lat="42.21945856" lon="-8.629472">
        <ele>240.36000061035156</ele>
        <time>2018-10-10T12:07:59Z</time>
      </trkpt>
      <trkpt lat="42.21946624" lon="-8.62937856">
        <ele>240.36000061035156</ele>
        <time>2018-10-10T12:08:00Z</time>
      </trkpt>
      <trkpt lat="42.2194816" lon="-8.6292832">
        <ele>240.36000061035156</ele>
        <time>2018-10-10T12:08:01Z</time>
      </trkpt>
      <trkpt lat="42.21950976" lon="-8.62920576">
        <ele>240.36000061035156</ele>
        <time>2018-10-10T12:08:02Z</time>
      </trkpt>
      <trkpt lat="42.21953536" lon="-8.62911808">
        <ele>240.36000061035156</ele>
        <time>2018-10-10T12:08:03Z</time>
      </trkpt>
      <trkpt lat="42.21956608" lon="-8.62903488">
        <ele>240.36000061035156</ele>
        <time>2018-10-10T12:08:04Z</time>
      </trkpt>
      <trkpt lat="42.21960192" lon="-8.62895232">
        <ele>240.36000061035156</ele>
        <time>2018-10-10T12:08:05Z</time>
      </trkpt>
      <trkpt lat="42.2196352" lon="-8.62887296">
        <ele>240.36000061035156</ele>
        <time>2018-10-10T12:08:06Z</time>
      </trkpt>
      <trkpt lat="42.21966592" lon="-8.62879872">
        <ele>241.6300048828125</ele>
        <time>2018-10-10T12:08:07Z</time>
      </trkpt>
      <trkpt lat="42.21969664" lon="-8.62872768">
        <ele>242.80999755859375</ele>
        <time>2018-10-10T12:08:08Z</time>
      </trkpt>
      <trkpt lat="42.21972736" lon="-8.62866624">
        <ele>244.17999267578125</ele>
        <time>2018-10-10T12:08:09Z</time>
      </trkpt>
      <trkpt lat="42.21976576" lon="-8.62860864">
        <ele>245.5399932861328</ele>
        <time>2018-10-10T12:08:10Z</time>
      </trkpt>
      <trkpt lat="42.21979648" lon="-8.62856">
        <ele>246.72000122070312</ele>
        <time>2018-10-10T12:08:11Z</time>
      </trkpt>
      <trkpt lat="42.21982208" lon="-8.6285184">
        <ele>247.89999389648438</ele>
        <time>2018-10-10T12:08:12Z</time>
      </trkpt>
      <trkpt lat="42.2198528" lon="-8.62845056">
        <ele>249.08999633789062</ele>
        <time>2018-10-10T12:08:14Z</time>
      </trkpt>
      <trkpt lat="42.21987072" lon="-8.62839232">
        <ele>249.08999633789062</ele>
        <time>2018-10-10T12:08:16Z</time>
      </trkpt>
      <trkpt lat="42.21991424" lon="-8.6283264">
        <ele>250.27000427246094</ele>
        <time>2018-10-10T12:08:20Z</time>
      </trkpt>
      <trkpt lat="42.21993984" lon="-8.62826432">
        <ele>251.5399932861328</ele>
        <time>2018-10-10T12:08:24Z</time>
      </trkpt>
      <trkpt lat="42.21999104" lon="-8.62821888">
        <ele>252.72000122070312</ele>
        <time>2018-10-10T12:08:29Z</time>
      </trkpt>
      <trkpt lat="42.220032" lon="-8.62819392">
        <ele>253.89999389648438</ele>
        <time>2018-10-10T12:08:33Z</time>
      </trkpt>
      <trkpt lat="42.22008064" lon="-8.62820992">
        <ele>255.08999633789062</ele>
        <time>2018-10-10T12:08:38Z</time>
      </trkpt>
      <trkpt lat="42.22012416" lon="-8.62827968">
        <ele>255.08999633789062</ele>
        <time>2018-10-10T12:08:43Z</time>
      </trkpt>
      <trkpt lat="42.22016512" lon="-8.62831808">
        <ele>256.45001220703125</ele>
        <time>2018-10-10T12:08:47Z</time>
      </trkpt>
      <trkpt lat="42.2202112" lon="-8.62836928">
        <ele>256.45001220703125</ele>
        <time>2018-10-10T12:08:51Z</time>
      </trkpt>
      <trkpt lat="42.2202496" lon="-8.6284064">
        <ele>256.45001220703125</ele>
        <time>2018-10-10T12:08:54Z</time>
      </trkpt>
      <trkpt lat="42.22029824" lon="-8.62845632">
        <ele>256.45001220703125</ele>
        <time>2018-10-10T12:08:58Z</time>
      </trkpt>
      <trkpt lat="42.22034176" lon="-8.62849216">
        <ele>256.45001220703125</ele>
        <time>2018-10-10T12:09:01Z</time>
      </trkpt>
      <trkpt lat="42.220416" lon="-8.62851136">
        <ele>257.6300048828125</ele>
        <time>2018-10-10T12:09:06Z</time>
      </trkpt>
      <trkpt lat="42.22047488" lon="-8.62850944">
        <ele>256.0899963378906</ele>
        <time>2018-10-10T12:09:10Z</time>
      </trkpt>
      <trkpt lat="42.2205312" lon="-8.62846016">
        <ele>256.0899963378906</ele>
        <time>2018-10-10T12:09:14Z</time>
      </trkpt>
      <trkpt lat="42.22057216" lon="-8.628416">
        <ele>254.80999755859375</ele>
        <time>2018-10-10T12:09:17Z</time>
      </trkpt>
      <trkpt lat="42.22062336" lon="-8.6283776">
        <ele>254.80999755859375</ele>
        <time>2018-10-10T12:09:20Z</time>
      </trkpt>
      <trkpt lat="42.22067712" lon="-8.62834944">
        <ele>253.4499969482422</ele>
        <time>2018-10-10T12:09:23Z</time>
      </trkpt>
      <trkpt lat="42.22073856" lon="-8.62832256">
        <ele>253.4499969482422</ele>
        <time>2018-10-10T12:09:26Z</time>
      </trkpt>
      <trkpt lat="42.22079488" lon="-8.6282912">
        <ele>253.4499969482422</ele>
        <time>2018-10-10T12:09:29Z</time>
      </trkpt>
      <trkpt lat="42.22085632" lon="-8.62825088">
        <ele>253.4499969482422</ele>
        <time>2018-10-10T12:09:32Z</time>
      </trkpt>
      <trkpt lat="42.22092032" lon="-8.62820928">
        <ele>253.4499969482422</ele>
        <time>2018-10-10T12:09:35Z</time>
      </trkpt>
      <trkpt lat="42.22098944" lon="-8.6281664">
        <ele>253.4499969482422</ele>
        <time>2018-10-10T12:09:38Z</time>
      </trkpt>
      <trkpt lat="42.22104576" lon="-8.62810048">
        <ele>253.4499969482422</ele>
        <time>2018-10-10T12:09:40Z</time>
      </trkpt>
      <trkpt lat="42.22111488" lon="-8.62800192">
        <ele>253.4499969482422</ele>
        <time>2018-10-10T12:09:42Z</time>
      </trkpt>
      <trkpt lat="42.22115328" lon="-8.62795072">
        <ele>254.72000122070312</ele>
        <time>2018-10-10T12:09:43Z</time>
      </trkpt>
      <trkpt lat="42.22119168" lon="-8.62789632">
        <ele>254.72000122070312</ele>
        <time>2018-10-10T12:09:44Z</time>
      </trkpt>
      <trkpt lat="42.22123008" lon="-8.62784384">
        <ele>254.72000122070312</ele>
        <time>2018-10-10T12:09:45Z</time>
      </trkpt>
      <trkpt lat="42.22126848" lon="-8.62779264">
        <ele>254.72000122070312</ele>
        <time>2018-10-10T12:09:46Z</time>
      </trkpt>
      <trkpt lat="42.22130688" lon="-8.62774272">
        <ele>254.72000122070312</ele>
        <time>2018-10-10T12:09:47Z</time>
      </trkpt>
      <trkpt lat="42.22137856" lon="-8.62765376">
        <ele>254.72000122070312</ele>
        <time>2018-10-10T12:09:49Z</time>
      </trkpt>
      <trkpt lat="42.22144" lon="-8.6275808">
        <ele>254.72000122070312</ele>
        <time>2018-10-10T12:09:51Z</time>
      </trkpt>
      <trkpt lat="42.22150144" lon="-8.62751168">
        <ele>255.89999389648438</ele>
        <time>2018-10-10T12:09:53Z</time>
      </trkpt>
      <trkpt lat="42.22156032" lon="-8.62744064">
        <ele>255.89999389648438</ele>
        <time>2018-10-10T12:09:55Z</time>
      </trkpt>
      <trkpt lat="42.22163456" lon="-8.62735744">
        <ele>257.3599853515625</ele>
        <time>2018-10-10T12:09:57Z</time>
      </trkpt>
      <trkpt lat="42.2217216" lon="-8.62726208">
        <ele>257.3599853515625</ele>
        <time>2018-10-10T12:09:59Z</time>
      </trkpt>
      <trkpt lat="42.22177024" lon="-8.6272128">
        <ele>258.7200012207031</ele>
        <time>2018-10-10T12:10:00Z</time>
      </trkpt>
      <trkpt lat="42.22182144" lon="-8.62717696">
        <ele>258.7200012207031</ele>
        <time>2018-10-10T12:10:01Z</time>
      </trkpt>
      <trkpt lat="42.22186752" lon="-8.62713792">
        <ele>258.7200012207031</ele>
        <time>2018-10-10T12:10:02Z</time>
      </trkpt>
      <trkpt lat="42.22190848" lon="-8.62709888">
        <ele>258.7200012207031</ele>
        <time>2018-10-10T12:10:03Z</time>
      </trkpt>
      <trkpt lat="42.22198016" lon="-8.62702848">
        <ele>258.7200012207031</ele>
        <time>2018-10-10T12:10:05Z</time>
      </trkpt>
      <trkpt lat="42.22203904" lon="-8.62696768">
        <ele>258.7200012207031</ele>
        <time>2018-10-10T12:10:07Z</time>
      </trkpt>
      <trkpt lat="42.2220928" lon="-8.6269152">
        <ele>258.7200012207031</ele>
        <time>2018-10-10T12:10:09Z</time>
      </trkpt>
      <trkpt lat="42.22213632" lon="-8.62687296">
        <ele>258.7200012207031</ele>
        <time>2018-10-10T12:10:11Z</time>
      </trkpt>
      <trkpt lat="42.22217216" lon="-8.62683328">
        <ele>258.7200012207031</ele>
        <time>2018-10-10T12:10:13Z</time>
      </trkpt>
      <trkpt lat="42.22221824" lon="-8.6267616">
        <ele>258.7200012207031</ele>
        <time>2018-10-10T12:10:16Z</time>
      </trkpt>
      <trkpt lat="42.22224896" lon="-8.6266976">
        <ele>258.7200012207031</ele>
        <time>2018-10-10T12:10:18Z</time>
      </trkpt>
      <trkpt lat="42.22227456" lon="-8.62661184">
        <ele>258.7200012207031</ele>
        <time>2018-10-10T12:10:20Z</time>
      </trkpt>
      <trkpt lat="42.2222976" lon="-8.62650176">
        <ele>258.7200012207031</ele>
        <time>2018-10-10T12:10:22Z</time>
      </trkpt>
      <trkpt lat="42.22233856" lon="-8.62638656">
        <ele>258.7200012207031</ele>
        <time>2018-10-10T12:10:24Z</time>
      </trkpt>
      <trkpt lat="42.22236928" lon="-8.62633984">
        <ele>258.7200012207031</ele>
        <time>2018-10-10T12:10:25Z</time>
      </trkpt>
      <trkpt lat="42.2224512" lon="-8.626272">
        <ele>260.0</ele>
        <time>2018-10-10T12:10:27Z</time>
      </trkpt>
      <trkpt lat="42.22249216" lon="-8.6262464">
        <ele>260.0</ele>
        <time>2018-10-10T12:10:28Z</time>
      </trkpt>
      <trkpt lat="42.22256896" lon="-8.62621312">
        <ele>260.0</ele>
        <time>2018-10-10T12:10:30Z</time>
      </trkpt>
      <trkpt lat="42.22263808" lon="-8.6262016">
        <ele>260.0</ele>
        <time>2018-10-10T12:10:32Z</time>
      </trkpt>
      <trkpt lat="42.22269696" lon="-8.6262016">
        <ele>260.0</ele>
        <time>2018-10-10T12:10:34Z</time>
      </trkpt>
      <trkpt lat="42.22275584" lon="-8.62620352">
        <ele>258.7200012207031</ele>
        <time>2018-10-10T12:10:36Z</time>
      </trkpt>
      <trkpt lat="42.2228096" lon="-8.62620544">
        <ele>258.7200012207031</ele>
        <time>2018-10-10T12:10:38Z</time>
      </trkpt>
      <trkpt lat="42.22285568" lon="-8.6262016">
        <ele>260.0899963378906</ele>
        <time>2018-10-10T12:10:40Z</time>
      </trkpt>
      <trkpt lat="42.22292736" lon="-8.62617408">
        <ele>261.3599853515625</ele>
        <time>2018-10-10T12:10:43Z</time>
      </trkpt>
      <trkpt lat="42.22297344" lon="-8.62615104">
        <ele>261.3599853515625</ele>
        <time>2018-10-10T12:10:45Z</time>
      </trkpt>
      <trkpt lat="42.22301952" lon="-8.62612608">
        <ele>261.3599853515625</ele>
        <time>2018-10-10T12:10:48Z</time>
      </trkpt>
      <trkpt lat="42.22306816" lon="-8.62609408">
        <ele>261.3599853515625</ele>
        <time>2018-10-10T12:10:51Z</time>
      </trkpt>
      <trkpt lat="42.22312192" lon="-8.62603072">
        <ele>261.3599853515625</ele>
        <time>2018-10-10T12:10:54Z</time>
      </trkpt>
      <trkpt lat="42.22316032" lon="-8.62598912">
        <ele>261.3599853515625</ele>
        <time>2018-10-10T12:10:56Z</time>
      </trkpt>
      <trkpt lat="42.22319872" lon="-8.62593664">
        <ele>261.3599853515625</ele>
        <time>2018-10-10T12:10:59Z</time>
      </trkpt>
      <trkpt lat="42.223232" lon="-8.62589632">
        <ele>259.8999938964844</ele>
        <time>2018-10-10T12:11:02Z</time>
      </trkpt>
      <trkpt lat="42.22327808" lon="-8.62584512">
        <ele>258.5400085449219</ele>
        <time>2018-10-10T12:11:07Z</time>
      </trkpt>
      <trkpt lat="42.22332672" lon="-8.62580096">
        <ele>258.5400085449219</ele>
        <time>2018-10-10T12:11:11Z</time>
      </trkpt>
      <trkpt lat="42.2233728" lon="-8.62577152">
        <ele>257.3599853515625</ele>
        <time>2018-10-10T12:11:14Z</time>
      </trkpt>
      <trkpt lat="42.223424" lon="-8.62574016">
        <ele>257.3599853515625</ele>
        <time>2018-10-10T12:11:17Z</time>
      </trkpt>
      <trkpt lat="42.22349056" lon="-8.62570496">
        <ele>257.3599853515625</ele>
        <time>2018-10-10T12:11:20Z</time>
      </trkpt>
      <trkpt lat="42.22354432" lon="-8.62568064">
        <ele>256.17999267578125</ele>
        <time>2018-10-10T12:11:22Z</time>
      </trkpt>
      <trkpt lat="42.2236032" lon="-8.6256544">
        <ele>256.17999267578125</ele>
        <time>2018-10-10T12:11:24Z</time>
      </trkpt>
      <trkpt lat="42.2236672" lon="-8.6256256">
        <ele>256.17999267578125</ele>
        <time>2018-10-10T12:11:26Z</time>
      </trkpt>
      <trkpt lat="42.2237312" lon="-8.6255904">
        <ele>256.17999267578125</ele>
        <time>2018-10-10T12:11:28Z</time>
      </trkpt>
      <trkpt lat="42.22379264" lon="-8.62555328">
        <ele>254.72000122070312</ele>
        <time>2018-10-10T12:11:30Z</time>
      </trkpt>
      <trkpt lat="42.22385664" lon="-8.62551424">
        <ele>254.72000122070312</ele>
        <time>2018-10-10T12:11:32Z</time>
      </trkpt>
      <trkpt lat="42.2239104" lon="-8.62547712">
        <ele>254.72000122070312</ele>
        <time>2018-10-10T12:11:34Z</time>
      </trkpt>
      <trkpt lat="42.22397184" lon="-8.62543744">
        <ele>254.72000122070312</ele>
        <time>2018-10-10T12:11:36Z</time>
      </trkpt>
      <trkpt lat="42.22404096" lon="-8.62539264">
        <ele>254.72000122070312</ele>
        <time>2018-10-10T12:11:38Z</time>
      </trkpt>
      <trkpt lat="42.22411008" lon="-8.62534784">
        <ele>254.72000122070312</ele>
        <time>2018-10-10T12:11:40Z</time>
      </trkpt>
      <trkpt lat="42.2241664" lon="-8.62531072">
        <ele>254.72000122070312</ele>
        <time>2018-10-10T12:11:42Z</time>
      </trkpt>
      <trkpt lat="42.2242048" lon="-8.62528448">
        <ele>256.3599853515625</ele>
        <time>2018-10-10T12:11:44Z</time>
      </trkpt>
      <trkpt lat="42.22425344" lon="-8.6252576">
        <ele>256.3599853515625</ele>
        <time>2018-10-10T12:11:47Z</time>
      </trkpt>
      <trkpt lat="42.22433024" lon="-8.62528832">
        <ele>257.5400085449219</ele>
        <time>2018-10-10T12:11:56Z</time>
      </trkpt>
      <trkpt lat="42.22441472" lon="-8.62530432">
        <ele>257.5400085449219</ele>
        <time>2018-10-10T12:12:01Z</time>
      </trkpt>
      <trkpt lat="42.22448384" lon="-8.62532544">
        <ele>257.5400085449219</ele>
        <time>2018-10-10T12:12:04Z</time>
      </trkpt>
      <trkpt lat="42.2245376" lon="-8.62533824">
        <ele>258.80999755859375</ele>
        <time>2018-10-10T12:12:06Z</time>
      </trkpt>
      <trkpt lat="42.22459136" lon="-8.62535104">
        <ele>258.80999755859375</ele>
        <time>2018-10-10T12:12:08Z</time>
      </trkpt>
      <trkpt lat="42.22464768" lon="-8.62536128">
        <ele>258.80999755859375</ele>
        <time>2018-10-10T12:12:10Z</time>
      </trkpt>
      <trkpt lat="42.224704" lon="-8.62537216">
        <ele>260.0</ele>
        <time>2018-10-10T12:12:12Z</time>
      </trkpt>
      <trkpt lat="42.22475776" lon="-8.62537856">
        <ele>260.0</ele>
        <time>2018-10-10T12:12:14Z</time>
      </trkpt>
      <trkpt lat="42.22480384" lon="-8.62537856">
        <ele>261.17999267578125</ele>
        <time>2018-10-10T12:12:16Z</time>
      </trkpt>
      <trkpt lat="42.22485248" lon="-8.62537664">
        <ele>261.17999267578125</ele>
        <time>2018-10-10T12:12:18Z</time>
      </trkpt>
      <trkpt lat="42.22492928" lon="-8.62536832">
        <ele>261.17999267578125</ele>
        <time>2018-10-10T12:12:21Z</time>
      </trkpt>
      <trkpt lat="42.22498304" lon="-8.62535936">
        <ele>261.17999267578125</ele>
        <time>2018-10-10T12:12:23Z</time>
      </trkpt>
      <trkpt lat="42.22504448" lon="-8.62535104">
        <ele>261.17999267578125</ele>
        <time>2018-10-10T12:12:25Z</time>
      </trkpt>
      <trkpt lat="42.22510592" lon="-8.625344">
        <ele>261.17999267578125</ele>
        <time>2018-10-10T12:12:27Z</time>
      </trkpt>
      <trkpt lat="42.22515968" lon="-8.6253376">
        <ele>261.17999267578125</ele>
        <time>2018-10-10T12:12:29Z</time>
      </trkpt>
      <trkpt lat="42.2252032" lon="-8.62533312">
        <ele>261.17999267578125</ele>
        <time>2018-10-10T12:12:31Z</time>
      </trkpt>
      <trkpt lat="42.2252544" lon="-8.62532544">
        <ele>261.17999267578125</ele>
        <time>2018-10-10T12:12:33Z</time>
      </trkpt>
      <trkpt lat="42.2253312" lon="-8.6253088">
        <ele>261.17999267578125</ele>
        <time>2018-10-10T12:12:36Z</time>
      </trkpt>
      <trkpt lat="42.22538752" lon="-8.62529472">
        <ele>261.17999267578125</ele>
        <time>2018-10-10T12:12:38Z</time>
      </trkpt>
      <trkpt lat="42.22543616" lon="-8.62527872">
        <ele>261.17999267578125</ele>
        <time>2018-10-10T12:12:40Z</time>
      </trkpt>
      <trkpt lat="42.22552064" lon="-8.62516608">
        <ele>261.17999267578125</ele>
        <time>2018-10-10T12:12:43Z</time>
      </trkpt>
      <trkpt lat="42.22557952" lon="-8.62512512">
        <ele>259.8999938964844</ele>
        <time>2018-10-10T12:12:45Z</time>
      </trkpt>
      <trkpt lat="42.22563584" lon="-8.62508608">
        <ele>259.8999938964844</ele>
        <time>2018-10-10T12:12:47Z</time>
      </trkpt>
      <trkpt lat="42.22569728" lon="-8.62504576">
        <ele>259.8999938964844</ele>
        <time>2018-10-10T12:12:49Z</time>
      </trkpt>
      <trkpt lat="42.22575872" lon="-8.6249952">
        <ele>259.8999938964844</ele>
        <time>2018-10-10T12:12:51Z</time>
      </trkpt>
      <trkpt lat="42.2258176" lon="-8.62493824">
        <ele>259.8999938964844</ele>
        <time>2018-10-10T12:12:53Z</time>
      </trkpt>
      <trkpt lat="42.22587904" lon="-8.62488">
        <ele>259.8999938964844</ele>
        <time>2018-10-10T12:12:55Z</time>
      </trkpt>
      <trkpt lat="42.2259456" lon="-8.62481664">
        <ele>259.8999938964844</ele>
        <time>2018-10-10T12:12:57Z</time>
      </trkpt>
      <trkpt lat="42.2260096" lon="-8.62474816">
        <ele>259.8999938964844</ele>
        <time>2018-10-10T12:12:59Z</time>
      </trkpt>
      <trkpt lat="42.22605824" lon="-8.624672">
        <ele>259.8999938964844</ele>
        <time>2018-10-10T12:13:01Z</time>
      </trkpt>
      <trkpt lat="42.22611712" lon="-8.62460736">
        <ele>259.8999938964844</ele>
        <time>2018-10-10T12:13:03Z</time>
      </trkpt>
      <trkpt lat="42.226176" lon="-8.62456768">
        <ele>261.0899963378906</ele>
        <time>2018-10-10T12:13:05Z</time>
      </trkpt>
      <trkpt lat="42.22623488" lon="-8.6245472">
        <ele>261.0899963378906</ele>
        <time>2018-10-10T12:13:07Z</time>
      </trkpt>
      <trkpt lat="42.22628352" lon="-8.62453952">
        <ele>261.0899963378906</ele>
        <time>2018-10-10T12:13:09Z</time>
      </trkpt>
      <trkpt lat="42.22633728" lon="-8.62453568">
        <ele>261.0899963378906</ele>
        <time>2018-10-10T12:13:11Z</time>
      </trkpt>
      <trkpt lat="42.22639104" lon="-8.6245344">
        <ele>261.0899963378906</ele>
        <time>2018-10-10T12:13:13Z</time>
      </trkpt>
      <trkpt lat="42.22644736" lon="-8.62452992">
        <ele>261.0899963378906</ele>
        <time>2018-10-10T12:13:15Z</time>
      </trkpt>
      <trkpt lat="42.22650624" lon="-8.62452096">
        <ele>261.0899963378906</ele>
        <time>2018-10-10T12:13:17Z</time>
      </trkpt>
      <trkpt lat="42.22656256" lon="-8.624512">
        <ele>261.0899963378906</ele>
        <time>2018-10-10T12:13:19Z</time>
      </trkpt>
      <trkpt lat="42.22662656" lon="-8.62449856">
        <ele>261.0899963378906</ele>
        <time>2018-10-10T12:13:21Z</time>
      </trkpt>
      <trkpt lat="42.22669312" lon="-8.62448128">
        <ele>261.0899963378906</ele>
        <time>2018-10-10T12:13:23Z</time>
      </trkpt>
      <trkpt lat="42.226752" lon="-8.62446208">
        <ele>261.0899963378906</ele>
        <time>2018-10-10T12:13:25Z</time>
      </trkpt>
      <trkpt lat="42.22681856" lon="-8.62444416">
        <ele>261.0899963378906</ele>
        <time>2018-10-10T12:13:27Z</time>
      </trkpt>
      <trkpt lat="42.22688768" lon="-8.62442752">
        <ele>261.0899963378906</ele>
        <time>2018-10-10T12:13:29Z</time>
      </trkpt>
      <trkpt lat="42.22695168" lon="-8.6244128">
        <ele>261.0899963378906</ele>
        <time>2018-10-10T12:13:31Z</time>
      </trkpt>
      <trkpt lat="42.22702336" lon="-8.62439744">
        <ele>261.0899963378906</ele>
        <time>2018-10-10T12:13:33Z</time>
      </trkpt>
      <trkpt lat="42.2270976" lon="-8.6243808">
        <ele>261.0899963378906</ele>
        <time>2018-10-10T12:13:35Z</time>
      </trkpt>
      <trkpt lat="42.22716928" lon="-8.62436672">
        <ele>261.0899963378906</ele>
        <time>2018-10-10T12:13:37Z</time>
      </trkpt>
      <trkpt lat="42.2272384" lon="-8.62435264">
        <ele>259.6300048828125</ele>
        <time>2018-10-10T12:13:39Z</time>
      </trkpt>
      <trkpt lat="42.22730752" lon="-8.6243392">
        <ele>259.6300048828125</ele>
        <time>2018-10-10T12:13:41Z</time>
      </trkpt>
      <trkpt lat="42.22737408" lon="-8.62432384">
        <ele>259.6300048828125</ele>
        <time>2018-10-10T12:13:43Z</time>
      </trkpt>
      <trkpt lat="42.2274432" lon="-8.62430848">
        <ele>259.6300048828125</ele>
        <time>2018-10-10T12:13:45Z</time>
      </trkpt>
      <trkpt lat="42.22750208" lon="-8.62429632">
        <ele>259.6300048828125</ele>
        <time>2018-10-10T12:13:47Z</time>
      </trkpt>
      <trkpt lat="42.22754304" lon="-8.6242848">
        <ele>259.6300048828125</ele>
        <time>2018-10-10T12:13:49Z</time>
      </trkpt>
      <trkpt lat="42.22760448" lon="-8.6242656">
        <ele>257.8999938964844</ele>
        <time>2018-10-10T12:13:52Z</time>
      </trkpt>
      <trkpt lat="42.22765312" lon="-8.62419584">
        <ele>257.8999938964844</ele>
        <time>2018-10-10T12:13:55Z</time>
      </trkpt>
      <trkpt lat="42.2276736" lon="-8.62414656">
        <ele>257.8999938964844</ele>
        <time>2018-10-10T12:13:59Z</time>
      </trkpt>
      <trkpt lat="42.22771456" lon="-8.62404992">
        <ele>257.8999938964844</ele>
        <time>2018-10-10T12:14:06Z</time>
      </trkpt>
      <trkpt lat="42.227776" lon="-8.62390144">
        <ele>257.8999938964844</ele>
        <time>2018-10-10T12:14:19Z</time>
      </trkpt>
      <trkpt lat="42.22779392" lon="-8.6237792">
        <ele>257.8999938964844</ele>
        <time>2018-10-10T12:14:23Z</time>
      </trkpt>
      <trkpt lat="42.22779904" lon="-8.62373056">
        <ele>257.8999938964844</ele>
        <time>2018-10-10T12:14:26Z</time>
      </trkpt>
      <trkpt lat="42.22776832" lon="-8.6239168">
        <ele>259.2699890136719</ele>
        <time>2018-10-10T12:14:40Z</time>
      </trkpt>
      <trkpt lat="42.22770688" lon="-8.62403648">
        <ele>259.2699890136719</ele>
        <time>2018-10-10T12:14:44Z</time>
      </trkpt>
      <trkpt lat="42.22765824" lon="-8.62410432">
        <ele>259.2699890136719</ele>
        <time>2018-10-10T12:14:46Z</time>
      </trkpt>
      <trkpt lat="42.22760448" lon="-8.62416064">
        <ele>259.2699890136719</ele>
        <time>2018-10-10T12:14:48Z</time>
      </trkpt>
      <trkpt lat="42.2275456" lon="-8.62420288">
        <ele>259.2699890136719</ele>
        <time>2018-10-10T12:14:50Z</time>
      </trkpt>
      <trkpt lat="42.22745088" lon="-8.62424768">
        <ele>260.7200012207031</ele>
        <time>2018-10-10T12:14:53Z</time>
      </trkpt>
      <trkpt lat="42.2273792" lon="-8.62427264">
        <ele>260.7200012207031</ele>
        <time>2018-10-10T12:14:55Z</time>
      </trkpt>
      <trkpt lat="42.22730752" lon="-8.62429312">
        <ele>260.7200012207031</ele>
        <time>2018-10-10T12:14:57Z</time>
      </trkpt>
      <trkpt lat="42.22723072" lon="-8.62431232">
        <ele>262.0</ele>
        <time>2018-10-10T12:14:59Z</time>
      </trkpt>
      <trkpt lat="42.2271616" lon="-8.62433152">
        <ele>262.0</ele>
        <time>2018-10-10T12:15:01Z</time>
      </trkpt>
      <trkpt lat="42.2270976" lon="-8.6243456">
        <ele>262.0</ele>
        <time>2018-10-10T12:15:03Z</time>
      </trkpt>
      <trkpt lat="42.22703616" lon="-8.6243552">
        <ele>262.0</ele>
        <time>2018-10-10T12:15:05Z</time>
      </trkpt>
      <trkpt lat="42.22697728" lon="-8.62436608">
        <ele>257.3599853515625</ele>
        <time>2018-10-10T12:15:07Z</time>
      </trkpt>
      <trkpt lat="42.2269184" lon="-8.62437696">
        <ele>254.80999755859375</ele>
        <time>2018-10-10T12:15:09Z</time>
      </trkpt>
      <trkpt lat="42.22685952" lon="-8.6243904">
        <ele>253.36000061035156</ele>
        <time>2018-10-10T12:15:11Z</time>
      </trkpt>
      <trkpt lat="42.2268032" lon="-8.6244032">
        <ele>253.36000061035156</ele>
        <time>2018-10-10T12:15:13Z</time>
      </trkpt>
      <trkpt lat="42.22674688" lon="-8.62441152">
        <ele>253.36000061035156</ele>
        <time>2018-10-10T12:15:15Z</time>
      </trkpt>
      <trkpt lat="42.22669312" lon="-8.62442048">
        <ele>252.08999633789062</ele>
        <time>2018-10-10T12:15:17Z</time>
      </trkpt>
      <trkpt lat="42.22663424" lon="-8.6244288">
        <ele>250.6300048828125</ele>
        <time>2018-10-10T12:15:19Z</time>
      </trkpt>
      <trkpt lat="42.22656256" lon="-8.62444288">
        <ele>250.6300048828125</ele>
        <time>2018-10-10T12:15:22Z</time>
      </trkpt>
      <trkpt lat="42.22650624" lon="-8.62445824">
        <ele>250.6300048828125</ele>
        <time>2018-10-10T12:15:25Z</time>
      </trkpt>
      <trkpt lat="42.22646272" lon="-8.62434688">
        <ele>249.4499969482422</ele>
        <time>2018-10-10T12:15:39Z</time>
      </trkpt>
      <trkpt lat="42.22644736" lon="-8.62422656">
        <ele>249.4499969482422</ele>
        <time>2018-10-10T12:15:50Z</time>
      </trkpt>
      <trkpt lat="42.22640896" lon="-8.62414464">
        <ele>249.4499969482422</ele>
        <time>2018-10-10T12:15:58Z</time>
      </trkpt>
      <trkpt lat="42.22637824" lon="-8.6240608">
        <ele>249.4499969482422</ele>
        <time>2018-10-10T12:16:05Z</time>
      </trkpt>
      <trkpt lat="42.22635776" lon="-8.62399936">
        <ele>249.4499969482422</ele>
        <time>2018-10-10T12:16:10Z</time>
      </trkpt>
      <trkpt lat="42.2263424" lon="-8.6239264">
        <ele>249.4499969482422</ele>
        <time>2018-10-10T12:16:13Z</time>
      </trkpt>
      <trkpt lat="42.22635264" lon="-8.6238368">
        <ele>249.4499969482422</ele>
        <time>2018-10-10T12:16:16Z</time>
      </trkpt>
      <trkpt lat="42.22638592" lon="-8.62379712">
        <ele>249.4499969482422</ele>
        <time>2018-10-10T12:16:19Z</time>
      </trkpt>
      <trkpt lat="42.22645504" lon="-8.62380288">
        <ele>249.4499969482422</ele>
        <time>2018-10-10T12:16:22Z</time>
      </trkpt>
      <trkpt lat="42.22651392" lon="-8.62381376">
        <ele>249.4499969482422</ele>
        <time>2018-10-10T12:16:24Z</time>
      </trkpt>
      <trkpt lat="42.2265728" lon="-8.6238272">
        <ele>249.4499969482422</ele>
        <time>2018-10-10T12:16:26Z</time>
      </trkpt>
      <trkpt lat="42.22663168" lon="-8.62384704">
        <ele>249.4499969482422</ele>
        <time>2018-10-10T12:16:28Z</time>
      </trkpt>
      <trkpt lat="42.22669312" lon="-8.623872">
        <ele>249.4499969482422</ele>
        <time>2018-10-10T12:16:30Z</time>
      </trkpt>
      <trkpt lat="42.22674944" lon="-8.623904">
        <ele>249.4499969482422</ele>
        <time>2018-10-10T12:16:32Z</time>
      </trkpt>
      <trkpt lat="42.22681088" lon="-8.62393792">
        <ele>250.6300048828125</ele>
        <time>2018-10-10T12:16:34Z</time>
      </trkpt>
      <trkpt lat="42.22687232" lon="-8.62396416">
        <ele>250.6300048828125</ele>
        <time>2018-10-10T12:16:36Z</time>
      </trkpt>
      <trkpt lat="42.22693632" lon="-8.62398272">
        <ele>249.4499969482422</ele>
        <time>2018-10-10T12:16:38Z</time>
      </trkpt>
      <trkpt lat="42.22700544" lon="-8.62399744">
        <ele>249.4499969482422</ele>
        <time>2018-10-10T12:16:40Z</time>
      </trkpt>
      <trkpt lat="42.22707456" lon="-8.62401024">
        <ele>249.4499969482422</ele>
        <time>2018-10-10T12:16:42Z</time>
      </trkpt>
      <trkpt lat="42.22713856" lon="-8.6240064">
        <ele>249.4499969482422</ele>
        <time>2018-10-10T12:16:44Z</time>
      </trkpt>
      <trkpt lat="42.2272" lon="-8.6239936">
        <ele>249.4499969482422</ele>
        <time>2018-10-10T12:16:46Z</time>
      </trkpt>
      <trkpt lat="42.22725632" lon="-8.62397312">
        <ele>249.4499969482422</ele>
        <time>2018-10-10T12:16:48Z</time>
      </trkpt>
      <trkpt lat="42.2273152" lon="-8.62394496">
        <ele>249.4499969482422</ele>
        <time>2018-10-10T12:16:50Z</time>
      </trkpt>
      <trkpt lat="42.22737408" lon="-8.62391296">
        <ele>249.4499969482422</ele>
        <time>2018-10-10T12:16:52Z</time>
      </trkpt>
      <trkpt lat="42.22743552" lon="-8.62386048">
        <ele>249.4499969482422</ele>
        <time>2018-10-10T12:16:54Z</time>
      </trkpt>
      <trkpt lat="42.22748928" lon="-8.62379648">
        <ele>249.4499969482422</ele>
        <time>2018-10-10T12:16:57Z</time>
      </trkpt>
      <trkpt lat="42.22752256" lon="-8.62374016">
        <ele>249.4499969482422</ele>
        <time>2018-10-10T12:16:59Z</time>
      </trkpt>
      <trkpt lat="42.22755328" lon="-8.62368">
        <ele>249.4499969482422</ele>
        <time>2018-10-10T12:17:01Z</time>
      </trkpt>
      <trkpt lat="42.227584" lon="-8.62361728">
        <ele>250.80999755859375</ele>
        <time>2018-10-10T12:17:03Z</time>
      </trkpt>
      <trkpt lat="42.22761216" lon="-8.62355776">
        <ele>250.80999755859375</ele>
        <time>2018-10-10T12:17:05Z</time>
      </trkpt>
      <trkpt lat="42.22764288" lon="-8.62350464">
        <ele>250.80999755859375</ele>
        <time>2018-10-10T12:17:07Z</time>
      </trkpt>
      <trkpt lat="42.22767616" lon="-8.62342912">
        <ele>252.27000427246094</ele>
        <time>2018-10-10T12:17:10Z</time>
      </trkpt>
      <trkpt lat="42.22769152" lon="-8.6233824">
        <ele>252.27000427246094</ele>
        <time>2018-10-10T12:17:13Z</time>
      </trkpt>
      <trkpt lat="42.22768384" lon="-8.62337216">
        <ele>252.27000427246094</ele>
        <time>2018-10-10T12:17:18Z</time>
      </trkpt>
      <trkpt lat="42.22772992" lon="-8.6232928">
        <ele>253.4499969482422</ele>
        <time>2018-10-10T12:17:27Z</time>
      </trkpt>
      <trkpt lat="42.22779136" lon="-8.6232032">
        <ele>253.4499969482422</ele>
        <time>2018-10-10T12:17:31Z</time>
      </trkpt>
      <trkpt lat="42.22784" lon="-8.62315392">
        <ele>253.4499969482422</ele>
        <time>2018-10-10T12:17:33Z</time>
      </trkpt>
      <trkpt lat="42.22788608" lon="-8.62310976">
        <ele>253.4499969482422</ele>
        <time>2018-10-10T12:17:35Z</time>
      </trkpt>
      <trkpt lat="42.22792704" lon="-8.62307456">
        <ele>251.0</ele>
        <time>2018-10-10T12:17:37Z</time>
      </trkpt>
      <trkpt lat="42.2279808" lon="-8.62302656">
        <ele>251.0</ele>
        <time>2018-10-10T12:17:40Z</time>
      </trkpt>
      <trkpt lat="42.22804992" lon="-8.62298304">
        <ele>251.0</ele>
        <time>2018-10-10T12:17:43Z</time>
      </trkpt>
      <trkpt lat="42.22809856" lon="-8.62295936">
        <ele>251.0</ele>
        <time>2018-10-10T12:17:45Z</time>
      </trkpt>
      <trkpt lat="42.22814976" lon="-8.62294208">
        <ele>249.80999755859375</ele>
        <time>2018-10-10T12:17:47Z</time>
      </trkpt>
      <trkpt lat="42.22820608" lon="-8.62293056">
        <ele>249.80999755859375</ele>
        <time>2018-10-10T12:17:50Z</time>
      </trkpt>
      <trkpt lat="42.22827264" lon="-8.62291648">
        <ele>249.80999755859375</ele>
        <time>2018-10-10T12:17:53Z</time>
      </trkpt>
      <trkpt lat="42.22832128" lon="-8.62290752">
        <ele>249.80999755859375</ele>
        <time>2018-10-10T12:17:56Z</time>
      </trkpt>
      <trkpt lat="42.2282368" lon="-8.62294208">
        <ele>249.80999755859375</ele>
        <time>2018-10-10T12:18:27Z</time>
      </trkpt>
      <trkpt lat="42.22816768" lon="-8.62296896">
        <ele>249.80999755859375</ele>
        <time>2018-10-10T12:18:31Z</time>
      </trkpt>
      <trkpt lat="42.22811904" lon="-8.62298688">
        <ele>249.80999755859375</ele>
        <time>2018-10-10T12:18:33Z</time>
      </trkpt>
      <trkpt lat="42.22806272" lon="-8.62301184">
        <ele>249.80999755859375</ele>
        <time>2018-10-10T12:18:35Z</time>
      </trkpt>
      <trkpt lat="42.22796288" lon="-8.62308224">
        <ele>249.80999755859375</ele>
        <time>2018-10-10T12:18:38Z</time>
      </trkpt>
      <trkpt lat="42.22788352" lon="-8.62313728">
        <ele>249.80999755859375</ele>
        <time>2018-10-10T12:18:40Z</time>
      </trkpt>
      <trkpt lat="42.22784" lon="-8.62317248">
        <ele>249.80999755859375</ele>
        <time>2018-10-10T12:18:41Z</time>
      </trkpt>
      <trkpt lat="42.22774528" lon="-8.62328448">
        <ele>249.80999755859375</ele>
        <time>2018-10-10T12:18:44Z</time>
      </trkpt>
      <trkpt lat="42.22768384" lon="-8.62331136">
        <ele>249.80999755859375</ele>
        <time>2018-10-10T12:18:46Z</time>
      </trkpt>
      <trkpt lat="42.22761216" lon="-8.6232864">
        <ele>249.80999755859375</ele>
        <time>2018-10-10T12:18:48Z</time>
      </trkpt>
      <trkpt lat="42.22753536" lon="-8.62320832">
        <ele>249.80999755859375</ele>
        <time>2018-10-10T12:18:50Z</time>
      </trkpt>
      <trkpt lat="42.22746624" lon="-8.62309248">
        <ele>249.80999755859375</ele>
        <time>2018-10-10T12:18:52Z</time>
      </trkpt>
      <trkpt lat="42.22744064" lon="-8.62302848">
        <ele>249.80999755859375</ele>
        <time>2018-10-10T12:18:53Z</time>
      </trkpt>
      <trkpt lat="42.22741248" lon="-8.62296512">
        <ele>249.80999755859375</ele>
        <time>2018-10-10T12:18:54Z</time>
      </trkpt>
      <trkpt lat="42.22737408" lon="-8.62284352">
        <ele>249.80999755859375</ele>
        <time>2018-10-10T12:18:56Z</time>
      </trkpt>
      <trkpt lat="42.22735616" lon="-8.62278912">
        <ele>249.80999755859375</ele>
        <time>2018-10-10T12:18:57Z</time>
      </trkpt>
      <trkpt lat="42.22732544" lon="-8.62269376">
        <ele>249.80999755859375</ele>
        <time>2018-10-10T12:18:59Z</time>
      </trkpt>
      <trkpt lat="42.2273024" lon="-8.62261312">
        <ele>249.80999755859375</ele>
        <time>2018-10-10T12:19:01Z</time>
      </trkpt>
      <trkpt lat="42.22728448" lon="-8.62254528">
        <ele>249.80999755859375</ele>
        <time>2018-10-10T12:19:03Z</time>
      </trkpt>
      <trkpt lat="42.22725376" lon="-8.62252032">
        <ele>249.80999755859375</ele>
        <time>2018-10-10T12:19:06Z</time>
      </trkpt>
      <trkpt lat="42.22726912" lon="-8.6226112">
        <ele>249.80999755859375</ele>
        <time>2018-10-10T12:19:10Z</time>
      </trkpt>
      <trkpt lat="42.22730752" lon="-8.6226976">
        <ele>249.80999755859375</ele>
        <time>2018-10-10T12:19:12Z</time>
      </trkpt>
      <trkpt lat="42.22734336" lon="-8.62280384">
        <ele>249.80999755859375</ele>
        <time>2018-10-10T12:19:14Z</time>
      </trkpt>
      <trkpt lat="42.22738688" lon="-8.62292032">
        <ele>249.80999755859375</ele>
        <time>2018-10-10T12:19:16Z</time>
      </trkpt>
      <trkpt lat="42.2274048" lon="-8.6229792">
        <ele>249.80999755859375</ele>
        <time>2018-10-10T12:19:17Z</time>
      </trkpt>
      <trkpt lat="42.2274432" lon="-8.62309248">
        <ele>252.27000427246094</ele>
        <time>2018-10-10T12:19:19Z</time>
      </trkpt>
      <trkpt lat="42.22750208" lon="-8.6231936">
        <ele>252.27000427246094</ele>
        <time>2018-10-10T12:19:21Z</time>
      </trkpt>
      <trkpt lat="42.22753536" lon="-8.62323456">
        <ele>252.27000427246094</ele>
        <time>2018-10-10T12:19:22Z</time>
      </trkpt>
      <trkpt lat="42.22759168" lon="-8.623296">
        <ele>252.27000427246094</ele>
        <time>2018-10-10T12:19:24Z</time>
      </trkpt>
      <trkpt lat="42.22763776" lon="-8.62333888">
        <ele>252.27000427246094</ele>
        <time>2018-10-10T12:19:26Z</time>
      </trkpt>
      <trkpt lat="42.227712" lon="-8.62336256">
        <ele>252.27000427246094</ele>
        <time>2018-10-10T12:19:29Z</time>
      </trkpt>
      <trkpt lat="42.22778624" lon="-8.62335104">
        <ele>253.5399932861328</ele>
        <time>2018-10-10T12:19:32Z</time>
      </trkpt>
      <trkpt lat="42.22784" lon="-8.6233376">
        <ele>253.5399932861328</ele>
        <time>2018-10-10T12:19:34Z</time>
      </trkpt>
      <trkpt lat="42.22789376" lon="-8.62331968">
        <ele>253.5399932861328</ele>
        <time>2018-10-10T12:19:36Z</time>
      </trkpt>
      <trkpt lat="42.22794752" lon="-8.62330048">
        <ele>254.80999755859375</ele>
        <time>2018-10-10T12:19:38Z</time>
      </trkpt>
      <trkpt lat="42.22800128" lon="-8.6232832">
        <ele>254.80999755859375</ele>
        <time>2018-10-10T12:19:40Z</time>
      </trkpt>
      <trkpt lat="42.22805504" lon="-8.62327488">
        <ele>254.80999755859375</ele>
        <time>2018-10-10T12:19:42Z</time>
      </trkpt>
      <trkpt lat="42.22811136" lon="-8.62327552">
        <ele>254.80999755859375</ele>
        <time>2018-10-10T12:19:44Z</time>
      </trkpt>
      <trkpt lat="42.22816768" lon="-8.6232864">
        <ele>254.80999755859375</ele>
        <time>2018-10-10T12:19:46Z</time>
      </trkpt>
      <trkpt lat="42.22822912" lon="-8.62330624">
        <ele>254.80999755859375</ele>
        <time>2018-10-10T12:19:48Z</time>
      </trkpt>
      <trkpt lat="42.22829056" lon="-8.6233312">
        <ele>254.80999755859375</ele>
        <time>2018-10-10T12:19:50Z</time>
      </trkpt>
      <trkpt lat="42.228352" lon="-8.6233632">
        <ele>256.0899963378906</ele>
        <time>2018-10-10T12:19:52Z</time>
      </trkpt>
      <trkpt lat="42.22840832" lon="-8.62339968">
        <ele>256.0899963378906</ele>
        <time>2018-10-10T12:19:54Z</time>
      </trkpt>
      <trkpt lat="42.22846976" lon="-8.62344384">
        <ele>256.0899963378906</ele>
        <time>2018-10-10T12:19:56Z</time>
      </trkpt>
      <trkpt lat="42.22852352" lon="-8.62348544">
        <ele>256.0899963378906</ele>
        <time>2018-10-10T12:19:58Z</time>
      </trkpt>
      <trkpt lat="42.22858496" lon="-8.62352576">
        <ele>256.0899963378906</ele>
        <time>2018-10-10T12:20:00Z</time>
      </trkpt>
      <trkpt lat="42.22864128" lon="-8.62355968">
        <ele>257.2699890136719</ele>
        <time>2018-10-10T12:20:02Z</time>
      </trkpt>
      <trkpt lat="42.22870528" lon="-8.62359168">
        <ele>257.2699890136719</ele>
        <time>2018-10-10T12:20:04Z</time>
      </trkpt>
      <trkpt lat="42.2287744" lon="-8.62361216">
        <ele>257.2699890136719</ele>
        <time>2018-10-10T12:20:06Z</time>
      </trkpt>
      <trkpt lat="42.22884352" lon="-8.62362368">
        <ele>257.2699890136719</ele>
        <time>2018-10-10T12:20:08Z</time>
      </trkpt>
      <trkpt lat="42.22891264" lon="-8.62363264">
        <ele>257.2699890136719</ele>
        <time>2018-10-10T12:20:10Z</time>
      </trkpt>
      <trkpt lat="42.22898176" lon="-8.6236288">
        <ele>257.2699890136719</ele>
        <time>2018-10-10T12:20:12Z</time>
      </trkpt>
      <trkpt lat="42.22904576" lon="-8.62362112">
        <ele>257.2699890136719</ele>
        <time>2018-10-10T12:20:14Z</time>
      </trkpt>
      <trkpt lat="42.22911488" lon="-8.62362176">
        <ele>257.2699890136719</ele>
        <time>2018-10-10T12:20:16Z</time>
      </trkpt>
      <trkpt lat="42.22917632" lon="-8.62363712">
        <ele>257.2699890136719</ele>
        <time>2018-10-10T12:20:18Z</time>
      </trkpt>
      <trkpt lat="42.22923008" lon="-8.62367552">
        <ele>256.0</ele>
        <time>2018-10-10T12:20:20Z</time>
      </trkpt>
      <trkpt lat="42.22927104" lon="-8.62372224">
        <ele>256.0</ele>
        <time>2018-10-10T12:20:22Z</time>
      </trkpt>
      <trkpt lat="42.22930944" lon="-8.6237792">
        <ele>256.0</ele>
        <time>2018-10-10T12:20:24Z</time>
      </trkpt>
      <trkpt lat="42.22934784" lon="-8.62383872">
        <ele>251.6300048828125</ele>
        <time>2018-10-10T12:20:26Z</time>
      </trkpt>
      <trkpt lat="42.2293888" lon="-8.62389056">
        <ele>251.6300048828125</ele>
        <time>2018-10-10T12:20:28Z</time>
      </trkpt>
      <trkpt lat="42.22944256" lon="-8.62393472">
        <ele>251.6300048828125</ele>
        <time>2018-10-10T12:20:30Z</time>
      </trkpt>
      <trkpt lat="42.22951424" lon="-8.6239712">
        <ele>252.80999755859375</ele>
        <time>2018-10-10T12:20:32Z</time>
      </trkpt>
      <trkpt lat="42.22959616" lon="-8.62399168">
        <ele>252.80999755859375</ele>
        <time>2018-10-10T12:20:34Z</time>
      </trkpt>
      <trkpt lat="42.22967552" lon="-8.62399936">
        <ele>252.80999755859375</ele>
        <time>2018-10-10T12:20:36Z</time>
      </trkpt>
      <trkpt lat="42.22974464" lon="-8.6239936">
        <ele>254.27000427246094</ele>
        <time>2018-10-10T12:20:38Z</time>
      </trkpt>
      <trkpt lat="42.22980864" lon="-8.62397952">
        <ele>255.4499969482422</ele>
        <time>2018-10-10T12:20:40Z</time>
      </trkpt>
      <trkpt lat="42.22985728" lon="-8.623968">
        <ele>255.4499969482422</ele>
        <time>2018-10-10T12:20:42Z</time>
      </trkpt>
      <trkpt lat="42.22982912" lon="-8.62398784">
        <ele>255.4499969482422</ele>
        <time>2018-10-10T12:21:10Z</time>
      </trkpt>
      <trkpt lat="42.22973952" lon="-8.62399872">
        <ele>255.4499969482422</ele>
        <time>2018-10-10T12:21:15Z</time>
      </trkpt>
      <trkpt lat="42.22967552" lon="-8.62398976">
        <ele>255.4499969482422</ele>
        <time>2018-10-10T12:21:18Z</time>
      </trkpt>
      <trkpt lat="42.2296064" lon="-8.62398464">
        <ele>255.4499969482422</ele>
        <time>2018-10-10T12:21:21Z</time>
      </trkpt>
      <trkpt lat="42.22956032" lon="-8.62397952">
        <ele>255.4499969482422</ele>
        <time>2018-10-10T12:21:23Z</time>
      </trkpt>
      <trkpt lat="42.22948864" lon="-8.62396352">
        <ele>255.4499969482422</ele>
        <time>2018-10-10T12:21:26Z</time>
      </trkpt>
      <trkpt lat="42.22944768" lon="-8.62395008">
        <ele>255.4499969482422</ele>
        <time>2018-10-10T12:21:28Z</time>
      </trkpt>
      <trkpt lat="42.22939392" lon="-8.62390976">
        <ele>255.4499969482422</ele>
        <time>2018-10-10T12:21:31Z</time>
      </trkpt>
      <trkpt lat="42.22934784" lon="-8.6238496">
        <ele>255.4499969482422</ele>
        <time>2018-10-10T12:21:34Z</time>
      </trkpt>
      <trkpt lat="42.22930176" lon="-8.62377472">
        <ele>255.4499969482422</ele>
        <time>2018-10-10T12:21:37Z</time>
      </trkpt>
      <trkpt lat="42.22926336" lon="-8.62372288">
        <ele>255.4499969482422</ele>
        <time>2018-10-10T12:21:39Z</time>
      </trkpt>
      <trkpt lat="42.22922496" lon="-8.62367936">
        <ele>255.4499969482422</ele>
        <time>2018-10-10T12:21:41Z</time>
      </trkpt>
      <trkpt lat="42.22914816" lon="-8.62364672">
        <ele>255.4499969482422</ele>
        <time>2018-10-10T12:21:44Z</time>
      </trkpt>
      <trkpt lat="42.22909184" lon="-8.6236384">
        <ele>255.4499969482422</ele>
        <time>2018-10-10T12:21:46Z</time>
      </trkpt>
      <trkpt lat="42.22903552" lon="-8.62363264">
        <ele>255.4499969482422</ele>
        <time>2018-10-10T12:21:48Z</time>
      </trkpt>
      <trkpt lat="42.22898176" lon="-8.62363264">
        <ele>255.4499969482422</ele>
        <time>2018-10-10T12:21:50Z</time>
      </trkpt>
      <trkpt lat="42.22893056" lon="-8.6236352">
        <ele>255.4499969482422</ele>
        <time>2018-10-10T12:21:52Z</time>
      </trkpt>
      <trkpt lat="42.2288512" lon="-8.6236288">
        <ele>255.4499969482422</ele>
        <time>2018-10-10T12:21:55Z</time>
      </trkpt>
      <trkpt lat="42.22880256" lon="-8.62362112">
        <ele>254.27000427246094</ele>
        <time>2018-10-10T12:21:57Z</time>
      </trkpt>
      <trkpt lat="42.22875136" lon="-8.62360256">
        <ele>254.27000427246094</ele>
        <time>2018-10-10T12:21:59Z</time>
      </trkpt>
      <trkpt lat="42.22868736" lon="-8.6235712">
        <ele>254.27000427246094</ele>
        <time>2018-10-10T12:22:02Z</time>
      </trkpt>
      <trkpt lat="42.22863104" lon="-8.62353984">
        <ele>254.27000427246094</ele>
        <time>2018-10-10T12:22:05Z</time>
      </trkpt>
      <trkpt lat="42.22856192" lon="-8.62349632">
        <ele>254.27000427246094</ele>
        <time>2018-10-10T12:22:08Z</time>
      </trkpt>
      <trkpt lat="42.22850304" lon="-8.6234624">
        <ele>253.0</ele>
        <time>2018-10-10T12:22:10Z</time>
      </trkpt>
      <trkpt lat="42.22844416" lon="-8.62342848">
        <ele>253.0</ele>
        <time>2018-10-10T12:22:12Z</time>
      </trkpt>
      <trkpt lat="42.22837504" lon="-8.62338624">
        <ele>253.0</ele>
        <time>2018-10-10T12:22:14Z</time>
      </trkpt>
      <trkpt lat="42.2283008" lon="-8.62334528">
        <ele>251.80999755859375</ele>
        <time>2018-10-10T12:22:16Z</time>
      </trkpt>
      <trkpt lat="42.22822656" lon="-8.62332608">
        <ele>247.89999389648438</ele>
        <time>2018-10-10T12:22:18Z</time>
      </trkpt>
      <trkpt lat="42.22814464" lon="-8.62331968">
        <ele>247.89999389648438</ele>
        <time>2018-10-10T12:22:20Z</time>
      </trkpt>
      <trkpt lat="42.22806272" lon="-8.6233184">
        <ele>247.89999389648438</ele>
        <time>2018-10-10T12:22:22Z</time>
      </trkpt>
      <trkpt lat="42.22798592" lon="-8.62332608">
        <ele>247.89999389648438</ele>
        <time>2018-10-10T12:22:24Z</time>
      </trkpt>
      <trkpt lat="42.22789376" lon="-8.6233408">
        <ele>247.89999389648438</ele>
        <time>2018-10-10T12:22:26Z</time>
      </trkpt>
      <trkpt lat="42.22781696" lon="-8.62336064">
        <ele>247.89999389648438</ele>
        <time>2018-10-10T12:22:28Z</time>
      </trkpt>
      <trkpt lat="42.22775552" lon="-8.62339008">
        <ele>246.72000122070312</ele>
        <time>2018-10-10T12:22:30Z</time>
      </trkpt>
      <trkpt lat="42.22771712" lon="-8.62342272">
        <ele>246.72000122070312</ele>
        <time>2018-10-10T12:22:32Z</time>
      </trkpt>
      <trkpt lat="42.22765056" lon="-8.62352832">
        <ele>246.72000122070312</ele>
        <time>2018-10-10T12:22:43Z</time>
      </trkpt>
      <trkpt lat="42.22761216" lon="-8.62361984">
        <ele>247.89999389648438</ele>
        <time>2018-10-10T12:22:46Z</time>
      </trkpt>
      <trkpt lat="42.22756864" lon="-8.62370688">
        <ele>247.89999389648438</ele>
        <time>2018-10-10T12:22:48Z</time>
      </trkpt>
      <trkpt lat="42.22752" lon="-8.62379264">
        <ele>246.27000427246094</ele>
        <time>2018-10-10T12:22:50Z</time>
      </trkpt>
      <trkpt lat="42.22745088" lon="-8.62387456">
        <ele>246.27000427246094</ele>
        <time>2018-10-10T12:22:52Z</time>
      </trkpt>
      <trkpt lat="42.22737152" lon="-8.62394304">
        <ele>246.27000427246094</ele>
        <time>2018-10-10T12:22:54Z</time>
      </trkpt>
      <trkpt lat="42.22724864" lon="-8.62400064">
        <ele>246.27000427246094</ele>
        <time>2018-10-10T12:22:57Z</time>
      </trkpt>
      <trkpt lat="42.22713344" lon="-8.62401856">
        <ele>246.27000427246094</ele>
        <time>2018-10-10T12:23:00Z</time>
      </trkpt>
      <trkpt lat="42.22706176" lon="-8.62401792">
        <ele>246.27000427246094</ele>
        <time>2018-10-10T12:23:02Z</time>
      </trkpt>
      <trkpt lat="42.22700032" lon="-8.6240128">
        <ele>247.80999755859375</ele>
        <time>2018-10-10T12:23:04Z</time>
      </trkpt>
      <trkpt lat="42.22696704" lon="-8.6240128">
        <ele>247.80999755859375</ele>
        <time>2018-10-10T12:23:07Z</time>
      </trkpt>
      <trkpt lat="42.22700544" lon="-8.6240064">
        <ele>247.80999755859375</ele>
        <time>2018-10-10T12:23:30Z</time>
      </trkpt>
      <trkpt lat="42.2270848" lon="-8.6240032">
        <ele>249.08999633789062</ele>
        <time>2018-10-10T12:23:34Z</time>
      </trkpt>
      <trkpt lat="42.22714112" lon="-8.62400256">
        <ele>249.08999633789062</ele>
        <time>2018-10-10T12:23:36Z</time>
      </trkpt>
      <trkpt lat="42.22720768" lon="-8.62399168">
        <ele>249.08999633789062</ele>
        <time>2018-10-10T12:23:38Z</time>
      </trkpt>
      <trkpt lat="42.2272768" lon="-8.62396928">
        <ele>250.36000061035156</ele>
        <time>2018-10-10T12:23:40Z</time>
      </trkpt>
      <trkpt lat="42.22734336" lon="-8.62393856">
        <ele>250.36000061035156</ele>
        <time>2018-10-10T12:23:42Z</time>
      </trkpt>
      <trkpt lat="42.22740992" lon="-8.6238976">
        <ele>250.36000061035156</ele>
        <time>2018-10-10T12:23:44Z</time>
      </trkpt>
      <trkpt lat="42.22746368" lon="-8.62384704">
        <ele>250.36000061035156</ele>
        <time>2018-10-10T12:23:46Z</time>
      </trkpt>
      <trkpt lat="42.22751232" lon="-8.62378304">
        <ele>250.36000061035156</ele>
        <time>2018-10-10T12:23:48Z</time>
      </trkpt>
      <trkpt lat="42.22755072" lon="-8.62370752">
        <ele>249.08999633789062</ele>
        <time>2018-10-10T12:23:50Z</time>
      </trkpt>
      <trkpt lat="42.227584" lon="-8.62362944">
        <ele>249.08999633789062</ele>
        <time>2018-10-10T12:23:52Z</time>
      </trkpt>
      <trkpt lat="42.22761984" lon="-8.62355072">
        <ele>249.08999633789062</ele>
        <time>2018-10-10T12:23:54Z</time>
      </trkpt>
      <trkpt lat="42.22765312" lon="-8.62347712">
        <ele>249.08999633789062</ele>
        <time>2018-10-10T12:23:56Z</time>
      </trkpt>
      <trkpt lat="42.22766592" lon="-8.62340096">
        <ele>249.08999633789062</ele>
        <time>2018-10-10T12:23:58Z</time>
      </trkpt>
      <trkpt lat="42.22764288" lon="-8.6233312">
        <ele>249.08999633789062</ele>
        <time>2018-10-10T12:24:00Z</time>
      </trkpt>
      <trkpt lat="42.22759168" lon="-8.62326912">
        <ele>250.36000061035156</ele>
        <time>2018-10-10T12:24:02Z</time>
      </trkpt>
      <trkpt lat="42.22753024" lon="-8.62319104">
        <ele>250.36000061035156</ele>
        <time>2018-10-10T12:24:04Z</time>
      </trkpt>
      <trkpt lat="42.22747904" lon="-8.62308992">
        <ele>250.36000061035156</ele>
        <time>2018-10-10T12:24:06Z</time>
      </trkpt>
      <trkpt lat="42.22742016" lon="-8.6229344">
        <ele>251.6300048828125</ele>
        <time>2018-10-10T12:24:09Z</time>
      </trkpt>
      <trkpt lat="42.22738688" lon="-8.62283776">
        <ele>251.6300048828125</ele>
        <time>2018-10-10T12:24:11Z</time>
      </trkpt>
      <trkpt lat="42.22736384" lon="-8.62275776">
        <ele>251.6300048828125</ele>
        <time>2018-10-10T12:24:13Z</time>
      </trkpt>
      <trkpt lat="42.2273408" lon="-8.62269184">
        <ele>251.6300048828125</ele>
        <time>2018-10-10T12:24:15Z</time>
      </trkpt>
      <trkpt lat="42.22731776" lon="-8.6226304">
        <ele>252.80999755859375</ele>
        <time>2018-10-10T12:24:17Z</time>
      </trkpt>
      <trkpt lat="42.22728704" lon="-8.62255104">
        <ele>252.80999755859375</ele>
        <time>2018-10-10T12:24:20Z</time>
      </trkpt>
      <trkpt lat="42.22727936" lon="-8.62249024">
        <ele>252.80999755859375</ele>
        <time>2018-10-10T12:24:23Z</time>
      </trkpt>
      <trkpt lat="42.22734336" lon="-8.62247552">
        <ele>254.0</ele>
        <time>2018-10-10T12:24:27Z</time>
      </trkpt>
      <trkpt lat="42.2274176" lon="-8.622464">
        <ele>254.0</ele>
        <time>2018-10-10T12:24:30Z</time>
      </trkpt>
      <trkpt lat="42.22748928" lon="-8.6224288">
        <ele>254.0</ele>
        <time>2018-10-10T12:24:33Z</time>
      </trkpt>
      <trkpt lat="42.2275456" lon="-8.62240384">
        <ele>255.17999267578125</ele>
        <time>2018-10-10T12:24:35Z</time>
      </trkpt>
      <trkpt lat="42.22759936" lon="-8.6223776">
        <ele>255.17999267578125</ele>
        <time>2018-10-10T12:24:37Z</time>
      </trkpt>
      <trkpt lat="42.22765056" lon="-8.62234752">
        <ele>255.17999267578125</ele>
        <time>2018-10-10T12:24:39Z</time>
      </trkpt>
      <trkpt lat="42.22770688" lon="-8.62231552">
        <ele>255.17999267578125</ele>
        <time>2018-10-10T12:24:41Z</time>
      </trkpt>
      <trkpt lat="42.22776064" lon="-8.62228032">
        <ele>253.89999389648438</ele>
        <time>2018-10-10T12:24:43Z</time>
      </trkpt>
      <trkpt lat="42.22781696" lon="-8.6222336">
        <ele>253.89999389648438</ele>
        <time>2018-10-10T12:24:45Z</time>
      </trkpt>
      <trkpt lat="42.22787072" lon="-8.622176">
        <ele>253.89999389648438</ele>
        <time>2018-10-10T12:24:47Z</time>
      </trkpt>
      <trkpt lat="42.22791936" lon="-8.62211008">
        <ele>253.89999389648438</ele>
        <time>2018-10-10T12:24:49Z</time>
      </trkpt>
      <trkpt lat="42.22796544" lon="-8.62203584">
        <ele>253.89999389648438</ele>
        <time>2018-10-10T12:24:51Z</time>
      </trkpt>
      <trkpt lat="42.22801152" lon="-8.62195712">
        <ele>253.89999389648438</ele>
        <time>2018-10-10T12:24:53Z</time>
      </trkpt>
      <trkpt lat="42.2280576" lon="-8.62186688">
        <ele>253.89999389648438</ele>
        <time>2018-10-10T12:24:55Z</time>
      </trkpt>
      <trkpt lat="42.22810368" lon="-8.62177344">
        <ele>252.6300048828125</ele>
        <time>2018-10-10T12:24:57Z</time>
      </trkpt>
      <trkpt lat="42.22815232" lon="-8.62167232">
        <ele>252.6300048828125</ele>
        <time>2018-10-10T12:24:59Z</time>
      </trkpt>
      <trkpt lat="42.2282112" lon="-8.621568">
        <ele>252.6300048828125</ele>
        <time>2018-10-10T12:25:01Z</time>
      </trkpt>
      <trkpt lat="42.22826752" lon="-8.6214592">
        <ele>252.6300048828125</ele>
        <time>2018-10-10T12:25:03Z</time>
      </trkpt>
      <trkpt lat="42.22832384" lon="-8.62134144">
        <ele>252.6300048828125</ele>
        <time>2018-10-10T12:25:05Z</time>
      </trkpt>
      <trkpt lat="42.22835456" lon="-8.62128">
        <ele>251.4499969482422</ele>
        <time>2018-10-10T12:25:06Z</time>
      </trkpt>
      <trkpt lat="42.22838528" lon="-8.62121472">
        <ele>251.4499969482422</ele>
        <time>2018-10-10T12:25:07Z</time>
      </trkpt>
      <trkpt lat="42.228416" lon="-8.62114496">
        <ele>251.4499969482422</ele>
        <time>2018-10-10T12:25:08Z</time>
      </trkpt>
      <trkpt lat="42.22844672" lon="-8.62107072">
        <ele>251.4499969482422</ele>
        <time>2018-10-10T12:25:09Z</time>
      </trkpt>
      <trkpt lat="42.22847744" lon="-8.62099456">
        <ele>250.08999633789062</ele>
        <time>2018-10-10T12:25:10Z</time>
      </trkpt>
      <trkpt lat="42.22850816" lon="-8.6209184">
        <ele>250.08999633789062</ele>
        <time>2018-10-10T12:25:11Z</time>
      </trkpt>
      <trkpt lat="42.22854144" lon="-8.62084096">
        <ele>250.08999633789062</ele>
        <time>2018-10-10T12:25:12Z</time>
      </trkpt>
      <trkpt lat="42.22857216" lon="-8.62076352">
        <ele>248.72000122070312</ele>
        <time>2018-10-10T12:25:13Z</time>
      </trkpt>
      <trkpt lat="42.22861056" lon="-8.62068672">
        <ele>248.72000122070312</ele>
        <time>2018-10-10T12:25:14Z</time>
      </trkpt>
      <trkpt lat="42.22865408" lon="-8.62061312">
        <ele>248.72000122070312</ele>
        <time>2018-10-10T12:25:15Z</time>
      </trkpt>
      <trkpt lat="42.22870272" lon="-8.6205408">
        <ele>248.72000122070312</ele>
        <time>2018-10-10T12:25:16Z</time>
      </trkpt>
      <trkpt lat="42.22883584" lon="-8.620416">
        <ele>248.72000122070312</ele>
        <time>2018-10-10T12:25:18Z</time>
      </trkpt>
      <trkpt lat="42.22893568" lon="-8.62031872">
        <ele>247.5399932861328</ele>
        <time>2018-10-10T12:25:19Z</time>
      </trkpt>
      <trkpt lat="42.22900736" lon="-8.6202336">
        <ele>247.5399932861328</ele>
        <time>2018-10-10T12:25:20Z</time>
      </trkpt>
      <trkpt lat="42.2290688" lon="-8.62015616">
        <ele>247.5399932861328</ele>
        <time>2018-10-10T12:25:21Z</time>
      </trkpt>
      <trkpt lat="42.22913024" lon="-8.62008384">
        <ele>247.5399932861328</ele>
        <time>2018-10-10T12:25:22Z</time>
      </trkpt>
      <trkpt lat="42.229184" lon="-8.62001216">
        <ele>247.5399932861328</ele>
        <time>2018-10-10T12:25:23Z</time>
      </trkpt>
      <trkpt lat="42.22923008" lon="-8.61993344">
        <ele>247.5399932861328</ele>
        <time>2018-10-10T12:25:24Z</time>
      </trkpt>
      <trkpt lat="42.22926336" lon="-8.61984832">
        <ele>247.5399932861328</ele>
        <time>2018-10-10T12:25:25Z</time>
      </trkpt>
      <trkpt lat="42.22928896" lon="-8.61976512">
        <ele>246.27000427246094</ele>
        <time>2018-10-10T12:25:26Z</time>
      </trkpt>
      <trkpt lat="42.22930432" lon="-8.61968064">
        <ele>246.27000427246094</ele>
        <time>2018-10-10T12:25:27Z</time>
      </trkpt>
      <trkpt lat="42.22929408" lon="-8.61958976">
        <ele>244.80999755859375</ele>
        <time>2018-10-10T12:25:28Z</time>
      </trkpt>
      <trkpt lat="42.22930176" lon="-8.6194944">
        <ele>244.80999755859375</ele>
        <time>2018-10-10T12:25:29Z</time>
      </trkpt>
      <trkpt lat="42.22930432" lon="-8.61940928">
        <ele>243.4499969482422</ele>
        <time>2018-10-10T12:25:30Z</time>
      </trkpt>
      <trkpt lat="42.22931712" lon="-8.61932864">
        <ele>243.4499969482422</ele>
        <time>2018-10-10T12:25:31Z</time>
      </trkpt>
      <trkpt lat="42.22932736" lon="-8.61924864">
        <ele>242.27000427246094</ele>
        <time>2018-10-10T12:25:32Z</time>
      </trkpt>
      <trkpt lat="42.22934016" lon="-8.6192064">
        <ele>242.27000427246094</ele>
        <time>2018-10-10T12:25:33Z</time>
      </trkpt>
      <trkpt lat="42.22942464" lon="-8.61902976">
        <ele>240.80999755859375</ele>
        <time>2018-10-10T12:25:35Z</time>
      </trkpt>
      <trkpt lat="42.22947584" lon="-8.61893056">
        <ele>240.80999755859375</ele>
        <time>2018-10-10T12:25:36Z</time>
      </trkpt>
      <trkpt lat="42.22952704" lon="-8.61883904">
        <ele>240.80999755859375</ele>
        <time>2018-10-10T12:25:37Z</time>
      </trkpt>
      <trkpt lat="42.22957568" lon="-8.61875328">
        <ele>239.5399932861328</ele>
        <time>2018-10-10T12:25:38Z</time>
      </trkpt>
      <trkpt lat="42.22962688" lon="-8.61866944">
        <ele>239.5399932861328</ele>
        <time>2018-10-10T12:25:39Z</time>
      </trkpt>
      <trkpt lat="42.22967552" lon="-8.61858112">
        <ele>239.5399932861328</ele>
        <time>2018-10-10T12:25:40Z</time>
      </trkpt>
      <trkpt lat="42.22971648" lon="-8.61848448">
        <ele>239.5399932861328</ele>
        <time>2018-10-10T12:25:41Z</time>
      </trkpt>
      <trkpt lat="42.22976256" lon="-8.61838336">
        <ele>239.5399932861328</ele>
        <time>2018-10-10T12:25:42Z</time>
      </trkpt>
      <trkpt lat="42.22980608" lon="-8.61827264">
        <ele>239.5399932861328</ele>
        <time>2018-10-10T12:25:43Z</time>
      </trkpt>
      <trkpt lat="42.22984192" lon="-8.61815808">
        <ele>238.36000061035156</ele>
        <time>2018-10-10T12:25:44Z</time>
      </trkpt>
      <trkpt lat="42.22987264" lon="-8.61804096">
        <ele>238.36000061035156</ele>
        <time>2018-10-10T12:25:45Z</time>
      </trkpt>
      <trkpt lat="42.2299008" lon="-8.61792256">
        <ele>238.36000061035156</ele>
        <time>2018-10-10T12:25:46Z</time>
      </trkpt>
      <trkpt lat="42.22992384" lon="-8.61780544">
        <ele>238.36000061035156</ele>
        <time>2018-10-10T12:25:47Z</time>
      </trkpt>
      <trkpt lat="42.22993408" lon="-8.61768896">
        <ele>238.36000061035156</ele>
        <time>2018-10-10T12:25:48Z</time>
      </trkpt>
      <trkpt lat="42.2299392" lon="-8.61757632">
        <ele>238.36000061035156</ele>
        <time>2018-10-10T12:25:49Z</time>
      </trkpt>
      <trkpt lat="42.22994176" lon="-8.61746624">
        <ele>238.36000061035156</ele>
        <time>2018-10-10T12:25:50Z</time>
      </trkpt>
      <trkpt lat="42.22994688" lon="-8.61736">
        <ele>238.36000061035156</ele>
        <time>2018-10-10T12:25:51Z</time>
      </trkpt>
      <trkpt lat="42.22994944" lon="-8.61725504">
        <ele>240.0</ele>
        <time>2018-10-10T12:25:52Z</time>
      </trkpt>
      <trkpt lat="42.22994944" lon="-8.61715712">
        <ele>240.0</ele>
        <time>2018-10-10T12:25:53Z</time>
      </trkpt>
      <trkpt lat="42.22994944" lon="-8.61707008">
        <ele>241.17999267578125</ele>
        <time>2018-10-10T12:25:54Z</time>
      </trkpt>
      <trkpt lat="42.22993408" lon="-8.616992">
        <ele>241.17999267578125</ele>
        <time>2018-10-10T12:25:55Z</time>
      </trkpt>
      <trkpt lat="42.22991616" lon="-8.6169184">
        <ele>241.17999267578125</ele>
        <time>2018-10-10T12:25:56Z</time>
      </trkpt>
      <trkpt lat="42.22990336" lon="-8.61684224">
        <ele>241.17999267578125</ele>
        <time>2018-10-10T12:25:57Z</time>
      </trkpt>
      <trkpt lat="42.22989568" lon="-8.61676672">
        <ele>241.17999267578125</ele>
        <time>2018-10-10T12:25:58Z</time>
      </trkpt>
      <trkpt lat="42.22989568" lon="-8.61669568">
        <ele>241.17999267578125</ele>
        <time>2018-10-10T12:25:59Z</time>
      </trkpt>
      <trkpt lat="42.22989312" lon="-8.61662784">
        <ele>241.17999267578125</ele>
        <time>2018-10-10T12:26:00Z</time>
      </trkpt>
      <trkpt lat="42.229888" lon="-8.61650176">
        <ele>241.17999267578125</ele>
        <time>2018-10-10T12:26:02Z</time>
      </trkpt>
      <trkpt lat="42.22988544" lon="-8.61637696">
        <ele>241.17999267578125</ele>
        <time>2018-10-10T12:26:04Z</time>
      </trkpt>
      <trkpt lat="42.22988544" lon="-8.6162528">
        <ele>241.17999267578125</ele>
        <time>2018-10-10T12:26:06Z</time>
      </trkpt>
      <trkpt lat="42.22988544" lon="-8.616128">
        <ele>241.17999267578125</ele>
        <time>2018-10-10T12:26:08Z</time>
      </trkpt>
      <trkpt lat="42.2299008" lon="-8.61601152">
        <ele>241.17999267578125</ele>
        <time>2018-10-10T12:26:10Z</time>
      </trkpt>
      <trkpt lat="42.2299008" lon="-8.61589696">
        <ele>241.17999267578125</ele>
        <time>2018-10-10T12:26:12Z</time>
      </trkpt>
      <trkpt lat="42.22989312" lon="-8.61578304">
        <ele>241.17999267578125</ele>
        <time>2018-10-10T12:26:14Z</time>
      </trkpt>
      <trkpt lat="42.2299008" lon="-8.61567808">
        <ele>241.17999267578125</ele>
        <time>2018-10-10T12:26:16Z</time>
      </trkpt>
      <trkpt lat="42.22996224" lon="-8.6155872">
        <ele>241.17999267578125</ele>
        <time>2018-10-10T12:26:18Z</time>
      </trkpt>
      <trkpt lat="42.2300416" lon="-8.61551936">
        <ele>241.17999267578125</ele>
        <time>2018-10-10T12:26:20Z</time>
      </trkpt>
      <trkpt lat="42.23013376" lon="-8.61545856">
        <ele>241.17999267578125</ele>
        <time>2018-10-10T12:26:22Z</time>
      </trkpt>
      <trkpt lat="42.23022848" lon="-8.6153888">
        <ele>241.17999267578125</ele>
        <time>2018-10-10T12:26:24Z</time>
      </trkpt>
      <trkpt lat="42.23027712" lon="-8.61535168">
        <ele>241.17999267578125</ele>
        <time>2018-10-10T12:26:25Z</time>
      </trkpt>
      <trkpt lat="42.2303232" lon="-8.61530944">
        <ele>241.17999267578125</ele>
        <time>2018-10-10T12:26:26Z</time>
      </trkpt>
      <trkpt lat="42.2303744" lon="-8.61526208">
        <ele>241.17999267578125</ele>
        <time>2018-10-10T12:26:27Z</time>
      </trkpt>
      <trkpt lat="42.23041792" lon="-8.61521152">
        <ele>239.89999389648438</ele>
        <time>2018-10-10T12:26:28Z</time>
      </trkpt>
      <trkpt lat="42.230464" lon="-8.6151584">
        <ele>239.89999389648438</ele>
        <time>2018-10-10T12:26:29Z</time>
      </trkpt>
      <trkpt lat="42.23051008" lon="-8.61510272">
        <ele>239.89999389648438</ele>
        <time>2018-10-10T12:26:30Z</time>
      </trkpt>
      <trkpt lat="42.2306048" lon="-8.614992">
        <ele>239.89999389648438</ele>
        <time>2018-10-10T12:26:32Z</time>
      </trkpt>
      <trkpt lat="42.23070464" lon="-8.61488832">
        <ele>238.4499969482422</ele>
        <time>2018-10-10T12:26:34Z</time>
      </trkpt>
      <trkpt lat="42.23076352" lon="-8.61483968">
        <ele>238.4499969482422</ele>
        <time>2018-10-10T12:26:35Z</time>
      </trkpt>
      <trkpt lat="42.23081984" lon="-8.61480064">
        <ele>238.4499969482422</ele>
        <time>2018-10-10T12:26:36Z</time>
      </trkpt>
      <trkpt lat="42.23087616" lon="-8.61475968">
        <ele>237.0</ele>
        <time>2018-10-10T12:26:37Z</time>
      </trkpt>
      <trkpt lat="42.2309376" lon="-8.61471872">
        <ele>237.0</ele>
        <time>2018-10-10T12:26:38Z</time>
      </trkpt>
      <trkpt lat="42.23099904" lon="-8.61467712">
        <ele>237.0</ele>
        <time>2018-10-10T12:26:39Z</time>
      </trkpt>
      <trkpt lat="42.23106048" lon="-8.6146336">
        <ele>237.0</ele>
        <time>2018-10-10T12:26:40Z</time>
      </trkpt>
      <trkpt lat="42.23113216" lon="-8.61458368">
        <ele>237.0</ele>
        <time>2018-10-10T12:26:41Z</time>
      </trkpt>
      <trkpt lat="42.23120128" lon="-8.61452608">
        <ele>237.0</ele>
        <time>2018-10-10T12:26:42Z</time>
      </trkpt>
      <trkpt lat="42.23126272" lon="-8.61448192">
        <ele>237.0</ele>
        <time>2018-10-10T12:26:43Z</time>
      </trkpt>
      <trkpt lat="42.23141376" lon="-8.61439296">
        <ele>235.80999755859375</ele>
        <time>2018-10-10T12:26:45Z</time>
      </trkpt>
      <trkpt lat="42.23149056" lon="-8.61436096">
        <ele>235.80999755859375</ele>
        <time>2018-10-10T12:26:46Z</time>
      </trkpt>
      <trkpt lat="42.231552" lon="-8.61432832">
        <ele>235.80999755859375</ele>
        <time>2018-10-10T12:26:47Z</time>
      </trkpt>
      <trkpt lat="42.23160832" lon="-8.61429568">
        <ele>235.80999755859375</ele>
        <time>2018-10-10T12:26:48Z</time>
      </trkpt>
      <trkpt lat="42.2316672" lon="-8.6142656">
        <ele>235.80999755859375</ele>
        <time>2018-10-10T12:26:49Z</time>
      </trkpt>
      <trkpt lat="42.23172352" lon="-8.6142368">
        <ele>235.80999755859375</ele>
        <time>2018-10-10T12:26:50Z</time>
      </trkpt>
      <trkpt lat="42.23178496" lon="-8.6142112">
        <ele>235.80999755859375</ele>
        <time>2018-10-10T12:26:51Z</time>
      </trkpt>
      <trkpt lat="42.2318464" lon="-8.6141824">
        <ele>234.4499969482422</ele>
        <time>2018-10-10T12:26:52Z</time>
      </trkpt>
      <trkpt lat="42.23190272" lon="-8.61415552">
        <ele>234.4499969482422</ele>
        <time>2018-10-10T12:26:53Z</time>
      </trkpt>
      <trkpt lat="42.23195904" lon="-8.61412928">
        <ele>233.0</ele>
        <time>2018-10-10T12:26:54Z</time>
      </trkpt>
      <trkpt lat="42.2320128" lon="-8.61410304">
        <ele>233.0</ele>
        <time>2018-10-10T12:26:55Z</time>
      </trkpt>
      <trkpt lat="42.23206656" lon="-8.61407744">
        <ele>233.0</ele>
        <time>2018-10-10T12:26:56Z</time>
      </trkpt>
      <trkpt lat="42.23212032" lon="-8.61404864">
        <ele>231.08999633789062</ele>
        <time>2018-10-10T12:26:57Z</time>
      </trkpt>
      <trkpt lat="42.23216128" lon="-8.61401728">
        <ele>231.08999633789062</ele>
        <time>2018-10-10T12:26:58Z</time>
      </trkpt>
      <trkpt lat="42.2322304" lon="-8.61390848">
        <ele>229.27000427246094</ele>
        <time>2018-10-10T12:27:00Z</time>
      </trkpt>
      <trkpt lat="42.23225344" lon="-8.6138496">
        <ele>229.27000427246094</ele>
        <time>2018-10-10T12:27:01Z</time>
      </trkpt>
      <trkpt lat="42.23229952" lon="-8.61373504">
        <ele>227.4499969482422</ele>
        <time>2018-10-10T12:27:03Z</time>
      </trkpt>
      <trkpt lat="42.2323712" lon="-8.61365632">
        <ele>227.4499969482422</ele>
        <time>2018-10-10T12:27:05Z</time>
      </trkpt>
      <trkpt lat="42.23247872" lon="-8.61361664">
        <ele>226.27000427246094</ele>
        <time>2018-10-10T12:27:07Z</time>
      </trkpt>
      <trkpt lat="42.23254016" lon="-8.61360448">
        <ele>226.27000427246094</ele>
        <time>2018-10-10T12:27:08Z</time>
      </trkpt>
      <trkpt lat="42.2326016" lon="-8.61359808">
        <ele>224.72000122070312</ele>
        <time>2018-10-10T12:27:09Z</time>
      </trkpt>
      <trkpt lat="42.23267072" lon="-8.6135968">
        <ele>224.72000122070312</ele>
        <time>2018-10-10T12:27:10Z</time>
      </trkpt>
      <trkpt lat="42.2327424" lon="-8.61360256">
        <ele>223.27000427246094</ele>
        <time>2018-10-10T12:27:11Z</time>
      </trkpt>
      <trkpt lat="42.23282688" lon="-8.61360576">
        <ele>223.27000427246094</ele>
        <time>2018-10-10T12:27:12Z</time>
      </trkpt>
      <trkpt lat="42.23290624" lon="-8.61361472">
        <ele>221.80999755859375</ele>
        <time>2018-10-10T12:27:13Z</time>
      </trkpt>
      <trkpt lat="42.2329856" lon="-8.61363136">
        <ele>221.80999755859375</ele>
        <time>2018-10-10T12:27:14Z</time>
      </trkpt>
      <trkpt lat="42.23306752" lon="-8.61365312">
        <ele>221.80999755859375</ele>
        <time>2018-10-10T12:27:15Z</time>
      </trkpt>
      <trkpt lat="42.23314944" lon="-8.61368192">
        <ele>220.08999633789062</ele>
        <time>2018-10-10T12:27:16Z</time>
      </trkpt>
      <trkpt lat="42.23323392" lon="-8.61371328">
        <ele>220.08999633789062</ele>
        <time>2018-10-10T12:27:17Z</time>
      </trkpt>
      <trkpt lat="42.23332096" lon="-8.613744">
        <ele>218.72000122070312</ele>
        <time>2018-10-10T12:27:18Z</time>
      </trkpt>
      <trkpt lat="42.23341056" lon="-8.6137696">
        <ele>218.72000122070312</ele>
        <time>2018-10-10T12:27:19Z</time>
      </trkpt>
      <trkpt lat="42.23350528" lon="-8.61378944">
        <ele>217.36000061035156</ele>
        <time>2018-10-10T12:27:20Z</time>
      </trkpt>
      <trkpt lat="42.23360512" lon="-8.61380672">
        <ele>217.36000061035156</ele>
        <time>2018-10-10T12:27:21Z</time>
      </trkpt>
      <trkpt lat="42.23370752" lon="-8.61381888">
        <ele>215.89999389648438</ele>
        <time>2018-10-10T12:27:22Z</time>
      </trkpt>
      <trkpt lat="42.23381504" lon="-8.61381696">
        <ele>215.89999389648438</ele>
        <time>2018-10-10T12:27:23Z</time>
      </trkpt>
      <trkpt lat="42.23392" lon="-8.61381312">
        <ele>214.36000061035156</ele>
        <time>2018-10-10T12:27:24Z</time>
      </trkpt>
      <trkpt lat="42.23402752" lon="-8.61381056">
        <ele>214.36000061035156</ele>
        <time>2018-10-10T12:27:25Z</time>
      </trkpt>
      <trkpt lat="42.23413504" lon="-8.61380928">
        <ele>213.08999633789062</ele>
        <time>2018-10-10T12:27:26Z</time>
      </trkpt>
      <trkpt lat="42.23424256" lon="-8.61380928">
        <ele>213.08999633789062</ele>
        <time>2018-10-10T12:27:27Z</time>
      </trkpt>
      <trkpt lat="42.23434752" lon="-8.61380736">
        <ele>211.89999389648438</ele>
        <time>2018-10-10T12:27:28Z</time>
      </trkpt>
      <trkpt lat="42.23446016" lon="-8.61380096">
        <ele>211.89999389648438</ele>
        <time>2018-10-10T12:27:29Z</time>
      </trkpt>
      <trkpt lat="42.23457024" lon="-8.61379328">
        <ele>211.89999389648438</ele>
        <time>2018-10-10T12:27:30Z</time>
      </trkpt>
      <trkpt lat="42.23468288" lon="-8.6137856">
        <ele>211.89999389648438</ele>
        <time>2018-10-10T12:27:31Z</time>
      </trkpt>
      <trkpt lat="42.23479552" lon="-8.613776">
        <ele>210.5399932861328</ele>
        <time>2018-10-10T12:27:32Z</time>
      </trkpt>
      <trkpt lat="42.2349056" lon="-8.61376256">
        <ele>210.5399932861328</ele>
        <time>2018-10-10T12:27:33Z</time>
      </trkpt>
      <trkpt lat="42.2350208" lon="-8.61374272">
        <ele>209.36000061035156</ele>
        <time>2018-10-10T12:27:34Z</time>
      </trkpt>
      <trkpt lat="42.23513344" lon="-8.61371776">
        <ele>209.36000061035156</ele>
        <time>2018-10-10T12:27:35Z</time>
      </trkpt>
      <trkpt lat="42.23524864" lon="-8.61368768">
        <ele>207.89999389648438</ele>
        <time>2018-10-10T12:27:36Z</time>
      </trkpt>
      <trkpt lat="42.2353664" lon="-8.61365888">
        <ele>207.89999389648438</ele>
        <time>2018-10-10T12:27:37Z</time>
      </trkpt>
      <trkpt lat="42.23547648" lon="-8.61363584">
        <ele>207.89999389648438</ele>
        <time>2018-10-10T12:27:38Z</time>
      </trkpt>
      <trkpt lat="42.23559168" lon="-8.61361408">
        <ele>206.36000061035156</ele>
        <time>2018-10-10T12:27:39Z</time>
      </trkpt>
      <trkpt lat="42.23570688" lon="-8.61359232">
        <ele>206.36000061035156</ele>
        <time>2018-10-10T12:27:40Z</time>
      </trkpt>
      <trkpt lat="42.23581952" lon="-8.6135712">
        <ele>206.36000061035156</ele>
        <time>2018-10-10T12:27:41Z</time>
      </trkpt>
      <trkpt lat="42.23593472" lon="-8.61355008">
        <ele>206.36000061035156</ele>
        <time>2018-10-10T12:27:42Z</time>
      </trkpt>
      <trkpt lat="42.23604992" lon="-8.61352832">
        <ele>205.17999267578125</ele>
        <time>2018-10-10T12:27:43Z</time>
      </trkpt>
      <trkpt lat="42.23616" lon="-8.61350656">
        <ele>205.17999267578125</ele>
        <time>2018-10-10T12:27:44Z</time>
      </trkpt>
      <trkpt lat="42.23627008" lon="-8.61348416">
        <ele>205.17999267578125</ele>
        <time>2018-10-10T12:27:45Z</time>
      </trkpt>
      <trkpt lat="42.2363776" lon="-8.61346368">
        <ele>205.17999267578125</ele>
        <time>2018-10-10T12:27:46Z</time>
      </trkpt>
      <trkpt lat="42.23658752" lon="-8.61341952">
        <ele>205.17999267578125</ele>
        <time>2018-10-10T12:27:47Z</time>
      </trkpt>
      <trkpt lat="42.23663616" lon="-8.61340928">
        <ele>205.17999267578125</ele>
        <time>2018-10-10T12:27:48Z</time>
      </trkpt>
      <trkpt lat="42.23671296" lon="-8.61339264">
        <ele>205.17999267578125</ele>
        <time>2018-10-10T12:27:49Z</time>
      </trkpt>
      <trkpt lat="42.2368" lon="-8.61337472">
        <ele>205.17999267578125</ele>
        <time>2018-10-10T12:27:50Z</time>
      </trkpt>
      <trkpt lat="42.2368896" lon="-8.61335488">
        <ele>205.17999267578125</ele>
        <time>2018-10-10T12:27:51Z</time>
      </trkpt>
      <trkpt lat="42.2369792" lon="-8.6133344">
        <ele>205.17999267578125</ele>
        <time>2018-10-10T12:27:52Z</time>
      </trkpt>
      <trkpt lat="42.23707136" lon="-8.61331264">
        <ele>205.17999267578125</ele>
        <time>2018-10-10T12:27:53Z</time>
      </trkpt>
      <trkpt lat="42.23716608" lon="-8.6132896">
        <ele>205.17999267578125</ele>
        <time>2018-10-10T12:27:54Z</time>
      </trkpt>
      <trkpt lat="42.23725824" lon="-8.61326912">
        <ele>205.17999267578125</ele>
        <time>2018-10-10T12:27:55Z</time>
      </trkpt>
      <trkpt lat="42.23734784" lon="-8.61324672">
        <ele>205.17999267578125</ele>
        <time>2018-10-10T12:27:56Z</time>
      </trkpt>
      <trkpt lat="42.23743488" lon="-8.61322624">
        <ele>205.17999267578125</ele>
        <time>2018-10-10T12:27:57Z</time>
      </trkpt>
      <trkpt lat="42.23751424" lon="-8.61320512">
        <ele>205.17999267578125</ele>
        <time>2018-10-10T12:27:58Z</time>
      </trkpt>
      <trkpt lat="42.2375936" lon="-8.61318592">
        <ele>204.0</ele>
        <time>2018-10-10T12:27:59Z</time>
      </trkpt>
      <trkpt lat="42.23767552" lon="-8.61316672">
        <ele>204.0</ele>
        <time>2018-10-10T12:28:00Z</time>
      </trkpt>
      <trkpt lat="42.23775488" lon="-8.61314688">
        <ele>204.0</ele>
        <time>2018-10-10T12:28:01Z</time>
      </trkpt>
      <trkpt lat="42.23783424" lon="-8.61312768">
        <ele>204.0</ele>
        <time>2018-10-10T12:28:02Z</time>
      </trkpt>
      <trkpt lat="42.23791104" lon="-8.61310848">
        <ele>204.0</ele>
        <time>2018-10-10T12:28:03Z</time>
      </trkpt>
      <trkpt lat="42.23798784" lon="-8.6130912">
        <ele>204.0</ele>
        <time>2018-10-10T12:28:04Z</time>
      </trkpt>
      <trkpt lat="42.23806464" lon="-8.61307456">
        <ele>204.0</ele>
        <time>2018-10-10T12:28:05Z</time>
      </trkpt>
      <trkpt lat="42.23813888" lon="-8.613056">
        <ele>202.80999755859375</ele>
        <time>2018-10-10T12:28:06Z</time>
      </trkpt>
      <trkpt lat="42.2382208" lon="-8.61303616">
        <ele>202.80999755859375</ele>
        <time>2018-10-10T12:28:07Z</time>
      </trkpt>
      <trkpt lat="42.2382976" lon="-8.61301696">
        <ele>202.80999755859375</ele>
        <time>2018-10-10T12:28:08Z</time>
      </trkpt>
      <trkpt lat="42.23837184" lon="-8.61299904">
        <ele>202.80999755859375</ele>
        <time>2018-10-10T12:28:09Z</time>
      </trkpt>
      <trkpt lat="42.23844608" lon="-8.61298176">
        <ele>202.80999755859375</ele>
        <time>2018-10-10T12:28:10Z</time>
      </trkpt>
      <trkpt lat="42.23852032" lon="-8.61296576">
        <ele>202.80999755859375</ele>
        <time>2018-10-10T12:28:11Z</time>
      </trkpt>
      <trkpt lat="42.23859456" lon="-8.61294848">
        <ele>202.80999755859375</ele>
        <time>2018-10-10T12:28:12Z</time>
      </trkpt>
      <trkpt lat="42.23867392" lon="-8.61293056">
        <ele>201.6300048828125</ele>
        <time>2018-10-10T12:28:13Z</time>
      </trkpt>
      <trkpt lat="42.23875072" lon="-8.612896">
        <ele>201.6300048828125</ele>
        <time>2018-10-10T12:28:14Z</time>
      </trkpt>
      <trkpt lat="42.23882752" lon="-8.6128576">
        <ele>201.6300048828125</ele>
        <time>2018-10-10T12:28:15Z</time>
      </trkpt>
      <trkpt lat="42.23890432" lon="-8.61281984">
        <ele>201.6300048828125</ele>
        <time>2018-10-10T12:28:16Z</time>
      </trkpt>
      <trkpt lat="42.23897856" lon="-8.61278144">
        <ele>201.6300048828125</ele>
        <time>2018-10-10T12:28:17Z</time>
      </trkpt>
      <trkpt lat="42.23905536" lon="-8.61274432">
        <ele>201.6300048828125</ele>
        <time>2018-10-10T12:28:18Z</time>
      </trkpt>
      <trkpt lat="42.23912704" lon="-8.6127072">
        <ele>201.6300048828125</ele>
        <time>2018-10-10T12:28:19Z</time>
      </trkpt>
      <trkpt lat="42.23920384" lon="-8.61266624">
        <ele>201.6300048828125</ele>
        <time>2018-10-10T12:28:20Z</time>
      </trkpt>
      <trkpt lat="42.23927808" lon="-8.61262336">
        <ele>200.27000427246094</ele>
        <time>2018-10-10T12:28:21Z</time>
      </trkpt>
      <trkpt lat="42.23934976" lon="-8.61257728">
        <ele>200.27000427246094</ele>
        <time>2018-10-10T12:28:22Z</time>
      </trkpt>
      <trkpt lat="42.23942656" lon="-8.61253056">
        <ele>200.27000427246094</ele>
        <time>2018-10-10T12:28:23Z</time>
      </trkpt>
      <trkpt lat="42.23949824" lon="-8.61248192">
        <ele>200.27000427246094</ele>
        <time>2018-10-10T12:28:24Z</time>
      </trkpt>
      <trkpt lat="42.23956992" lon="-8.61243072">
        <ele>198.5399932861328</ele>
        <time>2018-10-10T12:28:25Z</time>
      </trkpt>
      <trkpt lat="42.23964416" lon="-8.61237632">
        <ele>198.5399932861328</ele>
        <time>2018-10-10T12:28:26Z</time>
      </trkpt>
      <trkpt lat="42.2397184" lon="-8.61231808">
        <ele>196.80999755859375</ele>
        <time>2018-10-10T12:28:27Z</time>
      </trkpt>
      <trkpt lat="42.2397952" lon="-8.612256">
        <ele>196.80999755859375</ele>
        <time>2018-10-10T12:28:28Z</time>
      </trkpt>
      <trkpt lat="42.23986944" lon="-8.61219328">
        <ele>195.5399932861328</ele>
        <time>2018-10-10T12:28:29Z</time>
      </trkpt>
      <trkpt lat="42.23994112" lon="-8.61212928">
        <ele>195.5399932861328</ele>
        <time>2018-10-10T12:28:30Z</time>
      </trkpt>
      <trkpt lat="42.2400128" lon="-8.61206336">
        <ele>195.5399932861328</ele>
        <time>2018-10-10T12:28:31Z</time>
      </trkpt>
      <trkpt lat="42.24008448" lon="-8.61199488">
        <ele>194.17999267578125</ele>
        <time>2018-10-10T12:28:32Z</time>
      </trkpt>
      <trkpt lat="42.24015872" lon="-8.6119232">
        <ele>194.17999267578125</ele>
        <time>2018-10-10T12:28:33Z</time>
      </trkpt>
      <trkpt lat="42.2402304" lon="-8.6118496">
        <ele>193.0</ele>
        <time>2018-10-10T12:28:34Z</time>
      </trkpt>
      <trkpt lat="42.24030208" lon="-8.6117728">
        <ele>193.0</ele>
        <time>2018-10-10T12:28:35Z</time>
      </trkpt>
      <trkpt lat="42.24036864" lon="-8.61169344">
        <ele>193.0</ele>
        <time>2018-10-10T12:28:36Z</time>
      </trkpt>
      <trkpt lat="42.24044032" lon="-8.61161152">
        <ele>193.0</ele>
        <time>2018-10-10T12:28:37Z</time>
      </trkpt>
      <trkpt lat="42.24050432" lon="-8.61152832">
        <ele>193.0</ele>
        <time>2018-10-10T12:28:38Z</time>
      </trkpt>
      <trkpt lat="42.24057856" lon="-8.61144256">
        <ele>191.72000122070312</ele>
        <time>2018-10-10T12:28:39Z</time>
      </trkpt>
      <trkpt lat="42.24064512" lon="-8.61135552">
        <ele>191.72000122070312</ele>
        <time>2018-10-10T12:28:40Z</time>
      </trkpt>
      <trkpt lat="42.24071936" lon="-8.61126912">
        <ele>191.72000122070312</ele>
        <time>2018-10-10T12:28:41Z</time>
      </trkpt>
      <trkpt lat="42.24079104" lon="-8.61118016">
        <ele>191.72000122070312</ele>
        <time>2018-10-10T12:28:42Z</time>
      </trkpt>
      <trkpt lat="42.24086272" lon="-8.61108992">
        <ele>191.72000122070312</ele>
        <time>2018-10-10T12:28:43Z</time>
      </trkpt>
      <trkpt lat="42.24093696" lon="-8.61100032">
        <ele>191.72000122070312</ele>
        <time>2018-10-10T12:28:44Z</time>
      </trkpt>
      <trkpt lat="42.24100864" lon="-8.61091264">
        <ele>191.72000122070312</ele>
        <time>2018-10-10T12:28:45Z</time>
      </trkpt>
      <trkpt lat="42.24107776" lon="-8.61082432">
        <ele>190.27000427246094</ele>
        <time>2018-10-10T12:28:46Z</time>
      </trkpt>
      <trkpt lat="42.24114944" lon="-8.61073472">
        <ele>190.27000427246094</ele>
        <time>2018-10-10T12:28:47Z</time>
      </trkpt>
      <trkpt lat="42.24122112" lon="-8.61064448">
        <ele>189.0</ele>
        <time>2018-10-10T12:28:48Z</time>
      </trkpt>
      <trkpt lat="42.24129536" lon="-8.61055488">
        <ele>189.0</ele>
        <time>2018-10-10T12:28:49Z</time>
      </trkpt>
      <trkpt lat="42.24135936" lon="-8.61047168">
        <ele>189.0</ele>
        <time>2018-10-10T12:28:50Z</time>
      </trkpt>
      <trkpt lat="42.24141568" lon="-8.61038848">
        <ele>189.0</ele>
        <time>2018-10-10T12:28:51Z</time>
      </trkpt>
      <trkpt lat="42.24146944" lon="-8.61031808">
        <ele>189.0</ele>
        <time>2018-10-10T12:28:52Z</time>
      </trkpt>
      <trkpt lat="42.24152064" lon="-8.61026688">
        <ele>189.0</ele>
        <time>2018-10-10T12:28:53Z</time>
      </trkpt>
      <trkpt lat="42.2415616" lon="-8.6102496">
        <ele>187.80999755859375</ele>
        <time>2018-10-10T12:28:54Z</time>
      </trkpt>
      <trkpt lat="42.24159232" lon="-8.61033408">
        <ele>187.80999755859375</ele>
        <time>2018-10-10T12:28:56Z</time>
      </trkpt>
      <trkpt lat="42.24159232" lon="-8.61051008">
        <ele>187.80999755859375</ele>
        <time>2018-10-10T12:28:58Z</time>
      </trkpt>
      <trkpt lat="42.24159232" lon="-8.61059456">
        <ele>187.80999755859375</ele>
        <time>2018-10-10T12:28:59Z</time>
      </trkpt>
      <trkpt lat="42.24159232" lon="-8.61067584">
        <ele>187.80999755859375</ele>
        <time>2018-10-10T12:29:00Z</time>
      </trkpt>
      <trkpt lat="42.24159232" lon="-8.61074048">
        <ele>187.80999755859375</ele>
        <time>2018-10-10T12:29:01Z</time>
      </trkpt>
      <trkpt lat="42.2416" lon="-8.6107872">
        <ele>187.80999755859375</ele>
        <time>2018-10-10T12:29:02Z</time>
      </trkpt>
      <trkpt lat="42.24166912" lon="-8.6108224">
        <ele>187.80999755859375</ele>
        <time>2018-10-10T12:29:04Z</time>
      </trkpt>
      <trkpt lat="42.2417536" lon="-8.61081856">
        <ele>187.80999755859375</ele>
        <time>2018-10-10T12:29:06Z</time>
      </trkpt>
      <trkpt lat="42.24184064" lon="-8.61079424">
        <ele>187.80999755859375</ele>
        <time>2018-10-10T12:29:08Z</time>
      </trkpt>
      <trkpt lat="42.2419328" lon="-8.61076672">
        <ele>187.80999755859375</ele>
        <time>2018-10-10T12:29:10Z</time>
      </trkpt>
      <trkpt lat="42.2420224" lon="-8.61074048">
        <ele>187.80999755859375</ele>
        <time>2018-10-10T12:29:12Z</time>
      </trkpt>
      <trkpt lat="42.24211456" lon="-8.61072128">
        <ele>187.80999755859375</ele>
        <time>2018-10-10T12:29:14Z</time>
      </trkpt>
      <trkpt lat="42.24216576" lon="-8.61071488">
        <ele>187.80999755859375</ele>
        <time>2018-10-10T12:29:15Z</time>
      </trkpt>
      <trkpt lat="42.24225536" lon="-8.61070144">
        <ele>187.80999755859375</ele>
        <time>2018-10-10T12:29:17Z</time>
      </trkpt>
      <trkpt lat="42.2423552" lon="-8.61069376">
        <ele>187.80999755859375</ele>
        <time>2018-10-10T12:29:19Z</time>
      </trkpt>
      <trkpt lat="42.24250368" lon="-8.610688">
        <ele>187.80999755859375</ele>
        <time>2018-10-10T12:29:22Z</time>
      </trkpt>
      <trkpt lat="42.24255488" lon="-8.61068352">
        <ele>187.80999755859375</ele>
        <time>2018-10-10T12:29:23Z</time>
      </trkpt>
      <trkpt lat="42.2426496" lon="-8.61067392">
        <ele>189.08999633789062</ele>
        <time>2018-10-10T12:29:25Z</time>
      </trkpt>
      <trkpt lat="42.24274176" lon="-8.61066368">
        <ele>189.08999633789062</ele>
        <time>2018-10-10T12:29:27Z</time>
      </trkpt>
      <trkpt lat="42.2428288" lon="-8.61065088">
        <ele>189.08999633789062</ele>
        <time>2018-10-10T12:29:29Z</time>
      </trkpt>
      <trkpt lat="42.24291328" lon="-8.61063872">
        <ele>190.27000427246094</ele>
        <time>2018-10-10T12:29:31Z</time>
      </trkpt>
      <trkpt lat="42.2429952" lon="-8.61062784">
        <ele>190.27000427246094</ele>
        <time>2018-10-10T12:29:33Z</time>
      </trkpt>
      <trkpt lat="42.24307712" lon="-8.6106176">
        <ele>190.27000427246094</ele>
        <time>2018-10-10T12:29:35Z</time>
      </trkpt>
      <trkpt lat="42.2431488" lon="-8.61060992">
        <ele>190.27000427246094</ele>
        <time>2018-10-10T12:29:37Z</time>
      </trkpt>
      <trkpt lat="42.2432128" lon="-8.61060224">
        <ele>190.27000427246094</ele>
        <time>2018-10-10T12:29:39Z</time>
      </trkpt>
      <trkpt lat="42.24327424" lon="-8.61059392">
        <ele>191.4499969482422</ele>
        <time>2018-10-10T12:29:41Z</time>
      </trkpt>
      <trkpt lat="42.2433408" lon="-8.61058624">
        <ele>191.4499969482422</ele>
        <time>2018-10-10T12:29:43Z</time>
      </trkpt>
      <trkpt lat="42.24339968" lon="-8.61057664">
        <ele>191.4499969482422</ele>
        <time>2018-10-10T12:29:45Z</time>
      </trkpt>
      <trkpt lat="42.24346624" lon="-8.61056832">
        <ele>191.4499969482422</ele>
        <time>2018-10-10T12:29:47Z</time>
      </trkpt>
      <trkpt lat="42.24352768" lon="-8.61056064">
        <ele>191.4499969482422</ele>
        <time>2018-10-10T12:29:49Z</time>
      </trkpt>
      <trkpt lat="42.24358656" lon="-8.61055104">
        <ele>191.4499969482422</ele>
        <time>2018-10-10T12:29:51Z</time>
      </trkpt>
      <trkpt lat="42.243648" lon="-8.61054208">
        <ele>191.4499969482422</ele>
        <time>2018-10-10T12:29:53Z</time>
      </trkpt>
      <trkpt lat="42.24371456" lon="-8.61053376">
        <ele>191.4499969482422</ele>
        <time>2018-10-10T12:29:55Z</time>
      </trkpt>
      <trkpt lat="42.24377344" lon="-8.61052224">
        <ele>191.4499969482422</ele>
        <time>2018-10-10T12:29:57Z</time>
      </trkpt>
      <trkpt lat="42.24384" lon="-8.61051072">
        <ele>191.4499969482422</ele>
        <time>2018-10-10T12:29:59Z</time>
      </trkpt>
      <trkpt lat="42.243904" lon="-8.61049856">
        <ele>191.4499969482422</ele>
        <time>2018-10-10T12:30:01Z</time>
      </trkpt>
      <trkpt lat="42.243968" lon="-8.6104832">
        <ele>191.4499969482422</ele>
        <time>2018-10-10T12:30:03Z</time>
      </trkpt>
      <trkpt lat="42.24403456" lon="-8.6104672">
        <ele>191.4499969482422</ele>
        <time>2018-10-10T12:30:05Z</time>
      </trkpt>
      <trkpt lat="42.244096" lon="-8.61044864">
        <ele>191.4499969482422</ele>
        <time>2018-10-10T12:30:07Z</time>
      </trkpt>
      <trkpt lat="42.24416" lon="-8.6104288">
        <ele>190.08999633789062</ele>
        <time>2018-10-10T12:30:09Z</time>
      </trkpt>
      <trkpt lat="42.24422912" lon="-8.61040704">
        <ele>190.08999633789062</ele>
        <time>2018-10-10T12:30:11Z</time>
      </trkpt>
      <trkpt lat="42.24429824" lon="-8.61038144">
        <ele>190.08999633789062</ele>
        <time>2018-10-10T12:30:13Z</time>
      </trkpt>
      <trkpt lat="42.24436992" lon="-8.61029696">
        <ele>190.08999633789062</ele>
        <time>2018-10-10T12:30:15Z</time>
      </trkpt>
      <trkpt lat="42.24444672" lon="-8.61026112">
        <ele>190.08999633789062</ele>
        <time>2018-10-10T12:30:17Z</time>
      </trkpt>
      <trkpt lat="42.24452608" lon="-8.6102336">
        <ele>188.89999389648438</ele>
        <time>2018-10-10T12:30:19Z</time>
      </trkpt>
      <trkpt lat="42.24461824" lon="-8.61020288">
        <ele>188.89999389648438</ele>
        <time>2018-10-10T12:30:21Z</time>
      </trkpt>
      <trkpt lat="42.24471296" lon="-8.61018944">
        <ele>188.89999389648438</ele>
        <time>2018-10-10T12:30:23Z</time>
      </trkpt>
      <trkpt lat="42.2447616" lon="-8.6101856">
        <ele>188.89999389648438</ele>
        <time>2018-10-10T12:30:24Z</time>
      </trkpt>
      <trkpt lat="42.24486912" lon="-8.6101792">
        <ele>187.4499969482422</ele>
        <time>2018-10-10T12:30:26Z</time>
      </trkpt>
      <trkpt lat="42.24492288" lon="-8.61017728">
        <ele>187.4499969482422</ele>
        <time>2018-10-10T12:30:27Z</time>
      </trkpt>
      <trkpt lat="42.2449792" lon="-8.61018176">
        <ele>186.27000427246094</ele>
        <time>2018-10-10T12:30:28Z</time>
      </trkpt>
      <trkpt lat="42.24503808" lon="-8.610192">
        <ele>186.27000427246094</ele>
        <time>2018-10-10T12:30:29Z</time>
      </trkpt>
      <trkpt lat="42.24508928" lon="-8.61021056">
        <ele>184.80999755859375</ele>
        <time>2018-10-10T12:30:30Z</time>
      </trkpt>
      <trkpt lat="42.24514048" lon="-8.61023552">
        <ele>184.80999755859375</ele>
        <time>2018-10-10T12:30:31Z</time>
      </trkpt>
      <trkpt lat="42.24518144" lon="-8.6102688">
        <ele>184.80999755859375</ele>
        <time>2018-10-10T12:30:32Z</time>
      </trkpt>
      <trkpt lat="42.24521728" lon="-8.61031552">
        <ele>184.80999755859375</ele>
        <time>2018-10-10T12:30:33Z</time>
      </trkpt>
      <trkpt lat="42.24528128" lon="-8.61041088">
        <ele>183.6300048828125</ele>
        <time>2018-10-10T12:30:35Z</time>
      </trkpt>
      <trkpt lat="42.24532992" lon="-8.61049856">
        <ele>183.6300048828125</ele>
        <time>2018-10-10T12:30:37Z</time>
      </trkpt>
      <trkpt lat="42.24537344" lon="-8.61058688">
        <ele>182.27000427246094</ele>
        <time>2018-10-10T12:30:39Z</time>
      </trkpt>
      <trkpt lat="42.24541184" lon="-8.61066816">
        <ele>182.27000427246094</ele>
        <time>2018-10-10T12:30:41Z</time>
      </trkpt>
      <trkpt lat="42.24545792" lon="-8.6107552">
        <ele>181.08999633789062</ele>
        <time>2018-10-10T12:30:43Z</time>
      </trkpt>
      <trkpt lat="42.24550656" lon="-8.61084352">
        <ele>179.80999755859375</ele>
        <time>2018-10-10T12:30:45Z</time>
      </trkpt>
      <trkpt lat="42.24557568" lon="-8.61092544">
        <ele>179.80999755859375</ele>
        <time>2018-10-10T12:30:47Z</time>
      </trkpt>
      <trkpt lat="42.2456448" lon="-8.6109984">
        <ele>179.80999755859375</ele>
        <time>2018-10-10T12:30:49Z</time>
      </trkpt>
      <trkpt lat="42.24570368" lon="-8.61106304">
        <ele>178.6300048828125</ele>
        <time>2018-10-10T12:30:51Z</time>
      </trkpt>
      <trkpt lat="42.24575488" lon="-8.61112704">
        <ele>178.6300048828125</ele>
        <time>2018-10-10T12:30:53Z</time>
      </trkpt>
      <trkpt lat="42.24578816" lon="-8.61119104">
        <ele>178.6300048828125</ele>
        <time>2018-10-10T12:30:55Z</time>
      </trkpt>
      <trkpt lat="42.2458112" lon="-8.611248">
        <ele>178.6300048828125</ele>
        <time>2018-10-10T12:30:57Z</time>
      </trkpt>
      <trkpt lat="42.24583424" lon="-8.61131776">
        <ele>178.6300048828125</ele>
        <time>2018-10-10T12:31:00Z</time>
      </trkpt>
      <trkpt lat="42.24584704" lon="-8.61139008">
        <ele>178.6300048828125</ele>
        <time>2018-10-10T12:31:03Z</time>
      </trkpt>
      <trkpt lat="42.24585216" lon="-8.61147712">
        <ele>178.6300048828125</ele>
        <time>2018-10-10T12:31:06Z</time>
      </trkpt>
      <trkpt lat="42.24585216" lon="-8.61154176">
        <ele>178.6300048828125</ele>
        <time>2018-10-10T12:31:09Z</time>
      </trkpt>
      <trkpt lat="42.24580352" lon="-8.61157312">
        <ele>178.6300048828125</ele>
        <time>2018-10-10T12:31:12Z</time>
      </trkpt>
      <trkpt lat="42.24571136" lon="-8.61157312">
        <ele>178.6300048828125</ele>
        <time>2018-10-10T12:31:15Z</time>
      </trkpt>
      <trkpt lat="42.24563968" lon="-8.61157248">
        <ele>178.6300048828125</ele>
        <time>2018-10-10T12:31:17Z</time>
      </trkpt>
      <trkpt lat="42.245568" lon="-8.61157056">
        <ele>178.6300048828125</ele>
        <time>2018-10-10T12:31:19Z</time>
      </trkpt>
      <trkpt lat="42.24548608" lon="-8.61156864">
        <ele>178.6300048828125</ele>
        <time>2018-10-10T12:31:21Z</time>
      </trkpt>
      <trkpt lat="42.24541184" lon="-8.61156928">
        <ele>178.6300048828125</ele>
        <time>2018-10-10T12:31:23Z</time>
      </trkpt>
      <trkpt lat="42.24533504" lon="-8.61157696">
        <ele>178.6300048828125</ele>
        <time>2018-10-10T12:31:25Z</time>
      </trkpt>
      <trkpt lat="42.24526336" lon="-8.61159424">
        <ele>177.4499969482422</ele>
        <time>2018-10-10T12:31:27Z</time>
      </trkpt>
      <trkpt lat="42.24519424" lon="-8.61161536">
        <ele>177.4499969482422</ele>
        <time>2018-10-10T12:31:29Z</time>
      </trkpt>
      <trkpt lat="42.24509696" lon="-8.61165248">
        <ele>176.0</ele>
        <time>2018-10-10T12:31:32Z</time>
      </trkpt>
      <trkpt lat="42.24503296" lon="-8.61168128">
        <ele>176.0</ele>
        <time>2018-10-10T12:31:34Z</time>
      </trkpt>
      <trkpt lat="42.24496128" lon="-8.61171136">
        <ele>176.0</ele>
        <time>2018-10-10T12:31:36Z</time>
      </trkpt>
      <trkpt lat="42.24488448" lon="-8.6117408">
        <ele>176.0</ele>
        <time>2018-10-10T12:31:38Z</time>
      </trkpt>
      <trkpt lat="42.24480512" lon="-8.6117696">
        <ele>176.0</ele>
        <time>2018-10-10T12:31:40Z</time>
      </trkpt>
      <trkpt lat="42.2447232" lon="-8.61179328">
        <ele>176.0</ele>
        <time>2018-10-10T12:31:42Z</time>
      </trkpt>
      <trkpt lat="42.24464384" lon="-8.61182208">
        <ele>176.0</ele>
        <time>2018-10-10T12:31:44Z</time>
      </trkpt>
      <trkpt lat="42.24455936" lon="-8.61185344">
        <ele>176.0</ele>
        <time>2018-10-10T12:31:46Z</time>
      </trkpt>
      <trkpt lat="42.24447232" lon="-8.61188608">
        <ele>174.72000122070312</ele>
        <time>2018-10-10T12:31:48Z</time>
      </trkpt>
      <trkpt lat="42.24438784" lon="-8.61192064">
        <ele>174.72000122070312</ele>
        <time>2018-10-10T12:31:50Z</time>
      </trkpt>
      <trkpt lat="42.2443008" lon="-8.61195264">
        <ele>174.72000122070312</ele>
        <time>2018-10-10T12:31:52Z</time>
      </trkpt>
      <trkpt lat="42.24422912" lon="-8.61198144">
        <ele>174.72000122070312</ele>
        <time>2018-10-10T12:31:54Z</time>
      </trkpt>
      <trkpt lat="42.24416768" lon="-8.61200448">
        <ele>174.72000122070312</ele>
        <time>2018-10-10T12:31:56Z</time>
      </trkpt>
      <trkpt lat="42.24411136" lon="-8.61202496">
        <ele>174.72000122070312</ele>
        <time>2018-10-10T12:31:58Z</time>
      </trkpt>
      <trkpt lat="42.24406016" lon="-8.61204224">
        <ele>176.17999267578125</ele>
        <time>2018-10-10T12:32:00Z</time>
      </trkpt>
      <trkpt lat="42.24401408" lon="-8.61205952">
        <ele>176.17999267578125</ele>
        <time>2018-10-10T12:32:03Z</time>
      </trkpt>
      <trkpt lat="42.24397312" lon="-8.61203456">
        <ele>176.17999267578125</ele>
        <time>2018-10-10T12:32:26Z</time>
      </trkpt>
      <trkpt lat="42.24387072" lon="-8.61207488">
        <ele>176.17999267578125</ele>
        <time>2018-10-10T12:32:31Z</time>
      </trkpt>
      <trkpt lat="42.2438016" lon="-8.61209984">
        <ele>176.17999267578125</ele>
        <time>2018-10-10T12:32:33Z</time>
      </trkpt>
      <trkpt lat="42.24372736" lon="-8.61212736">
        <ele>176.17999267578125</ele>
        <time>2018-10-10T12:32:35Z</time>
      </trkpt>
      <trkpt lat="42.243648" lon="-8.61215872">
        <ele>176.17999267578125</ele>
        <time>2018-10-10T12:32:37Z</time>
      </trkpt>
      <trkpt lat="42.24356864" lon="-8.612192">
        <ele>175.0</ele>
        <time>2018-10-10T12:32:39Z</time>
      </trkpt>
      <trkpt lat="42.24349184" lon="-8.61222144">
        <ele>175.0</ele>
        <time>2018-10-10T12:32:41Z</time>
      </trkpt>
      <trkpt lat="42.24341504" lon="-8.6122208">
        <ele>175.0</ele>
        <time>2018-10-10T12:32:43Z</time>
      </trkpt>
      <trkpt lat="42.2433408" lon="-8.61218816">
        <ele>175.0</ele>
        <time>2018-10-10T12:32:45Z</time>
      </trkpt>
      <trkpt lat="42.24325632" lon="-8.61214464">
        <ele>175.0</ele>
        <time>2018-10-10T12:32:47Z</time>
      </trkpt>
      <trkpt lat="42.24317184" lon="-8.61208128">
        <ele>175.0</ele>
        <time>2018-10-10T12:32:49Z</time>
      </trkpt>
      <trkpt lat="42.24313088" lon="-8.61204992">
        <ele>175.0</ele>
        <time>2018-10-10T12:32:50Z</time>
      </trkpt>
      <trkpt lat="42.2430464" lon="-8.61198912">
        <ele>175.0</ele>
        <time>2018-10-10T12:32:52Z</time>
      </trkpt>
      <trkpt lat="42.24300032" lon="-8.61196352">
        <ele>176.27000427246094</ele>
        <time>2018-10-10T12:32:53Z</time>
      </trkpt>
      <trkpt lat="42.24291328" lon="-8.61192064">
        <ele>176.27000427246094</ele>
        <time>2018-10-10T12:32:55Z</time>
      </trkpt>
      <trkpt lat="42.24286208" lon="-8.61190016">
        <ele>176.27000427246094</ele>
        <time>2018-10-10T12:32:56Z</time>
      </trkpt>
      <trkpt lat="42.24275712" lon="-8.61186688">
        <ele>176.27000427246094</ele>
        <time>2018-10-10T12:32:58Z</time>
      </trkpt>
      <trkpt lat="42.24270336" lon="-8.61186432">
        <ele>176.27000427246094</ele>
        <time>2018-10-10T12:32:59Z</time>
      </trkpt>
      <trkpt lat="42.2426496" lon="-8.61186432">
        <ele>176.27000427246094</ele>
        <time>2018-10-10T12:33:00Z</time>
      </trkpt>
      <trkpt lat="42.24259072" lon="-8.61186688">
        <ele>177.5399932861328</ele>
        <time>2018-10-10T12:33:01Z</time>
      </trkpt>
      <trkpt lat="42.24254208" lon="-8.611872">
        <ele>177.5399932861328</ele>
        <time>2018-10-10T12:33:02Z</time>
      </trkpt>
      <trkpt lat="42.24243968" lon="-8.61189056">
        <ele>177.5399932861328</ele>
        <time>2018-10-10T12:33:04Z</time>
      </trkpt>
      <trkpt lat="42.24238592" lon="-8.61190336">
        <ele>177.5399932861328</ele>
        <time>2018-10-10T12:33:05Z</time>
      </trkpt>
      <trkpt lat="42.24233728" lon="-8.61191936">
        <ele>177.5399932861328</ele>
        <time>2018-10-10T12:33:06Z</time>
      </trkpt>
      <trkpt lat="42.24225536" lon="-8.61196352">
        <ele>177.5399932861328</ele>
        <time>2018-10-10T12:33:08Z</time>
      </trkpt>
      <trkpt lat="42.24219392" lon="-8.61202624">
        <ele>177.5399932861328</ele>
        <time>2018-10-10T12:33:10Z</time>
      </trkpt>
      <trkpt lat="42.24215296" lon="-8.61211584">
        <ele>177.5399932861328</ele>
        <time>2018-10-10T12:33:12Z</time>
      </trkpt>
      <trkpt lat="42.24211456" lon="-8.61221888">
        <ele>177.5399932861328</ele>
        <time>2018-10-10T12:33:14Z</time>
      </trkpt>
      <trkpt lat="42.24208896" lon="-8.61233344">
        <ele>177.5399932861328</ele>
        <time>2018-10-10T12:33:16Z</time>
      </trkpt>
      <trkpt lat="42.24209152" lon="-8.61245696">
        <ele>177.5399932861328</ele>
        <time>2018-10-10T12:33:18Z</time>
      </trkpt>
      <trkpt lat="42.24211456" lon="-8.61258496">
        <ele>177.5399932861328</ele>
        <time>2018-10-10T12:33:20Z</time>
      </trkpt>
      <trkpt lat="42.24215296" lon="-8.61271168">
        <ele>177.5399932861328</ele>
        <time>2018-10-10T12:33:22Z</time>
      </trkpt>
      <trkpt lat="42.24219392" lon="-8.61284416">
        <ele>177.5399932861328</ele>
        <time>2018-10-10T12:33:24Z</time>
      </trkpt>
      <trkpt lat="42.2422144" lon="-8.612912">
        <ele>177.5399932861328</ele>
        <time>2018-10-10T12:33:25Z</time>
      </trkpt>
      <trkpt lat="42.24223232" lon="-8.61297984">
        <ele>176.36000061035156</ele>
        <time>2018-10-10T12:33:26Z</time>
      </trkpt>
      <trkpt lat="42.24225536" lon="-8.61304384">
        <ele>176.36000061035156</ele>
        <time>2018-10-10T12:33:27Z</time>
      </trkpt>
      <trkpt lat="42.2422784" lon="-8.61310464">
        <ele>176.36000061035156</ele>
        <time>2018-10-10T12:33:28Z</time>
      </trkpt>
      <trkpt lat="42.24229888" lon="-8.61316608">
        <ele>176.36000061035156</ele>
        <time>2018-10-10T12:33:29Z</time>
      </trkpt>
      <trkpt lat="42.24233984" lon="-8.61328576">
        <ele>176.36000061035156</ele>
        <time>2018-10-10T12:33:31Z</time>
      </trkpt>
      <trkpt lat="42.24238592" lon="-8.61340608">
        <ele>176.36000061035156</ele>
        <time>2018-10-10T12:33:33Z</time>
      </trkpt>
      <trkpt lat="42.24242432" lon="-8.61352832">
        <ele>176.36000061035156</ele>
        <time>2018-10-10T12:33:35Z</time>
      </trkpt>
      <trkpt lat="42.2424576" lon="-8.61365056">
        <ele>176.36000061035156</ele>
        <time>2018-10-10T12:33:37Z</time>
      </trkpt>
      <trkpt lat="42.24248064" lon="-8.61377216">
        <ele>176.36000061035156</ele>
        <time>2018-10-10T12:33:39Z</time>
      </trkpt>
      <trkpt lat="42.24248064" lon="-8.61389824">
        <ele>176.36000061035156</ele>
        <time>2018-10-10T12:33:41Z</time>
      </trkpt>
      <trkpt lat="42.24247296" lon="-8.6140224">
        <ele>176.36000061035156</ele>
        <time>2018-10-10T12:33:43Z</time>
      </trkpt>
      <trkpt lat="42.24246272" lon="-8.61414272">
        <ele>176.36000061035156</ele>
        <time>2018-10-10T12:33:45Z</time>
      </trkpt>
      <trkpt lat="42.24245504" lon="-8.61426944">
        <ele>176.36000061035156</ele>
        <time>2018-10-10T12:33:47Z</time>
      </trkpt>
      <trkpt lat="42.24244736" lon="-8.6144">
        <ele>175.08999633789062</ele>
        <time>2018-10-10T12:33:49Z</time>
      </trkpt>
      <trkpt lat="42.24244224" lon="-8.61446656">
        <ele>173.89999389648438</ele>
        <time>2018-10-10T12:33:50Z</time>
      </trkpt>
      <trkpt lat="42.24244736" lon="-8.61459648">
        <ele>173.89999389648438</ele>
        <time>2018-10-10T12:33:52Z</time>
      </trkpt>
      <trkpt lat="42.24246272" lon="-8.61471872">
        <ele>173.89999389648438</ele>
        <time>2018-10-10T12:33:54Z</time>
      </trkpt>
      <trkpt lat="42.24247808" lon="-8.61483072">
        <ele>173.89999389648438</ele>
        <time>2018-10-10T12:33:56Z</time>
      </trkpt>
      <trkpt lat="42.24248064" lon="-8.61497408">
        <ele>173.89999389648438</ele>
        <time>2018-10-10T12:33:59Z</time>
      </trkpt>
      <trkpt lat="42.2424704" lon="-8.615056">
        <ele>173.89999389648438</ele>
        <time>2018-10-10T12:34:01Z</time>
      </trkpt>
      <trkpt lat="42.24244224" lon="-8.61513728">
        <ele>175.27000427246094</ele>
        <time>2018-10-10T12:34:03Z</time>
      </trkpt>
      <trkpt lat="42.24240896" lon="-8.61522496">
        <ele>175.27000427246094</ele>
        <time>2018-10-10T12:34:05Z</time>
      </trkpt>
      <trkpt lat="42.242368" lon="-8.61532288">
        <ele>176.5399932861328</ele>
        <time>2018-10-10T12:34:07Z</time>
      </trkpt>
      <trkpt lat="42.24227072" lon="-8.61546048">
        <ele>176.5399932861328</ele>
        <time>2018-10-10T12:34:10Z</time>
      </trkpt>
      <trkpt lat="42.24219392" lon="-8.61552704">
        <ele>176.5399932861328</ele>
        <time>2018-10-10T12:34:12Z</time>
      </trkpt>
      <trkpt lat="42.24211456" lon="-8.61559232">
        <ele>176.5399932861328</ele>
        <time>2018-10-10T12:34:14Z</time>
      </trkpt>
      <trkpt lat="42.24203776" lon="-8.61566528">
        <ele>176.5399932861328</ele>
        <time>2018-10-10T12:34:16Z</time>
      </trkpt>
      <trkpt lat="42.2419712" lon="-8.61574336">
        <ele>176.5399932861328</ele>
        <time>2018-10-10T12:34:18Z</time>
      </trkpt>
      <trkpt lat="42.24190208" lon="-8.61582784">
        <ele>176.5399932861328</ele>
        <time>2018-10-10T12:34:20Z</time>
      </trkpt>
      <trkpt lat="42.24184064" lon="-8.61590976">
        <ele>176.5399932861328</ele>
        <time>2018-10-10T12:34:22Z</time>
      </trkpt>
      <trkpt lat="42.24178432" lon="-8.616">
        <ele>176.5399932861328</ele>
        <time>2018-10-10T12:34:24Z</time>
      </trkpt>
      <trkpt lat="42.24173312" lon="-8.61608512">
        <ele>175.27000427246094</ele>
        <time>2018-10-10T12:34:26Z</time>
      </trkpt>
      <trkpt lat="42.24167936" lon="-8.61616704">
        <ele>175.27000427246094</ele>
        <time>2018-10-10T12:34:28Z</time>
      </trkpt>
      <trkpt lat="42.2416256" lon="-8.61624704">
        <ele>175.27000427246094</ele>
        <time>2018-10-10T12:34:30Z</time>
      </trkpt>
      <trkpt lat="42.24157696" lon="-8.61632064">
        <ele>175.27000427246094</ele>
        <time>2018-10-10T12:34:32Z</time>
      </trkpt>
      <trkpt lat="42.24152832" lon="-8.61639488">
        <ele>175.27000427246094</ele>
        <time>2018-10-10T12:34:34Z</time>
      </trkpt>
      <trkpt lat="42.24147456" lon="-8.61648192">
        <ele>175.27000427246094</ele>
        <time>2018-10-10T12:34:36Z</time>
      </trkpt>
      <trkpt lat="42.24143616" lon="-8.61659136">
        <ele>175.27000427246094</ele>
        <time>2018-10-10T12:34:38Z</time>
      </trkpt>
      <trkpt lat="42.24143872" lon="-8.61671424">
        <ele>175.27000427246094</ele>
        <time>2018-10-10T12:34:40Z</time>
      </trkpt>
      <trkpt lat="42.24147456" lon="-8.61683456">
        <ele>175.27000427246094</ele>
        <time>2018-10-10T12:34:42Z</time>
      </trkpt>
      <trkpt lat="42.24150016" lon="-8.61689088">
        <ele>175.27000427246094</ele>
        <time>2018-10-10T12:34:43Z</time>
      </trkpt>
      <trkpt lat="42.24153088" lon="-8.61694528">
        <ele>175.27000427246094</ele>
        <time>2018-10-10T12:34:44Z</time>
      </trkpt>
      <trkpt lat="42.24161024" lon="-8.61701952">
        <ele>175.27000427246094</ele>
        <time>2018-10-10T12:34:46Z</time>
      </trkpt>
      <trkpt lat="42.2417024" lon="-8.61704128">
        <ele>175.27000427246094</ele>
        <time>2018-10-10T12:34:48Z</time>
      </trkpt>
      <trkpt lat="42.2417792" lon="-8.61703808">
        <ele>175.27000427246094</ele>
        <time>2018-10-10T12:34:50Z</time>
      </trkpt>
      <trkpt lat="42.241856" lon="-8.61701888">
        <ele>175.27000427246094</ele>
        <time>2018-10-10T12:34:52Z</time>
      </trkpt>
      <trkpt lat="42.24192512" lon="-8.61699264">
        <ele>175.27000427246094</ele>
        <time>2018-10-10T12:34:54Z</time>
      </trkpt>
      <trkpt lat="42.24200448" lon="-8.61696064">
        <ele>175.27000427246094</ele>
        <time>2018-10-10T12:34:56Z</time>
      </trkpt>
      <trkpt lat="42.24208896" lon="-8.61692544">
        <ele>175.27000427246094</ele>
        <time>2018-10-10T12:34:58Z</time>
      </trkpt>
      <trkpt lat="42.24213504" lon="-8.61690496">
        <ele>175.27000427246094</ele>
        <time>2018-10-10T12:34:59Z</time>
      </trkpt>
      <trkpt lat="42.24222464" lon="-8.61686336">
        <ele>175.27000427246094</ele>
        <time>2018-10-10T12:35:01Z</time>
      </trkpt>
      <trkpt lat="42.24227072" lon="-8.61684224">
        <ele>175.27000427246094</ele>
        <time>2018-10-10T12:35:02Z</time>
      </trkpt>
      <trkpt lat="42.2423552" lon="-8.61679552">
        <ele>175.27000427246094</ele>
        <time>2018-10-10T12:35:04Z</time>
      </trkpt>
      <trkpt lat="42.24243968" lon="-8.61674496">
        <ele>175.27000427246094</ele>
        <time>2018-10-10T12:35:06Z</time>
      </trkpt>
      <trkpt lat="42.24252672" lon="-8.61668416">
        <ele>175.27000427246094</ele>
        <time>2018-10-10T12:35:08Z</time>
      </trkpt>
      <trkpt lat="42.24261888" lon="-8.61661824">
        <ele>175.27000427246094</ele>
        <time>2018-10-10T12:35:10Z</time>
      </trkpt>
      <trkpt lat="42.24265984" lon="-8.61658304">
        <ele>175.27000427246094</ele>
        <time>2018-10-10T12:35:11Z</time>
      </trkpt>
      <trkpt lat="42.24274176" lon="-8.61651008">
        <ele>175.27000427246094</ele>
        <time>2018-10-10T12:35:13Z</time>
      </trkpt>
      <trkpt lat="42.24280832" lon="-8.61644352">
        <ele>175.27000427246094</ele>
        <time>2018-10-10T12:35:15Z</time>
      </trkpt>
      <trkpt lat="42.24287744" lon="-8.61638336">
        <ele>175.27000427246094</ele>
        <time>2018-10-10T12:35:17Z</time>
      </trkpt>
      <trkpt lat="42.242944" lon="-8.61632128">
        <ele>175.27000427246094</ele>
        <time>2018-10-10T12:35:19Z</time>
      </trkpt>
      <trkpt lat="42.24301568" lon="-8.61625856">
        <ele>175.27000427246094</ele>
        <time>2018-10-10T12:35:21Z</time>
      </trkpt>
      <trkpt lat="42.2430848" lon="-8.61619648">
        <ele>175.27000427246094</ele>
        <time>2018-10-10T12:35:23Z</time>
      </trkpt>
      <trkpt lat="42.24314624" lon="-8.61613248">
        <ele>175.27000427246094</ele>
        <time>2018-10-10T12:35:25Z</time>
      </trkpt>
      <trkpt lat="42.2432128" lon="-8.61606144">
        <ele>175.27000427246094</ele>
        <time>2018-10-10T12:35:27Z</time>
      </trkpt>
      <trkpt lat="42.24328704" lon="-8.61597824">
        <ele>175.27000427246094</ele>
        <time>2018-10-10T12:35:29Z</time>
      </trkpt>
      <trkpt lat="42.24336896" lon="-8.61589888">
        <ele>175.27000427246094</ele>
        <time>2018-10-10T12:35:31Z</time>
      </trkpt>
      <trkpt lat="42.24345344" lon="-8.61587904">
        <ele>175.27000427246094</ele>
        <time>2018-10-10T12:35:33Z</time>
      </trkpt>
      <trkpt lat="42.24353792" lon="-8.61586496">
        <ele>175.27000427246094</ele>
        <time>2018-10-10T12:35:35Z</time>
      </trkpt>
      <trkpt lat="42.24363008" lon="-8.61586112">
        <ele>175.27000427246094</ele>
        <time>2018-10-10T12:35:37Z</time>
      </trkpt>
      <trkpt lat="42.24372224" lon="-8.61587136">
        <ele>175.27000427246094</ele>
        <time>2018-10-10T12:35:39Z</time>
      </trkpt>
      <trkpt lat="42.24381184" lon="-8.61590464">
        <ele>175.27000427246094</ele>
        <time>2018-10-10T12:35:41Z</time>
      </trkpt>
      <trkpt lat="42.243904" lon="-8.6159648">
        <ele>175.27000427246094</ele>
        <time>2018-10-10T12:35:43Z</time>
      </trkpt>
      <trkpt lat="42.24395008" lon="-8.61600384">
        <ele>175.27000427246094</ele>
        <time>2018-10-10T12:35:44Z</time>
      </trkpt>
      <trkpt lat="42.24398848" lon="-8.61604672">
        <ele>175.27000427246094</ele>
        <time>2018-10-10T12:35:45Z</time>
      </trkpt>
      <trkpt lat="42.24406528" lon="-8.61614336">
        <ele>175.27000427246094</ele>
        <time>2018-10-10T12:35:47Z</time>
      </trkpt>
      <trkpt lat="42.24410368" lon="-8.61619584">
        <ele>175.27000427246094</ele>
        <time>2018-10-10T12:35:48Z</time>
      </trkpt>
      <trkpt lat="42.24413696" lon="-8.61624896">
        <ele>175.27000427246094</ele>
        <time>2018-10-10T12:35:49Z</time>
      </trkpt>
      <trkpt lat="42.24416768" lon="-8.61630336">
        <ele>175.27000427246094</ele>
        <time>2018-10-10T12:35:50Z</time>
      </trkpt>
      <trkpt lat="42.24422144" lon="-8.61641792">
        <ele>175.27000427246094</ele>
        <time>2018-10-10T12:35:52Z</time>
      </trkpt>
      <trkpt lat="42.24426752" lon="-8.61654016">
        <ele>175.27000427246094</ele>
        <time>2018-10-10T12:35:54Z</time>
      </trkpt>
      <trkpt lat="42.24428544" lon="-8.61660096">
        <ele>175.27000427246094</ele>
        <time>2018-10-10T12:35:55Z</time>
      </trkpt>
      <trkpt lat="42.24431872" lon="-8.61671552">
        <ele>175.27000427246094</ele>
        <time>2018-10-10T12:35:57Z</time>
      </trkpt>
      <trkpt lat="42.24434944" lon="-8.61682624">
        <ele>175.27000427246094</ele>
        <time>2018-10-10T12:35:59Z</time>
      </trkpt>
      <trkpt lat="42.24436992" lon="-8.61693504">
        <ele>175.27000427246094</ele>
        <time>2018-10-10T12:36:01Z</time>
      </trkpt>
      <trkpt lat="42.24438528" lon="-8.61704">
        <ele>175.27000427246094</ele>
        <time>2018-10-10T12:36:03Z</time>
      </trkpt>
      <trkpt lat="42.24438528" lon="-8.61715008">
        <ele>175.27000427246094</ele>
        <time>2018-10-10T12:36:05Z</time>
      </trkpt>
      <trkpt lat="42.24436992" lon="-8.61725888">
        <ele>175.27000427246094</ele>
        <time>2018-10-10T12:36:07Z</time>
      </trkpt>
      <trkpt lat="42.24434176" lon="-8.61735808">
        <ele>175.27000427246094</ele>
        <time>2018-10-10T12:36:09Z</time>
      </trkpt>
      <trkpt lat="42.24430592" lon="-8.61745536">
        <ele>175.27000427246094</ele>
        <time>2018-10-10T12:36:11Z</time>
      </trkpt>
      <trkpt lat="42.24425984" lon="-8.61756352">
        <ele>175.27000427246094</ele>
        <time>2018-10-10T12:36:13Z</time>
      </trkpt>
      <trkpt lat="42.24423936" lon="-8.6176192">
        <ele>175.27000427246094</ele>
        <time>2018-10-10T12:36:14Z</time>
      </trkpt>
      <trkpt lat="42.24419328" lon="-8.61779712">
        <ele>175.27000427246094</ele>
        <time>2018-10-10T12:36:17Z</time>
      </trkpt>
      <trkpt lat="42.24416768" lon="-8.61791232">
        <ele>175.27000427246094</ele>
        <time>2018-10-10T12:36:19Z</time>
      </trkpt>
      <trkpt lat="42.24413952" lon="-8.61802368">
        <ele>175.27000427246094</ele>
        <time>2018-10-10T12:36:21Z</time>
      </trkpt>
      <trkpt lat="42.24411648" lon="-8.61813376">
        <ele>175.27000427246094</ele>
        <time>2018-10-10T12:36:23Z</time>
      </trkpt>
      <trkpt lat="42.24409856" lon="-8.6182432">
        <ele>175.27000427246094</ele>
        <time>2018-10-10T12:36:25Z</time>
      </trkpt>
      <trkpt lat="42.24411136" lon="-8.618352">
        <ele>175.27000427246094</ele>
        <time>2018-10-10T12:36:27Z</time>
      </trkpt>
      <trkpt lat="42.24415232" lon="-8.61844608">
        <ele>175.27000427246094</ele>
        <time>2018-10-10T12:36:29Z</time>
      </trkpt>
      <trkpt lat="42.24421632" lon="-8.61851392">
        <ele>175.27000427246094</ele>
        <time>2018-10-10T12:36:31Z</time>
      </trkpt>
      <trkpt lat="42.24429824" lon="-8.61853952">
        <ele>175.27000427246094</ele>
        <time>2018-10-10T12:36:33Z</time>
      </trkpt>
      <trkpt lat="42.24438528" lon="-8.61852544">
        <ele>175.27000427246094</ele>
        <time>2018-10-10T12:36:35Z</time>
      </trkpt>
      <trkpt lat="42.24447232" lon="-8.61849024">
        <ele>175.27000427246094</ele>
        <time>2018-10-10T12:36:37Z</time>
      </trkpt>
      <trkpt lat="42.24456448" lon="-8.61845504">
        <ele>175.27000427246094</ele>
        <time>2018-10-10T12:36:39Z</time>
      </trkpt>
      <trkpt lat="42.24465152" lon="-8.61842048">
        <ele>175.27000427246094</ele>
        <time>2018-10-10T12:36:41Z</time>
      </trkpt>
      <trkpt lat="42.2447616" lon="-8.61838272">
        <ele>175.27000427246094</ele>
        <time>2018-10-10T12:36:43Z</time>
      </trkpt>
      <trkpt lat="42.24483584" lon="-8.61835264">
        <ele>175.27000427246094</ele>
        <time>2018-10-10T12:36:45Z</time>
      </trkpt>
      <trkpt lat="42.24492544" lon="-8.6183136">
        <ele>175.27000427246094</ele>
        <time>2018-10-10T12:36:47Z</time>
      </trkpt>
      <trkpt lat="42.24497152" lon="-8.61829312">
        <ele>175.27000427246094</ele>
        <time>2018-10-10T12:36:48Z</time>
      </trkpt>
      <trkpt lat="42.24506112" lon="-8.61824576">
        <ele>175.27000427246094</ele>
        <time>2018-10-10T12:36:50Z</time>
      </trkpt>
      <trkpt lat="42.24510976" lon="-8.61822208">
        <ele>175.27000427246094</ele>
        <time>2018-10-10T12:36:51Z</time>
      </trkpt>
      <trkpt lat="42.24521216" lon="-8.61817856">
        <ele>175.27000427246094</ele>
        <time>2018-10-10T12:36:53Z</time>
      </trkpt>
      <trkpt lat="42.24526336" lon="-8.61815744">
        <ele>175.27000427246094</ele>
        <time>2018-10-10T12:36:54Z</time>
      </trkpt>
      <trkpt lat="42.245312" lon="-8.61813824">
        <ele>175.27000427246094</ele>
        <time>2018-10-10T12:36:55Z</time>
      </trkpt>
      <trkpt lat="42.24536064" lon="-8.61811904">
        <ele>175.27000427246094</ele>
        <time>2018-10-10T12:36:56Z</time>
      </trkpt>
      <trkpt lat="42.2454144" lon="-8.61810048">
        <ele>175.27000427246094</ele>
        <time>2018-10-10T12:36:57Z</time>
      </trkpt>
      <trkpt lat="42.24546048" lon="-8.6180832">
        <ele>175.27000427246094</ele>
        <time>2018-10-10T12:36:58Z</time>
      </trkpt>
      <trkpt lat="42.2455552" lon="-8.61805056">
        <ele>174.08999633789062</ele>
        <time>2018-10-10T12:37:00Z</time>
      </trkpt>
      <trkpt lat="42.24565248" lon="-8.61803328">
        <ele>174.08999633789062</ele>
        <time>2018-10-10T12:37:02Z</time>
      </trkpt>
      <trkpt lat="42.24574208" lon="-8.61803648">
        <ele>174.08999633789062</ele>
        <time>2018-10-10T12:37:04Z</time>
      </trkpt>
      <trkpt lat="42.24583168" lon="-8.618064">
        <ele>174.08999633789062</ele>
        <time>2018-10-10T12:37:06Z</time>
      </trkpt>
      <trkpt lat="42.24591872" lon="-8.61811328">
        <ele>174.08999633789062</ele>
        <time>2018-10-10T12:37:08Z</time>
      </trkpt>
      <trkpt lat="42.2459648" lon="-8.618144">
        <ele>174.08999633789062</ele>
        <time>2018-10-10T12:37:09Z</time>
      </trkpt>
      <trkpt lat="42.2460544" lon="-8.61821184">
        <ele>174.08999633789062</ele>
        <time>2018-10-10T12:37:11Z</time>
      </trkpt>
      <trkpt lat="42.24610048" lon="-8.61824704">
        <ele>174.08999633789062</ele>
        <time>2018-10-10T12:37:12Z</time>
      </trkpt>
      <trkpt lat="42.24614656" lon="-8.61828416">
        <ele>174.08999633789062</ele>
        <time>2018-10-10T12:37:13Z</time>
      </trkpt>
      <trkpt lat="42.24619264" lon="-8.61832256">
        <ele>174.08999633789062</ele>
        <time>2018-10-10T12:37:14Z</time>
      </trkpt>
      <trkpt lat="42.24623616" lon="-8.61836032">
        <ele>174.08999633789062</ele>
        <time>2018-10-10T12:37:15Z</time>
      </trkpt>
      <trkpt lat="42.24627968" lon="-8.61839744">
        <ele>174.08999633789062</ele>
        <time>2018-10-10T12:37:16Z</time>
      </trkpt>
      <trkpt lat="42.24637184" lon="-8.61846912">
        <ele>174.08999633789062</ele>
        <time>2018-10-10T12:37:18Z</time>
      </trkpt>
      <trkpt lat="42.24641792" lon="-8.6185024">
        <ele>175.27000427246094</ele>
        <time>2018-10-10T12:37:19Z</time>
      </trkpt>
      <trkpt lat="42.24645888" lon="-8.61853568">
        <ele>175.27000427246094</ele>
        <time>2018-10-10T12:37:20Z</time>
      </trkpt>
      <trkpt lat="42.24654848" lon="-8.61860096">
        <ele>175.27000427246094</ele>
        <time>2018-10-10T12:37:22Z</time>
      </trkpt>
      <trkpt lat="42.24663552" lon="-8.61866368">
        <ele>175.27000427246094</ele>
        <time>2018-10-10T12:37:24Z</time>
      </trkpt>
      <trkpt lat="42.24667648" lon="-8.6186944">
        <ele>176.4499969482422</ele>
        <time>2018-10-10T12:37:25Z</time>
      </trkpt>
      <trkpt lat="42.24676096" lon="-8.61876032">
        <ele>176.4499969482422</ele>
        <time>2018-10-10T12:37:27Z</time>
      </trkpt>
      <trkpt lat="42.24679936" lon="-8.6187936">
        <ele>176.4499969482422</ele>
        <time>2018-10-10T12:37:28Z</time>
      </trkpt>
      <trkpt lat="42.24687104" lon="-8.61888768">
        <ele>176.4499969482422</ele>
        <time>2018-10-10T12:37:30Z</time>
      </trkpt>
      <trkpt lat="42.24690944" lon="-8.61899392">
        <ele>176.4499969482422</ele>
        <time>2018-10-10T12:37:32Z</time>
      </trkpt>
      <trkpt lat="42.24692992" lon="-8.61909952">
        <ele>175.17999267578125</ele>
        <time>2018-10-10T12:37:34Z</time>
      </trkpt>
      <trkpt lat="42.24692992" lon="-8.61920192">
        <ele>175.17999267578125</ele>
        <time>2018-10-10T12:37:36Z</time>
      </trkpt>
      <trkpt lat="42.24692992" lon="-8.61930304">
        <ele>175.17999267578125</ele>
        <time>2018-10-10T12:37:38Z</time>
      </trkpt>
      <trkpt lat="42.2469376" lon="-8.6193888">
        <ele>175.17999267578125</ele>
        <time>2018-10-10T12:37:40Z</time>
      </trkpt>
      <trkpt lat="42.24694016" lon="-8.61944384">
        <ele>175.17999267578125</ele>
        <time>2018-10-10T12:37:42Z</time>
      </trkpt>
      <trkpt lat="42.246976" lon="-8.619504">
        <ele>175.17999267578125</ele>
        <time>2018-10-10T12:37:45Z</time>
      </trkpt>
      <trkpt lat="42.24703488" lon="-8.61953536">
        <ele>175.17999267578125</ele>
        <time>2018-10-10T12:37:47Z</time>
      </trkpt>
      <trkpt lat="42.2471168" lon="-8.61956416">
        <ele>175.17999267578125</ele>
        <time>2018-10-10T12:37:49Z</time>
      </trkpt>
      <trkpt lat="42.24720384" lon="-8.6196">
        <ele>175.17999267578125</ele>
        <time>2018-10-10T12:37:51Z</time>
      </trkpt>
      <trkpt lat="42.24729856" lon="-8.61964416">
        <ele>175.17999267578125</ele>
        <time>2018-10-10T12:37:53Z</time>
      </trkpt>
      <trkpt lat="42.24739072" lon="-8.61970816">
        <ele>175.17999267578125</ele>
        <time>2018-10-10T12:37:55Z</time>
      </trkpt>
      <trkpt lat="42.2474368" lon="-8.61974592">
        <ele>175.17999267578125</ele>
        <time>2018-10-10T12:37:56Z</time>
      </trkpt>
      <trkpt lat="42.24747776" lon="-8.61979072">
        <ele>175.17999267578125</ele>
        <time>2018-10-10T12:37:57Z</time>
      </trkpt>
      <trkpt lat="42.24752128" lon="-8.61984256">
        <ele>175.17999267578125</ele>
        <time>2018-10-10T12:37:58Z</time>
      </trkpt>
      <trkpt lat="42.24755456" lon="-8.61988992">
        <ele>175.17999267578125</ele>
        <time>2018-10-10T12:37:59Z</time>
      </trkpt>
      <trkpt lat="42.247616" lon="-8.6199968">
        <ele>175.17999267578125</ele>
        <time>2018-10-10T12:38:01Z</time>
      </trkpt>
      <trkpt lat="42.24764672" lon="-8.6200544">
        <ele>175.17999267578125</ele>
        <time>2018-10-10T12:38:02Z</time>
      </trkpt>
      <trkpt lat="42.2476928" lon="-8.62017728">
        <ele>175.17999267578125</ele>
        <time>2018-10-10T12:38:04Z</time>
      </trkpt>
      <trkpt lat="42.24771072" lon="-8.62024128">
        <ele>175.17999267578125</ele>
        <time>2018-10-10T12:38:05Z</time>
      </trkpt>
      <trkpt lat="42.24775424" lon="-8.620368">
        <ele>175.17999267578125</ele>
        <time>2018-10-10T12:38:07Z</time>
      </trkpt>
      <trkpt lat="42.24777216" lon="-8.62043264">
        <ele>175.17999267578125</ele>
        <time>2018-10-10T12:38:08Z</time>
      </trkpt>
      <trkpt lat="42.2477952" lon="-8.6204864">
        <ele>175.17999267578125</ele>
        <time>2018-10-10T12:38:09Z</time>
      </trkpt>
      <trkpt lat="42.24784128" lon="-8.62059904">
        <ele>175.17999267578125</ele>
        <time>2018-10-10T12:38:11Z</time>
      </trkpt>
      <trkpt lat="42.2478976" lon="-8.62071104">
        <ele>175.17999267578125</ele>
        <time>2018-10-10T12:38:13Z</time>
      </trkpt>
      <trkpt lat="42.24793344" lon="-8.6207744">
        <ele>175.17999267578125</ele>
        <time>2018-10-10T12:38:14Z</time>
      </trkpt>
      <trkpt lat="42.24796672" lon="-8.62083456">
        <ele>175.17999267578125</ele>
        <time>2018-10-10T12:38:15Z</time>
      </trkpt>
      <trkpt lat="42.24799744" lon="-8.62089152">
        <ele>175.17999267578125</ele>
        <time>2018-10-10T12:38:16Z</time>
      </trkpt>
      <trkpt lat="42.24802816" lon="-8.62095232">
        <ele>175.17999267578125</ele>
        <time>2018-10-10T12:38:17Z</time>
      </trkpt>
      <trkpt lat="42.24805376" lon="-8.6210176">
        <ele>175.17999267578125</ele>
        <time>2018-10-10T12:38:18Z</time>
      </trkpt>
      <trkpt lat="42.24808192" lon="-8.62108224">
        <ele>175.17999267578125</ele>
        <time>2018-10-10T12:38:19Z</time>
      </trkpt>
      <trkpt lat="42.24811264" lon="-8.6211488">
        <ele>175.17999267578125</ele>
        <time>2018-10-10T12:38:20Z</time>
      </trkpt>
      <trkpt lat="42.24813824" lon="-8.6212128">
        <ele>175.17999267578125</ele>
        <time>2018-10-10T12:38:21Z</time>
      </trkpt>
      <trkpt lat="42.2481664" lon="-8.62127296">
        <ele>175.17999267578125</ele>
        <time>2018-10-10T12:38:22Z</time>
      </trkpt>
      <trkpt lat="42.248192" lon="-8.62133248">
        <ele>175.17999267578125</ele>
        <time>2018-10-10T12:38:23Z</time>
      </trkpt>
      <trkpt lat="42.24822272" lon="-8.62139136">
        <ele>175.17999267578125</ele>
        <time>2018-10-10T12:38:24Z</time>
      </trkpt>
      <trkpt lat="42.24827648" lon="-8.62150848">
        <ele>175.17999267578125</ele>
        <time>2018-10-10T12:38:26Z</time>
      </trkpt>
      <trkpt lat="42.24830208" lon="-8.62156864">
        <ele>175.17999267578125</ele>
        <time>2018-10-10T12:38:27Z</time>
      </trkpt>
      <trkpt lat="42.24833024" lon="-8.62162752">
        <ele>175.17999267578125</ele>
        <time>2018-10-10T12:38:28Z</time>
      </trkpt>
      <trkpt lat="42.24837376" lon="-8.62174912">
        <ele>175.17999267578125</ele>
        <time>2018-10-10T12:38:30Z</time>
      </trkpt>
      <trkpt lat="42.24838912" lon="-8.62181184">
        <ele>175.17999267578125</ele>
        <time>2018-10-10T12:38:31Z</time>
      </trkpt>
      <trkpt lat="42.24841984" lon="-8.6219424">
        <ele>175.17999267578125</ele>
        <time>2018-10-10T12:38:33Z</time>
      </trkpt>
      <trkpt lat="42.248448" lon="-8.62207232">
        <ele>175.17999267578125</ele>
        <time>2018-10-10T12:38:35Z</time>
      </trkpt>
      <trkpt lat="42.24845824" lon="-8.62213824">
        <ele>175.17999267578125</ele>
        <time>2018-10-10T12:38:36Z</time>
      </trkpt>
      <trkpt lat="42.24847104" lon="-8.62227904">
        <ele>175.17999267578125</ele>
        <time>2018-10-10T12:38:38Z</time>
      </trkpt>
      <trkpt lat="42.24847872" lon="-8.62235136">
        <ele>175.17999267578125</ele>
        <time>2018-10-10T12:38:39Z</time>
      </trkpt>
      <trkpt lat="42.2484864" lon="-8.62242496">
        <ele>175.17999267578125</ele>
        <time>2018-10-10T12:38:40Z</time>
      </trkpt>
      <trkpt lat="42.24850176" lon="-8.62249344">
        <ele>175.17999267578125</ele>
        <time>2018-10-10T12:38:41Z</time>
      </trkpt>
      <trkpt lat="42.24851968" lon="-8.62254976">
        <ele>175.17999267578125</ele>
        <time>2018-10-10T12:38:42Z</time>
      </trkpt>
      <trkpt lat="42.24859136" lon="-8.62263424">
        <ele>175.17999267578125</ele>
        <time>2018-10-10T12:38:44Z</time>
      </trkpt>
      <trkpt lat="42.24863488" lon="-8.62266816">
        <ele>175.17999267578125</ele>
        <time>2018-10-10T12:38:45Z</time>
      </trkpt>
      <trkpt lat="42.24872192" lon="-8.62274048">
        <ele>174.0</ele>
        <time>2018-10-10T12:38:47Z</time>
      </trkpt>
      <trkpt lat="42.24881408" lon="-8.62282368">
        <ele>174.0</ele>
        <time>2018-10-10T12:38:49Z</time>
      </trkpt>
      <trkpt lat="42.24886016" lon="-8.62286848">
        <ele>174.0</ele>
        <time>2018-10-10T12:38:50Z</time>
      </trkpt>
      <trkpt lat="42.24894976" lon="-8.62296384">
        <ele>174.0</ele>
        <time>2018-10-10T12:38:52Z</time>
      </trkpt>
      <trkpt lat="42.24899584" lon="-8.6230176">
        <ele>172.80999755859375</ele>
        <time>2018-10-10T12:38:53Z</time>
      </trkpt>
      <trkpt lat="42.24903424" lon="-8.62307264">
        <ele>172.80999755859375</ele>
        <time>2018-10-10T12:38:54Z</time>
      </trkpt>
      <trkpt lat="42.24907264" lon="-8.62312896">
        <ele>172.80999755859375</ele>
        <time>2018-10-10T12:38:55Z</time>
      </trkpt>
      <trkpt lat="42.24910848" lon="-8.62319296">
        <ele>172.80999755859375</ele>
        <time>2018-10-10T12:38:56Z</time>
      </trkpt>
      <trkpt lat="42.24915968" lon="-8.62332544">
        <ele>172.80999755859375</ele>
        <time>2018-10-10T12:38:58Z</time>
      </trkpt>
      <trkpt lat="42.24918272" lon="-8.62339008">
        <ele>172.80999755859375</ele>
        <time>2018-10-10T12:38:59Z</time>
      </trkpt>
      <trkpt lat="42.24921344" lon="-8.62344832">
        <ele>172.80999755859375</ele>
        <time>2018-10-10T12:39:00Z</time>
      </trkpt>
      <trkpt lat="42.24924928" lon="-8.6234912">
        <ele>172.80999755859375</ele>
        <time>2018-10-10T12:39:01Z</time>
      </trkpt>
      <trkpt lat="42.24933632" lon="-8.62351808">
        <ele>172.80999755859375</ele>
        <time>2018-10-10T12:39:03Z</time>
      </trkpt>
      <trkpt lat="42.24937728" lon="-8.62351616">
        <ele>172.80999755859375</ele>
        <time>2018-10-10T12:39:04Z</time>
      </trkpt>
      <trkpt lat="42.24946176" lon="-8.62352384">
        <ele>172.80999755859375</ele>
        <time>2018-10-10T12:39:06Z</time>
      </trkpt>
      <trkpt lat="42.24954112" lon="-8.62355968">
        <ele>172.80999755859375</ele>
        <time>2018-10-10T12:39:08Z</time>
      </trkpt>
      <trkpt lat="42.24961024" lon="-8.62363264">
        <ele>172.80999755859375</ele>
        <time>2018-10-10T12:39:10Z</time>
      </trkpt>
      <trkpt lat="42.24968704" lon="-8.62371648">
        <ele>172.80999755859375</ele>
        <time>2018-10-10T12:39:12Z</time>
      </trkpt>
      <trkpt lat="42.2497664" lon="-8.62381056">
        <ele>172.80999755859375</ele>
        <time>2018-10-10T12:39:14Z</time>
      </trkpt>
      <trkpt lat="42.24980992" lon="-8.62385536">
        <ele>172.80999755859375</ele>
        <time>2018-10-10T12:39:15Z</time>
      </trkpt>
      <trkpt lat="42.24985088" lon="-8.62390016">
        <ele>174.0</ele>
        <time>2018-10-10T12:39:16Z</time>
      </trkpt>
      <trkpt lat="42.2498944" lon="-8.6239424">
        <ele>174.0</ele>
        <time>2018-10-10T12:39:17Z</time>
      </trkpt>
      <trkpt lat="42.24997376" lon="-8.624016">
        <ele>174.0</ele>
        <time>2018-10-10T12:39:19Z</time>
      </trkpt>
      <trkpt lat="42.25005312" lon="-8.62407616">
        <ele>174.0</ele>
        <time>2018-10-10T12:39:21Z</time>
      </trkpt>
      <trkpt lat="42.25013248" lon="-8.62406528">
        <ele>174.0</ele>
        <time>2018-10-10T12:39:23Z</time>
      </trkpt>
      <trkpt lat="42.25019136" lon="-8.62399552">
        <ele>174.0</ele>
        <time>2018-10-10T12:39:25Z</time>
      </trkpt>
      <trkpt lat="42.25022976" lon="-8.62390336">
        <ele>174.0</ele>
        <time>2018-10-10T12:39:27Z</time>
      </trkpt>
      <trkpt lat="42.25025536" lon="-8.62380096">
        <ele>174.0</ele>
        <time>2018-10-10T12:39:29Z</time>
      </trkpt>
      <trkpt lat="42.25027584" lon="-8.62371072">
        <ele>174.0</ele>
        <time>2018-10-10T12:39:31Z</time>
      </trkpt>
      <trkpt lat="42.25029376" lon="-8.62362752">
        <ele>174.0</ele>
        <time>2018-10-10T12:39:33Z</time>
      </trkpt>
      <trkpt lat="42.2503168" lon="-8.62355072">
        <ele>174.0</ele>
        <time>2018-10-10T12:39:35Z</time>
      </trkpt>
      <trkpt lat="42.25035008" lon="-8.62347776">
        <ele>174.0</ele>
        <time>2018-10-10T12:39:37Z</time>
      </trkpt>
      <trkpt lat="42.25040384" lon="-8.62341696">
        <ele>174.0</ele>
        <time>2018-10-10T12:39:39Z</time>
      </trkpt>
      <trkpt lat="42.25047808" lon="-8.62336128">
        <ele>174.0</ele>
        <time>2018-10-10T12:39:41Z</time>
      </trkpt>
      <trkpt lat="42.25056512" lon="-8.62330048">
        <ele>174.0</ele>
        <time>2018-10-10T12:39:43Z</time>
      </trkpt>
      <trkpt lat="42.2506368" lon="-8.62324928">
        <ele>174.0</ele>
        <time>2018-10-10T12:39:45Z</time>
      </trkpt>
      <trkpt lat="42.25069824" lon="-8.62320448">
        <ele>174.0</ele>
        <time>2018-10-10T12:39:46Z</time>
      </trkpt>
      <trkpt lat="42.250752" lon="-8.62316224">
        <ele>174.0</ele>
        <time>2018-10-10T12:39:47Z</time>
      </trkpt>
      <trkpt lat="42.25079296" lon="-8.62312192">
        <ele>174.0</ele>
        <time>2018-10-10T12:39:48Z</time>
      </trkpt>
      <trkpt lat="42.25083648" lon="-8.62308224">
        <ele>174.0</ele>
        <time>2018-10-10T12:39:49Z</time>
      </trkpt>
      <trkpt lat="42.25086976" lon="-8.62304384">
        <ele>174.0</ele>
        <time>2018-10-10T12:39:50Z</time>
      </trkpt>
      <trkpt lat="42.25093376" lon="-8.62296768">
        <ele>174.0</ele>
        <time>2018-10-10T12:39:52Z</time>
      </trkpt>
      <trkpt lat="42.25099264" lon="-8.6228992">
        <ele>174.0</ele>
        <time>2018-10-10T12:39:54Z</time>
      </trkpt>
      <trkpt lat="42.25105408" lon="-8.6228448">
        <ele>174.0</ele>
        <time>2018-10-10T12:39:56Z</time>
      </trkpt>
      <trkpt lat="42.25112832" lon="-8.62281984">
        <ele>174.0</ele>
        <time>2018-10-10T12:39:58Z</time>
      </trkpt>
      <trkpt lat="42.25121024" lon="-8.6228192">
        <ele>174.0</ele>
        <time>2018-10-10T12:40:00Z</time>
      </trkpt>
      <trkpt lat="42.25129216" lon="-8.62283776">
        <ele>174.0</ele>
        <time>2018-10-10T12:40:02Z</time>
      </trkpt>
      <trkpt lat="42.25137664" lon="-8.62286592">
        <ele>174.0</ele>
        <time>2018-10-10T12:40:04Z</time>
      </trkpt>
      <trkpt lat="42.25146112" lon="-8.62290176">
        <ele>174.0</ele>
        <time>2018-10-10T12:40:06Z</time>
      </trkpt>
      <trkpt lat="42.25153792" lon="-8.62293504">
        <ele>174.0</ele>
        <time>2018-10-10T12:40:08Z</time>
      </trkpt>
      <trkpt lat="42.2516096" lon="-8.62295936">
        <ele>174.0</ele>
        <time>2018-10-10T12:40:10Z</time>
      </trkpt>
      <trkpt lat="42.25168128" lon="-8.62297728">
        <ele>174.0</ele>
        <time>2018-10-10T12:40:12Z</time>
      </trkpt>
      <trkpt lat="42.25175552" lon="-8.6229888">
        <ele>174.0</ele>
        <time>2018-10-10T12:40:14Z</time>
      </trkpt>
      <trkpt lat="42.25183232" lon="-8.62299136">
        <ele>174.0</ele>
        <time>2018-10-10T12:40:16Z</time>
      </trkpt>
      <trkpt lat="42.25191424" lon="-8.62298496">
        <ele>174.0</ele>
        <time>2018-10-10T12:40:18Z</time>
      </trkpt>
      <trkpt lat="42.25198848" lon="-8.62297536">
        <ele>174.0</ele>
        <time>2018-10-10T12:40:20Z</time>
      </trkpt>
      <trkpt lat="42.25205504" lon="-8.62296704">
        <ele>174.0</ele>
        <time>2018-10-10T12:40:22Z</time>
      </trkpt>
      <trkpt lat="42.25212928" lon="-8.62294848">
        <ele>174.0</ele>
        <time>2018-10-10T12:40:24Z</time>
      </trkpt>
      <trkpt lat="42.25220608" lon="-8.62292544">
        <ele>174.0</ele>
        <time>2018-10-10T12:40:26Z</time>
      </trkpt>
      <trkpt lat="42.252288" lon="-8.62290496">
        <ele>174.0</ele>
        <time>2018-10-10T12:40:28Z</time>
      </trkpt>
      <trkpt lat="42.2523648" lon="-8.62290176">
        <ele>174.0</ele>
        <time>2018-10-10T12:40:30Z</time>
      </trkpt>
      <trkpt lat="42.25243392" lon="-8.62292864">
        <ele>174.0</ele>
        <time>2018-10-10T12:40:32Z</time>
      </trkpt>
      <trkpt lat="42.2525056" lon="-8.62300416">
        <ele>174.0</ele>
        <time>2018-10-10T12:40:34Z</time>
      </trkpt>
      <trkpt lat="42.252544" lon="-8.62305472">
        <ele>174.0</ele>
        <time>2018-10-10T12:40:35Z</time>
      </trkpt>
      <trkpt lat="42.25257472" lon="-8.62309952">
        <ele>175.17999267578125</ele>
        <time>2018-10-10T12:40:36Z</time>
      </trkpt>
      <trkpt lat="42.25265408" lon="-8.62318592">
        <ele>175.17999267578125</ele>
        <time>2018-10-10T12:40:38Z</time>
      </trkpt>
      <trkpt lat="42.25270528" lon="-8.62321664">
        <ele>175.17999267578125</ele>
        <time>2018-10-10T12:40:39Z</time>
      </trkpt>
      <trkpt lat="42.25275136" lon="-8.62323072">
        <ele>175.17999267578125</ele>
        <time>2018-10-10T12:40:40Z</time>
      </trkpt>
      <trkpt lat="42.25284096" lon="-8.62319552">
        <ele>175.17999267578125</ele>
        <time>2018-10-10T12:40:42Z</time>
      </trkpt>
      <trkpt lat="42.2529024" lon="-8.6231232">
        <ele>175.17999267578125</ele>
        <time>2018-10-10T12:40:44Z</time>
      </trkpt>
      <trkpt lat="42.25296384" lon="-8.62303552">
        <ele>175.17999267578125</ele>
        <time>2018-10-10T12:40:46Z</time>
      </trkpt>
      <trkpt lat="42.25302528" lon="-8.62295936">
        <ele>175.17999267578125</ele>
        <time>2018-10-10T12:40:48Z</time>
      </trkpt>
      <trkpt lat="42.25309696" lon="-8.62290496">
        <ele>175.17999267578125</ele>
        <time>2018-10-10T12:40:50Z</time>
      </trkpt>
      <trkpt lat="42.25318144" lon="-8.62287808">
        <ele>175.17999267578125</ele>
        <time>2018-10-10T12:40:52Z</time>
      </trkpt>
      <trkpt lat="42.25325824" lon="-8.62288832">
        <ele>175.17999267578125</ele>
        <time>2018-10-10T12:40:54Z</time>
      </trkpt>
      <trkpt lat="42.25332736" lon="-8.62293632">
        <ele>175.17999267578125</ele>
        <time>2018-10-10T12:40:56Z</time>
      </trkpt>
      <trkpt lat="42.25346816" lon="-8.6230688">
        <ele>175.17999267578125</ele>
        <time>2018-10-10T12:40:59Z</time>
      </trkpt>
      <trkpt lat="42.2534912" lon="-8.62307712">
        <ele>175.17999267578125</ele>
        <time>2018-10-10T12:41:00Z</time>
      </trkpt>
      <trkpt lat="42.25356032" lon="-8.62307712">
        <ele>175.17999267578125</ele>
        <time>2018-10-10T12:41:02Z</time>
      </trkpt>
      <trkpt lat="42.25363968" lon="-8.62304704">
        <ele>175.17999267578125</ele>
        <time>2018-10-10T12:41:04Z</time>
      </trkpt>
      <trkpt lat="42.25371904" lon="-8.62301376">
        <ele>175.17999267578125</ele>
        <time>2018-10-10T12:41:06Z</time>
      </trkpt>
      <trkpt lat="42.25380352" lon="-8.62298304">
        <ele>176.36000061035156</ele>
        <time>2018-10-10T12:41:08Z</time>
      </trkpt>
      <trkpt lat="42.25388288" lon="-8.62296576">
        <ele>176.36000061035156</ele>
        <time>2018-10-10T12:41:10Z</time>
      </trkpt>
      <trkpt lat="42.25396992" lon="-8.62296704">
        <ele>176.36000061035156</ele>
        <time>2018-10-10T12:41:12Z</time>
      </trkpt>
      <trkpt lat="42.25408512" lon="-8.62299904">
        <ele>176.36000061035156</ele>
        <time>2018-10-10T12:41:15Z</time>
      </trkpt>
      <trkpt lat="42.2541568" lon="-8.62301632">
        <ele>176.36000061035156</ele>
        <time>2018-10-10T12:41:17Z</time>
      </trkpt>
      <trkpt lat="42.25421824" lon="-8.6230336">
        <ele>176.36000061035156</ele>
        <time>2018-10-10T12:41:19Z</time>
      </trkpt>
      <trkpt lat="42.25426944" lon="-8.62304384">
        <ele>176.36000061035156</ele>
        <time>2018-10-10T12:41:21Z</time>
      </trkpt>
      <trkpt lat="42.2543232" lon="-8.6230432">
        <ele>175.17999267578125</ele>
        <time>2018-10-10T12:41:23Z</time>
      </trkpt>
      <trkpt lat="42.2543872" lon="-8.623024">
        <ele>175.17999267578125</ele>
        <time>2018-10-10T12:41:25Z</time>
      </trkpt>
      <trkpt lat="42.25446656" lon="-8.6229536">
        <ele>175.17999267578125</ele>
        <time>2018-10-10T12:41:27Z</time>
      </trkpt>
      <trkpt lat="42.25450496" lon="-8.62290304">
        <ele>175.17999267578125</ele>
        <time>2018-10-10T12:41:28Z</time>
      </trkpt>
      <trkpt lat="42.25454592" lon="-8.62284928">
        <ele>175.17999267578125</ele>
        <time>2018-10-10T12:41:29Z</time>
      </trkpt>
      <trkpt lat="42.25458944" lon="-8.62279488">
        <ele>175.17999267578125</ele>
        <time>2018-10-10T12:41:30Z</time>
      </trkpt>
      <trkpt lat="42.2546304" lon="-8.62274176">
        <ele>175.17999267578125</ele>
        <time>2018-10-10T12:41:31Z</time>
      </trkpt>
      <trkpt lat="42.25467392" lon="-8.62268352">
        <ele>175.17999267578125</ele>
        <time>2018-10-10T12:41:32Z</time>
      </trkpt>
      <trkpt lat="42.2547072" lon="-8.6226368">
        <ele>175.17999267578125</ele>
        <time>2018-10-10T12:41:33Z</time>
      </trkpt>
      <trkpt lat="42.25473792" lon="-8.62259072">
        <ele>175.17999267578125</ele>
        <time>2018-10-10T12:41:34Z</time>
      </trkpt>
      <trkpt lat="42.25479168" lon="-8.62250112">
        <ele>175.17999267578125</ele>
        <time>2018-10-10T12:41:36Z</time>
      </trkpt>
      <trkpt lat="42.25484032" lon="-8.62242304">
        <ele>175.17999267578125</ele>
        <time>2018-10-10T12:41:38Z</time>
      </trkpt>
      <trkpt lat="42.25489152" lon="-8.62235648">
        <ele>175.17999267578125</ele>
        <time>2018-10-10T12:41:40Z</time>
      </trkpt>
      <trkpt lat="42.25494784" lon="-8.62228224">
        <ele>175.17999267578125</ele>
        <time>2018-10-10T12:41:42Z</time>
      </trkpt>
      <trkpt lat="42.25500416" lon="-8.62222656">
        <ele>175.17999267578125</ele>
        <time>2018-10-10T12:41:44Z</time>
      </trkpt>
      <trkpt lat="42.25507328" lon="-8.62217152">
        <ele>175.17999267578125</ele>
        <time>2018-10-10T12:41:46Z</time>
      </trkpt>
      <trkpt lat="42.2551424" lon="-8.6221152">
        <ele>175.17999267578125</ele>
        <time>2018-10-10T12:41:48Z</time>
      </trkpt>
      <trkpt lat="42.25521408" lon="-8.62205696">
        <ele>175.17999267578125</ele>
        <time>2018-10-10T12:41:50Z</time>
      </trkpt>
      <trkpt lat="42.25529856" lon="-8.62200448">
        <ele>175.17999267578125</ele>
        <time>2018-10-10T12:41:52Z</time>
      </trkpt>
      <trkpt lat="42.2553856" lon="-8.62195904">
        <ele>175.17999267578125</ele>
        <time>2018-10-10T12:41:54Z</time>
      </trkpt>
      <trkpt lat="42.25543168" lon="-8.62193664">
        <ele>175.17999267578125</ele>
        <time>2018-10-10T12:41:55Z</time>
      </trkpt>
      <trkpt lat="42.25551872" lon="-8.62189504">
        <ele>175.17999267578125</ele>
        <time>2018-10-10T12:41:57Z</time>
      </trkpt>
      <trkpt lat="42.25561088" lon="-8.62186048">
        <ele>175.17999267578125</ele>
        <time>2018-10-10T12:41:59Z</time>
      </trkpt>
      <trkpt lat="42.25571072" lon="-8.62183744">
        <ele>175.17999267578125</ele>
        <time>2018-10-10T12:42:01Z</time>
      </trkpt>
      <trkpt lat="42.25575936" lon="-8.62183104">
        <ele>175.17999267578125</ele>
        <time>2018-10-10T12:42:02Z</time>
      </trkpt>
      <trkpt lat="42.25585664" lon="-8.62182528">
        <ele>175.17999267578125</ele>
        <time>2018-10-10T12:42:04Z</time>
      </trkpt>
      <trkpt lat="42.25595392" lon="-8.62182784">
        <ele>175.17999267578125</ele>
        <time>2018-10-10T12:42:06Z</time>
      </trkpt>
      <trkpt lat="42.25605376" lon="-8.62183872">
        <ele>175.17999267578125</ele>
        <time>2018-10-10T12:42:08Z</time>
      </trkpt>
      <trkpt lat="42.25614848" lon="-8.62185856">
        <ele>175.17999267578125</ele>
        <time>2018-10-10T12:42:10Z</time>
      </trkpt>
      <trkpt lat="42.25624832" lon="-8.62187648">
        <ele>175.17999267578125</ele>
        <time>2018-10-10T12:42:12Z</time>
      </trkpt>
      <trkpt lat="42.25635072" lon="-8.62188736">
        <ele>175.17999267578125</ele>
        <time>2018-10-10T12:42:14Z</time>
      </trkpt>
      <trkpt lat="42.25640192" lon="-8.6218912">
        <ele>174.0</ele>
        <time>2018-10-10T12:42:15Z</time>
      </trkpt>
      <trkpt lat="42.256512" lon="-8.62189952">
        <ele>174.0</ele>
        <time>2018-10-10T12:42:17Z</time>
      </trkpt>
      <trkpt lat="42.25656064" lon="-8.62190272">
        <ele>174.0</ele>
        <time>2018-10-10T12:42:18Z</time>
      </trkpt>
      <trkpt lat="42.25666304" lon="-8.62190656">
        <ele>174.0</ele>
        <time>2018-10-10T12:42:20Z</time>
      </trkpt>
      <trkpt lat="42.256768" lon="-8.6219104">
        <ele>174.0</ele>
        <time>2018-10-10T12:42:22Z</time>
      </trkpt>
      <trkpt lat="42.25682176" lon="-8.62191296">
        <ele>174.0</ele>
        <time>2018-10-10T12:42:23Z</time>
      </trkpt>
      <trkpt lat="42.2568704" lon="-8.62191872">
        <ele>174.0</ele>
        <time>2018-10-10T12:42:24Z</time>
      </trkpt>
      <trkpt lat="42.25695488" lon="-8.62196736">
        <ele>174.0</ele>
        <time>2018-10-10T12:42:26Z</time>
      </trkpt>
      <trkpt lat="42.25701632" lon="-8.62205696">
        <ele>174.0</ele>
        <time>2018-10-10T12:42:28Z</time>
      </trkpt>
      <trkpt lat="42.25704192" lon="-8.6221696">
        <ele>174.0</ele>
        <time>2018-10-10T12:42:30Z</time>
      </trkpt>
      <trkpt lat="42.25706752" lon="-8.62229888">
        <ele>174.0</ele>
        <time>2018-10-10T12:42:32Z</time>
      </trkpt>
      <trkpt lat="42.257088" lon="-8.62234624">
        <ele>174.0</ele>
        <time>2018-10-10T12:42:33Z</time>
      </trkpt>
      <trkpt lat="42.25715968" lon="-8.62241088">
        <ele>174.0</ele>
        <time>2018-10-10T12:42:35Z</time>
      </trkpt>
      <trkpt lat="42.25724416" lon="-8.62242112">
        <ele>175.17999267578125</ele>
        <time>2018-10-10T12:42:37Z</time>
      </trkpt>
      <trkpt lat="42.25731584" lon="-8.62239616">
        <ele>175.17999267578125</ele>
        <time>2018-10-10T12:42:39Z</time>
      </trkpt>
      <trkpt lat="42.25738496" lon="-8.6223584">
        <ele>175.17999267578125</ele>
        <time>2018-10-10T12:42:41Z</time>
      </trkpt>
      <trkpt lat="42.25745408" lon="-8.6223104">
        <ele>175.17999267578125</ele>
        <time>2018-10-10T12:42:43Z</time>
      </trkpt>
      <trkpt lat="42.25751808" lon="-8.622256">
        <ele>175.17999267578125</ele>
        <time>2018-10-10T12:42:45Z</time>
      </trkpt>
      <trkpt lat="42.2575872" lon="-8.6222016">
        <ele>175.17999267578125</ele>
        <time>2018-10-10T12:42:47Z</time>
      </trkpt>
      <trkpt lat="42.2576512" lon="-8.62214592">
        <ele>175.17999267578125</ele>
        <time>2018-10-10T12:42:49Z</time>
      </trkpt>
      <trkpt lat="42.25771264" lon="-8.6220896">
        <ele>175.17999267578125</ele>
        <time>2018-10-10T12:42:51Z</time>
      </trkpt>
      <trkpt lat="42.25776384" lon="-8.62201792">
        <ele>175.17999267578125</ele>
        <time>2018-10-10T12:42:53Z</time>
      </trkpt>
      <trkpt lat="42.25780992" lon="-8.62194368">
        <ele>175.17999267578125</ele>
        <time>2018-10-10T12:42:55Z</time>
      </trkpt>
      <trkpt lat="42.25785344" lon="-8.6218688">
        <ele>175.17999267578125</ele>
        <time>2018-10-10T12:42:57Z</time>
      </trkpt>
      <trkpt lat="42.25789696" lon="-8.62179776">
        <ele>175.17999267578125</ele>
        <time>2018-10-10T12:42:59Z</time>
      </trkpt>
      <trkpt lat="42.25795072" lon="-8.62172416">
        <ele>175.17999267578125</ele>
        <time>2018-10-10T12:43:01Z</time>
      </trkpt>
      <trkpt lat="42.25800448" lon="-8.62165184">
        <ele>175.17999267578125</ele>
        <time>2018-10-10T12:43:03Z</time>
      </trkpt>
      <trkpt lat="42.25805568" lon="-8.62157888">
        <ele>175.17999267578125</ele>
        <time>2018-10-10T12:43:05Z</time>
      </trkpt>
      <trkpt lat="42.25811712" lon="-8.62149824">
        <ele>175.17999267578125</ele>
        <time>2018-10-10T12:43:07Z</time>
      </trkpt>
      <trkpt lat="42.25817088" lon="-8.62141696">
        <ele>175.17999267578125</ele>
        <time>2018-10-10T12:43:09Z</time>
      </trkpt>
      <trkpt lat="42.25822464" lon="-8.62134272">
        <ele>175.17999267578125</ele>
        <time>2018-10-10T12:43:11Z</time>
      </trkpt>
      <trkpt lat="42.25828096" lon="-8.62126656">
        <ele>175.17999267578125</ele>
        <time>2018-10-10T12:43:13Z</time>
      </trkpt>
      <trkpt lat="42.2583424" lon="-8.62119296">
        <ele>175.17999267578125</ele>
        <time>2018-10-10T12:43:15Z</time>
      </trkpt>
      <trkpt lat="42.25842176" lon="-8.62113024">
        <ele>175.17999267578125</ele>
        <time>2018-10-10T12:43:17Z</time>
      </trkpt>
      <trkpt lat="42.25850624" lon="-8.62111552">
        <ele>175.17999267578125</ele>
        <time>2018-10-10T12:43:19Z</time>
      </trkpt>
      <trkpt lat="42.25862912" lon="-8.62118144">
        <ele>175.17999267578125</ele>
        <time>2018-10-10T12:43:22Z</time>
      </trkpt>
      <trkpt lat="42.2586752" lon="-8.62122368">
        <ele>175.17999267578125</ele>
        <time>2018-10-10T12:43:23Z</time>
      </trkpt>
      <trkpt lat="42.2587136" lon="-8.62126272">
        <ele>175.17999267578125</ele>
        <time>2018-10-10T12:43:24Z</time>
      </trkpt>
      <trkpt lat="42.25878784" lon="-8.62135296">
        <ele>175.17999267578125</ele>
        <time>2018-10-10T12:43:26Z</time>
      </trkpt>
      <trkpt lat="42.25883136" lon="-8.62139904">
        <ele>175.17999267578125</ele>
        <time>2018-10-10T12:43:27Z</time>
      </trkpt>
      <trkpt lat="42.25890816" lon="-8.62149632">
        <ele>174.0</ele>
        <time>2018-10-10T12:43:29Z</time>
      </trkpt>
      <trkpt lat="42.25894656" lon="-8.62154496">
        <ele>174.0</ele>
        <time>2018-10-10T12:43:30Z</time>
      </trkpt>
      <trkpt lat="42.2589824" lon="-8.62159232">
        <ele>174.0</ele>
        <time>2018-10-10T12:43:31Z</time>
      </trkpt>
      <trkpt lat="42.25901312" lon="-8.6216352">
        <ele>174.0</ele>
        <time>2018-10-10T12:43:32Z</time>
      </trkpt>
      <trkpt lat="42.25908992" lon="-8.62172288">
        <ele>174.0</ele>
        <time>2018-10-10T12:43:34Z</time>
      </trkpt>
      <trkpt lat="42.25913344" lon="-8.62176256">
        <ele>174.0</ele>
        <time>2018-10-10T12:43:35Z</time>
      </trkpt>
      <trkpt lat="42.25922048" lon="-8.62182784">
        <ele>174.0</ele>
        <time>2018-10-10T12:43:37Z</time>
      </trkpt>
      <trkpt lat="42.25925888" lon="-8.62185984">
        <ele>174.0</ele>
        <time>2018-10-10T12:43:38Z</time>
      </trkpt>
      <trkpt lat="42.25934336" lon="-8.62192064">
        <ele>174.0</ele>
        <time>2018-10-10T12:43:40Z</time>
      </trkpt>
      <trkpt lat="42.25943296" lon="-8.62198272">
        <ele>174.0</ele>
        <time>2018-10-10T12:43:42Z</time>
      </trkpt>
      <trkpt lat="42.25948416" lon="-8.6220128">
        <ele>174.0</ele>
        <time>2018-10-10T12:43:43Z</time>
      </trkpt>
      <trkpt lat="42.25953024" lon="-8.62204352">
        <ele>174.0</ele>
        <time>2018-10-10T12:43:44Z</time>
      </trkpt>
      <trkpt lat="42.25962496" lon="-8.62210304">
        <ele>174.0</ele>
        <time>2018-10-10T12:43:46Z</time>
      </trkpt>
      <trkpt lat="42.25967104" lon="-8.62213312">
        <ele>172.80999755859375</ele>
        <time>2018-10-10T12:43:47Z</time>
      </trkpt>
      <trkpt lat="42.25971712" lon="-8.62216576">
        <ele>172.80999755859375</ele>
        <time>2018-10-10T12:43:48Z</time>
      </trkpt>
      <trkpt lat="42.25979136" lon="-8.6222304">
        <ele>172.80999755859375</ele>
        <time>2018-10-10T12:43:50Z</time>
      </trkpt>
      <trkpt lat="42.2598528" lon="-8.62231424">
        <ele>172.80999755859375</ele>
        <time>2018-10-10T12:43:52Z</time>
      </trkpt>
      <trkpt lat="42.25989888" lon="-8.62240384">
        <ele>172.80999755859375</ele>
        <time>2018-10-10T12:43:54Z</time>
      </trkpt>
      <trkpt lat="42.25993472" lon="-8.62250432">
        <ele>174.0</ele>
        <time>2018-10-10T12:43:56Z</time>
      </trkpt>
      <trkpt lat="42.25995264" lon="-8.62261952">
        <ele>174.0</ele>
        <time>2018-10-10T12:43:58Z</time>
      </trkpt>
      <trkpt lat="42.25997824" lon="-8.62275392">
        <ele>174.0</ele>
        <time>2018-10-10T12:44:00Z</time>
      </trkpt>
      <trkpt lat="42.2600064" lon="-8.62281792">
        <ele>174.0</ele>
        <time>2018-10-10T12:44:01Z</time>
      </trkpt>
      <trkpt lat="42.26003712" lon="-8.62287232">
        <ele>172.5399932861328</ele>
        <time>2018-10-10T12:44:02Z</time>
      </trkpt>
      <trkpt lat="42.26007808" lon="-8.62291456">
        <ele>172.5399932861328</ele>
        <time>2018-10-10T12:44:03Z</time>
      </trkpt>
      <trkpt lat="42.26015744" lon="-8.6229632">
        <ele>172.5399932861328</ele>
        <time>2018-10-10T12:44:05Z</time>
      </trkpt>
      <trkpt lat="42.260224" lon="-8.62298112">
        <ele>171.36000061035156</ele>
        <time>2018-10-10T12:44:07Z</time>
      </trkpt>
      <trkpt lat="42.26027776" lon="-8.62297792">
        <ele>171.36000061035156</ele>
        <time>2018-10-10T12:44:09Z</time>
      </trkpt>
      <trkpt lat="42.26034944" lon="-8.6229696">
        <ele>171.36000061035156</ele>
        <time>2018-10-10T12:44:12Z</time>
      </trkpt>
      <trkpt lat="42.2604032" lon="-8.62296896">
        <ele>171.36000061035156</ele>
        <time>2018-10-10T12:44:14Z</time>
      </trkpt>
      <trkpt lat="42.26045952" lon="-8.62297344">
        <ele>171.36000061035156</ele>
        <time>2018-10-10T12:44:16Z</time>
      </trkpt>
      <trkpt lat="42.26052096" lon="-8.62298112">
        <ele>171.36000061035156</ele>
        <time>2018-10-10T12:44:18Z</time>
      </trkpt>
      <trkpt lat="42.26059008" lon="-8.62299136">
        <ele>171.36000061035156</ele>
        <time>2018-10-10T12:44:20Z</time>
      </trkpt>
      <trkpt lat="42.2606592" lon="-8.62300096">
        <ele>171.36000061035156</ele>
        <time>2018-10-10T12:44:22Z</time>
      </trkpt>
      <trkpt lat="42.26073344" lon="-8.62301632">
        <ele>171.36000061035156</ele>
        <time>2018-10-10T12:44:24Z</time>
      </trkpt>
      <trkpt lat="42.26081024" lon="-8.62303232">
        <ele>171.36000061035156</ele>
        <time>2018-10-10T12:44:26Z</time>
      </trkpt>
      <trkpt lat="42.26088448" lon="-8.62302144">
        <ele>171.36000061035156</ele>
        <time>2018-10-10T12:44:28Z</time>
      </trkpt>
      <trkpt lat="42.2609408" lon="-8.6229632">
        <ele>171.36000061035156</ele>
        <time>2018-10-10T12:44:30Z</time>
      </trkpt>
      <trkpt lat="42.26098176" lon="-8.62288064">
        <ele>171.36000061035156</ele>
        <time>2018-10-10T12:44:32Z</time>
      </trkpt>
      <trkpt lat="42.26100992" lon="-8.6227968">
        <ele>171.36000061035156</ele>
        <time>2018-10-10T12:44:34Z</time>
      </trkpt>
      <trkpt lat="42.26103296" lon="-8.6227104">
        <ele>171.36000061035156</ele>
        <time>2018-10-10T12:44:36Z</time>
      </trkpt>
      <trkpt lat="42.26106368" lon="-8.62261888">
        <ele>171.36000061035156</ele>
        <time>2018-10-10T12:44:38Z</time>
      </trkpt>
      <trkpt lat="42.26109696" lon="-8.6225184">
        <ele>172.5399932861328</ele>
        <time>2018-10-10T12:44:40Z</time>
      </trkpt>
      <trkpt lat="42.26114304" lon="-8.62242432">
        <ele>172.5399932861328</ele>
        <time>2018-10-10T12:44:42Z</time>
      </trkpt>
      <trkpt lat="42.26119168" lon="-8.6223328">
        <ele>172.5399932861328</ele>
        <time>2018-10-10T12:44:44Z</time>
      </trkpt>
      <trkpt lat="42.26125056" lon="-8.62224128">
        <ele>172.5399932861328</ele>
        <time>2018-10-10T12:44:46Z</time>
      </trkpt>
      <trkpt lat="42.2613248" lon="-8.6221504">
        <ele>172.5399932861328</ele>
        <time>2018-10-10T12:44:48Z</time>
      </trkpt>
      <trkpt lat="42.26136832" lon="-8.62210752">
        <ele>172.5399932861328</ele>
        <time>2018-10-10T12:44:49Z</time>
      </trkpt>
      <trkpt lat="42.26140672" lon="-8.62207104">
        <ele>172.5399932861328</ele>
        <time>2018-10-10T12:44:50Z</time>
      </trkpt>
      <trkpt lat="42.26148608" lon="-8.62201216">
        <ele>172.5399932861328</ele>
        <time>2018-10-10T12:44:52Z</time>
      </trkpt>
      <trkpt lat="42.26156288" lon="-8.6219552">
        <ele>172.5399932861328</ele>
        <time>2018-10-10T12:44:54Z</time>
      </trkpt>
      <trkpt lat="42.26163456" lon="-8.6219008">
        <ele>172.5399932861328</ele>
        <time>2018-10-10T12:44:56Z</time>
      </trkpt>
      <trkpt lat="42.26171136" lon="-8.6218368">
        <ele>172.5399932861328</ele>
        <time>2018-10-10T12:44:58Z</time>
      </trkpt>
      <trkpt lat="42.26178304" lon="-8.6217824">
        <ele>172.5399932861328</ele>
        <time>2018-10-10T12:45:00Z</time>
      </trkpt>
      <trkpt lat="42.26185984" lon="-8.62174336">
        <ele>172.5399932861328</ele>
        <time>2018-10-10T12:45:02Z</time>
      </trkpt>
      <trkpt lat="42.26194432" lon="-8.6217088">
        <ele>172.5399932861328</ele>
        <time>2018-10-10T12:45:04Z</time>
      </trkpt>
      <trkpt lat="42.26202368" lon="-8.62167552">
        <ele>173.72000122070312</ele>
        <time>2018-10-10T12:45:06Z</time>
      </trkpt>
      <trkpt lat="42.26210048" lon="-8.6216384">
        <ele>173.72000122070312</ele>
        <time>2018-10-10T12:45:08Z</time>
      </trkpt>
      <trkpt lat="42.26217728" lon="-8.62159552">
        <ele>173.72000122070312</ele>
        <time>2018-10-10T12:45:10Z</time>
      </trkpt>
      <trkpt lat="42.26225408" lon="-8.6215392">
        <ele>173.72000122070312</ele>
        <time>2018-10-10T12:45:12Z</time>
      </trkpt>
      <trkpt lat="42.26233344" lon="-8.6214848">
        <ele>173.72000122070312</ele>
        <time>2018-10-10T12:45:14Z</time>
      </trkpt>
      <trkpt lat="42.2624768" lon="-8.62140544">
        <ele>175.08999633789062</ele>
        <time>2018-10-10T12:45:17Z</time>
      </trkpt>
      <trkpt lat="42.26256896" lon="-8.6213696">
        <ele>175.08999633789062</ele>
        <time>2018-10-10T12:45:20Z</time>
      </trkpt>
      <trkpt lat="42.26264576" lon="-8.6213376">
        <ele>175.08999633789062</ele>
        <time>2018-10-10T12:45:22Z</time>
      </trkpt>
      <trkpt lat="42.26271744" lon="-8.6213024">
        <ele>176.27000427246094</ele>
        <time>2018-10-10T12:45:24Z</time>
      </trkpt>
      <trkpt lat="42.26278656" lon="-8.6212672">
        <ele>176.27000427246094</ele>
        <time>2018-10-10T12:45:26Z</time>
      </trkpt>
      <trkpt lat="42.26285056" lon="-8.62123776">
        <ele>176.27000427246094</ele>
        <time>2018-10-10T12:45:28Z</time>
      </trkpt>
      <trkpt lat="42.262912" lon="-8.62121792">
        <ele>176.27000427246094</ele>
        <time>2018-10-10T12:45:30Z</time>
      </trkpt>
      <trkpt lat="42.26296576" lon="-8.62123328">
        <ele>176.27000427246094</ele>
        <time>2018-10-10T12:45:32Z</time>
      </trkpt>
      <trkpt lat="42.26301696" lon="-8.62125184">
        <ele>176.27000427246094</ele>
        <time>2018-10-10T12:45:34Z</time>
      </trkpt>
      <trkpt lat="42.26311168" lon="-8.62130432">
        <ele>175.08999633789062</ele>
        <time>2018-10-10T12:45:38Z</time>
      </trkpt>
      <trkpt lat="42.26316032" lon="-8.62133376">
        <ele>175.08999633789062</ele>
        <time>2018-10-10T12:45:40Z</time>
      </trkpt>
      <trkpt lat="42.26321408" lon="-8.62135488">
        <ele>175.08999633789062</ele>
        <time>2018-10-10T12:45:42Z</time>
      </trkpt>
      <trkpt lat="42.26327808" lon="-8.62136576">
        <ele>175.08999633789062</ele>
        <time>2018-10-10T12:45:44Z</time>
      </trkpt>
      <trkpt lat="42.2633472" lon="-8.62135232">
        <ele>175.08999633789062</ele>
        <time>2018-10-10T12:45:46Z</time>
      </trkpt>
      <trkpt lat="42.2634112" lon="-8.6213408">
        <ele>175.08999633789062</ele>
        <time>2018-10-10T12:45:48Z</time>
      </trkpt>
      <trkpt lat="42.26348032" lon="-8.62133504">
        <ele>175.08999633789062</ele>
        <time>2018-10-10T12:45:50Z</time>
      </trkpt>
      <trkpt lat="42.26354944" lon="-8.62133568">
        <ele>175.08999633789062</ele>
        <time>2018-10-10T12:45:52Z</time>
      </trkpt>
      <trkpt lat="42.26362624" lon="-8.62133056">
        <ele>175.08999633789062</ele>
        <time>2018-10-10T12:45:54Z</time>
      </trkpt>
      <trkpt lat="42.2637056" lon="-8.62132096">
        <ele>175.08999633789062</ele>
        <time>2018-10-10T12:45:56Z</time>
      </trkpt>
      <trkpt lat="42.2637824" lon="-8.62131392">
        <ele>175.08999633789062</ele>
        <time>2018-10-10T12:45:58Z</time>
      </trkpt>
      <trkpt lat="42.26386176" lon="-8.62131584">
        <ele>175.08999633789062</ele>
        <time>2018-10-10T12:46:00Z</time>
      </trkpt>
      <trkpt lat="42.26394624" lon="-8.6213248">
        <ele>175.08999633789062</ele>
        <time>2018-10-10T12:46:02Z</time>
      </trkpt>
      <trkpt lat="42.2640256" lon="-8.62136192">
        <ele>173.89999389648438</ele>
        <time>2018-10-10T12:46:04Z</time>
      </trkpt>
      <trkpt lat="42.26409984" lon="-8.6213856">
        <ele>173.89999389648438</ele>
        <time>2018-10-10T12:46:06Z</time>
      </trkpt>
      <trkpt lat="42.26417152" lon="-8.62140288">
        <ele>173.89999389648438</ele>
        <time>2018-10-10T12:46:08Z</time>
      </trkpt>
      <trkpt lat="42.26424064" lon="-8.62141056">
        <ele>173.89999389648438</ele>
        <time>2018-10-10T12:46:10Z</time>
      </trkpt>
      <trkpt lat="42.26431744" lon="-8.6214112">
        <ele>173.89999389648438</ele>
        <time>2018-10-10T12:46:12Z</time>
      </trkpt>
      <trkpt lat="42.26439936" lon="-8.6214208">
        <ele>173.89999389648438</ele>
        <time>2018-10-10T12:46:14Z</time>
      </trkpt>
      <trkpt lat="42.26448896" lon="-8.62143296">
        <ele>173.89999389648438</ele>
        <time>2018-10-10T12:46:16Z</time>
      </trkpt>
      <trkpt lat="42.26458368" lon="-8.62144">
        <ele>173.89999389648438</ele>
        <time>2018-10-10T12:46:18Z</time>
      </trkpt>
      <trkpt lat="42.26463232" lon="-8.62144192">
        <ele>173.89999389648438</ele>
        <time>2018-10-10T12:46:19Z</time>
      </trkpt>
      <trkpt lat="42.2647296" lon="-8.62144384">
        <ele>173.89999389648438</ele>
        <time>2018-10-10T12:46:21Z</time>
      </trkpt>
      <trkpt lat="42.26482432" lon="-8.62144576">
        <ele>173.89999389648438</ele>
        <time>2018-10-10T12:46:23Z</time>
      </trkpt>
      <trkpt lat="42.26491904" lon="-8.62145216">
        <ele>173.89999389648438</ele>
        <time>2018-10-10T12:46:25Z</time>
      </trkpt>
      <trkpt lat="42.26500608" lon="-8.62148864">
        <ele>173.89999389648438</ele>
        <time>2018-10-10T12:46:27Z</time>
      </trkpt>
      <trkpt lat="42.26509056" lon="-8.62154368">
        <ele>173.89999389648438</ele>
        <time>2018-10-10T12:46:29Z</time>
      </trkpt>
      <trkpt lat="42.26516992" lon="-8.62159744">
        <ele>173.89999389648438</ele>
        <time>2018-10-10T12:46:31Z</time>
      </trkpt>
      <trkpt lat="42.26524672" lon="-8.6216448">
        <ele>173.89999389648438</ele>
        <time>2018-10-10T12:46:33Z</time>
      </trkpt>
      <trkpt lat="42.26532096" lon="-8.6216992">
        <ele>173.89999389648438</ele>
        <time>2018-10-10T12:46:35Z</time>
      </trkpt>
      <trkpt lat="42.2653952" lon="-8.62175296">
        <ele>173.89999389648438</ele>
        <time>2018-10-10T12:46:37Z</time>
      </trkpt>
      <trkpt lat="42.26547712" lon="-8.62179392">
        <ele>173.89999389648438</ele>
        <time>2018-10-10T12:46:39Z</time>
      </trkpt>
      <trkpt lat="42.26555904" lon="-8.62182144">
        <ele>173.89999389648438</ele>
        <time>2018-10-10T12:46:41Z</time>
      </trkpt>
      <trkpt lat="42.26563584" lon="-8.62184256">
        <ele>173.89999389648438</ele>
        <time>2018-10-10T12:46:43Z</time>
      </trkpt>
      <trkpt lat="42.26571264" lon="-8.62186368">
        <ele>173.89999389648438</ele>
        <time>2018-10-10T12:46:45Z</time>
      </trkpt>
      <trkpt lat="42.26578944" lon="-8.6218976">
        <ele>173.89999389648438</ele>
        <time>2018-10-10T12:46:47Z</time>
      </trkpt>
      <trkpt lat="42.26586112" lon="-8.62195392">
        <ele>173.89999389648438</ele>
        <time>2018-10-10T12:46:49Z</time>
      </trkpt>
      <trkpt lat="42.26594048" lon="-8.62201472">
        <ele>173.89999389648438</ele>
        <time>2018-10-10T12:46:51Z</time>
      </trkpt>
      <trkpt lat="42.2660224" lon="-8.6220672">
        <ele>173.89999389648438</ele>
        <time>2018-10-10T12:46:53Z</time>
      </trkpt>
      <trkpt lat="42.26610176" lon="-8.622112">
        <ele>173.89999389648438</ele>
        <time>2018-10-10T12:46:55Z</time>
      </trkpt>
      <trkpt lat="42.2661888" lon="-8.62215424">
        <ele>173.89999389648438</ele>
        <time>2018-10-10T12:46:57Z</time>
      </trkpt>
      <trkpt lat="42.26627328" lon="-8.62219648">
        <ele>173.89999389648438</ele>
        <time>2018-10-10T12:46:59Z</time>
      </trkpt>
      <trkpt lat="42.26633472" lon="-8.62225408">
        <ele>173.89999389648438</ele>
        <time>2018-10-10T12:47:01Z</time>
      </trkpt>
      <trkpt lat="42.26639104" lon="-8.62232768">
        <ele>173.89999389648438</ele>
        <time>2018-10-10T12:47:03Z</time>
      </trkpt>
      <trkpt lat="42.26645248" lon="-8.62239296">
        <ele>173.89999389648438</ele>
        <time>2018-10-10T12:47:05Z</time>
      </trkpt>
      <trkpt lat="42.26652416" lon="-8.62242816">
        <ele>173.89999389648438</ele>
        <time>2018-10-10T12:47:07Z</time>
      </trkpt>
      <trkpt lat="42.26660608" lon="-8.6224384">
        <ele>173.89999389648438</ele>
        <time>2018-10-10T12:47:09Z</time>
      </trkpt>
      <trkpt lat="42.26669056" lon="-8.62242624">
        <ele>173.89999389648438</ele>
        <time>2018-10-10T12:47:11Z</time>
      </trkpt>
      <trkpt lat="42.26677248" lon="-8.62239488">
        <ele>172.72000122070312</ele>
        <time>2018-10-10T12:47:13Z</time>
      </trkpt>
      <trkpt lat="42.2668544" lon="-8.6223488">
        <ele>172.72000122070312</ele>
        <time>2018-10-10T12:47:15Z</time>
      </trkpt>
      <trkpt lat="42.26693376" lon="-8.62229824">
        <ele>172.72000122070312</ele>
        <time>2018-10-10T12:47:17Z</time>
      </trkpt>
      <trkpt lat="42.26701056" lon="-8.62224704">
        <ele>172.72000122070312</ele>
        <time>2018-10-10T12:47:19Z</time>
      </trkpt>
      <trkpt lat="42.26708992" lon="-8.62219712">
        <ele>172.72000122070312</ele>
        <time>2018-10-10T12:47:21Z</time>
      </trkpt>
      <trkpt lat="42.26716672" lon="-8.62214848">
        <ele>172.72000122070312</ele>
        <time>2018-10-10T12:47:23Z</time>
      </trkpt>
      <trkpt lat="42.26724608" lon="-8.622096">
        <ele>172.72000122070312</ele>
        <time>2018-10-10T12:47:25Z</time>
      </trkpt>
      <trkpt lat="42.26732544" lon="-8.62204672">
        <ele>172.72000122070312</ele>
        <time>2018-10-10T12:47:27Z</time>
      </trkpt>
      <trkpt lat="42.26739456" lon="-8.62200576">
        <ele>172.72000122070312</ele>
        <time>2018-10-10T12:47:29Z</time>
      </trkpt>
      <trkpt lat="42.26746624" lon="-8.62197312">
        <ele>172.72000122070312</ele>
        <time>2018-10-10T12:47:31Z</time>
      </trkpt>
      <trkpt lat="42.26754816" lon="-8.62197376">
        <ele>172.72000122070312</ele>
        <time>2018-10-10T12:47:33Z</time>
      </trkpt>
      <trkpt lat="42.26762752" lon="-8.62196736">
        <ele>172.72000122070312</ele>
        <time>2018-10-10T12:47:35Z</time>
      </trkpt>
      <trkpt lat="42.267712" lon="-8.62194816">
        <ele>172.72000122070312</ele>
        <time>2018-10-10T12:47:37Z</time>
      </trkpt>
      <trkpt lat="42.26779648" lon="-8.62192128">
        <ele>172.72000122070312</ele>
        <time>2018-10-10T12:47:39Z</time>
      </trkpt>
      <trkpt lat="42.2678912" lon="-8.62190656">
        <ele>172.72000122070312</ele>
        <time>2018-10-10T12:47:41Z</time>
      </trkpt>
      <trkpt lat="42.26798336" lon="-8.6219232">
        <ele>173.89999389648438</ele>
        <time>2018-10-10T12:47:43Z</time>
      </trkpt>
      <trkpt lat="42.26807808" lon="-8.62194176">
        <ele>173.89999389648438</ele>
        <time>2018-10-10T12:47:45Z</time>
      </trkpt>
      <trkpt lat="42.26817024" lon="-8.621968">
        <ele>173.89999389648438</ele>
        <time>2018-10-10T12:47:47Z</time>
      </trkpt>
      <trkpt lat="42.26821888" lon="-8.62198656">
        <ele>173.89999389648438</ele>
        <time>2018-10-10T12:47:48Z</time>
      </trkpt>
      <trkpt lat="42.2683136" lon="-8.62202752">
        <ele>173.89999389648438</ele>
        <time>2018-10-10T12:47:50Z</time>
      </trkpt>
      <trkpt lat="42.26835712" lon="-8.62204928">
        <ele>173.89999389648438</ele>
        <time>2018-10-10T12:47:51Z</time>
      </trkpt>
      <trkpt lat="42.26844416" lon="-8.62210176">
        <ele>173.89999389648438</ele>
        <time>2018-10-10T12:47:53Z</time>
      </trkpt>
      <trkpt lat="42.26856192" lon="-8.62219904">
        <ele>173.89999389648438</ele>
        <time>2018-10-10T12:47:56Z</time>
      </trkpt>
      <trkpt lat="42.26863104" lon="-8.62227328">
        <ele>173.89999389648438</ele>
        <time>2018-10-10T12:47:58Z</time>
      </trkpt>
      <trkpt lat="42.26869504" lon="-8.62234432">
        <ele>173.89999389648438</ele>
        <time>2018-10-10T12:48:00Z</time>
      </trkpt>
      <trkpt lat="42.2687616" lon="-8.62239552">
        <ele>173.89999389648438</ele>
        <time>2018-10-10T12:48:02Z</time>
      </trkpt>
      <trkpt lat="42.2688256" lon="-8.62242624">
        <ele>175.08999633789062</ele>
        <time>2018-10-10T12:48:04Z</time>
      </trkpt>
      <trkpt lat="42.26889472" lon="-8.62243392">
        <ele>175.08999633789062</ele>
        <time>2018-10-10T12:48:06Z</time>
      </trkpt>
      <trkpt lat="42.26895872" lon="-8.62243392">
        <ele>175.08999633789062</ele>
        <time>2018-10-10T12:48:08Z</time>
      </trkpt>
      <trkpt lat="42.2690304" lon="-8.62243584">
        <ele>175.08999633789062</ele>
        <time>2018-10-10T12:48:10Z</time>
      </trkpt>
      <trkpt lat="42.26909952" lon="-8.62243648">
        <ele>175.08999633789062</ele>
        <time>2018-10-10T12:48:12Z</time>
      </trkpt>
      <trkpt lat="42.26917376" lon="-8.62243008">
        <ele>175.08999633789062</ele>
        <time>2018-10-10T12:48:14Z</time>
      </trkpt>
      <trkpt lat="42.269248" lon="-8.62241728">
        <ele>175.08999633789062</ele>
        <time>2018-10-10T12:48:16Z</time>
      </trkpt>
      <trkpt lat="42.26931712" lon="-8.6223936">
        <ele>175.08999633789062</ele>
        <time>2018-10-10T12:48:18Z</time>
      </trkpt>
      <trkpt lat="42.26939136" lon="-8.62238208">
        <ele>173.80999755859375</ele>
        <time>2018-10-10T12:48:20Z</time>
      </trkpt>
      <trkpt lat="42.26945792" lon="-8.62237568">
        <ele>173.80999755859375</ele>
        <time>2018-10-10T12:48:22Z</time>
      </trkpt>
      <trkpt lat="42.26953216" lon="-8.62236992">
        <ele>173.80999755859375</ele>
        <time>2018-10-10T12:48:24Z</time>
      </trkpt>
      <trkpt lat="42.26961408" lon="-8.6223648">
        <ele>173.80999755859375</ele>
        <time>2018-10-10T12:48:26Z</time>
      </trkpt>
      <trkpt lat="42.26970368" lon="-8.622368">
        <ele>173.80999755859375</ele>
        <time>2018-10-10T12:48:28Z</time>
      </trkpt>
      <trkpt lat="42.26979328" lon="-8.62238784">
        <ele>173.80999755859375</ele>
        <time>2018-10-10T12:48:30Z</time>
      </trkpt>
      <trkpt lat="42.26987008" lon="-8.622448">
        <ele>173.80999755859375</ele>
        <time>2018-10-10T12:48:32Z</time>
      </trkpt>
      <trkpt lat="42.26993152" lon="-8.62250432">
        <ele>173.80999755859375</ele>
        <time>2018-10-10T12:48:34Z</time>
      </trkpt>
      <trkpt lat="42.26998528" lon="-8.62257088">
        <ele>173.80999755859375</ele>
        <time>2018-10-10T12:48:36Z</time>
      </trkpt>
      <trkpt lat="42.27003392" lon="-8.6226464">
        <ele>173.80999755859375</ele>
        <time>2018-10-10T12:48:38Z</time>
      </trkpt>
      <trkpt lat="42.2700928" lon="-8.62271616">
        <ele>173.80999755859375</ele>
        <time>2018-10-10T12:48:40Z</time>
      </trkpt>
      <trkpt lat="42.27016192" lon="-8.6227744">
        <ele>172.4499969482422</ele>
        <time>2018-10-10T12:48:42Z</time>
      </trkpt>
      <trkpt lat="42.27023616" lon="-8.62281536">
        <ele>172.4499969482422</ele>
        <time>2018-10-10T12:48:44Z</time>
      </trkpt>
      <trkpt lat="42.27031296" lon="-8.6228544">
        <ele>171.17999267578125</ele>
        <time>2018-10-10T12:48:46Z</time>
      </trkpt>
      <trkpt lat="42.27038976" lon="-8.622896">
        <ele>171.17999267578125</ele>
        <time>2018-10-10T12:48:48Z</time>
      </trkpt>
      <trkpt lat="42.27046656" lon="-8.622944">
        <ele>171.17999267578125</ele>
        <time>2018-10-10T12:48:50Z</time>
      </trkpt>
      <trkpt lat="42.27053568" lon="-8.62299648">
        <ele>171.17999267578125</ele>
        <time>2018-10-10T12:48:52Z</time>
      </trkpt>
      <trkpt lat="42.27059456" lon="-8.62305664">
        <ele>171.17999267578125</ele>
        <time>2018-10-10T12:48:54Z</time>
      </trkpt>
      <trkpt lat="42.27066368" lon="-8.62308416">
        <ele>171.17999267578125</ele>
        <time>2018-10-10T12:48:56Z</time>
      </trkpt>
      <trkpt lat="42.2707456" lon="-8.62308672">
        <ele>172.36000061035156</ele>
        <time>2018-10-10T12:48:58Z</time>
      </trkpt>
      <trkpt lat="42.27081984" lon="-8.623088">
        <ele>172.36000061035156</ele>
        <time>2018-10-10T12:49:00Z</time>
      </trkpt>
      <trkpt lat="42.27088896" lon="-8.623088">
        <ele>172.36000061035156</ele>
        <time>2018-10-10T12:49:02Z</time>
      </trkpt>
      <trkpt lat="42.27097344" lon="-8.6230944">
        <ele>172.36000061035156</ele>
        <time>2018-10-10T12:49:04Z</time>
      </trkpt>
      <trkpt lat="42.27105792" lon="-8.62310912">
        <ele>172.36000061035156</ele>
        <time>2018-10-10T12:49:06Z</time>
      </trkpt>
      <trkpt lat="42.27114752" lon="-8.62312512">
        <ele>172.36000061035156</ele>
        <time>2018-10-10T12:49:08Z</time>
      </trkpt>
      <trkpt lat="42.27123712" lon="-8.62314304">
        <ele>172.36000061035156</ele>
        <time>2018-10-10T12:49:10Z</time>
      </trkpt>
      <trkpt lat="42.2713216" lon="-8.62316352">
        <ele>172.36000061035156</ele>
        <time>2018-10-10T12:49:12Z</time>
      </trkpt>
      <trkpt lat="42.27138816" lon="-8.62321536">
        <ele>172.36000061035156</ele>
        <time>2018-10-10T12:49:14Z</time>
      </trkpt>
      <trkpt lat="42.27144192" lon="-8.6232832">
        <ele>172.36000061035156</ele>
        <time>2018-10-10T12:49:16Z</time>
      </trkpt>
      <trkpt lat="42.27149312" lon="-8.6233728">
        <ele>172.36000061035156</ele>
        <time>2018-10-10T12:49:18Z</time>
      </trkpt>
      <trkpt lat="42.27154432" lon="-8.62347904">
        <ele>172.36000061035156</ele>
        <time>2018-10-10T12:49:20Z</time>
      </trkpt>
      <trkpt lat="42.2716032" lon="-8.62359232">
        <ele>172.36000061035156</ele>
        <time>2018-10-10T12:49:22Z</time>
      </trkpt>
      <trkpt lat="42.2716288" lon="-8.62364032">
        <ele>172.36000061035156</ele>
        <time>2018-10-10T12:49:23Z</time>
      </trkpt>
      <trkpt lat="42.27168256" lon="-8.62373632">
        <ele>172.36000061035156</ele>
        <time>2018-10-10T12:49:25Z</time>
      </trkpt>
      <trkpt lat="42.27174656" lon="-8.62381824">
        <ele>172.36000061035156</ele>
        <time>2018-10-10T12:49:27Z</time>
      </trkpt>
      <trkpt lat="42.27183872" lon="-8.62386432">
        <ele>172.36000061035156</ele>
        <time>2018-10-10T12:49:29Z</time>
      </trkpt>
      <trkpt lat="42.27193088" lon="-8.62387392">
        <ele>172.36000061035156</ele>
        <time>2018-10-10T12:49:31Z</time>
      </trkpt>
      <trkpt lat="42.27204864" lon="-8.62388608">
        <ele>172.36000061035156</ele>
        <time>2018-10-10T12:49:33Z</time>
      </trkpt>
      <trkpt lat="42.27211264" lon="-8.62392256">
        <ele>172.36000061035156</ele>
        <time>2018-10-10T12:49:35Z</time>
      </trkpt>
      <trkpt lat="42.27216384" lon="-8.62399296">
        <ele>172.36000061035156</ele>
        <time>2018-10-10T12:49:37Z</time>
      </trkpt>
      <trkpt lat="42.27218688" lon="-8.62409792">
        <ele>172.36000061035156</ele>
        <time>2018-10-10T12:49:39Z</time>
      </trkpt>
      <trkpt lat="42.27219712" lon="-8.62421312">
        <ele>172.36000061035156</ele>
        <time>2018-10-10T12:49:41Z</time>
      </trkpt>
      <trkpt lat="42.27220224" lon="-8.62432768">
        <ele>172.36000061035156</ele>
        <time>2018-10-10T12:49:43Z</time>
      </trkpt>
      <trkpt lat="42.27220224" lon="-8.62443648">
        <ele>172.36000061035156</ele>
        <time>2018-10-10T12:49:45Z</time>
      </trkpt>
      <trkpt lat="42.27219712" lon="-8.62454016">
        <ele>172.36000061035156</ele>
        <time>2018-10-10T12:49:47Z</time>
      </trkpt>
      <trkpt lat="42.2722048" lon="-8.6246432">
        <ele>172.36000061035156</ele>
        <time>2018-10-10T12:49:49Z</time>
      </trkpt>
      <trkpt lat="42.27222784" lon="-8.624736">
        <ele>172.36000061035156</ele>
        <time>2018-10-10T12:49:51Z</time>
      </trkpt>
      <trkpt lat="42.27227136" lon="-8.62481792">
        <ele>172.36000061035156</ele>
        <time>2018-10-10T12:49:53Z</time>
      </trkpt>
      <trkpt lat="42.27233536" lon="-8.62487808">
        <ele>172.36000061035156</ele>
        <time>2018-10-10T12:49:55Z</time>
      </trkpt>
      <trkpt lat="42.27240704" lon="-8.6248992">
        <ele>172.36000061035156</ele>
        <time>2018-10-10T12:49:57Z</time>
      </trkpt>
      <trkpt lat="42.27248384" lon="-8.62488832">
        <ele>172.36000061035156</ele>
        <time>2018-10-10T12:49:59Z</time>
      </trkpt>
      <trkpt lat="42.2725632" lon="-8.62484672">
        <ele>172.36000061035156</ele>
        <time>2018-10-10T12:50:01Z</time>
      </trkpt>
      <trkpt lat="42.2726016" lon="-8.62482432">
        <ele>171.17999267578125</ele>
        <time>2018-10-10T12:50:02Z</time>
      </trkpt>
      <trkpt lat="42.27268096" lon="-8.62478528">
        <ele>171.17999267578125</ele>
        <time>2018-10-10T12:50:04Z</time>
      </trkpt>
      <trkpt lat="42.27285504" lon="-8.62477952">
        <ele>171.17999267578125</ele>
        <time>2018-10-10T12:50:08Z</time>
      </trkpt>
      <trkpt lat="42.27294464" lon="-8.62481408">
        <ele>171.17999267578125</ele>
        <time>2018-10-10T12:50:10Z</time>
      </trkpt>
      <trkpt lat="42.27305984" lon="-8.62496448">
        <ele>171.17999267578125</ele>
        <time>2018-10-10T12:50:13Z</time>
      </trkpt>
      <trkpt lat="42.27312128" lon="-8.62507264">
        <ele>171.17999267578125</ele>
        <time>2018-10-10T12:50:15Z</time>
      </trkpt>
      <trkpt lat="42.27316224" lon="-8.62518016">
        <ele>171.17999267578125</ele>
        <time>2018-10-10T12:50:17Z</time>
      </trkpt>
      <trkpt lat="42.27321344" lon="-8.62528832">
        <ele>171.17999267578125</ele>
        <time>2018-10-10T12:50:19Z</time>
      </trkpt>
      <trkpt lat="42.27323648" lon="-8.625344">
        <ele>171.17999267578125</ele>
        <time>2018-10-10T12:50:20Z</time>
      </trkpt>
      <trkpt lat="42.27327744" lon="-8.625456">
        <ele>171.17999267578125</ele>
        <time>2018-10-10T12:50:22Z</time>
      </trkpt>
      <trkpt lat="42.2733184" lon="-8.6255712">
        <ele>171.17999267578125</ele>
        <time>2018-10-10T12:50:24Z</time>
      </trkpt>
      <trkpt lat="42.27335424" lon="-8.62569408">
        <ele>171.17999267578125</ele>
        <time>2018-10-10T12:50:26Z</time>
      </trkpt>
      <trkpt lat="42.2733952" lon="-8.62581568">
        <ele>171.17999267578125</ele>
        <time>2018-10-10T12:50:28Z</time>
      </trkpt>
      <trkpt lat="42.27345152" lon="-8.6259232">
        <ele>171.17999267578125</ele>
        <time>2018-10-10T12:50:30Z</time>
      </trkpt>
      <trkpt lat="42.27352064" lon="-8.62600512">
        <ele>171.17999267578125</ele>
        <time>2018-10-10T12:50:32Z</time>
      </trkpt>
      <trkpt lat="42.27358976" lon="-8.62608896">
        <ele>171.17999267578125</ele>
        <time>2018-10-10T12:50:34Z</time>
      </trkpt>
      <trkpt lat="42.27366144" lon="-8.62617664">
        <ele>172.4499969482422</ele>
        <time>2018-10-10T12:50:36Z</time>
      </trkpt>
      <trkpt lat="42.27373568" lon="-8.62624448">
        <ele>172.4499969482422</ele>
        <time>2018-10-10T12:50:38Z</time>
      </trkpt>
      <trkpt lat="42.27382272" lon="-8.62626368">
        <ele>172.4499969482422</ele>
        <time>2018-10-10T12:50:40Z</time>
      </trkpt>
      <trkpt lat="42.2738944" lon="-8.6262272">
        <ele>172.4499969482422</ele>
        <time>2018-10-10T12:50:42Z</time>
      </trkpt>
      <trkpt lat="42.27397632" lon="-8.62618432">
        <ele>172.4499969482422</ele>
        <time>2018-10-10T12:50:44Z</time>
      </trkpt>
      <trkpt lat="42.27406336" lon="-8.6261632">
        <ele>172.4499969482422</ele>
        <time>2018-10-10T12:50:46Z</time>
      </trkpt>
      <trkpt lat="42.2741504" lon="-8.62616832">
        <ele>172.4499969482422</ele>
        <time>2018-10-10T12:50:48Z</time>
      </trkpt>
      <trkpt lat="42.27423744" lon="-8.62619584">
        <ele>172.4499969482422</ele>
        <time>2018-10-10T12:50:50Z</time>
      </trkpt>
      <trkpt lat="42.27432704" lon="-8.62623424">
        <ele>172.4499969482422</ele>
        <time>2018-10-10T12:50:52Z</time>
      </trkpt>
      <trkpt lat="42.2744064" lon="-8.62623488">
        <ele>172.4499969482422</ele>
        <time>2018-10-10T12:50:54Z</time>
      </trkpt>
      <trkpt lat="42.27447552" lon="-8.62621952">
        <ele>172.4499969482422</ele>
        <time>2018-10-10T12:50:56Z</time>
      </trkpt>
      <trkpt lat="42.27453696" lon="-8.6262208">
        <ele>172.4499969482422</ele>
        <time>2018-10-10T12:50:58Z</time>
      </trkpt>
      <trkpt lat="42.27459072" lon="-8.62623488">
        <ele>172.4499969482422</ele>
        <time>2018-10-10T12:51:00Z</time>
      </trkpt>
      <trkpt lat="42.27465472" lon="-8.62625984">
        <ele>172.4499969482422</ele>
        <time>2018-10-10T12:51:02Z</time>
      </trkpt>
      <trkpt lat="42.27473152" lon="-8.62630656">
        <ele>172.4499969482422</ele>
        <time>2018-10-10T12:51:04Z</time>
      </trkpt>
      <trkpt lat="42.27478784" lon="-8.62639744">
        <ele>172.4499969482422</ele>
        <time>2018-10-10T12:51:06Z</time>
      </trkpt>
      <trkpt lat="42.27481856" lon="-8.62652864">
        <ele>172.4499969482422</ele>
        <time>2018-10-10T12:51:08Z</time>
      </trkpt>
      <trkpt lat="42.27483392" lon="-8.62665344">
        <ele>172.4499969482422</ele>
        <time>2018-10-10T12:51:10Z</time>
      </trkpt>
      <trkpt lat="42.27486464" lon="-8.626768">
        <ele>172.4499969482422</ele>
        <time>2018-10-10T12:51:12Z</time>
      </trkpt>
      <trkpt lat="42.27491072" lon="-8.6268576">
        <ele>172.4499969482422</ele>
        <time>2018-10-10T12:51:14Z</time>
      </trkpt>
      <trkpt lat="42.27497216" lon="-8.62692736">
        <ele>171.17999267578125</ele>
        <time>2018-10-10T12:51:16Z</time>
      </trkpt>
      <trkpt lat="42.27504384" lon="-8.62698432">
        <ele>171.17999267578125</ele>
        <time>2018-10-10T12:51:18Z</time>
      </trkpt>
      <trkpt lat="42.2751232" lon="-8.62704256">
        <ele>171.17999267578125</ele>
        <time>2018-10-10T12:51:20Z</time>
      </trkpt>
      <trkpt lat="42.2751616" lon="-8.62707136">
        <ele>171.17999267578125</ele>
        <time>2018-10-10T12:51:21Z</time>
      </trkpt>
      <trkpt lat="42.2752384" lon="-8.6271456">
        <ele>172.36000061035156</ele>
        <time>2018-10-10T12:51:23Z</time>
      </trkpt>
      <trkpt lat="42.27526912" lon="-8.62718656">
        <ele>172.36000061035156</ele>
        <time>2018-10-10T12:51:24Z</time>
      </trkpt>
      <trkpt lat="42.27531008" lon="-8.62729664">
        <ele>172.36000061035156</ele>
        <time>2018-10-10T12:51:26Z</time>
      </trkpt>
      <trkpt lat="42.27532544" lon="-8.62740992">
        <ele>172.36000061035156</ele>
        <time>2018-10-10T12:51:28Z</time>
      </trkpt>
      <trkpt lat="42.27532544" lon="-8.6275232">
        <ele>172.36000061035156</ele>
        <time>2018-10-10T12:51:30Z</time>
      </trkpt>
      <trkpt lat="42.27531776" lon="-8.62763968">
        <ele>172.36000061035156</ele>
        <time>2018-10-10T12:51:32Z</time>
      </trkpt>
      <trkpt lat="42.27529984" lon="-8.62775616">
        <ele>172.36000061035156</ele>
        <time>2018-10-10T12:51:34Z</time>
      </trkpt>
      <trkpt lat="42.27527168" lon="-8.6278688">
        <ele>172.36000061035156</ele>
        <time>2018-10-10T12:51:36Z</time>
      </trkpt>
      <trkpt lat="42.27524864" lon="-8.62794112">
        <ele>172.36000061035156</ele>
        <time>2018-10-10T12:51:38Z</time>
      </trkpt>
      <trkpt lat="42.27521536" lon="-8.62802048">
        <ele>172.36000061035156</ele>
        <time>2018-10-10T12:51:41Z</time>
      </trkpt>
      <trkpt lat="42.27516928" lon="-8.62811456">
        <ele>172.36000061035156</ele>
        <time>2018-10-10T12:51:44Z</time>
      </trkpt>
      <trkpt lat="42.27515136" lon="-8.62820544">
        <ele>172.36000061035156</ele>
        <time>2018-10-10T12:51:46Z</time>
      </trkpt>
      <trkpt lat="42.2751744" lon="-8.62830656">
        <ele>171.17999267578125</ele>
        <time>2018-10-10T12:51:48Z</time>
      </trkpt>
      <trkpt lat="42.27524096" lon="-8.62839872">
        <ele>171.17999267578125</ele>
        <time>2018-10-10T12:51:50Z</time>
      </trkpt>
      <trkpt lat="42.27533824" lon="-8.62849792">
        <ele>171.17999267578125</ele>
        <time>2018-10-10T12:51:52Z</time>
      </trkpt>
      <trkpt lat="42.27538688" lon="-8.62854592">
        <ele>171.17999267578125</ele>
        <time>2018-10-10T12:51:53Z</time>
      </trkpt>
      <trkpt lat="42.27542784" lon="-8.62858496">
        <ele>171.17999267578125</ele>
        <time>2018-10-10T12:51:54Z</time>
      </trkpt>
      <trkpt lat="42.27547392" lon="-8.62862464">
        <ele>171.17999267578125</ele>
        <time>2018-10-10T12:51:55Z</time>
      </trkpt>
      <trkpt lat="42.27552512" lon="-8.62866688">
        <ele>171.17999267578125</ele>
        <time>2018-10-10T12:51:56Z</time>
      </trkpt>
      <trkpt lat="42.27556864" lon="-8.62870912">
        <ele>171.17999267578125</ele>
        <time>2018-10-10T12:51:57Z</time>
      </trkpt>
      <trkpt lat="42.27561472" lon="-8.6287488">
        <ele>171.17999267578125</ele>
        <time>2018-10-10T12:51:58Z</time>
      </trkpt>
      <trkpt lat="42.2756608" lon="-8.62878976">
        <ele>171.17999267578125</ele>
        <time>2018-10-10T12:51:59Z</time>
      </trkpt>
      <trkpt lat="42.27570432" lon="-8.62882688">
        <ele>171.17999267578125</ele>
        <time>2018-10-10T12:52:00Z</time>
      </trkpt>
      <trkpt lat="42.27574528" lon="-8.62886528">
        <ele>171.17999267578125</ele>
        <time>2018-10-10T12:52:01Z</time>
      </trkpt>
      <trkpt lat="42.27582208" lon="-8.62895488">
        <ele>171.17999267578125</ele>
        <time>2018-10-10T12:52:03Z</time>
      </trkpt>
      <trkpt lat="42.2758528" lon="-8.62899968">
        <ele>171.17999267578125</ele>
        <time>2018-10-10T12:52:04Z</time>
      </trkpt>
      <trkpt lat="42.2759168" lon="-8.62908096">
        <ele>171.17999267578125</ele>
        <time>2018-10-10T12:52:06Z</time>
      </trkpt>
      <trkpt lat="42.2759808" lon="-8.62914496">
        <ele>171.17999267578125</ele>
        <time>2018-10-10T12:52:08Z</time>
      </trkpt>
      <trkpt lat="42.27603456" lon="-8.62917056">
        <ele>171.17999267578125</ele>
        <time>2018-10-10T12:52:10Z</time>
      </trkpt>
      <trkpt lat="42.27609344" lon="-8.62916736">
        <ele>171.17999267578125</ele>
        <time>2018-10-10T12:52:12Z</time>
      </trkpt>
      <trkpt lat="42.27614208" lon="-8.6291392">
        <ele>171.17999267578125</ele>
        <time>2018-10-10T12:52:14Z</time>
      </trkpt>
      <trkpt lat="42.27619584" lon="-8.62909888">
        <ele>171.17999267578125</ele>
        <time>2018-10-10T12:52:16Z</time>
      </trkpt>
      <trkpt lat="42.2762496" lon="-8.62906048">
        <ele>171.17999267578125</ele>
        <time>2018-10-10T12:52:18Z</time>
      </trkpt>
      <trkpt lat="42.27630336" lon="-8.62903808">
        <ele>171.17999267578125</ele>
        <time>2018-10-10T12:52:20Z</time>
      </trkpt>
      <trkpt lat="42.27636992" lon="-8.62902528">
        <ele>170.0</ele>
        <time>2018-10-10T12:52:22Z</time>
      </trkpt>
      <trkpt lat="42.27643904" lon="-8.62902656">
        <ele>170.0</ele>
        <time>2018-10-10T12:52:24Z</time>
      </trkpt>
      <trkpt lat="42.27651328" lon="-8.62904064">
        <ele>170.0</ele>
        <time>2018-10-10T12:52:26Z</time>
      </trkpt>
      <trkpt lat="42.27658496" lon="-8.62905792">
        <ele>170.0</ele>
        <time>2018-10-10T12:52:28Z</time>
      </trkpt>
      <trkpt lat="42.27665664" lon="-8.6290848">
        <ele>171.27000427246094</ele>
        <time>2018-10-10T12:52:30Z</time>
      </trkpt>
      <trkpt lat="42.27672832" lon="-8.62912832">
        <ele>171.27000427246094</ele>
        <time>2018-10-10T12:52:32Z</time>
      </trkpt>
      <trkpt lat="42.27681024" lon="-8.62917248">
        <ele>171.27000427246094</ele>
        <time>2018-10-10T12:52:34Z</time>
      </trkpt>
      <trkpt lat="42.27689472" lon="-8.6292192">
        <ele>171.27000427246094</ele>
        <time>2018-10-10T12:52:36Z</time>
      </trkpt>
      <trkpt lat="42.27697408" lon="-8.62926848">
        <ele>171.27000427246094</ele>
        <time>2018-10-10T12:52:38Z</time>
      </trkpt>
      <trkpt lat="42.27704576" lon="-8.62933632">
        <ele>171.27000427246094</ele>
        <time>2018-10-10T12:52:40Z</time>
      </trkpt>
      <trkpt lat="42.27711232" lon="-8.62941376">
        <ele>171.27000427246094</ele>
        <time>2018-10-10T12:52:42Z</time>
      </trkpt>
      <trkpt lat="42.2771712" lon="-8.629488">
        <ele>171.27000427246094</ele>
        <time>2018-10-10T12:52:44Z</time>
      </trkpt>
      <trkpt lat="42.2772224" lon="-8.6295488">
        <ele>171.27000427246094</ele>
        <time>2018-10-10T12:52:46Z</time>
      </trkpt>
      <trkpt lat="42.27727872" lon="-8.62960832">
        <ele>171.27000427246094</ele>
        <time>2018-10-10T12:52:48Z</time>
      </trkpt>
      <trkpt lat="42.27733504" lon="-8.62965952">
        <ele>171.27000427246094</ele>
        <time>2018-10-10T12:52:50Z</time>
      </trkpt>
      <trkpt lat="42.27740416" lon="-8.62968832">
        <ele>171.27000427246094</ele>
        <time>2018-10-10T12:52:52Z</time>
      </trkpt>
      <trkpt lat="42.27748096" lon="-8.62969472">
        <ele>171.27000427246094</ele>
        <time>2018-10-10T12:52:54Z</time>
      </trkpt>
      <trkpt lat="42.27756544" lon="-8.62967872">
        <ele>171.27000427246094</ele>
        <time>2018-10-10T12:52:56Z</time>
      </trkpt>
      <trkpt lat="42.2776448" lon="-8.62964928">
        <ele>171.27000427246094</ele>
        <time>2018-10-10T12:52:58Z</time>
      </trkpt>
      <trkpt lat="42.27772928" lon="-8.62961664">
        <ele>171.27000427246094</ele>
        <time>2018-10-10T12:53:00Z</time>
      </trkpt>
      <trkpt lat="42.27781632" lon="-8.6295872">
        <ele>171.27000427246094</ele>
        <time>2018-10-10T12:53:02Z</time>
      </trkpt>
      <trkpt lat="42.2779008" lon="-8.62957184">
        <ele>171.27000427246094</ele>
        <time>2018-10-10T12:53:04Z</time>
      </trkpt>
      <trkpt lat="42.27798784" lon="-8.62958528">
        <ele>171.27000427246094</ele>
        <time>2018-10-10T12:53:06Z</time>
      </trkpt>
      <trkpt lat="42.27808" lon="-8.62961984">
        <ele>171.27000427246094</ele>
        <time>2018-10-10T12:53:08Z</time>
      </trkpt>
      <trkpt lat="42.27816704" lon="-8.62965376">
        <ele>171.27000427246094</ele>
        <time>2018-10-10T12:53:10Z</time>
      </trkpt>
      <trkpt lat="42.27821312" lon="-8.62966848">
        <ele>171.27000427246094</ele>
        <time>2018-10-10T12:53:11Z</time>
      </trkpt>
      <trkpt lat="42.27830528" lon="-8.62969088">
        <ele>171.27000427246094</ele>
        <time>2018-10-10T12:53:13Z</time>
      </trkpt>
      <trkpt lat="42.27838464" lon="-8.62971904">
        <ele>171.27000427246094</ele>
        <time>2018-10-10T12:53:15Z</time>
      </trkpt>
      <trkpt lat="42.278464" lon="-8.62978944">
        <ele>171.27000427246094</ele>
        <time>2018-10-10T12:53:17Z</time>
      </trkpt>
      <trkpt lat="42.27850752" lon="-8.62983104">
        <ele>171.27000427246094</ele>
        <time>2018-10-10T12:53:18Z</time>
      </trkpt>
      <trkpt lat="42.2785536" lon="-8.62987584">
        <ele>171.27000427246094</ele>
        <time>2018-10-10T12:53:19Z</time>
      </trkpt>
      <trkpt lat="42.27859456" lon="-8.62992576">
        <ele>169.6300048828125</ele>
        <time>2018-10-10T12:53:20Z</time>
      </trkpt>
      <trkpt lat="42.27863808" lon="-8.62997056">
        <ele>169.6300048828125</ele>
        <time>2018-10-10T12:53:21Z</time>
      </trkpt>
      <trkpt lat="42.27867392" lon="-8.63001152">
        <ele>168.4499969482422</ele>
        <time>2018-10-10T12:53:22Z</time>
      </trkpt>
      <trkpt lat="42.27870976" lon="-8.63005248">
        <ele>168.4499969482422</ele>
        <time>2018-10-10T12:53:23Z</time>
      </trkpt>
      <trkpt lat="42.2787712" lon="-8.63014528">
        <ele>168.4499969482422</ele>
        <time>2018-10-10T12:53:25Z</time>
      </trkpt>
      <trkpt lat="42.27881984" lon="-8.63024832">
        <ele>168.4499969482422</ele>
        <time>2018-10-10T12:53:27Z</time>
      </trkpt>
      <trkpt lat="42.27885056" lon="-8.63036032">
        <ele>168.4499969482422</ele>
        <time>2018-10-10T12:53:29Z</time>
      </trkpt>
      <trkpt lat="42.27886848" lon="-8.63047488">
        <ele>168.4499969482422</ele>
        <time>2018-10-10T12:53:31Z</time>
      </trkpt>
      <trkpt lat="42.27888128" lon="-8.63059776">
        <ele>168.4499969482422</ele>
        <time>2018-10-10T12:53:33Z</time>
      </trkpt>
      <trkpt lat="42.27888384" lon="-8.63072384">
        <ele>168.4499969482422</ele>
        <time>2018-10-10T12:53:35Z</time>
      </trkpt>
      <trkpt lat="42.27888896" lon="-8.6307872">
        <ele>168.4499969482422</ele>
        <time>2018-10-10T12:53:36Z</time>
      </trkpt>
      <trkpt lat="42.27889664" lon="-8.63092224">
        <ele>168.4499969482422</ele>
        <time>2018-10-10T12:53:38Z</time>
      </trkpt>
      <trkpt lat="42.27890432" lon="-8.63098304">
        <ele>169.6300048828125</ele>
        <time>2018-10-10T12:53:39Z</time>
      </trkpt>
      <trkpt lat="42.27892736" lon="-8.63110528">
        <ele>169.6300048828125</ele>
        <time>2018-10-10T12:53:41Z</time>
      </trkpt>
      <trkpt lat="42.27897344" lon="-8.63122176">
        <ele>169.6300048828125</ele>
        <time>2018-10-10T12:53:43Z</time>
      </trkpt>
      <trkpt lat="42.27900416" lon="-8.63127168">
        <ele>168.4499969482422</ele>
        <time>2018-10-10T12:53:44Z</time>
      </trkpt>
      <trkpt lat="42.2790784" lon="-8.63136768">
        <ele>168.4499969482422</ele>
        <time>2018-10-10T12:53:46Z</time>
      </trkpt>
      <trkpt lat="42.27912192" lon="-8.63141632">
        <ele>168.4499969482422</ele>
        <time>2018-10-10T12:53:47Z</time>
      </trkpt>
      <trkpt lat="42.2791552" lon="-8.63146112">
        <ele>168.4499969482422</ele>
        <time>2018-10-10T12:53:48Z</time>
      </trkpt>
      <trkpt lat="42.27925504" lon="-8.63157568">
        <ele>169.89999389648438</ele>
        <time>2018-10-10T12:53:50Z</time>
      </trkpt>
      <trkpt lat="42.27931904" lon="-8.6316512">
        <ele>169.89999389648438</ele>
        <time>2018-10-10T12:53:52Z</time>
      </trkpt>
      <trkpt lat="42.27938816" lon="-8.63174528">
        <ele>171.08999633789062</ele>
        <time>2018-10-10T12:53:54Z</time>
      </trkpt>
      <trkpt lat="42.27944448" lon="-8.631872">
        <ele>171.08999633789062</ele>
        <time>2018-10-10T12:53:56Z</time>
      </trkpt>
      <trkpt lat="42.27945216" lon="-8.6319712">
        <ele>171.08999633789062</ele>
        <time>2018-10-10T12:53:58Z</time>
      </trkpt>
      <trkpt lat="42.27946496" lon="-8.63209088">
        <ele>171.08999633789062</ele>
        <time>2018-10-10T12:54:00Z</time>
      </trkpt>
      <trkpt lat="42.2794752" lon="-8.63220992">
        <ele>171.08999633789062</ele>
        <time>2018-10-10T12:54:02Z</time>
      </trkpt>
      <trkpt lat="42.27949056" lon="-8.63238144">
        <ele>171.08999633789062</ele>
        <time>2018-10-10T12:54:05Z</time>
      </trkpt>
      <trkpt lat="42.27950336" lon="-8.63249984">
        <ele>171.08999633789062</ele>
        <time>2018-10-10T12:54:07Z</time>
      </trkpt>
      <trkpt lat="42.2795136" lon="-8.6326304">
        <ele>171.08999633789062</ele>
        <time>2018-10-10T12:54:09Z</time>
      </trkpt>
      <trkpt lat="42.27953664" lon="-8.63273344">
        <ele>172.4499969482422</ele>
        <time>2018-10-10T12:54:11Z</time>
      </trkpt>
      <trkpt lat="42.27957504" lon="-8.63282176">
        <ele>173.6300048828125</ele>
        <time>2018-10-10T12:54:13Z</time>
      </trkpt>
      <trkpt lat="42.27961344" lon="-8.63290432">
        <ele>175.0</ele>
        <time>2018-10-10T12:54:15Z</time>
      </trkpt>
      <trkpt lat="42.27964672" lon="-8.63297664">
        <ele>176.36000061035156</ele>
        <time>2018-10-10T12:54:17Z</time>
      </trkpt>
      <trkpt lat="42.27968256" lon="-8.63304064">
        <ele>176.36000061035156</ele>
        <time>2018-10-10T12:54:19Z</time>
      </trkpt>
      <trkpt lat="42.27970816" lon="-8.63309888">
        <ele>177.5399932861328</ele>
        <time>2018-10-10T12:54:21Z</time>
      </trkpt>
      <trkpt lat="42.27973632" lon="-8.63317312">
        <ele>177.5399932861328</ele>
        <time>2018-10-10T12:54:24Z</time>
      </trkpt>
      <trkpt lat="42.279744" lon="-8.6332576">
        <ele>177.5399932861328</ele>
        <time>2018-10-10T12:54:28Z</time>
      </trkpt>
      <trkpt lat="42.27975936" lon="-8.63332864">
        <ele>177.5399932861328</ele>
        <time>2018-10-10T12:54:32Z</time>
      </trkpt>
      <trkpt lat="42.2797824" lon="-8.63339904">
        <ele>174.27000427246094</ele>
        <time>2018-10-10T12:54:36Z</time>
      </trkpt>
      <trkpt lat="42.27978496" lon="-8.6334688">
        <ele>174.27000427246094</ele>
        <time>2018-10-10T12:54:40Z</time>
      </trkpt>
      <trkpt lat="42.27975424" lon="-8.63351424">
        <ele>174.27000427246094</ele>
        <time>2018-10-10T12:54:44Z</time>
      </trkpt>
      <trkpt lat="42.27970816" lon="-8.63346944">
        <ele>174.27000427246094</ele>
        <time>2018-10-10T12:54:49Z</time>
      </trkpt>
      <trkpt lat="42.2796672" lon="-8.63338688">
        <ele>174.27000427246094</ele>
        <time>2018-10-10T12:54:53Z</time>
      </trkpt>
      <trkpt lat="42.27964672" lon="-8.63332672">
        <ele>174.27000427246094</ele>
        <time>2018-10-10T12:54:56Z</time>
      </trkpt>
      <trkpt lat="42.27961088" lon="-8.63326912">
        <ele>174.27000427246094</ele>
        <time>2018-10-10T12:54:59Z</time>
      </trkpt>
      <trkpt lat="42.27958016" lon="-8.63321024">
        <ele>174.27000427246094</ele>
        <time>2018-10-10T12:55:02Z</time>
      </trkpt>
      <trkpt lat="42.2795648" lon="-8.63314752">
        <ele>174.27000427246094</ele>
        <time>2018-10-10T12:55:05Z</time>
      </trkpt>
      <trkpt lat="42.27959808" lon="-8.6332352">
        <ele>174.27000427246094</ele>
        <time>2018-10-10T12:55:15Z</time>
      </trkpt>
      <trkpt lat="42.27963904" lon="-8.63332544">
        <ele>175.89999389648438</ele>
        <time>2018-10-10T12:55:19Z</time>
      </trkpt>
      <trkpt lat="42.27968256" lon="-8.6334144">
        <ele>177.4499969482422</ele>
        <time>2018-10-10T12:55:22Z</time>
      </trkpt>
      <trkpt lat="42.27971328" lon="-8.63347904">
        <ele>177.4499969482422</ele>
        <time>2018-10-10T12:55:24Z</time>
      </trkpt>
      <trkpt lat="42.279744" lon="-8.6335392">
        <ele>178.72000122070312</ele>
        <time>2018-10-10T12:55:26Z</time>
      </trkpt>
      <trkpt lat="42.27979008" lon="-8.63362816">
        <ele>178.72000122070312</ele>
        <time>2018-10-10T12:55:29Z</time>
      </trkpt>
      <trkpt lat="42.27982336" lon="-8.63369472">
        <ele>179.89999389648438</ele>
        <time>2018-10-10T12:55:31Z</time>
      </trkpt>
      <trkpt lat="42.27984128" lon="-8.63376448">
        <ele>179.89999389648438</ele>
        <time>2018-10-10T12:55:33Z</time>
      </trkpt>
      <trkpt lat="42.27985408" lon="-8.6338336">
        <ele>179.89999389648438</ele>
        <time>2018-10-10T12:55:35Z</time>
      </trkpt>
      <trkpt lat="42.27986944" lon="-8.63390272">
        <ele>179.89999389648438</ele>
        <time>2018-10-10T12:55:37Z</time>
      </trkpt>
      <trkpt lat="42.27987968" lon="-8.63396864">
        <ele>179.89999389648438</ele>
        <time>2018-10-10T12:55:39Z</time>
      </trkpt>
      <trkpt lat="42.27989504" lon="-8.63403008">
        <ele>179.89999389648438</ele>
        <time>2018-10-10T12:55:41Z</time>
      </trkpt>
      <trkpt lat="42.27991808" lon="-8.63411904">
        <ele>179.89999389648438</ele>
        <time>2018-10-10T12:55:44Z</time>
      </trkpt>
      <trkpt lat="42.27993088" lon="-8.63418176">
        <ele>181.17999267578125</ele>
        <time>2018-10-10T12:55:46Z</time>
      </trkpt>
      <trkpt lat="42.27994112" lon="-8.63428224">
        <ele>182.36000061035156</ele>
        <time>2018-10-10T12:55:49Z</time>
      </trkpt>
      <trkpt lat="42.27994112" lon="-8.63434816">
        <ele>182.36000061035156</ele>
        <time>2018-10-10T12:55:51Z</time>
      </trkpt>
      <trkpt lat="42.2799616" lon="-8.63442688">
        <ele>183.5399932861328</ele>
        <time>2018-10-10T12:55:54Z</time>
      </trkpt>
      <trkpt lat="42.28000768" lon="-8.63449088">
        <ele>183.5399932861328</ele>
        <time>2018-10-10T12:55:57Z</time>
      </trkpt>
      <trkpt lat="42.2800512" lon="-8.63454144">
        <ele>183.5399932861328</ele>
        <time>2018-10-10T12:56:00Z</time>
      </trkpt>
      <trkpt lat="42.28009728" lon="-8.63458944">
        <ele>184.72000122070312</ele>
        <time>2018-10-10T12:56:03Z</time>
      </trkpt>
      <trkpt lat="42.28014336" lon="-8.63464">
        <ele>184.72000122070312</ele>
        <time>2018-10-10T12:56:06Z</time>
      </trkpt>
      <trkpt lat="42.28018688" lon="-8.63469248">
        <ele>184.72000122070312</ele>
        <time>2018-10-10T12:56:09Z</time>
      </trkpt>
      <trkpt lat="42.28022784" lon="-8.63476544">
        <ele>184.72000122070312</ele>
        <time>2018-10-10T12:56:12Z</time>
      </trkpt>
      <trkpt lat="42.28026624" lon="-8.6348384">
        <ele>185.89999389648438</ele>
        <time>2018-10-10T12:56:15Z</time>
      </trkpt>
      <trkpt lat="42.28030464" lon="-8.63490304">
        <ele>185.89999389648438</ele>
        <time>2018-10-10T12:56:18Z</time>
      </trkpt>
      <trkpt lat="42.2803456" lon="-8.63496192">
        <ele>185.89999389648438</ele>
        <time>2018-10-10T12:56:21Z</time>
      </trkpt>
      <trkpt lat="42.28039424" lon="-8.63503168">
        <ele>185.89999389648438</ele>
        <time>2018-10-10T12:56:24Z</time>
      </trkpt>
      <trkpt lat="42.28044544" lon="-8.63510912">
        <ele>185.89999389648438</ele>
        <time>2018-10-10T12:56:27Z</time>
      </trkpt>
      <trkpt lat="42.28048384" lon="-8.63518144">
        <ele>185.89999389648438</ele>
        <time>2018-10-10T12:56:30Z</time>
      </trkpt>
      <trkpt lat="42.2805248" lon="-8.63525184">
        <ele>185.89999389648438</ele>
        <time>2018-10-10T12:56:33Z</time>
      </trkpt>
      <trkpt lat="42.28056064" lon="-8.63531776">
        <ele>185.89999389648438</ele>
        <time>2018-10-10T12:56:36Z</time>
      </trkpt>
      <trkpt lat="42.28058368" lon="-8.63539776">
        <ele>185.89999389648438</ele>
        <time>2018-10-10T12:56:39Z</time>
      </trkpt>
      <trkpt lat="42.2805888" lon="-8.63548736">
        <ele>185.89999389648438</ele>
        <time>2018-10-10T12:56:42Z</time>
      </trkpt>
      <trkpt lat="42.28060416" lon="-8.63558784">
        <ele>185.89999389648438</ele>
        <time>2018-10-10T12:56:45Z</time>
      </trkpt>
      <trkpt lat="42.28061952" lon="-8.63568384">
        <ele>185.89999389648438</ele>
        <time>2018-10-10T12:56:48Z</time>
      </trkpt>
      <trkpt lat="42.28063232" lon="-8.63579008">
        <ele>185.89999389648438</ele>
        <time>2018-10-10T12:56:51Z</time>
      </trkpt>
      <trkpt lat="42.28064256" lon="-8.6358688">
        <ele>185.89999389648438</ele>
        <time>2018-10-10T12:56:53Z</time>
      </trkpt>
      <trkpt lat="42.28065536" lon="-8.63595008">
        <ele>185.89999389648438</ele>
        <time>2018-10-10T12:56:55Z</time>
      </trkpt>
      <trkpt lat="42.28067072" lon="-8.63602944">
        <ele>185.89999389648438</ele>
        <time>2018-10-10T12:56:57Z</time>
      </trkpt>
      <trkpt lat="42.28068864" lon="-8.636112">
        <ele>185.89999389648438</ele>
        <time>2018-10-10T12:56:59Z</time>
      </trkpt>
      <trkpt lat="42.28071168" lon="-8.6362016">
        <ele>185.89999389648438</ele>
        <time>2018-10-10T12:57:01Z</time>
      </trkpt>
      <trkpt lat="42.28073472" lon="-8.63629632">
        <ele>185.89999389648438</ele>
        <time>2018-10-10T12:57:03Z</time>
      </trkpt>
      <trkpt lat="42.28076288" lon="-8.63639552">
        <ele>185.89999389648438</ele>
        <time>2018-10-10T12:57:05Z</time>
      </trkpt>
      <trkpt lat="42.28078848" lon="-8.63649088">
        <ele>185.89999389648438</ele>
        <time>2018-10-10T12:57:07Z</time>
      </trkpt>
      <trkpt lat="42.28081408" lon="-8.63657792">
        <ele>185.89999389648438</ele>
        <time>2018-10-10T12:57:09Z</time>
      </trkpt>
      <trkpt lat="42.2808448" lon="-8.63667136">
        <ele>185.89999389648438</ele>
        <time>2018-10-10T12:57:11Z</time>
      </trkpt>
      <trkpt lat="42.280896" lon="-8.63677504">
        <ele>185.89999389648438</ele>
        <time>2018-10-10T12:57:13Z</time>
      </trkpt>
      <trkpt lat="42.28092672" lon="-8.63682368">
        <ele>185.89999389648438</ele>
        <time>2018-10-10T12:57:14Z</time>
      </trkpt>
      <trkpt lat="42.28097792" lon="-8.63691328">
        <ele>185.89999389648438</ele>
        <time>2018-10-10T12:57:16Z</time>
      </trkpt>
      <trkpt lat="42.281024" lon="-8.63699072">
        <ele>185.89999389648438</ele>
        <time>2018-10-10T12:57:18Z</time>
      </trkpt>
      <trkpt lat="42.28107008" lon="-8.63708288">
        <ele>185.89999389648438</ele>
        <time>2018-10-10T12:57:20Z</time>
      </trkpt>
      <trkpt lat="42.28111616" lon="-8.63718016">
        <ele>184.72000122070312</ele>
        <time>2018-10-10T12:57:22Z</time>
      </trkpt>
      <trkpt lat="42.28115968" lon="-8.6372832">
        <ele>184.72000122070312</ele>
        <time>2018-10-10T12:57:24Z</time>
      </trkpt>
      <trkpt lat="42.28120064" lon="-8.637392">
        <ele>184.72000122070312</ele>
        <time>2018-10-10T12:57:26Z</time>
      </trkpt>
      <trkpt lat="42.28122624" lon="-8.63750336">
        <ele>184.72000122070312</ele>
        <time>2018-10-10T12:57:28Z</time>
      </trkpt>
      <trkpt lat="42.28126464" lon="-8.63761984">
        <ele>184.72000122070312</ele>
        <time>2018-10-10T12:57:30Z</time>
      </trkpt>
      <trkpt lat="42.28130304" lon="-8.63772608">
        <ele>184.72000122070312</ele>
        <time>2018-10-10T12:57:32Z</time>
      </trkpt>
      <trkpt lat="42.28134144" lon="-8.63782528">
        <ele>184.72000122070312</ele>
        <time>2018-10-10T12:57:34Z</time>
      </trkpt>
      <trkpt lat="42.28138752" lon="-8.63791872">
        <ele>184.72000122070312</ele>
        <time>2018-10-10T12:57:36Z</time>
      </trkpt>
      <trkpt lat="42.28142592" lon="-8.63800832">
        <ele>184.72000122070312</ele>
        <time>2018-10-10T12:57:38Z</time>
      </trkpt>
      <trkpt lat="42.2814592" lon="-8.63810368">
        <ele>184.72000122070312</ele>
        <time>2018-10-10T12:57:40Z</time>
      </trkpt>
      <trkpt lat="42.28148736" lon="-8.63820352">
        <ele>184.72000122070312</ele>
        <time>2018-10-10T12:57:42Z</time>
      </trkpt>
      <trkpt lat="42.28151296" lon="-8.6383008">
        <ele>184.72000122070312</ele>
        <time>2018-10-10T12:57:44Z</time>
      </trkpt>
      <trkpt lat="42.281536" lon="-8.6384192">
        <ele>184.72000122070312</ele>
        <time>2018-10-10T12:57:46Z</time>
      </trkpt>
      <trkpt lat="42.28155904" lon="-8.6385376">
        <ele>184.72000122070312</ele>
        <time>2018-10-10T12:57:48Z</time>
      </trkpt>
      <trkpt lat="42.28158208" lon="-8.63865088">
        <ele>184.72000122070312</ele>
        <time>2018-10-10T12:57:50Z</time>
      </trkpt>
      <trkpt lat="42.28160512" lon="-8.63876992">
        <ele>184.72000122070312</ele>
        <time>2018-10-10T12:57:52Z</time>
      </trkpt>
      <trkpt lat="42.28163072" lon="-8.638896">
        <ele>184.72000122070312</ele>
        <time>2018-10-10T12:57:54Z</time>
      </trkpt>
      <trkpt lat="42.28166144" lon="-8.63901632">
        <ele>184.72000122070312</ele>
        <time>2018-10-10T12:57:56Z</time>
      </trkpt>
      <trkpt lat="42.28168192" lon="-8.63908288">
        <ele>184.72000122070312</ele>
        <time>2018-10-10T12:57:57Z</time>
      </trkpt>
      <trkpt lat="42.28172288" lon="-8.63920128">
        <ele>184.72000122070312</ele>
        <time>2018-10-10T12:57:59Z</time>
      </trkpt>
      <trkpt lat="42.28174592" lon="-8.6392576">
        <ele>185.89999389648438</ele>
        <time>2018-10-10T12:58:00Z</time>
      </trkpt>
      <trkpt lat="42.28177152" lon="-8.6393024">
        <ele>185.89999389648438</ele>
        <time>2018-10-10T12:58:01Z</time>
      </trkpt>
      <trkpt lat="42.28182528" lon="-8.63938688">
        <ele>185.89999389648438</ele>
        <time>2018-10-10T12:58:03Z</time>
      </trkpt>
      <trkpt lat="42.28187648" lon="-8.6394464">
        <ele>187.08999633789062</ele>
        <time>2018-10-10T12:58:05Z</time>
      </trkpt>
      <trkpt lat="42.2819328" lon="-8.63949184">
        <ele>187.08999633789062</ele>
        <time>2018-10-10T12:58:07Z</time>
      </trkpt>
      <trkpt lat="42.2820096" lon="-8.63953984">
        <ele>188.27000427246094</ele>
        <time>2018-10-10T12:58:10Z</time>
      </trkpt>
      <trkpt lat="42.28207872" lon="-8.6395808">
        <ele>188.27000427246094</ele>
        <time>2018-10-10T12:58:13Z</time>
      </trkpt>
      <trkpt lat="42.2821376" lon="-8.63961216">
        <ele>188.27000427246094</ele>
        <time>2018-10-10T12:58:16Z</time>
      </trkpt>
      <trkpt lat="42.28219904" lon="-8.63964672">
        <ele>188.27000427246094</ele>
        <time>2018-10-10T12:58:19Z</time>
      </trkpt>
      <trkpt lat="42.28225792" lon="-8.63967872">
        <ele>189.4499969482422</ele>
        <time>2018-10-10T12:58:22Z</time>
      </trkpt>
      <trkpt lat="42.28231424" lon="-8.63970752">
        <ele>189.4499969482422</ele>
        <time>2018-10-10T12:58:25Z</time>
      </trkpt>
      <trkpt lat="42.28237568" lon="-8.63973632">
        <ele>189.4499969482422</ele>
        <time>2018-10-10T12:58:28Z</time>
      </trkpt>
      <trkpt lat="42.28243712" lon="-8.63976384">
        <ele>189.4499969482422</ele>
        <time>2018-10-10T12:58:31Z</time>
      </trkpt>
      <trkpt lat="42.28249344" lon="-8.6397856">
        <ele>189.4499969482422</ele>
        <time>2018-10-10T12:58:34Z</time>
      </trkpt>
      <trkpt lat="42.28254976" lon="-8.63980672">
        <ele>189.4499969482422</ele>
        <time>2018-10-10T12:58:37Z</time>
      </trkpt>
      <trkpt lat="42.28260864" lon="-8.63982656">
        <ele>189.4499969482422</ele>
        <time>2018-10-10T12:58:40Z</time>
      </trkpt>
      <trkpt lat="42.28267008" lon="-8.63984896">
        <ele>189.4499969482422</ele>
        <time>2018-10-10T12:58:43Z</time>
      </trkpt>
      <trkpt lat="42.28273408" lon="-8.6398752">
        <ele>189.4499969482422</ele>
        <time>2018-10-10T12:58:46Z</time>
      </trkpt>
      <trkpt lat="42.28277504" lon="-8.63989376">
        <ele>189.4499969482422</ele>
        <time>2018-10-10T12:58:48Z</time>
      </trkpt>
      <trkpt lat="42.28284928" lon="-8.63992576">
        <ele>189.4499969482422</ele>
        <time>2018-10-10T12:58:51Z</time>
      </trkpt>
      <trkpt lat="42.28289792" lon="-8.63994688">
        <ele>189.4499969482422</ele>
        <time>2018-10-10T12:58:53Z</time>
      </trkpt>
      <trkpt lat="42.28295424" lon="-8.63997056">
        <ele>189.4499969482422</ele>
        <time>2018-10-10T12:58:55Z</time>
      </trkpt>
      <trkpt lat="42.28300544" lon="-8.6399936">
        <ele>191.08999633789062</ele>
        <time>2018-10-10T12:58:57Z</time>
      </trkpt>
      <trkpt lat="42.28305152" lon="-8.64002432">
        <ele>192.36000061035156</ele>
        <time>2018-10-10T12:58:59Z</time>
      </trkpt>
      <trkpt lat="42.28309504" lon="-8.64007104">
        <ele>193.72000122070312</ele>
        <time>2018-10-10T12:59:01Z</time>
      </trkpt>
      <trkpt lat="42.28313344" lon="-8.64011968">
        <ele>193.72000122070312</ele>
        <time>2018-10-10T12:59:03Z</time>
      </trkpt>
      <trkpt lat="42.28317696" lon="-8.64017792">
        <ele>195.0</ele>
        <time>2018-10-10T12:59:05Z</time>
      </trkpt>
      <trkpt lat="42.28322304" lon="-8.64024256">
        <ele>195.0</ele>
        <time>2018-10-10T12:59:08Z</time>
      </trkpt>
      <trkpt lat="42.28325632" lon="-8.64029568">
        <ele>196.17999267578125</ele>
        <time>2018-10-10T12:59:10Z</time>
      </trkpt>
      <trkpt lat="42.2832896" lon="-8.6403712">
        <ele>196.17999267578125</ele>
        <time>2018-10-10T12:59:13Z</time>
      </trkpt>
      <trkpt lat="42.28331776" lon="-8.64043968">
        <ele>197.36000061035156</ele>
        <time>2018-10-10T12:59:16Z</time>
      </trkpt>
      <trkpt lat="42.28334848" lon="-8.64050304">
        <ele>197.36000061035156</ele>
        <time>2018-10-10T12:59:19Z</time>
      </trkpt>
      <trkpt lat="42.28337152" lon="-8.64056192">
        <ele>197.36000061035156</ele>
        <time>2018-10-10T12:59:22Z</time>
      </trkpt>
      <trkpt lat="42.28339456" lon="-8.64062208">
        <ele>198.6300048828125</ele>
        <time>2018-10-10T12:59:25Z</time>
      </trkpt>
      <trkpt lat="42.28342016" lon="-8.64070976">
        <ele>198.6300048828125</ele>
        <time>2018-10-10T12:59:28Z</time>
      </trkpt>
      <trkpt lat="42.28342784" lon="-8.640752">
        <ele>199.80999755859375</ele>
        <time>2018-10-10T12:59:31Z</time>
      </trkpt>
      <trkpt lat="42.2834432" lon="-8.64082176">
        <ele>199.80999755859375</ele>
        <time>2018-10-10T12:59:35Z</time>
      </trkpt>
      <trkpt lat="42.28346368" lon="-8.64090176">
        <ele>201.08999633789062</ele>
        <time>2018-10-10T12:59:39Z</time>
      </trkpt>
      <trkpt lat="42.28347136" lon="-8.64095872">
        <ele>202.36000061035156</ele>
        <time>2018-10-10T12:59:42Z</time>
      </trkpt>
      <trkpt lat="42.2834816" lon="-8.64103808">
        <ele>202.36000061035156</ele>
        <time>2018-10-10T12:59:46Z</time>
      </trkpt>
      <trkpt lat="42.28349696" lon="-8.6411136">
        <ele>203.5399932861328</ele>
        <time>2018-10-10T12:59:50Z</time>
      </trkpt>
      <trkpt lat="42.28350464" lon="-8.64119424">
        <ele>203.5399932861328</ele>
        <time>2018-10-10T12:59:54Z</time>
      </trkpt>
      <trkpt lat="42.28351232" lon="-8.64127808">
        <ele>204.72000122070312</ele>
        <time>2018-10-10T12:59:58Z</time>
      </trkpt>
      <trkpt lat="42.28352" lon="-8.64135744">
        <ele>204.72000122070312</ele>
        <time>2018-10-10T13:00:02Z</time>
      </trkpt>
      <trkpt lat="42.28352768" lon="-8.64144448">
        <ele>204.72000122070312</ele>
        <time>2018-10-10T13:00:06Z</time>
      </trkpt>
      <trkpt lat="42.28353024" lon="-8.64150784">
        <ele>205.89999389648438</ele>
        <time>2018-10-10T13:00:09Z</time>
      </trkpt>
      <trkpt lat="42.28353536" lon="-8.64158656">
        <ele>205.89999389648438</ele>
        <time>2018-10-10T13:00:13Z</time>
      </trkpt>
      <trkpt lat="42.28353792" lon="-8.64166144">
        <ele>205.89999389648438</ele>
        <time>2018-10-10T13:00:17Z</time>
      </trkpt>
      <trkpt lat="42.28354304" lon="-8.64172736">
        <ele>207.17999267578125</ele>
        <time>2018-10-10T13:00:20Z</time>
      </trkpt>
      <trkpt lat="42.28354304" lon="-8.64181056">
        <ele>207.17999267578125</ele>
        <time>2018-10-10T13:00:24Z</time>
      </trkpt>
      <trkpt lat="42.28354304" lon="-8.64188736">
        <ele>207.17999267578125</ele>
        <time>2018-10-10T13:00:28Z</time>
      </trkpt>
      <trkpt lat="42.28353792" lon="-8.64196864">
        <ele>208.4499969482422</ele>
        <time>2018-10-10T13:00:32Z</time>
      </trkpt>
      <trkpt lat="42.28349696" lon="-8.6420288">
        <ele>208.4499969482422</ele>
        <time>2018-10-10T13:00:35Z</time>
      </trkpt>
      <trkpt lat="42.28346624" lon="-8.64208768">
        <ele>209.6300048828125</ele>
        <time>2018-10-10T13:00:38Z</time>
      </trkpt>
      <trkpt lat="42.28343296" lon="-8.64214208">
        <ele>209.6300048828125</ele>
        <time>2018-10-10T13:00:41Z</time>
      </trkpt>
      <trkpt lat="42.28338688" lon="-8.64219776">
        <ele>210.80999755859375</ele>
        <time>2018-10-10T13:00:44Z</time>
      </trkpt>
      <trkpt lat="42.28333568" lon="-8.64225408">
        <ele>210.80999755859375</ele>
        <time>2018-10-10T13:00:47Z</time>
      </trkpt>
      <trkpt lat="42.28328704" lon="-8.64230528">
        <ele>212.08999633789062</ele>
        <time>2018-10-10T13:00:50Z</time>
      </trkpt>
      <trkpt lat="42.28324096" lon="-8.64235776">
        <ele>212.08999633789062</ele>
        <time>2018-10-10T13:00:53Z</time>
      </trkpt>
      <trkpt lat="42.28319488" lon="-8.64241344">
        <ele>212.08999633789062</ele>
        <time>2018-10-10T13:00:56Z</time>
      </trkpt>
      <trkpt lat="42.28315648" lon="-8.64246464">
        <ele>213.27000427246094</ele>
        <time>2018-10-10T13:00:59Z</time>
      </trkpt>
      <trkpt lat="42.28310784" lon="-8.64253824">
        <ele>213.27000427246094</ele>
        <time>2018-10-10T13:01:03Z</time>
      </trkpt>
      <trkpt lat="42.28306688" lon="-8.642608">
        <ele>214.4499969482422</ele>
        <time>2018-10-10T13:01:07Z</time>
      </trkpt>
      <trkpt lat="42.28303616" lon="-8.64266112">
        <ele>214.4499969482422</ele>
        <time>2018-10-10T13:01:10Z</time>
      </trkpt>
      <trkpt lat="42.28300032" lon="-8.64272">
        <ele>214.4499969482422</ele>
        <time>2018-10-10T13:01:13Z</time>
      </trkpt>
      <trkpt lat="42.28295936" lon="-8.64276608">
        <ele>215.6300048828125</ele>
        <time>2018-10-10T13:01:16Z</time>
      </trkpt>
      <trkpt lat="42.28292096" lon="-8.64281856">
        <ele>215.6300048828125</ele>
        <time>2018-10-10T13:01:19Z</time>
      </trkpt>
      <trkpt lat="42.28288768" lon="-8.64287872">
        <ele>215.6300048828125</ele>
        <time>2018-10-10T13:01:22Z</time>
      </trkpt>
      <trkpt lat="42.28284416" lon="-8.64294464">
        <ele>216.80999755859375</ele>
        <time>2018-10-10T13:01:25Z</time>
      </trkpt>
      <trkpt lat="42.2828032" lon="-8.64300352">
        <ele>216.80999755859375</ele>
        <time>2018-10-10T13:01:28Z</time>
      </trkpt>
      <trkpt lat="42.28276736" lon="-8.6430624">
        <ele>216.80999755859375</ele>
        <time>2018-10-10T13:01:31Z</time>
      </trkpt>
      <trkpt lat="42.28274176" lon="-8.64312192">
        <ele>218.08999633789062</ele>
        <time>2018-10-10T13:01:34Z</time>
      </trkpt>
      <trkpt lat="42.28270336" lon="-8.64318848">
        <ele>218.08999633789062</ele>
        <time>2018-10-10T13:01:37Z</time>
      </trkpt>
      <trkpt lat="42.28267008" lon="-8.64325888">
        <ele>218.08999633789062</ele>
        <time>2018-10-10T13:01:40Z</time>
      </trkpt>
      <trkpt lat="42.28263424" lon="-8.64333184">
        <ele>219.36000061035156</ele>
        <time>2018-10-10T13:01:43Z</time>
      </trkpt>
      <trkpt lat="42.28260352" lon="-8.64340096">
        <ele>219.36000061035156</ele>
        <time>2018-10-10T13:01:46Z</time>
      </trkpt>
      <trkpt lat="42.28257024" lon="-8.64347904">
        <ele>219.36000061035156</ele>
        <time>2018-10-10T13:01:49Z</time>
      </trkpt>
      <trkpt lat="42.2825344" lon="-8.6435584">
        <ele>219.36000061035156</ele>
        <time>2018-10-10T13:01:52Z</time>
      </trkpt>
      <trkpt lat="42.28250624" lon="-8.6436288">
        <ele>220.5399932861328</ele>
        <time>2018-10-10T13:01:55Z</time>
      </trkpt>
      <trkpt lat="42.28247552" lon="-8.64370048">
        <ele>220.5399932861328</ele>
        <time>2018-10-10T13:01:58Z</time>
      </trkpt>
      <trkpt lat="42.2824448" lon="-8.64376704">
        <ele>220.5399932861328</ele>
        <time>2018-10-10T13:02:01Z</time>
      </trkpt>
      <trkpt lat="42.28241408" lon="-8.64382528">
        <ele>221.80999755859375</ele>
        <time>2018-10-10T13:02:04Z</time>
      </trkpt>
      <trkpt lat="42.28238592" lon="-8.64388672">
        <ele>221.80999755859375</ele>
        <time>2018-10-10T13:02:07Z</time>
      </trkpt>
      <trkpt lat="42.28235264" lon="-8.6439584">
        <ele>221.80999755859375</ele>
        <time>2018-10-10T13:02:10Z</time>
      </trkpt>
      <trkpt lat="42.28231936" lon="-8.64403264">
        <ele>221.80999755859375</ele>
        <time>2018-10-10T13:02:13Z</time>
      </trkpt>
      <trkpt lat="42.28228864" lon="-8.6440992">
        <ele>223.08999633789062</ele>
        <time>2018-10-10T13:02:16Z</time>
      </trkpt>
      <trkpt lat="42.2822528" lon="-8.6441696">
        <ele>223.08999633789062</ele>
        <time>2018-10-10T13:02:19Z</time>
      </trkpt>
      <trkpt lat="42.28222208" lon="-8.64423552">
        <ele>224.36000061035156</ele>
        <time>2018-10-10T13:02:22Z</time>
      </trkpt>
      <trkpt lat="42.2821888" lon="-8.64429824">
        <ele>224.36000061035156</ele>
        <time>2018-10-10T13:02:25Z</time>
      </trkpt>
      <trkpt lat="42.2821504" lon="-8.64436352">
        <ele>224.36000061035156</ele>
        <time>2018-10-10T13:02:28Z</time>
      </trkpt>
      <trkpt lat="42.28211712" lon="-8.64442752">
        <ele>224.36000061035156</ele>
        <time>2018-10-10T13:02:31Z</time>
      </trkpt>
      <trkpt lat="42.28207872" lon="-8.64448576">
        <ele>225.5399932861328</ele>
        <time>2018-10-10T13:02:34Z</time>
      </trkpt>
      <trkpt lat="42.282048" lon="-8.64453248">
        <ele>225.5399932861328</ele>
        <time>2018-10-10T13:02:37Z</time>
      </trkpt>
      <trkpt lat="42.28197888" lon="-8.64458176">
        <ele>225.5399932861328</ele>
        <time>2018-10-10T13:02:40Z</time>
      </trkpt>
      <trkpt lat="42.28193024" lon="-8.6446368">
        <ele>226.72000122070312</ele>
        <time>2018-10-10T13:02:43Z</time>
      </trkpt>
      <trkpt lat="42.28188416" lon="-8.64469248">
        <ele>226.72000122070312</ele>
        <time>2018-10-10T13:02:46Z</time>
      </trkpt>
      <trkpt lat="42.28183808" lon="-8.64474752">
        <ele>227.89999389648438</ele>
        <time>2018-10-10T13:02:49Z</time>
      </trkpt>
      <trkpt lat="42.281792" lon="-8.64479744">
        <ele>227.89999389648438</ele>
        <time>2018-10-10T13:02:52Z</time>
      </trkpt>
      <trkpt lat="42.28174592" lon="-8.64484416">
        <ele>227.89999389648438</ele>
        <time>2018-10-10T13:02:55Z</time>
      </trkpt>
      <trkpt lat="42.28170496" lon="-8.6448896">
        <ele>229.08999633789062</ele>
        <time>2018-10-10T13:02:58Z</time>
      </trkpt>
      <trkpt lat="42.28166144" lon="-8.6449344">
        <ele>229.08999633789062</ele>
        <time>2018-10-10T13:03:01Z</time>
      </trkpt>
      <trkpt lat="42.28162048" lon="-8.6449824">
        <ele>229.08999633789062</ele>
        <time>2018-10-10T13:03:04Z</time>
      </trkpt>
      <trkpt lat="42.28156672" lon="-8.64503296">
        <ele>229.08999633789062</ele>
        <time>2018-10-10T13:03:07Z</time>
      </trkpt>
      <trkpt lat="42.28152064" lon="-8.64507776">
        <ele>230.36000061035156</ele>
        <time>2018-10-10T13:03:10Z</time>
      </trkpt>
      <trkpt lat="42.281472" lon="-8.6451232">
        <ele>230.36000061035156</ele>
        <time>2018-10-10T13:03:13Z</time>
      </trkpt>
      <trkpt lat="42.28141824" lon="-8.64516736">
        <ele>231.5399932861328</ele>
        <time>2018-10-10T13:03:16Z</time>
      </trkpt>
      <trkpt lat="42.28136704" lon="-8.64520768">
        <ele>231.5399932861328</ele>
        <time>2018-10-10T13:03:19Z</time>
      </trkpt>
      <trkpt lat="42.2813184" lon="-8.6452448">
        <ele>231.5399932861328</ele>
        <time>2018-10-10T13:03:22Z</time>
      </trkpt>
      <trkpt lat="42.28126208" lon="-8.64528576">
        <ele>232.72000122070312</ele>
        <time>2018-10-10T13:03:25Z</time>
      </trkpt>
      <trkpt lat="42.2812032" lon="-8.6453216">
        <ele>234.08999633789062</ele>
        <time>2018-10-10T13:03:28Z</time>
      </trkpt>
      <trkpt lat="42.28113664" lon="-8.64535552">
        <ele>234.08999633789062</ele>
        <time>2018-10-10T13:03:31Z</time>
      </trkpt>
      <trkpt lat="42.2810752" lon="-8.64538304">
        <ele>234.08999633789062</ele>
        <time>2018-10-10T13:03:34Z</time>
      </trkpt>
      <trkpt lat="42.28102912" lon="-8.64540096">
        <ele>234.08999633789062</ele>
        <time>2018-10-10T13:03:36Z</time>
      </trkpt>
      <trkpt lat="42.28096512" lon="-8.64542208">
        <ele>234.08999633789062</ele>
        <time>2018-10-10T13:03:39Z</time>
      </trkpt>
      <trkpt lat="42.28090368" lon="-8.6454432">
        <ele>234.08999633789062</ele>
        <time>2018-10-10T13:03:42Z</time>
      </trkpt>
      <trkpt lat="42.28083456" lon="-8.64546368">
        <ele>235.5399932861328</ele>
        <time>2018-10-10T13:03:45Z</time>
      </trkpt>
      <trkpt lat="42.28077312" lon="-8.6454848">
        <ele>235.5399932861328</ele>
        <time>2018-10-10T13:03:49Z</time>
      </trkpt>
      <trkpt lat="42.28072704" lon="-8.64550336">
        <ele>236.72000122070312</ele>
        <time>2018-10-10T13:03:52Z</time>
      </trkpt>
      <trkpt lat="42.28065792" lon="-8.64553664">
        <ele>238.0</ele>
        <time>2018-10-10T13:03:56Z</time>
      </trkpt>
      <trkpt lat="42.28061184" lon="-8.64556288">
        <ele>238.0</ele>
        <time>2018-10-10T13:03:59Z</time>
      </trkpt>
      <trkpt lat="42.28057088" lon="-8.64559104">
        <ele>239.27000427246094</ele>
        <time>2018-10-10T13:04:02Z</time>
      </trkpt>
      <trkpt lat="42.28052224" lon="-8.645632">
        <ele>239.27000427246094</ele>
        <time>2018-10-10T13:04:06Z</time>
      </trkpt>
      <trkpt lat="42.28047616" lon="-8.64567872">
        <ele>239.27000427246094</ele>
        <time>2018-10-10T13:04:10Z</time>
      </trkpt>
      <trkpt lat="42.28044544" lon="-8.64571584">
        <ele>239.27000427246094</ele>
        <time>2018-10-10T13:04:13Z</time>
      </trkpt>
      <trkpt lat="42.28041728" lon="-8.6458176">
        <ele>240.6300048828125</ele>
        <time>2018-10-10T13:04:16Z</time>
      </trkpt>
      <trkpt lat="42.28039936" lon="-8.64586176">
        <ele>240.6300048828125</ele>
        <time>2018-10-10T13:04:18Z</time>
      </trkpt>
      <trkpt lat="42.28036608" lon="-8.6459104">
        <ele>241.80999755859375</ele>
        <time>2018-10-10T13:04:21Z</time>
      </trkpt>
      <trkpt lat="42.28031488" lon="-8.64596288">
        <ele>241.80999755859375</ele>
        <time>2018-10-10T13:04:25Z</time>
      </trkpt>
      <trkpt lat="42.28026624" lon="-8.64602176">
        <ele>241.80999755859375</ele>
        <time>2018-10-10T13:04:29Z</time>
      </trkpt>
      <trkpt lat="42.28022784" lon="-8.64606848">
        <ele>243.0</ele>
        <time>2018-10-10T13:04:32Z</time>
      </trkpt>
      <trkpt lat="42.28018688" lon="-8.6461152">
        <ele>243.0</ele>
        <time>2018-10-10T13:04:35Z</time>
      </trkpt>
      <trkpt lat="42.28014336" lon="-8.6461632">
        <ele>243.0</ele>
        <time>2018-10-10T13:04:38Z</time>
      </trkpt>
      <trkpt lat="42.28009728" lon="-8.64620992">
        <ele>243.0</ele>
        <time>2018-10-10T13:04:41Z</time>
      </trkpt>
      <trkpt lat="42.28005888" lon="-8.64624896">
        <ele>244.17999267578125</ele>
        <time>2018-10-10T13:04:44Z</time>
      </trkpt>
      <trkpt lat="42.28001792" lon="-8.64628672">
        <ele>244.17999267578125</ele>
        <time>2018-10-10T13:04:47Z</time>
      </trkpt>
      <trkpt lat="42.27997696" lon="-8.64632768">
        <ele>244.17999267578125</ele>
        <time>2018-10-10T13:04:50Z</time>
      </trkpt>
      <trkpt lat="42.27993088" lon="-8.64636992">
        <ele>244.17999267578125</ele>
        <time>2018-10-10T13:04:53Z</time>
      </trkpt>
      <trkpt lat="42.27988736" lon="-8.64640896">
        <ele>245.36000061035156</ele>
        <time>2018-10-10T13:04:56Z</time>
      </trkpt>
      <trkpt lat="42.27984128" lon="-8.64644928">
        <ele>245.36000061035156</ele>
        <time>2018-10-10T13:04:59Z</time>
      </trkpt>
      <trkpt lat="42.27980032" lon="-8.64648512">
        <ele>245.36000061035156</ele>
        <time>2018-10-10T13:05:02Z</time>
      </trkpt>
      <trkpt lat="42.27975424" lon="-8.64652032">
        <ele>245.36000061035156</ele>
        <time>2018-10-10T13:05:05Z</time>
      </trkpt>
      <trkpt lat="42.27970816" lon="-8.64655872">
        <ele>245.36000061035156</ele>
        <time>2018-10-10T13:05:08Z</time>
      </trkpt>
      <trkpt lat="42.27964672" lon="-8.64660672">
        <ele>245.36000061035156</ele>
        <time>2018-10-10T13:05:12Z</time>
      </trkpt>
      <trkpt lat="42.27959808" lon="-8.64660096">
        <ele>245.36000061035156</ele>
        <time>2018-10-10T13:05:15Z</time>
      </trkpt>
      <trkpt lat="42.27953664" lon="-8.6466304">
        <ele>245.36000061035156</ele>
        <time>2018-10-10T13:05:19Z</time>
      </trkpt>
      <trkpt lat="42.27948288" lon="-8.64666432">
        <ele>245.36000061035156</ele>
        <time>2018-10-10T13:05:23Z</time>
      </trkpt>
      <trkpt lat="42.27945216" lon="-8.64671424">
        <ele>242.5399932861328</ele>
        <time>2018-10-10T13:05:27Z</time>
      </trkpt>
      <trkpt lat="42.2794496" lon="-8.64677632">
        <ele>242.5399932861328</ele>
        <time>2018-10-10T13:05:30Z</time>
      </trkpt>
      <trkpt lat="42.27945216" lon="-8.64686272">
        <ele>242.5399932861328</ele>
        <time>2018-10-10T13:05:34Z</time>
      </trkpt>
      <trkpt lat="42.27942912" lon="-8.64694528">
        <ele>242.5399932861328</ele>
        <time>2018-10-10T13:05:38Z</time>
      </trkpt>
      <trkpt lat="42.27938048" lon="-8.64699392">
        <ele>243.72000122070312</ele>
        <time>2018-10-10T13:05:41Z</time>
      </trkpt>
      <trkpt lat="42.27932672" lon="-8.6470432">
        <ele>244.89999389648438</ele>
        <time>2018-10-10T13:05:44Z</time>
      </trkpt>
      <trkpt lat="42.27928576" lon="-8.64708608">
        <ele>244.89999389648438</ele>
        <time>2018-10-10T13:05:47Z</time>
      </trkpt>
      <trkpt lat="42.2792704" lon="-8.64711872">
        <ele>244.89999389648438</ele>
        <time>2018-10-10T13:08:33Z</time>
      </trkpt>
      <trkpt lat="42.27923968" lon="-8.64719488">
        <ele>246.08999633789062</ele>
        <time>2018-10-10T13:08:41Z</time>
      </trkpt>
      <trkpt lat="42.27920896" lon="-8.64725376">
        <ele>246.08999633789062</ele>
        <time>2018-10-10T13:08:46Z</time>
      </trkpt>
      <trkpt lat="42.27916288" lon="-8.64730944">
        <ele>242.08999633789062</ele>
        <time>2018-10-10T13:08:50Z</time>
      </trkpt>
      <trkpt lat="42.27910656" lon="-8.64733888">
        <ele>242.08999633789062</ele>
        <time>2018-10-10T13:08:54Z</time>
      </trkpt>
      <trkpt lat="42.2790784" lon="-8.6474016">
        <ele>242.08999633789062</ele>
        <time>2018-10-10T13:08:58Z</time>
      </trkpt>
      <trkpt lat="42.27909888" lon="-8.64746304">
        <ele>242.08999633789062</ele>
        <time>2018-10-10T13:09:01Z</time>
      </trkpt>
      <trkpt lat="42.27915264" lon="-8.64748736">
        <ele>243.27000427246094</ele>
        <time>2018-10-10T13:09:04Z</time>
      </trkpt>
      <trkpt lat="42.27922176" lon="-8.6475008">
        <ele>244.4499969482422</ele>
        <time>2018-10-10T13:09:07Z</time>
      </trkpt>
      <trkpt lat="42.27927296" lon="-8.64751424">
        <ele>244.4499969482422</ele>
        <time>2018-10-10T13:09:09Z</time>
      </trkpt>
      <trkpt lat="42.2793472" lon="-8.64753728">
        <ele>245.89999389648438</ele>
        <time>2018-10-10T13:09:12Z</time>
      </trkpt>
      <trkpt lat="42.27938048" lon="-8.64756096">
        <ele>247.17999267578125</ele>
        <time>2018-10-10T13:09:14Z</time>
      </trkpt>
      <trkpt lat="42.27933184" lon="-8.647648">
        <ele>247.17999267578125</ele>
        <time>2018-10-10T13:09:52Z</time>
      </trkpt>
      <trkpt lat="42.27926528" lon="-8.64767808">
        <ele>247.17999267578125</ele>
        <time>2018-10-10T13:09:56Z</time>
      </trkpt>
      <trkpt lat="42.2792064" lon="-8.6477024">
        <ele>247.17999267578125</ele>
        <time>2018-10-10T13:09:59Z</time>
      </trkpt>
      <trkpt lat="42.27914752" lon="-8.64772864">
        <ele>247.17999267578125</ele>
        <time>2018-10-10T13:10:02Z</time>
      </trkpt>
      <trkpt lat="42.27908608" lon="-8.64775552">
        <ele>247.17999267578125</ele>
        <time>2018-10-10T13:10:05Z</time>
      </trkpt>
      <trkpt lat="42.27904256" lon="-8.64777344">
        <ele>247.17999267578125</ele>
        <time>2018-10-10T13:10:07Z</time>
      </trkpt>
      <trkpt lat="42.27897344" lon="-8.64780352">
        <ele>247.17999267578125</ele>
        <time>2018-10-10T13:10:10Z</time>
      </trkpt>
      <trkpt lat="42.27892736" lon="-8.64782336">
        <ele>247.17999267578125</ele>
        <time>2018-10-10T13:10:12Z</time>
      </trkpt>
      <trkpt lat="42.2788608" lon="-8.64784896">
        <ele>247.17999267578125</ele>
        <time>2018-10-10T13:10:15Z</time>
      </trkpt>
      <trkpt lat="42.2787968" lon="-8.64784704">
        <ele>248.4499969482422</ele>
        <time>2018-10-10T13:10:18Z</time>
      </trkpt>
      <trkpt lat="42.2787328" lon="-8.64782528">
        <ele>248.4499969482422</ele>
        <time>2018-10-10T13:10:21Z</time>
      </trkpt>
      <trkpt lat="42.27868672" lon="-8.64778112">
        <ele>248.4499969482422</ele>
        <time>2018-10-10T13:10:24Z</time>
      </trkpt>
      <trkpt lat="42.27865344" lon="-8.64771648">
        <ele>249.72000122070312</ele>
        <time>2018-10-10T13:10:27Z</time>
      </trkpt>
      <trkpt lat="42.27862528" lon="-8.64764672">
        <ele>249.72000122070312</ele>
        <time>2018-10-10T13:10:30Z</time>
      </trkpt>
      <trkpt lat="42.27860224" lon="-8.64756672">
        <ele>250.89999389648438</ele>
        <time>2018-10-10T13:10:33Z</time>
      </trkpt>
      <trkpt lat="42.27856384" lon="-8.64746752">
        <ele>250.89999389648438</ele>
        <time>2018-10-10T13:10:36Z</time>
      </trkpt>
      <trkpt lat="42.2785408" lon="-8.64740544">
        <ele>252.27000427246094</ele>
        <time>2018-10-10T13:10:38Z</time>
      </trkpt>
      <trkpt lat="42.27851776" lon="-8.64734336">
        <ele>253.4499969482422</ele>
        <time>2018-10-10T13:10:40Z</time>
      </trkpt>
      <trkpt lat="42.2785024" lon="-8.64729024">
        <ele>253.4499969482422</ele>
        <time>2018-10-10T13:10:42Z</time>
      </trkpt>
      <trkpt lat="42.2784768" lon="-8.64722368">
        <ele>254.6300048828125</ele>
        <time>2018-10-10T13:10:45Z</time>
      </trkpt>
      <trkpt lat="42.27846144" lon="-8.64714368">
        <ele>254.6300048828125</ele>
        <time>2018-10-10T13:10:48Z</time>
      </trkpt>
      <trkpt lat="42.27845888" lon="-8.64707072">
        <ele>255.89999389648438</ele>
        <time>2018-10-10T13:10:51Z</time>
      </trkpt>
      <trkpt lat="42.27846912" lon="-8.64699904">
        <ele>255.89999389648438</ele>
        <time>2018-10-10T13:10:54Z</time>
      </trkpt>
      <trkpt lat="42.27846912" lon="-8.64693568">
        <ele>257.0899963378906</ele>
        <time>2018-10-10T13:10:57Z</time>
      </trkpt>
      <trkpt lat="42.27844608" lon="-8.64687808">
        <ele>257.0899963378906</ele>
        <time>2018-10-10T13:11:00Z</time>
      </trkpt>
      <trkpt lat="42.2784128" lon="-8.64683712">
        <ele>257.0899963378906</ele>
        <time>2018-10-10T13:11:03Z</time>
      </trkpt>
      <trkpt lat="42.27835904" lon="-8.6468352">
        <ele>258.3599853515625</ele>
        <time>2018-10-10T13:11:07Z</time>
      </trkpt>
      <trkpt lat="42.27830528" lon="-8.64687168">
        <ele>259.7200012207031</ele>
        <time>2018-10-10T13:11:11Z</time>
      </trkpt>
      <trkpt lat="42.27824896" lon="-8.64692224">
        <ele>259.7200012207031</ele>
        <time>2018-10-10T13:11:15Z</time>
      </trkpt>
      <trkpt lat="42.27822848" lon="-8.64697856">
        <ele>261.0</ele>
        <time>2018-10-10T13:11:18Z</time>
      </trkpt>
      <trkpt lat="42.27817984" lon="-8.647072">
        <ele>261.0</ele>
        <time>2018-10-10T13:11:23Z</time>
      </trkpt>
      <trkpt lat="42.27814144" lon="-8.647104">
        <ele>261.0</ele>
        <time>2018-10-10T13:11:26Z</time>
      </trkpt>
      <trkpt lat="42.27808256" lon="-8.6471232">
        <ele>262.17999267578125</ele>
        <time>2018-10-10T13:11:30Z</time>
      </trkpt>
      <trkpt lat="42.27803392" lon="-8.64710208">
        <ele>262.17999267578125</ele>
        <time>2018-10-10T13:11:34Z</time>
      </trkpt>
      <trkpt lat="42.2780032" lon="-8.6470432">
        <ele>263.3599853515625</ele>
        <time>2018-10-10T13:11:38Z</time>
      </trkpt>
      <trkpt lat="42.27800832" lon="-8.64695744">
        <ele>263.3599853515625</ele>
        <time>2018-10-10T13:11:43Z</time>
      </trkpt>
      <trkpt lat="42.27801856" lon="-8.6468896">
        <ele>263.3599853515625</ele>
        <time>2018-10-10T13:11:47Z</time>
      </trkpt>
      <trkpt lat="42.2780416" lon="-8.64682112">
        <ele>264.5400085449219</ele>
        <time>2018-10-10T13:11:51Z</time>
      </trkpt>
      <trkpt lat="42.27807744" lon="-8.6467456">
        <ele>264.5400085449219</ele>
        <time>2018-10-10T13:11:55Z</time>
      </trkpt>
      <trkpt lat="42.2781056" lon="-8.64667584">
        <ele>265.7200012207031</ele>
        <time>2018-10-10T13:11:59Z</time>
      </trkpt>
      <trkpt lat="42.27814144" lon="-8.6466112">
        <ele>265.7200012207031</ele>
        <time>2018-10-10T13:12:03Z</time>
      </trkpt>
      <trkpt lat="42.27817472" lon="-8.64653696">
        <ele>265.7200012207031</ele>
        <time>2018-10-10T13:12:07Z</time>
      </trkpt>
      <trkpt lat="42.27820288" lon="-8.6464832">
        <ele>265.7200012207031</ele>
        <time>2018-10-10T13:12:10Z</time>
      </trkpt>
      <trkpt lat="42.27824384" lon="-8.64641216">
        <ele>267.0</ele>
        <time>2018-10-10T13:12:14Z</time>
      </trkpt>
      <trkpt lat="42.27827456" lon="-8.64635072">
        <ele>267.0</ele>
        <time>2018-10-10T13:12:17Z</time>
      </trkpt>
      <trkpt lat="42.27830784" lon="-8.64629056">
        <ele>267.0</ele>
        <time>2018-10-10T13:12:20Z</time>
      </trkpt>
      <trkpt lat="42.27833856" lon="-8.64623552">
        <ele>267.0</ele>
        <time>2018-10-10T13:12:23Z</time>
      </trkpt>
      <trkpt lat="42.27838208" lon="-8.64616128">
        <ele>267.0</ele>
        <time>2018-10-10T13:12:27Z</time>
      </trkpt>
      <trkpt lat="42.27842304" lon="-8.6460864">
        <ele>268.2699890136719</ele>
        <time>2018-10-10T13:12:31Z</time>
      </trkpt>
      <trkpt lat="42.27845376" lon="-8.64603968">
        <ele>269.8999938964844</ele>
        <time>2018-10-10T13:12:34Z</time>
      </trkpt>
      <trkpt lat="42.27849984" lon="-8.64597248">
        <ele>271.17999267578125</ele>
        <time>2018-10-10T13:12:38Z</time>
      </trkpt>
      <trkpt lat="42.2785408" lon="-8.6459168">
        <ele>271.17999267578125</ele>
        <time>2018-10-10T13:12:41Z</time>
      </trkpt>
      <trkpt lat="42.278592" lon="-8.64586368">
        <ele>271.17999267578125</ele>
        <time>2018-10-10T13:12:45Z</time>
      </trkpt>
      <trkpt lat="42.27863808" lon="-8.64582848">
        <ele>272.45001220703125</ele>
        <time>2018-10-10T13:12:48Z</time>
      </trkpt>
      <trkpt lat="42.27867392" lon="-8.64578752">
        <ele>272.45001220703125</ele>
        <time>2018-10-10T13:12:51Z</time>
      </trkpt>
      <trkpt lat="42.27872512" lon="-8.64572416">
        <ele>272.45001220703125</ele>
        <time>2018-10-10T13:12:55Z</time>
      </trkpt>
      <trkpt lat="42.27876608" lon="-8.64567744">
        <ele>273.6300048828125</ele>
        <time>2018-10-10T13:12:58Z</time>
      </trkpt>
      <trkpt lat="42.27880192" lon="-8.64562496">
        <ele>273.6300048828125</ele>
        <time>2018-10-10T13:13:01Z</time>
      </trkpt>
      <trkpt lat="42.27884288" lon="-8.645552">
        <ele>274.8999938964844</ele>
        <time>2018-10-10T13:13:05Z</time>
      </trkpt>
      <trkpt lat="42.2788736" lon="-8.645488">
        <ele>274.8999938964844</ele>
        <time>2018-10-10T13:13:08Z</time>
      </trkpt>
      <trkpt lat="42.27890432" lon="-8.6454208">
        <ele>276.0899963378906</ele>
        <time>2018-10-10T13:13:11Z</time>
      </trkpt>
      <trkpt lat="42.27893504" lon="-8.64535744">
        <ele>276.0899963378906</ele>
        <time>2018-10-10T13:13:14Z</time>
      </trkpt>
      <trkpt lat="42.27896832" lon="-8.64529216">
        <ele>276.0899963378906</ele>
        <time>2018-10-10T13:13:17Z</time>
      </trkpt>
      <trkpt lat="42.27899904" lon="-8.64522944">
        <ele>276.0899963378906</ele>
        <time>2018-10-10T13:13:20Z</time>
      </trkpt>
      <trkpt lat="42.27903488" lon="-8.6451648">
        <ele>277.2699890136719</ele>
        <time>2018-10-10T13:13:23Z</time>
      </trkpt>
      <trkpt lat="42.27906304" lon="-8.6450976">
        <ele>277.2699890136719</ele>
        <time>2018-10-10T13:13:26Z</time>
      </trkpt>
      <trkpt lat="42.2790912" lon="-8.64503104">
        <ele>277.2699890136719</ele>
        <time>2018-10-10T13:13:29Z</time>
      </trkpt>
      <trkpt lat="42.2791168" lon="-8.64497024">
        <ele>278.5400085449219</ele>
        <time>2018-10-10T13:13:32Z</time>
      </trkpt>
      <trkpt lat="42.27914496" lon="-8.6449024">
        <ele>278.5400085449219</ele>
        <time>2018-10-10T13:13:35Z</time>
      </trkpt>
      <trkpt lat="42.27917824" lon="-8.64482624">
        <ele>276.8999938964844</ele>
        <time>2018-10-10T13:13:38Z</time>
      </trkpt>
      <trkpt lat="42.27920896" lon="-8.64475328">
        <ele>276.8999938964844</ele>
        <time>2018-10-10T13:13:41Z</time>
      </trkpt>
      <trkpt lat="42.27924224" lon="-8.64468032">
        <ele>276.8999938964844</ele>
        <time>2018-10-10T13:13:44Z</time>
      </trkpt>
      <trkpt lat="42.27927296" lon="-8.64461248">
        <ele>278.3599853515625</ele>
        <time>2018-10-10T13:13:47Z</time>
      </trkpt>
      <trkpt lat="42.2793088" lon="-8.64453824">
        <ele>278.3599853515625</ele>
        <time>2018-10-10T13:13:50Z</time>
      </trkpt>
      <trkpt lat="42.27934208" lon="-8.64447424">
        <ele>279.7200012207031</ele>
        <time>2018-10-10T13:13:53Z</time>
      </trkpt>
      <trkpt lat="42.27937792" lon="-8.64441024">
        <ele>281.0899963378906</ele>
        <time>2018-10-10T13:13:56Z</time>
      </trkpt>
      <trkpt lat="42.2794112" lon="-8.6443488">
        <ele>281.0899963378906</ele>
        <time>2018-10-10T13:13:59Z</time>
      </trkpt>
      <trkpt lat="42.279488" lon="-8.64424832">
        <ele>281.0899963378906</ele>
        <time>2018-10-10T13:14:30Z</time>
      </trkpt>
      <trkpt lat="42.27952896" lon="-8.6441696">
        <ele>282.3599853515625</ele>
        <time>2018-10-10T13:14:34Z</time>
      </trkpt>
      <trkpt lat="42.27956736" lon="-8.6440896">
        <ele>282.3599853515625</ele>
        <time>2018-10-10T13:14:37Z</time>
      </trkpt>
      <trkpt lat="42.27961088" lon="-8.6440032">
        <ele>282.3599853515625</ele>
        <time>2018-10-10T13:14:40Z</time>
      </trkpt>
      <trkpt lat="42.27964416" lon="-8.64390784">
        <ele>282.3599853515625</ele>
        <time>2018-10-10T13:14:43Z</time>
      </trkpt>
      <trkpt lat="42.2796672" lon="-8.64384256">
        <ele>283.5400085449219</ele>
        <time>2018-10-10T13:14:45Z</time>
      </trkpt>
      <trkpt lat="42.27968512" lon="-8.6437824">
        <ele>283.5400085449219</ele>
        <time>2018-10-10T13:14:47Z</time>
      </trkpt>
      <trkpt lat="42.27971584" lon="-8.64368896">
        <ele>283.5400085449219</ele>
        <time>2018-10-10T13:14:50Z</time>
      </trkpt>
      <trkpt lat="42.27973632" lon="-8.64362816">
        <ele>283.5400085449219</ele>
        <time>2018-10-10T13:14:52Z</time>
      </trkpt>
      <trkpt lat="42.27976192" lon="-8.64353856">
        <ele>283.5400085449219</ele>
        <time>2018-10-10T13:14:55Z</time>
      </trkpt>
      <trkpt lat="42.27979008" lon="-8.64344704">
        <ele>283.5400085449219</ele>
        <time>2018-10-10T13:14:58Z</time>
      </trkpt>
      <trkpt lat="42.279808" lon="-8.64338304">
        <ele>283.5400085449219</ele>
        <time>2018-10-10T13:15:00Z</time>
      </trkpt>
      <trkpt lat="42.27983872" lon="-8.6432832">
        <ele>283.5400085449219</ele>
        <time>2018-10-10T13:15:03Z</time>
      </trkpt>
      <trkpt lat="42.27984128" lon="-8.643216">
        <ele>283.5400085449219</ele>
        <time>2018-10-10T13:15:05Z</time>
      </trkpt>
      <trkpt lat="42.27984128" lon="-8.64314432">
        <ele>283.5400085449219</ele>
        <time>2018-10-10T13:15:07Z</time>
      </trkpt>
      <trkpt lat="42.2798464" lon="-8.643072">
        <ele>283.5400085449219</ele>
        <time>2018-10-10T13:15:09Z</time>
      </trkpt>
      <trkpt lat="42.27984896" lon="-8.64299584">
        <ele>284.80999755859375</ele>
        <time>2018-10-10T13:15:11Z</time>
      </trkpt>
      <trkpt lat="42.27984896" lon="-8.64292032">
        <ele>284.80999755859375</ele>
        <time>2018-10-10T13:15:13Z</time>
      </trkpt>
      <trkpt lat="42.27984896" lon="-8.64284032">
        <ele>286.0899963378906</ele>
        <time>2018-10-10T13:15:15Z</time>
      </trkpt>
      <trkpt lat="42.27984896" lon="-8.64276096">
        <ele>286.0899963378906</ele>
        <time>2018-10-10T13:15:17Z</time>
      </trkpt>
      <trkpt lat="42.2798464" lon="-8.64267136">
        <ele>286.0899963378906</ele>
        <time>2018-10-10T13:15:19Z</time>
      </trkpt>
      <trkpt lat="42.27983872" lon="-8.64258752">
        <ele>286.0899963378906</ele>
        <time>2018-10-10T13:15:21Z</time>
      </trkpt>
      <trkpt lat="42.27981824" lon="-8.64245696">
        <ele>286.0899963378906</ele>
        <time>2018-10-10T13:15:24Z</time>
      </trkpt>
      <trkpt lat="42.27980032" lon="-8.6423712">
        <ele>286.0899963378906</ele>
        <time>2018-10-10T13:15:26Z</time>
      </trkpt>
      <trkpt lat="42.27977728" lon="-8.64228224">
        <ele>286.0899963378906</ele>
        <time>2018-10-10T13:15:28Z</time>
      </trkpt>
      <trkpt lat="42.27976704" lon="-8.64219584">
        <ele>286.0899963378906</ele>
        <time>2018-10-10T13:15:30Z</time>
      </trkpt>
      <trkpt lat="42.27975936" lon="-8.6421024">
        <ele>286.0899963378906</ele>
        <time>2018-10-10T13:15:32Z</time>
      </trkpt>
      <trkpt lat="42.27974656" lon="-8.64201856">
        <ele>286.0899963378906</ele>
        <time>2018-10-10T13:15:34Z</time>
      </trkpt>
      <trkpt lat="42.27973888" lon="-8.64193728">
        <ele>286.0899963378906</ele>
        <time>2018-10-10T13:15:36Z</time>
      </trkpt>
      <trkpt lat="42.27973632" lon="-8.6418496">
        <ele>286.0899963378906</ele>
        <time>2018-10-10T13:15:38Z</time>
      </trkpt>
      <trkpt lat="42.2797312" lon="-8.64175616">
        <ele>286.0899963378906</ele>
        <time>2018-10-10T13:15:40Z</time>
      </trkpt>
      <trkpt lat="42.27975424" lon="-8.64165312">
        <ele>286.0899963378906</ele>
        <time>2018-10-10T13:15:42Z</time>
      </trkpt>
      <trkpt lat="42.2797824" lon="-8.641552">
        <ele>286.0899963378906</ele>
        <time>2018-10-10T13:15:44Z</time>
      </trkpt>
      <trkpt lat="42.27980544" lon="-8.64145728">
        <ele>287.6300048828125</ele>
        <time>2018-10-10T13:15:46Z</time>
      </trkpt>
      <trkpt lat="42.27982336" lon="-8.64137536">
        <ele>287.6300048828125</ele>
        <time>2018-10-10T13:15:48Z</time>
      </trkpt>
      <trkpt lat="42.27981824" lon="-8.64134528">
        <ele>287.6300048828125</ele>
        <time>2018-10-10T13:15:51Z</time>
      </trkpt>
      <trkpt lat="42.27979008" lon="-8.64143296">
        <ele>288.80999755859375</ele>
        <time>2018-10-10T13:15:56Z</time>
      </trkpt>
      <trkpt lat="42.27976192" lon="-8.64150528">
        <ele>288.80999755859375</ele>
        <time>2018-10-10T13:15:59Z</time>
      </trkpt>
      <trkpt lat="42.27973888" lon="-8.6415904">
        <ele>288.80999755859375</ele>
        <time>2018-10-10T13:16:02Z</time>
      </trkpt>
      <trkpt lat="42.27970816" lon="-8.64168064">
        <ele>288.80999755859375</ele>
        <time>2018-10-10T13:16:05Z</time>
      </trkpt>
      <trkpt lat="42.27967488" lon="-8.64177216">
        <ele>290.17999267578125</ele>
        <time>2018-10-10T13:16:08Z</time>
      </trkpt>
      <trkpt lat="42.27964672" lon="-8.64184">
        <ele>291.45001220703125</ele>
        <time>2018-10-10T13:16:10Z</time>
      </trkpt>
      <trkpt lat="42.2796288" lon="-8.6419008">
        <ele>291.45001220703125</ele>
        <time>2018-10-10T13:16:12Z</time>
      </trkpt>
      <trkpt lat="42.27961088" lon="-8.64195712">
        <ele>292.8999938964844</ele>
        <time>2018-10-10T13:16:14Z</time>
      </trkpt>
      <trkpt lat="42.27957504" lon="-8.64203904">
        <ele>294.17999267578125</ele>
        <time>2018-10-10T13:16:17Z</time>
      </trkpt>
      <trkpt lat="42.27954432" lon="-8.64211584">
        <ele>294.17999267578125</ele>
        <time>2018-10-10T13:16:20Z</time>
      </trkpt>
      <trkpt lat="42.2795136" lon="-8.64219776">
        <ele>295.5400085449219</ele>
        <time>2018-10-10T13:16:23Z</time>
      </trkpt>
      <trkpt lat="42.279488" lon="-8.64226176">
        <ele>295.5400085449219</ele>
        <time>2018-10-10T13:16:26Z</time>
      </trkpt>
      <trkpt lat="42.27945216" lon="-8.642336">
        <ele>296.7200012207031</ele>
        <time>2018-10-10T13:16:30Z</time>
      </trkpt>
      <trkpt lat="42.27941888" lon="-8.64240768">
        <ele>296.7200012207031</ele>
        <time>2018-10-10T13:16:33Z</time>
      </trkpt>
      <trkpt lat="42.27938816" lon="-8.64247296">
        <ele>297.8999938964844</ele>
        <time>2018-10-10T13:16:36Z</time>
      </trkpt>
      <trkpt lat="42.27936256" lon="-8.64253056">
        <ele>297.8999938964844</ele>
        <time>2018-10-10T13:16:39Z</time>
      </trkpt>
      <trkpt lat="42.27933184" lon="-8.6425856">
        <ele>299.0899963378906</ele>
        <time>2018-10-10T13:16:42Z</time>
      </trkpt>
      <trkpt lat="42.27930112" lon="-8.64264192">
        <ele>299.0899963378906</ele>
        <time>2018-10-10T13:16:45Z</time>
      </trkpt>
      <trkpt lat="42.2792704" lon="-8.64270656">
        <ele>299.0899963378906</ele>
        <time>2018-10-10T13:16:48Z</time>
      </trkpt>
      <trkpt lat="42.27923456" lon="-8.64277248">
        <ele>300.2699890136719</ele>
        <time>2018-10-10T13:16:51Z</time>
      </trkpt>
      <trkpt lat="42.27920896" lon="-8.64282304">
        <ele>300.2699890136719</ele>
        <time>2018-10-10T13:16:54Z</time>
      </trkpt>
      <trkpt lat="42.27917056" lon="-8.64288896">
        <ele>300.2699890136719</ele>
        <time>2018-10-10T13:16:58Z</time>
      </trkpt>
      <trkpt lat="42.27913216" lon="-8.64295488">
        <ele>301.45001220703125</ele>
        <time>2018-10-10T13:17:01Z</time>
      </trkpt>
      <trkpt lat="42.27909888" lon="-8.64301504">
        <ele>301.45001220703125</ele>
        <time>2018-10-10T13:17:04Z</time>
      </trkpt>
      <trkpt lat="42.27906048" lon="-8.64307968">
        <ele>301.45001220703125</ele>
        <time>2018-10-10T13:17:07Z</time>
      </trkpt>
      <trkpt lat="42.27902208" lon="-8.64314432">
        <ele>301.45001220703125</ele>
        <time>2018-10-10T13:17:10Z</time>
      </trkpt>
      <trkpt lat="42.27899136" lon="-8.6431968">
        <ele>302.6300048828125</ele>
        <time>2018-10-10T13:17:13Z</time>
      </trkpt>
      <trkpt lat="42.27895296" lon="-8.643264">
        <ele>303.80999755859375</ele>
        <time>2018-10-10T13:17:17Z</time>
      </trkpt>
      <trkpt lat="42.2788992" lon="-8.64332032">
        <ele>305.0899963378906</ele>
        <time>2018-10-10T13:17:20Z</time>
      </trkpt>
      <trkpt lat="42.278848" lon="-8.64336768">
        <ele>306.2699890136719</ele>
        <time>2018-10-10T13:17:23Z</time>
      </trkpt>
      <trkpt lat="42.27880448" lon="-8.64341184">
        <ele>307.5400085449219</ele>
        <time>2018-10-10T13:17:26Z</time>
      </trkpt>
      <trkpt lat="42.2787584" lon="-8.64345344">
        <ele>307.5400085449219</ele>
        <time>2018-10-10T13:17:29Z</time>
      </trkpt>
      <trkpt lat="42.27871744" lon="-8.64348864">
        <ele>308.80999755859375</ele>
        <time>2018-10-10T13:17:32Z</time>
      </trkpt>
      <trkpt lat="42.27866368" lon="-8.64353152">
        <ele>310.0</ele>
        <time>2018-10-10T13:17:36Z</time>
      </trkpt>
      <trkpt lat="42.27860736" lon="-8.64352128">
        <ele>310.0</ele>
        <time>2018-10-10T13:17:40Z</time>
      </trkpt>
      <trkpt lat="42.27856384" lon="-8.64350208">
        <ele>310.0</ele>
        <time>2018-10-10T13:17:44Z</time>
      </trkpt>
      <trkpt lat="42.2785408" lon="-8.64345344">
        <ele>311.2699890136719</ele>
        <time>2018-10-10T13:17:49Z</time>
      </trkpt>
      <trkpt lat="42.27854848" lon="-8.64337088">
        <ele>311.2699890136719</ele>
        <time>2018-10-10T13:17:54Z</time>
      </trkpt>
      <trkpt lat="42.27856384" lon="-8.64329792">
        <ele>312.5400085449219</ele>
        <time>2018-10-10T13:17:58Z</time>
      </trkpt>
      <trkpt lat="42.27858432" lon="-8.64322688">
        <ele>312.5400085449219</ele>
        <time>2018-10-10T13:18:02Z</time>
      </trkpt>
      <trkpt lat="42.27859968" lon="-8.64315328">
        <ele>312.5400085449219</ele>
        <time>2018-10-10T13:18:06Z</time>
      </trkpt>
      <trkpt lat="42.27860992" lon="-8.6430976">
        <ele>313.7200012207031</ele>
        <time>2018-10-10T13:18:09Z</time>
      </trkpt>
      <trkpt lat="42.27862528" lon="-8.64301696">
        <ele>313.7200012207031</ele>
        <time>2018-10-10T13:18:13Z</time>
      </trkpt>
      <trkpt lat="42.2786304" lon="-8.6429536">
        <ele>313.7200012207031</ele>
        <time>2018-10-10T13:18:16Z</time>
      </trkpt>
      <trkpt lat="42.27860992" lon="-8.6428864">
        <ele>313.7200012207031</ele>
        <time>2018-10-10T13:18:19Z</time>
      </trkpt>
      <trkpt lat="42.27859456" lon="-8.6428192">
        <ele>313.7200012207031</ele>
        <time>2018-10-10T13:18:22Z</time>
      </trkpt>
      <trkpt lat="42.2785792" lon="-8.64275392">
        <ele>314.8999938964844</ele>
        <time>2018-10-10T13:18:25Z</time>
      </trkpt>
      <trkpt lat="42.27856128" lon="-8.64267072">
        <ele>314.8999938964844</ele>
        <time>2018-10-10T13:18:29Z</time>
      </trkpt>
      <trkpt lat="42.27854592" lon="-8.64260224">
        <ele>314.8999938964844</ele>
        <time>2018-10-10T13:18:32Z</time>
      </trkpt>
      <trkpt lat="42.27853824" lon="-8.64253696">
        <ele>314.8999938964844</ele>
        <time>2018-10-10T13:18:35Z</time>
      </trkpt>
      <trkpt lat="42.27851776" lon="-8.64245056">
        <ele>316.0899963378906</ele>
        <time>2018-10-10T13:18:39Z</time>
      </trkpt>
      <trkpt lat="42.27849984" lon="-8.64237888">
        <ele>316.0899963378906</ele>
        <time>2018-10-10T13:18:42Z</time>
      </trkpt>
      <trkpt lat="42.27847936" lon="-8.64230464">
        <ele>317.3599853515625</ele>
        <time>2018-10-10T13:18:45Z</time>
      </trkpt>
      <trkpt lat="42.27846144" lon="-8.64224448">
        <ele>317.3599853515625</ele>
        <time>2018-10-10T13:18:47Z</time>
      </trkpt>
      <trkpt lat="42.27844352" lon="-8.6421664">
        <ele>318.7200012207031</ele>
        <time>2018-10-10T13:18:51Z</time>
      </trkpt>
      <trkpt lat="42.27842304" lon="-8.64210496">
        <ele>319.8999938964844</ele>
        <time>2018-10-10T13:18:54Z</time>
      </trkpt>
      <trkpt lat="42.2784" lon="-8.64203072">
        <ele>321.0899963378906</ele>
        <time>2018-10-10T13:18:58Z</time>
      </trkpt>
      <trkpt lat="42.2783744" lon="-8.64194496">
        <ele>321.0899963378906</ele>
        <time>2018-10-10T13:19:02Z</time>
      </trkpt>
      <trkpt lat="42.27835392" lon="-8.64187712">
        <ele>322.2699890136719</ele>
        <time>2018-10-10T13:19:05Z</time>
      </trkpt>
      <trkpt lat="42.278336" lon="-8.64180352">
        <ele>323.45001220703125</ele>
        <time>2018-10-10T13:19:08Z</time>
      </trkpt>
      <trkpt lat="42.27831552" lon="-8.64172544">
        <ele>323.45001220703125</ele>
        <time>2018-10-10T13:19:11Z</time>
      </trkpt>
      <trkpt lat="42.27829248" lon="-8.64164416">
        <ele>323.45001220703125</ele>
        <time>2018-10-10T13:19:14Z</time>
      </trkpt>
      <trkpt lat="42.27827456" lon="-8.64156224">
        <ele>324.6300048828125</ele>
        <time>2018-10-10T13:19:17Z</time>
      </trkpt>
      <trkpt lat="42.27825152" lon="-8.64147392">
        <ele>324.6300048828125</ele>
        <time>2018-10-10T13:19:20Z</time>
      </trkpt>
      <trkpt lat="42.27823616" lon="-8.6414144">
        <ele>324.6300048828125</ele>
        <time>2018-10-10T13:19:22Z</time>
      </trkpt>
      <trkpt lat="42.2782208" lon="-8.64132224">
        <ele>324.6300048828125</ele>
        <time>2018-10-10T13:19:25Z</time>
      </trkpt>
      <trkpt lat="42.27820288" lon="-8.6412352">
        <ele>324.6300048828125</ele>
        <time>2018-10-10T13:19:28Z</time>
      </trkpt>
      <trkpt lat="42.27818752" lon="-8.6411456">
        <ele>324.6300048828125</ele>
        <time>2018-10-10T13:19:31Z</time>
      </trkpt>
      <trkpt lat="42.27816704" lon="-8.64106368">
        <ele>324.6300048828125</ele>
        <time>2018-10-10T13:19:34Z</time>
      </trkpt>
      <trkpt lat="42.27815168" lon="-8.640976">
        <ele>325.8999938964844</ele>
        <time>2018-10-10T13:19:37Z</time>
      </trkpt>
      <trkpt lat="42.27813632" lon="-8.64089024">
        <ele>325.8999938964844</ele>
        <time>2018-10-10T13:19:40Z</time>
      </trkpt>
      <trkpt lat="42.2781184" lon="-8.6408128">
        <ele>325.8999938964844</ele>
        <time>2018-10-10T13:19:43Z</time>
      </trkpt>
      <trkpt lat="42.27810304" lon="-8.64074048">
        <ele>327.0899963378906</ele>
        <time>2018-10-10T13:19:46Z</time>
      </trkpt>
      <trkpt lat="42.27807232" lon="-8.64062912">
        <ele>327.0899963378906</ele>
        <time>2018-10-10T13:19:50Z</time>
      </trkpt>
      <trkpt lat="42.27805696" lon="-8.64057152">
        <ele>327.0899963378906</ele>
        <time>2018-10-10T13:19:52Z</time>
      </trkpt>
      <trkpt lat="42.27803136" lon="-8.64049408">
        <ele>327.0899963378906</ele>
        <time>2018-10-10T13:19:55Z</time>
      </trkpt>
      <trkpt lat="42.2780032" lon="-8.64041152">
        <ele>328.2699890136719</ele>
        <time>2018-10-10T13:19:58Z</time>
      </trkpt>
      <trkpt lat="42.27797248" lon="-8.64031488">
        <ele>328.2699890136719</ele>
        <time>2018-10-10T13:20:01Z</time>
      </trkpt>
      <trkpt lat="42.27795456" lon="-8.64025408">
        <ele>328.2699890136719</ele>
        <time>2018-10-10T13:20:03Z</time>
      </trkpt>
      <trkpt lat="42.27793408" lon="-8.64019392">
        <ele>328.2699890136719</ele>
        <time>2018-10-10T13:20:05Z</time>
      </trkpt>
      <trkpt lat="42.27790336" lon="-8.64009984">
        <ele>328.2699890136719</ele>
        <time>2018-10-10T13:20:08Z</time>
      </trkpt>
      <trkpt lat="42.27787008" lon="-8.64001472">
        <ele>329.45001220703125</ele>
        <time>2018-10-10T13:20:11Z</time>
      </trkpt>
      <trkpt lat="42.27781376" lon="-8.6399424">
        <ele>329.45001220703125</ele>
        <time>2018-10-10T13:20:14Z</time>
      </trkpt>
      <trkpt lat="42.27776256" lon="-8.63991168">
        <ele>329.45001220703125</ele>
        <time>2018-10-10T13:20:16Z</time>
      </trkpt>
      <trkpt lat="42.27770112" lon="-8.63986368">
        <ele>329.45001220703125</ele>
        <time>2018-10-10T13:20:19Z</time>
      </trkpt>
      <trkpt lat="42.27763712" lon="-8.63981504">
        <ele>329.45001220703125</ele>
        <time>2018-10-10T13:20:22Z</time>
      </trkpt>
      <trkpt lat="42.27757312" lon="-8.63977792">
        <ele>329.45001220703125</ele>
        <time>2018-10-10T13:20:25Z</time>
      </trkpt>
      <trkpt lat="42.27748864" lon="-8.63976128">
        <ele>330.7200012207031</ele>
        <time>2018-10-10T13:20:28Z</time>
      </trkpt>
      <trkpt lat="42.2774272" lon="-8.63975552">
        <ele>330.7200012207031</ele>
        <time>2018-10-10T13:20:30Z</time>
      </trkpt>
      <trkpt lat="42.2773632" lon="-8.63976128">
        <ele>330.7200012207031</ele>
        <time>2018-10-10T13:20:32Z</time>
      </trkpt>
      <trkpt lat="42.27729408" lon="-8.639776">
        <ele>330.7200012207031</ele>
        <time>2018-10-10T13:20:34Z</time>
      </trkpt>
      <trkpt lat="42.2772224" lon="-8.63980032">
        <ele>330.7200012207031</ele>
        <time>2018-10-10T13:20:36Z</time>
      </trkpt>
      <trkpt lat="42.27715328" lon="-8.63982464">
        <ele>331.8999938964844</ele>
        <time>2018-10-10T13:20:38Z</time>
      </trkpt>
      <trkpt lat="42.27707648" lon="-8.63985664">
        <ele>331.8999938964844</ele>
        <time>2018-10-10T13:20:40Z</time>
      </trkpt>
      <trkpt lat="42.27700736" lon="-8.63988608">
        <ele>331.8999938964844</ele>
        <time>2018-10-10T13:20:42Z</time>
      </trkpt>
      <trkpt lat="42.27694336" lon="-8.63991552">
        <ele>331.8999938964844</ele>
        <time>2018-10-10T13:20:44Z</time>
      </trkpt>
      <trkpt lat="42.27688192" lon="-8.63995584">
        <ele>331.8999938964844</ele>
        <time>2018-10-10T13:20:46Z</time>
      </trkpt>
      <trkpt lat="42.27683328" lon="-8.6399968">
        <ele>331.8999938964844</ele>
        <time>2018-10-10T13:20:48Z</time>
      </trkpt>
      <trkpt lat="42.2767744" lon="-8.6400512">
        <ele>331.8999938964844</ele>
        <time>2018-10-10T13:20:51Z</time>
      </trkpt>
      <trkpt lat="42.27672576" lon="-8.6401184">
        <ele>333.17999267578125</ele>
        <time>2018-10-10T13:20:54Z</time>
      </trkpt>
      <trkpt lat="42.27667712" lon="-8.64017216">
        <ele>333.17999267578125</ele>
        <time>2018-10-10T13:20:57Z</time>
      </trkpt>
      <trkpt lat="42.276608" lon="-8.64014272">
        <ele>334.3599853515625</ele>
        <time>2018-10-10T13:21:01Z</time>
      </trkpt>
      <trkpt lat="42.27656448" lon="-8.64008448">
        <ele>335.5400085449219</ele>
        <time>2018-10-10T13:21:04Z</time>
      </trkpt>
      <trkpt lat="42.2765312" lon="-8.64000768">
        <ele>335.5400085449219</ele>
        <time>2018-10-10T13:21:07Z</time>
      </trkpt>
      <trkpt lat="42.2765056" lon="-8.63992512">
        <ele>336.7200012207031</ele>
        <time>2018-10-10T13:21:10Z</time>
      </trkpt>
      <trkpt lat="42.27648512" lon="-8.63983424">
        <ele>336.7200012207031</ele>
        <time>2018-10-10T13:21:13Z</time>
      </trkpt>
      <trkpt lat="42.27647488" lon="-8.63977344">
        <ele>337.8999938964844</ele>
        <time>2018-10-10T13:21:15Z</time>
      </trkpt>
      <trkpt lat="42.27646208" lon="-8.63968256">
        <ele>337.8999938964844</ele>
        <time>2018-10-10T13:21:18Z</time>
      </trkpt>
      <trkpt lat="42.2764544" lon="-8.63960192">
        <ele>337.8999938964844</ele>
        <time>2018-10-10T13:21:21Z</time>
      </trkpt>
      <trkpt lat="42.27645184" lon="-8.63951616">
        <ele>337.8999938964844</ele>
        <time>2018-10-10T13:21:24Z</time>
      </trkpt>
      <trkpt lat="42.27644416" lon="-8.63943104">
        <ele>339.17999267578125</ele>
        <time>2018-10-10T13:21:27Z</time>
      </trkpt>
      <trkpt lat="42.2764288" lon="-8.63935296">
        <ele>339.17999267578125</ele>
        <time>2018-10-10T13:21:30Z</time>
      </trkpt>
      <trkpt lat="42.27640832" lon="-8.63927872">
        <ele>340.3599853515625</ele>
        <time>2018-10-10T13:21:33Z</time>
      </trkpt>
      <trkpt lat="42.2763904" lon="-8.63920768">
        <ele>340.3599853515625</ele>
        <time>2018-10-10T13:21:36Z</time>
      </trkpt>
      <trkpt lat="42.27635456" lon="-8.6391488">
        <ele>341.5400085449219</ele>
        <time>2018-10-10T13:21:39Z</time>
      </trkpt>
      <trkpt lat="42.27632128" lon="-8.63908672">
        <ele>341.5400085449219</ele>
        <time>2018-10-10T13:21:42Z</time>
      </trkpt>
      <trkpt lat="42.27629568" lon="-8.63901824">
        <ele>341.5400085449219</ele>
        <time>2018-10-10T13:21:45Z</time>
      </trkpt>
      <trkpt lat="42.27627264" lon="-8.63894272">
        <ele>342.80999755859375</ele>
        <time>2018-10-10T13:21:48Z</time>
      </trkpt>
      <trkpt lat="42.27625728" lon="-8.63885504">
        <ele>342.80999755859375</ele>
        <time>2018-10-10T13:21:51Z</time>
      </trkpt>
      <trkpt lat="42.27627264" lon="-8.63876544">
        <ele>342.80999755859375</ele>
        <time>2018-10-10T13:21:54Z</time>
      </trkpt>
      <trkpt lat="42.27629824" lon="-8.63868928">
        <ele>342.80999755859375</ele>
        <time>2018-10-10T13:21:57Z</time>
      </trkpt>
      <trkpt lat="42.27632896" lon="-8.63862016">
        <ele>342.80999755859375</ele>
        <time>2018-10-10T13:22:00Z</time>
      </trkpt>
      <trkpt lat="42.27636992" lon="-8.63855936">
        <ele>342.80999755859375</ele>
        <time>2018-10-10T13:22:03Z</time>
      </trkpt>
      <trkpt lat="42.27641344" lon="-8.63849728">
        <ele>342.80999755859375</ele>
        <time>2018-10-10T13:22:06Z</time>
      </trkpt>
      <trkpt lat="42.27644672" lon="-8.63843328">
        <ele>344.0899963378906</ele>
        <time>2018-10-10T13:22:09Z</time>
      </trkpt>
      <trkpt lat="42.27647488" lon="-8.63837312">
        <ele>344.0899963378906</ele>
        <time>2018-10-10T13:22:12Z</time>
      </trkpt>
      <trkpt lat="42.27650048" lon="-8.63830784">
        <ele>345.3599853515625</ele>
        <time>2018-10-10T13:22:15Z</time>
      </trkpt>
      <trkpt lat="42.27651584" lon="-8.63824384">
        <ele>345.3599853515625</ele>
        <time>2018-10-10T13:22:18Z</time>
      </trkpt>
      <trkpt lat="42.27650048" lon="-8.63817472">
        <ele>346.5400085449219</ele>
        <time>2018-10-10T13:22:21Z</time>
      </trkpt>
      <trkpt lat="42.27649024" lon="-8.63810176">
        <ele>346.5400085449219</ele>
        <time>2018-10-10T13:22:24Z</time>
      </trkpt>
      <trkpt lat="42.27647488" lon="-8.63803392">
        <ele>347.80999755859375</ele>
        <time>2018-10-10T13:22:27Z</time>
      </trkpt>
      <trkpt lat="42.27645952" lon="-8.63796416">
        <ele>349.17999267578125</ele>
        <time>2018-10-10T13:22:30Z</time>
      </trkpt>
      <trkpt lat="42.27645184" lon="-8.63788672">
        <ele>350.5400085449219</ele>
        <time>2018-10-10T13:22:33Z</time>
      </trkpt>
      <trkpt lat="42.27644416" lon="-8.63780672">
        <ele>350.5400085449219</ele>
        <time>2018-10-10T13:22:36Z</time>
      </trkpt>
      <trkpt lat="42.27643136" lon="-8.63773056">
        <ele>351.7200012207031</ele>
        <time>2018-10-10T13:22:39Z</time>
      </trkpt>
      <trkpt lat="42.27642112" lon="-8.63765056">
        <ele>351.7200012207031</ele>
        <time>2018-10-10T13:22:42Z</time>
      </trkpt>
      <trkpt lat="42.27640832" lon="-8.63757632">
        <ele>353.0</ele>
        <time>2018-10-10T13:22:45Z</time>
      </trkpt>
      <trkpt lat="42.27640064" lon="-8.6375104">
        <ele>353.0</ele>
        <time>2018-10-10T13:22:48Z</time>
      </trkpt>
      <trkpt lat="42.27639296" lon="-8.63744384">
        <ele>353.0</ele>
        <time>2018-10-10T13:22:52Z</time>
      </trkpt>
      <trkpt lat="42.27638272" lon="-8.63736256">
        <ele>353.0</ele>
        <time>2018-10-10T13:22:57Z</time>
      </trkpt>
      <trkpt lat="42.27637504" lon="-8.63729472">
        <ele>353.0</ele>
        <time>2018-10-10T13:23:01Z</time>
      </trkpt>
      <trkpt lat="42.27635968" lon="-8.63722304">
        <ele>353.0</ele>
        <time>2018-10-10T13:23:06Z</time>
      </trkpt>
      <trkpt lat="42.27634688" lon="-8.63715456">
        <ele>351.6300048828125</ele>
        <time>2018-10-10T13:23:10Z</time>
      </trkpt>
      <trkpt lat="42.27633664" lon="-8.63708608">
        <ele>351.6300048828125</ele>
        <time>2018-10-10T13:23:14Z</time>
      </trkpt>
      <trkpt lat="42.2763264" lon="-8.63701312">
        <ele>351.6300048828125</ele>
        <time>2018-10-10T13:23:18Z</time>
      </trkpt>
      <trkpt lat="42.27631104" lon="-8.63692672">
        <ele>351.6300048828125</ele>
        <time>2018-10-10T13:23:22Z</time>
      </trkpt>
      <trkpt lat="42.27629568" lon="-8.63683776">
        <ele>350.17999267578125</ele>
        <time>2018-10-10T13:23:25Z</time>
      </trkpt>
      <trkpt lat="42.27628288" lon="-8.63676288">
        <ele>350.17999267578125</ele>
        <time>2018-10-10T13:23:27Z</time>
      </trkpt>
      <trkpt lat="42.27628032" lon="-8.63667968">
        <ele>348.80999755859375</ele>
        <time>2018-10-10T13:23:29Z</time>
      </trkpt>
      <trkpt lat="42.27628288" lon="-8.63657216">
        <ele>348.80999755859375</ele>
        <time>2018-10-10T13:23:31Z</time>
      </trkpt>
      <trkpt lat="42.27628288" lon="-8.63645248">
        <ele>348.80999755859375</ele>
        <time>2018-10-10T13:23:33Z</time>
      </trkpt>
      <trkpt lat="42.27628032" lon="-8.63630848">
        <ele>347.45001220703125</ele>
        <time>2018-10-10T13:23:35Z</time>
      </trkpt>
      <trkpt lat="42.2762752" lon="-8.6362304">
        <ele>347.45001220703125</ele>
        <time>2018-10-10T13:23:36Z</time>
      </trkpt>
      <trkpt lat="42.27627264" lon="-8.63615232">
        <ele>347.45001220703125</ele>
        <time>2018-10-10T13:23:37Z</time>
      </trkpt>
      <trkpt lat="42.27626752" lon="-8.63607104">
        <ele>347.45001220703125</ele>
        <time>2018-10-10T13:23:38Z</time>
      </trkpt>
      <trkpt lat="42.27625728" lon="-8.63599872">
        <ele>346.17999267578125</ele>
        <time>2018-10-10T13:23:39Z</time>
      </trkpt>
      <trkpt lat="42.27624448" lon="-8.63592256">
        <ele>346.17999267578125</ele>
        <time>2018-10-10T13:23:40Z</time>
      </trkpt>
      <trkpt lat="42.27623424" lon="-8.63584448">
        <ele>346.17999267578125</ele>
        <time>2018-10-10T13:23:41Z</time>
      </trkpt>
      <trkpt lat="42.27621888" lon="-8.6357632">
        <ele>344.80999755859375</ele>
        <time>2018-10-10T13:23:42Z</time>
      </trkpt>
      <trkpt lat="42.2761984" lon="-8.63567424">
        <ele>344.80999755859375</ele>
        <time>2018-10-10T13:23:43Z</time>
      </trkpt>
      <trkpt lat="42.27618304" lon="-8.63558976">
        <ele>343.5400085449219</ele>
        <time>2018-10-10T13:23:44Z</time>
      </trkpt>
      <trkpt lat="42.27616768" lon="-8.63551552">
        <ele>343.5400085449219</ele>
        <time>2018-10-10T13:23:45Z</time>
      </trkpt>
      <trkpt lat="42.2761472" lon="-8.63543104">
        <ele>343.5400085449219</ele>
        <time>2018-10-10T13:23:46Z</time>
      </trkpt>
      <trkpt lat="42.27612672" lon="-8.63534848">
        <ele>341.8999938964844</ele>
        <time>2018-10-10T13:23:47Z</time>
      </trkpt>
      <trkpt lat="42.27610368" lon="-8.63526464">
        <ele>341.8999938964844</ele>
        <time>2018-10-10T13:23:48Z</time>
      </trkpt>
      <trkpt lat="42.27608576" lon="-8.63518784">
        <ele>340.6300048828125</ele>
        <time>2018-10-10T13:23:49Z</time>
      </trkpt>
      <trkpt lat="42.27606272" lon="-8.63510528">
        <ele>340.6300048828125</ele>
        <time>2018-10-10T13:23:50Z</time>
      </trkpt>
      <trkpt lat="42.27603968" lon="-8.63501568">
        <ele>340.6300048828125</ele>
        <time>2018-10-10T13:23:51Z</time>
      </trkpt>
      <trkpt lat="42.27600128" lon="-8.6348896">
        <ele>339.0899963378906</ele>
        <time>2018-10-10T13:23:52Z</time>
      </trkpt>
      <trkpt lat="42.27597056" lon="-8.63478016">
        <ele>339.0899963378906</ele>
        <time>2018-10-10T13:23:53Z</time>
      </trkpt>
      <trkpt lat="42.27594752" lon="-8.63466176">
        <ele>337.8999938964844</ele>
        <time>2018-10-10T13:23:54Z</time>
      </trkpt>
      <trkpt lat="42.27593216" lon="-8.6345376">
        <ele>337.8999938964844</ele>
        <time>2018-10-10T13:23:55Z</time>
      </trkpt>
      <trkpt lat="42.27591424" lon="-8.6344192">
        <ele>337.8999938964844</ele>
        <time>2018-10-10T13:23:56Z</time>
      </trkpt>
      <trkpt lat="42.27589376" lon="-8.63432128">
        <ele>336.45001220703125</ele>
        <time>2018-10-10T13:23:57Z</time>
      </trkpt>
      <trkpt lat="42.2758784" lon="-8.63421632">
        <ele>336.45001220703125</ele>
        <time>2018-10-10T13:23:58Z</time>
      </trkpt>
      <trkpt lat="42.27586048" lon="-8.63411904">
        <ele>336.45001220703125</ele>
        <time>2018-10-10T13:23:59Z</time>
      </trkpt>
      <trkpt lat="42.27583744" lon="-8.63402624">
        <ele>336.45001220703125</ele>
        <time>2018-10-10T13:24:00Z</time>
      </trkpt>
      <trkpt lat="42.27580672" lon="-8.63393792">
        <ele>336.45001220703125</ele>
        <time>2018-10-10T13:24:01Z</time>
      </trkpt>
      <trkpt lat="42.27577856" lon="-8.63386368">
        <ele>336.45001220703125</ele>
        <time>2018-10-10T13:24:02Z</time>
      </trkpt>
      <trkpt lat="42.27574528" lon="-8.63377472">
        <ele>336.45001220703125</ele>
        <time>2018-10-10T13:24:03Z</time>
      </trkpt>
      <trkpt lat="42.27571456" lon="-8.63370048">
        <ele>336.45001220703125</ele>
        <time>2018-10-10T13:24:04Z</time>
      </trkpt>
      <trkpt lat="42.2756736" lon="-8.63361728">
        <ele>336.45001220703125</ele>
        <time>2018-10-10T13:24:05Z</time>
      </trkpt>
      <trkpt lat="42.27562752" lon="-8.63354112">
        <ele>336.45001220703125</ele>
        <time>2018-10-10T13:24:06Z</time>
      </trkpt>
      <trkpt lat="42.27558144" lon="-8.63347456">
        <ele>336.45001220703125</ele>
        <time>2018-10-10T13:24:07Z</time>
      </trkpt>
      <trkpt lat="42.27552768" lon="-8.633424">
        <ele>336.45001220703125</ele>
        <time>2018-10-10T13:24:08Z</time>
      </trkpt>
      <trkpt lat="42.27547392" lon="-8.63338752">
        <ele>336.45001220703125</ele>
        <time>2018-10-10T13:24:09Z</time>
      </trkpt>
      <trkpt lat="42.27542784" lon="-8.63336192">
        <ele>336.45001220703125</ele>
        <time>2018-10-10T13:24:10Z</time>
      </trkpt>
      <trkpt lat="42.27537152" lon="-8.63333888">
        <ele>336.45001220703125</ele>
        <time>2018-10-10T13:24:11Z</time>
      </trkpt>
      <trkpt lat="42.27532288" lon="-8.63332864">
        <ele>336.45001220703125</ele>
        <time>2018-10-10T13:24:12Z</time>
      </trkpt>
      <trkpt lat="42.2752768" lon="-8.63332544">
        <ele>336.45001220703125</ele>
        <time>2018-10-10T13:24:13Z</time>
      </trkpt>
      <trkpt lat="42.2751872" lon="-8.63333632">
        <ele>336.45001220703125</ele>
        <time>2018-10-10T13:24:15Z</time>
      </trkpt>
      <trkpt lat="42.27510528" lon="-8.633344">
        <ele>336.45001220703125</ele>
        <time>2018-10-10T13:24:17Z</time>
      </trkpt>
      <trkpt lat="42.27501568" lon="-8.63334016">
        <ele>336.45001220703125</ele>
        <time>2018-10-10T13:24:19Z</time>
      </trkpt>
      <trkpt lat="42.27494144" lon="-8.63332544">
        <ele>336.45001220703125</ele>
        <time>2018-10-10T13:24:21Z</time>
      </trkpt>
      <trkpt lat="42.27486464" lon="-8.6333024">
        <ele>336.45001220703125</ele>
        <time>2018-10-10T13:24:23Z</time>
      </trkpt>
      <trkpt lat="42.27479552" lon="-8.63326848">
        <ele>337.6300048828125</ele>
        <time>2018-10-10T13:24:25Z</time>
      </trkpt>
      <trkpt lat="42.2747264" lon="-8.633232">
        <ele>337.6300048828125</ele>
        <time>2018-10-10T13:24:27Z</time>
      </trkpt>
      <trkpt lat="42.2746624" lon="-8.63320128">
        <ele>339.0</ele>
        <time>2018-10-10T13:24:29Z</time>
      </trkpt>
      <trkpt lat="42.2745984" lon="-8.63316736">
        <ele>339.0</ele>
        <time>2018-10-10T13:24:31Z</time>
      </trkpt>
      <trkpt lat="42.27453184" lon="-8.63313088">
        <ele>339.0</ele>
        <time>2018-10-10T13:24:33Z</time>
      </trkpt>
      <trkpt lat="42.27448576" lon="-8.63309696">
        <ele>339.0</ele>
        <time>2018-10-10T13:24:35Z</time>
      </trkpt>
      <trkpt lat="42.27443712" lon="-8.63305728">
        <ele>339.0</ele>
        <time>2018-10-10T13:24:37Z</time>
      </trkpt>
      <trkpt lat="42.27440384" lon="-8.63302592">
        <ele>339.0</ele>
        <time>2018-10-10T13:24:39Z</time>
      </trkpt>
      <trkpt lat="42.27435776" lon="-8.63298496">
        <ele>339.0</ele>
        <time>2018-10-10T13:24:42Z</time>
      </trkpt>
      <trkpt lat="42.27431168" lon="-8.63294208">
        <ele>339.0</ele>
        <time>2018-10-10T13:24:45Z</time>
      </trkpt>
      <trkpt lat="42.27426816" lon="-8.63290048">
        <ele>339.0</ele>
        <time>2018-10-10T13:24:48Z</time>
      </trkpt>
      <trkpt lat="42.2742272" lon="-8.63285568">
        <ele>339.0</ele>
        <time>2018-10-10T13:24:51Z</time>
      </trkpt>
      <trkpt lat="42.27417856" lon="-8.63280512">
        <ele>339.0</ele>
        <time>2018-10-10T13:24:54Z</time>
      </trkpt>
      <trkpt lat="42.27411712" lon="-8.63274496">
        <ele>339.0</ele>
        <time>2018-10-10T13:24:57Z</time>
      </trkpt>
      <trkpt lat="42.27407104" lon="-8.63269888">
        <ele>339.0</ele>
        <time>2018-10-10T13:24:59Z</time>
      </trkpt>
      <trkpt lat="42.2740224" lon="-8.63264832">
        <ele>340.17999267578125</ele>
        <time>2018-10-10T13:25:01Z</time>
      </trkpt>
      <trkpt lat="42.27395584" lon="-8.63259584">
        <ele>341.45001220703125</ele>
        <time>2018-10-10T13:25:03Z</time>
      </trkpt>
      <trkpt lat="42.27389184" lon="-8.63255808">
        <ele>341.45001220703125</ele>
        <time>2018-10-10T13:25:05Z</time>
      </trkpt>
      <trkpt lat="42.27384064" lon="-8.63252928">
        <ele>342.80999755859375</ele>
        <time>2018-10-10T13:25:07Z</time>
      </trkpt>
      <trkpt lat="42.27378944" lon="-8.63250624">
        <ele>342.80999755859375</ele>
        <time>2018-10-10T13:25:09Z</time>
      </trkpt>
      <trkpt lat="42.27374336" lon="-8.63247936">
        <ele>344.0</ele>
        <time>2018-10-10T13:25:11Z</time>
      </trkpt>
      <trkpt lat="42.2736896" lon="-8.6324416">
        <ele>344.0</ele>
        <time>2018-10-10T13:25:14Z</time>
      </trkpt>
      <trkpt lat="42.27363584" lon="-8.6324032">
        <ele>345.17999267578125</ele>
        <time>2018-10-10T13:25:17Z</time>
      </trkpt>
      <trkpt lat="42.27358208" lon="-8.63236224">
        <ele>345.17999267578125</ele>
        <time>2018-10-10T13:25:20Z</time>
      </trkpt>
      <trkpt lat="42.27352576" lon="-8.63232448">
        <ele>346.3599853515625</ele>
        <time>2018-10-10T13:25:23Z</time>
      </trkpt>
      <trkpt lat="42.27346688" lon="-8.63229376">
        <ele>346.3599853515625</ele>
        <time>2018-10-10T13:25:26Z</time>
      </trkpt>
      <trkpt lat="42.27341568" lon="-8.63226816">
        <ele>347.5400085449219</ele>
        <time>2018-10-10T13:25:29Z</time>
      </trkpt>
      <trkpt lat="42.27336192" lon="-8.63224704">
        <ele>347.5400085449219</ele>
        <time>2018-10-10T13:25:32Z</time>
      </trkpt>
      <trkpt lat="42.27331072" lon="-8.63223296">
        <ele>348.7200012207031</ele>
        <time>2018-10-10T13:25:35Z</time>
      </trkpt>
      <trkpt lat="42.27325696" lon="-8.6322176">
        <ele>348.7200012207031</ele>
        <time>2018-10-10T13:25:38Z</time>
      </trkpt>
      <trkpt lat="42.27319808" lon="-8.63220096">
        <ele>348.7200012207031</ele>
        <time>2018-10-10T13:25:42Z</time>
      </trkpt>
      <trkpt lat="42.27314432" lon="-8.63218624">
        <ele>348.7200012207031</ele>
        <time>2018-10-10T13:25:45Z</time>
      </trkpt>
      <trkpt lat="42.2731008" lon="-8.63217088">
        <ele>348.7200012207031</ele>
        <time>2018-10-10T13:25:48Z</time>
      </trkpt>
      <trkpt lat="42.27304448" lon="-8.63214848">
        <ele>349.8999938964844</ele>
        <time>2018-10-10T13:25:52Z</time>
      </trkpt>
      <trkpt lat="42.27298304" lon="-8.63212288">
        <ele>349.8999938964844</ele>
        <time>2018-10-10T13:25:56Z</time>
      </trkpt>
      <trkpt lat="42.27294208" lon="-8.63210752">
        <ele>351.0899963378906</ele>
        <time>2018-10-10T13:25:59Z</time>
      </trkpt>
      <trkpt lat="42.27287552" lon="-8.63208512">
        <ele>351.0899963378906</ele>
        <time>2018-10-10T13:26:03Z</time>
      </trkpt>
      <trkpt lat="42.2728192" lon="-8.63205888">
        <ele>351.0899963378906</ele>
        <time>2018-10-10T13:26:07Z</time>
      </trkpt>
      <trkpt lat="42.27275008" lon="-8.63201792">
        <ele>351.0899963378906</ele>
        <time>2018-10-10T13:26:11Z</time>
      </trkpt>
      <trkpt lat="42.272704" lon="-8.63198464">
        <ele>351.0899963378906</ele>
        <time>2018-10-10T13:26:14Z</time>
      </trkpt>
      <trkpt lat="42.27266048" lon="-8.63189824">
        <ele>349.80999755859375</ele>
        <time>2018-10-10T13:26:17Z</time>
      </trkpt>
      <trkpt lat="42.27262208" lon="-8.63184384">
        <ele>349.80999755859375</ele>
        <time>2018-10-10T13:26:20Z</time>
      </trkpt>
      <trkpt lat="42.27257856" lon="-8.63180608">
        <ele>349.80999755859375</ele>
        <time>2018-10-10T13:26:23Z</time>
      </trkpt>
      <trkpt lat="42.27253248" lon="-8.63177024">
        <ele>349.80999755859375</ele>
        <time>2018-10-10T13:26:26Z</time>
      </trkpt>
      <trkpt lat="42.2724864" lon="-8.63173312">
        <ele>349.80999755859375</ele>
        <time>2018-10-10T13:26:29Z</time>
      </trkpt>
      <trkpt lat="42.27244288" lon="-8.631696">
        <ele>349.80999755859375</ele>
        <time>2018-10-10T13:26:32Z</time>
      </trkpt>
      <trkpt lat="42.2723968" lon="-8.63164992">
        <ele>349.80999755859375</ele>
        <time>2018-10-10T13:26:35Z</time>
      </trkpt>
      <trkpt lat="42.27231232" lon="-8.63156864">
        <ele>349.80999755859375</ele>
        <time>2018-10-10T13:26:38Z</time>
      </trkpt>
      <trkpt lat="42.27223296" lon="-8.63149184">
        <ele>349.80999755859375</ele>
        <time>2018-10-10T13:26:40Z</time>
      </trkpt>
      <trkpt lat="42.27213312" lon="-8.6314336">
        <ele>349.80999755859375</ele>
        <time>2018-10-10T13:26:42Z</time>
      </trkpt>
      <trkpt lat="42.2720768" lon="-8.63141248">
        <ele>351.0</ele>
        <time>2018-10-10T13:26:43Z</time>
      </trkpt>
      <trkpt lat="42.27201792" lon="-8.6313984">
        <ele>351.0</ele>
        <time>2018-10-10T13:26:44Z</time>
      </trkpt>
      <trkpt lat="42.27196416" lon="-8.63139264">
        <ele>352.17999267578125</ele>
        <time>2018-10-10T13:26:45Z</time>
      </trkpt>
      <trkpt lat="42.27191552" lon="-8.63139136">
        <ele>352.17999267578125</ele>
        <time>2018-10-10T13:26:46Z</time>
      </trkpt>
      <trkpt lat="42.27183616" lon="-8.6313856">
        <ele>353.45001220703125</ele>
        <time>2018-10-10T13:26:48Z</time>
      </trkpt>
      <trkpt lat="42.2717696" lon="-8.631376">
        <ele>353.45001220703125</ele>
        <time>2018-10-10T13:26:50Z</time>
      </trkpt>
      <trkpt lat="42.27171584" lon="-8.63137152">
        <ele>354.6300048828125</ele>
        <time>2018-10-10T13:26:52Z</time>
      </trkpt>
      <trkpt lat="42.27164928" lon="-8.63136384">
        <ele>354.6300048828125</ele>
        <time>2018-10-10T13:26:55Z</time>
      </trkpt>
      <trkpt lat="42.27159552" lon="-8.63135744">
        <ele>354.6300048828125</ele>
        <time>2018-10-10T13:26:58Z</time>
      </trkpt>
      <trkpt lat="42.27154944" lon="-8.63134464">
        <ele>356.0</ele>
        <time>2018-10-10T13:27:01Z</time>
      </trkpt>
      <trkpt lat="42.27150336" lon="-8.63134272">
        <ele>357.2699890136719</ele>
        <time>2018-10-10T13:27:05Z</time>
      </trkpt>
      <trkpt lat="42.27144192" lon="-8.63132864">
        <ele>358.45001220703125</ele>
        <time>2018-10-10T13:27:10Z</time>
      </trkpt>
      <trkpt lat="42.27138816" lon="-8.63131072">
        <ele>359.6300048828125</ele>
        <time>2018-10-10T13:27:14Z</time>
      </trkpt>
      <trkpt lat="42.2713216" lon="-8.63128">
        <ele>359.6300048828125</ele>
        <time>2018-10-10T13:27:19Z</time>
      </trkpt>
      <trkpt lat="42.27126272" lon="-8.63126784">
        <ele>359.6300048828125</ele>
        <time>2018-10-10T13:27:24Z</time>
      </trkpt>
      <trkpt lat="42.27118592" lon="-8.63129408">
        <ele>359.6300048828125</ele>
        <time>2018-10-10T13:27:30Z</time>
      </trkpt>
      <trkpt lat="42.27113728" lon="-8.6313312">
        <ele>359.6300048828125</ele>
        <time>2018-10-10T13:27:34Z</time>
      </trkpt>
      <trkpt lat="42.27108096" lon="-8.63136128">
        <ele>360.80999755859375</ele>
        <time>2018-10-10T13:27:39Z</time>
      </trkpt>
      <trkpt lat="42.2710272" lon="-8.63138944">
        <ele>360.80999755859375</ele>
        <time>2018-10-10T13:27:44Z</time>
      </trkpt>
      <trkpt lat="42.27098112" lon="-8.63141376">
        <ele>362.0</ele>
        <time>2018-10-10T13:27:48Z</time>
      </trkpt>
      <trkpt lat="42.27092736" lon="-8.6314304">
        <ele>362.0</ele>
        <time>2018-10-10T13:27:53Z</time>
      </trkpt>
      <trkpt lat="42.2708736" lon="-8.63142784">
        <ele>363.17999267578125</ele>
        <time>2018-10-10T13:27:58Z</time>
      </trkpt>
      <trkpt lat="42.27081984" lon="-8.63142016">
        <ele>363.17999267578125</ele>
        <time>2018-10-10T13:28:03Z</time>
      </trkpt>
      <trkpt lat="42.27076352" lon="-8.63139328">
        <ele>363.17999267578125</ele>
        <time>2018-10-10T13:28:08Z</time>
      </trkpt>
      <trkpt lat="42.27071488" lon="-8.63136">
        <ele>364.3599853515625</ele>
        <time>2018-10-10T13:28:12Z</time>
      </trkpt>
      <trkpt lat="42.27066368" lon="-8.63133248">
        <ele>365.5400085449219</ele>
        <time>2018-10-10T13:28:15Z</time>
      </trkpt>
      <trkpt lat="42.2706176" lon="-8.63129792">
        <ele>365.5400085449219</ele>
        <time>2018-10-10T13:28:18Z</time>
      </trkpt>
      <trkpt lat="42.27057152" lon="-8.6312544">
        <ele>365.5400085449219</ele>
        <time>2018-10-10T13:28:21Z</time>
      </trkpt>
      <trkpt lat="42.27052288" lon="-8.63121344">
        <ele>365.5400085449219</ele>
        <time>2018-10-10T13:28:24Z</time>
      </trkpt>
      <trkpt lat="42.27046656" lon="-8.63119232">
        <ele>365.5400085449219</ele>
        <time>2018-10-10T13:28:27Z</time>
      </trkpt>
      <trkpt lat="42.27039744" lon="-8.63118528">
        <ele>367.17999267578125</ele>
        <time>2018-10-10T13:28:30Z</time>
      </trkpt>
      <trkpt lat="42.27033344" lon="-8.6311776">
        <ele>368.6300048828125</ele>
        <time>2018-10-10T13:28:33Z</time>
      </trkpt>
      <trkpt lat="42.27026432" lon="-8.6311744">
        <ele>368.6300048828125</ele>
        <time>2018-10-10T13:28:36Z</time>
      </trkpt>
      <trkpt lat="42.27021824" lon="-8.63117056">
        <ele>368.6300048828125</ele>
        <time>2018-10-10T13:28:39Z</time>
      </trkpt>
      <trkpt lat="42.27015424" lon="-8.63115008">
        <ele>367.3599853515625</ele>
        <time>2018-10-10T13:29:04Z</time>
      </trkpt>
      <trkpt lat="42.27007744" lon="-8.63115712">
        <ele>366.17999267578125</ele>
        <time>2018-10-10T13:29:10Z</time>
      </trkpt>
      <trkpt lat="42.27002368" lon="-8.63115584">
        <ele>365.0</ele>
        <time>2018-10-10T13:29:13Z</time>
      </trkpt>
      <trkpt lat="42.26995456" lon="-8.63115328">
        <ele>363.5400085449219</ele>
        <time>2018-10-10T13:29:17Z</time>
      </trkpt>
      <trkpt lat="42.26989312" lon="-8.63115008">
        <ele>362.17999267578125</ele>
        <time>2018-10-10T13:29:21Z</time>
      </trkpt>
      <trkpt lat="42.26983936" lon="-8.63114176">
        <ele>360.7200012207031</ele>
        <time>2018-10-10T13:29:24Z</time>
      </trkpt>
      <trkpt lat="42.26980608" lon="-8.63110144">
        <ele>359.5400085449219</ele>
        <time>2018-10-10T13:29:28Z</time>
      </trkpt>
      <trkpt lat="42.26977536" lon="-8.63101312">
        <ele>359.5400085449219</ele>
        <time>2018-10-10T13:29:32Z</time>
      </trkpt>
      <trkpt lat="42.26976512" lon="-8.63090304">
        <ele>358.0899963378906</ele>
        <time>2018-10-10T13:29:35Z</time>
      </trkpt>
      <trkpt lat="42.26974208" lon="-8.63081344">
        <ele>358.0899963378906</ele>
        <time>2018-10-10T13:29:37Z</time>
      </trkpt>
      <trkpt lat="42.26971136" lon="-8.63071424">
        <ele>358.0899963378906</ele>
        <time>2018-10-10T13:29:39Z</time>
      </trkpt>
      <trkpt lat="42.26967296" lon="-8.63062208">
        <ele>356.7200012207031</ele>
        <time>2018-10-10T13:29:41Z</time>
      </trkpt>
      <trkpt lat="42.26962176" lon="-8.63053056">
        <ele>355.0899963378906</ele>
        <time>2018-10-10T13:29:43Z</time>
      </trkpt>
      <trkpt lat="42.26957312" lon="-8.6304416">
        <ele>355.0899963378906</ele>
        <time>2018-10-10T13:29:45Z</time>
      </trkpt>
      <trkpt lat="42.26951936" lon="-8.63035584">
        <ele>353.8999938964844</ele>
        <time>2018-10-10T13:29:47Z</time>
      </trkpt>
      <trkpt lat="42.26945792" lon="-8.63026432">
        <ele>353.8999938964844</ele>
        <time>2018-10-10T13:29:49Z</time>
      </trkpt>
      <trkpt lat="42.26942464" lon="-8.63021952">
        <ele>352.7200012207031</ele>
        <time>2018-10-10T13:29:50Z</time>
      </trkpt>
      <trkpt lat="42.2693376" lon="-8.63013248">
        <ele>352.7200012207031</ele>
        <time>2018-10-10T13:29:52Z</time>
      </trkpt>
      <trkpt lat="42.2692864" lon="-8.63009472">
        <ele>352.7200012207031</ele>
        <time>2018-10-10T13:29:53Z</time>
      </trkpt>
      <trkpt lat="42.26924032" lon="-8.63006208">
        <ele>352.7200012207031</ele>
        <time>2018-10-10T13:29:54Z</time>
      </trkpt>
      <trkpt lat="42.26913536" lon="-8.629984">
        <ele>351.5400085449219</ele>
        <time>2018-10-10T13:29:56Z</time>
      </trkpt>
      <trkpt lat="42.26907648" lon="-8.62993792">
        <ele>351.5400085449219</ele>
        <time>2018-10-10T13:29:57Z</time>
      </trkpt>
      <trkpt lat="42.26902784" lon="-8.62989824">
        <ele>351.5400085449219</ele>
        <time>2018-10-10T13:29:58Z</time>
      </trkpt>
      <trkpt lat="42.26897152" lon="-8.62985408">
        <ele>351.5400085449219</ele>
        <time>2018-10-10T13:29:59Z</time>
      </trkpt>
      <trkpt lat="42.26891264" lon="-8.62980736">
        <ele>351.5400085449219</ele>
        <time>2018-10-10T13:30:00Z</time>
      </trkpt>
      <trkpt lat="42.26884864" lon="-8.62975808">
        <ele>351.5400085449219</ele>
        <time>2018-10-10T13:30:01Z</time>
      </trkpt>
      <trkpt lat="42.26879488" lon="-8.62971584">
        <ele>351.5400085449219</ele>
        <time>2018-10-10T13:30:02Z</time>
      </trkpt>
      <trkpt lat="42.26874112" lon="-8.62967488">
        <ele>352.7200012207031</ele>
        <time>2018-10-10T13:30:03Z</time>
      </trkpt>
      <trkpt lat="42.26870016" lon="-8.62963968">
        <ele>352.7200012207031</ele>
        <time>2018-10-10T13:30:04Z</time>
      </trkpt>
      <trkpt lat="42.2686208" lon="-8.6295712">
        <ele>352.7200012207031</ele>
        <time>2018-10-10T13:30:06Z</time>
      </trkpt>
      <trkpt lat="42.26853632" lon="-8.62953088">
        <ele>353.8999938964844</ele>
        <time>2018-10-10T13:30:08Z</time>
      </trkpt>
      <trkpt lat="42.26846208" lon="-8.6295168">
        <ele>353.8999938964844</ele>
        <time>2018-10-10T13:30:10Z</time>
      </trkpt>
      <trkpt lat="42.26841088" lon="-8.62950912">
        <ele>353.8999938964844</ele>
        <time>2018-10-10T13:30:12Z</time>
      </trkpt>
      <trkpt lat="42.26835968" lon="-8.62950976">
        <ele>353.8999938964844</ele>
        <time>2018-10-10T13:30:14Z</time>
      </trkpt>
      <trkpt lat="42.26830592" lon="-8.6295136">
        <ele>353.8999938964844</ele>
        <time>2018-10-10T13:30:16Z</time>
      </trkpt>
      <trkpt lat="42.26823424" lon="-8.6295232">
        <ele>353.8999938964844</ele>
        <time>2018-10-10T13:30:19Z</time>
      </trkpt>
      <trkpt lat="42.26816256" lon="-8.62953728">
        <ele>353.8999938964844</ele>
        <time>2018-10-10T13:30:22Z</time>
      </trkpt>
      <trkpt lat="42.26809344" lon="-8.62955456">
        <ele>355.17999267578125</ele>
        <time>2018-10-10T13:30:25Z</time>
      </trkpt>
      <trkpt lat="42.26802176" lon="-8.62956928">
        <ele>356.5400085449219</ele>
        <time>2018-10-10T13:30:28Z</time>
      </trkpt>
      <trkpt lat="42.26797056" lon="-8.62961088">
        <ele>357.80999755859375</ele>
        <time>2018-10-10T13:30:31Z</time>
      </trkpt>
      <trkpt lat="42.2679168" lon="-8.62963264">
        <ele>357.80999755859375</ele>
        <time>2018-10-10T13:30:34Z</time>
      </trkpt>
      <trkpt lat="42.26785536" lon="-8.62965888">
        <ele>359.0</ele>
        <time>2018-10-10T13:30:38Z</time>
      </trkpt>
      <trkpt lat="42.26781184" lon="-8.6296832">
        <ele>359.0</ele>
        <time>2018-10-10T13:30:41Z</time>
      </trkpt>
      <trkpt lat="42.26774528" lon="-8.62972928">
        <ele>359.0</ele>
        <time>2018-10-10T13:30:45Z</time>
      </trkpt>
      <trkpt lat="42.26769664" lon="-8.62977152">
        <ele>359.0</ele>
        <time>2018-10-10T13:30:48Z</time>
      </trkpt>
      <trkpt lat="42.267648" lon="-8.6298144">
        <ele>359.0</ele>
        <time>2018-10-10T13:30:51Z</time>
      </trkpt>
      <trkpt lat="42.26760192" lon="-8.62985792">
        <ele>360.17999267578125</ele>
        <time>2018-10-10T13:30:54Z</time>
      </trkpt>
      <trkpt lat="42.26755584" lon="-8.62990208">
        <ele>360.17999267578125</ele>
        <time>2018-10-10T13:30:57Z</time>
      </trkpt>
      <trkpt lat="42.26750976" lon="-8.6299488">
        <ele>361.3599853515625</ele>
        <time>2018-10-10T13:31:00Z</time>
      </trkpt>
      <trkpt lat="42.26746112" lon="-8.62999936">
        <ele>361.3599853515625</ele>
        <time>2018-10-10T13:31:03Z</time>
      </trkpt>
      <trkpt lat="42.26740992" lon="-8.63004864">
        <ele>362.5400085449219</ele>
        <time>2018-10-10T13:31:06Z</time>
      </trkpt>
      <trkpt lat="42.2673792" lon="-8.63013568">
        <ele>362.5400085449219</ele>
        <time>2018-10-10T13:31:09Z</time>
      </trkpt>
      <trkpt lat="42.26734592" lon="-8.63021184">
        <ele>363.7200012207031</ele>
        <time>2018-10-10T13:31:12Z</time>
      </trkpt>
      <trkpt lat="42.26731008" lon="-8.63027392">
        <ele>363.7200012207031</ele>
        <time>2018-10-10T13:31:15Z</time>
      </trkpt>
      <trkpt lat="42.26726656" lon="-8.63031872">
        <ele>363.7200012207031</ele>
        <time>2018-10-10T13:31:19Z</time>
      </trkpt>
      <trkpt lat="42.26720768" lon="-8.63033088">
        <ele>363.7200012207031</ele>
        <time>2018-10-10T13:31:23Z</time>
      </trkpt>
      <trkpt lat="42.26715136" lon="-8.63034944">
        <ele>363.7200012207031</ele>
        <time>2018-10-10T13:31:27Z</time>
      </trkpt>
      <trkpt lat="42.26710528" lon="-8.63036032">
        <ele>363.7200012207031</ele>
        <time>2018-10-10T13:31:30Z</time>
      </trkpt>
      <trkpt lat="42.26702592" lon="-8.63038528">
        <ele>363.7200012207031</ele>
        <time>2018-10-10T13:31:35Z</time>
      </trkpt>
      <trkpt lat="42.26696704" lon="-8.63041024">
        <ele>363.7200012207031</ele>
        <time>2018-10-10T13:31:39Z</time>
      </trkpt>
      <trkpt lat="42.2669056" lon="-8.63044288">
        <ele>365.0</ele>
        <time>2018-10-10T13:31:43Z</time>
      </trkpt>
      <trkpt lat="42.2668544" lon="-8.63046912">
        <ele>365.0</ele>
        <time>2018-10-10T13:31:46Z</time>
      </trkpt>
      <trkpt lat="42.26679552" lon="-8.630496">
        <ele>365.0</ele>
        <time>2018-10-10T13:31:49Z</time>
      </trkpt>
      <trkpt lat="42.2667392" lon="-8.6305248">
        <ele>365.0</ele>
        <time>2018-10-10T13:31:52Z</time>
      </trkpt>
      <trkpt lat="42.26667008" lon="-8.63055424">
        <ele>365.0</ele>
        <time>2018-10-10T13:31:55Z</time>
      </trkpt>
      <trkpt lat="42.266624" lon="-8.63057536">
        <ele>365.0</ele>
        <time>2018-10-10T13:31:57Z</time>
      </trkpt>
      <trkpt lat="42.26654464" lon="-8.63060672">
        <ele>365.0</ele>
        <time>2018-10-10T13:32:00Z</time>
      </trkpt>
      <trkpt lat="42.26648832" lon="-8.63059968">
        <ele>365.0</ele>
        <time>2018-10-10T13:32:02Z</time>
      </trkpt>
      <trkpt lat="42.26643456" lon="-8.63058688">
        <ele>365.0</ele>
        <time>2018-10-10T13:32:04Z</time>
      </trkpt>
      <trkpt lat="42.26637568" lon="-8.63057408">
        <ele>366.17999267578125</ele>
        <time>2018-10-10T13:32:06Z</time>
      </trkpt>
      <trkpt lat="42.26631936" lon="-8.63055232">
        <ele>366.17999267578125</ele>
        <time>2018-10-10T13:32:08Z</time>
      </trkpt>
      <trkpt lat="42.26626304" lon="-8.6305248">
        <ele>366.17999267578125</ele>
        <time>2018-10-10T13:32:10Z</time>
      </trkpt>
      <trkpt lat="42.26620416" lon="-8.63049536">
        <ele>366.17999267578125</ele>
        <time>2018-10-10T13:32:12Z</time>
      </trkpt>
      <trkpt lat="42.2661504" lon="-8.63047104">
        <ele>366.17999267578125</ele>
        <time>2018-10-10T13:32:14Z</time>
      </trkpt>
      <trkpt lat="42.26610176" lon="-8.6304448">
        <ele>367.3599853515625</ele>
        <time>2018-10-10T13:32:16Z</time>
      </trkpt>
      <trkpt lat="42.26604032" lon="-8.630416">
        <ele>367.3599853515625</ele>
        <time>2018-10-10T13:32:18Z</time>
      </trkpt>
      <trkpt lat="42.26599168" lon="-8.6303872">
        <ele>367.3599853515625</ele>
        <time>2018-10-10T13:32:20Z</time>
      </trkpt>
      <trkpt lat="42.2659328" lon="-8.63035584">
        <ele>367.3599853515625</ele>
        <time>2018-10-10T13:32:22Z</time>
      </trkpt>
      <trkpt lat="42.26588416" lon="-8.63032832">
        <ele>367.3599853515625</ele>
        <time>2018-10-10T13:32:24Z</time>
      </trkpt>
      <trkpt lat="42.26583552" lon="-8.63030272">
        <ele>368.6300048828125</ele>
        <time>2018-10-10T13:32:26Z</time>
      </trkpt>
      <trkpt lat="42.26578432" lon="-8.6302784">
        <ele>368.6300048828125</ele>
        <time>2018-10-10T13:32:28Z</time>
      </trkpt>
      <trkpt lat="42.26573056" lon="-8.63025472">
        <ele>368.6300048828125</ele>
        <time>2018-10-10T13:32:30Z</time>
      </trkpt>
      <trkpt lat="42.26567936" lon="-8.63023104">
        <ele>369.80999755859375</ele>
        <time>2018-10-10T13:32:32Z</time>
      </trkpt>
      <trkpt lat="42.26562816" lon="-8.63021184">
        <ele>369.80999755859375</ele>
        <time>2018-10-10T13:32:34Z</time>
      </trkpt>
      <trkpt lat="42.26557952" lon="-8.63019456">
        <ele>369.80999755859375</ele>
        <time>2018-10-10T13:32:36Z</time>
      </trkpt>
      <trkpt lat="42.26551552" lon="-8.63017472">
        <ele>369.80999755859375</ele>
        <time>2018-10-10T13:32:39Z</time>
      </trkpt>
      <trkpt lat="42.26545408" lon="-8.63015552">
        <ele>369.80999755859375</ele>
        <time>2018-10-10T13:32:42Z</time>
      </trkpt>
      <trkpt lat="42.26538752" lon="-8.63013568">
        <ele>369.80999755859375</ele>
        <time>2018-10-10T13:32:45Z</time>
      </trkpt>
      <trkpt lat="42.2653312" lon="-8.63011904">
        <ele>371.0899963378906</ele>
        <time>2018-10-10T13:32:48Z</time>
      </trkpt>
      <trkpt lat="42.26527744" lon="-8.63010304">
        <ele>371.0899963378906</ele>
        <time>2018-10-10T13:32:51Z</time>
      </trkpt>
      <trkpt lat="42.26521344" lon="-8.63007936">
        <ele>371.0899963378906</ele>
        <time>2018-10-10T13:32:54Z</time>
      </trkpt>
      <trkpt lat="42.26514432" lon="-8.63005568">
        <ele>372.3599853515625</ele>
        <time>2018-10-10T13:32:57Z</time>
      </trkpt>
      <trkpt lat="42.26509568" lon="-8.63003712">
        <ele>372.3599853515625</ele>
        <time>2018-10-10T13:32:59Z</time>
      </trkpt>
      <trkpt lat="42.2650368" lon="-8.63001792">
        <ele>372.3599853515625</ele>
        <time>2018-10-10T13:33:01Z</time>
      </trkpt>
      <trkpt lat="42.26498048" lon="-8.63000128">
        <ele>371.17999267578125</ele>
        <time>2018-10-10T13:33:03Z</time>
      </trkpt>
      <trkpt lat="42.26492416" lon="-8.629984">
        <ele>371.17999267578125</ele>
        <time>2018-10-10T13:33:05Z</time>
      </trkpt>
      <trkpt lat="42.26486528" lon="-8.62996928">
        <ele>372.3599853515625</ele>
        <time>2018-10-10T13:33:07Z</time>
      </trkpt>
      <trkpt lat="42.26481152" lon="-8.62996928">
        <ele>372.3599853515625</ele>
        <time>2018-10-10T13:33:09Z</time>
      </trkpt>
      <trkpt lat="42.26476032" lon="-8.62997696">
        <ele>372.3599853515625</ele>
        <time>2018-10-10T13:33:11Z</time>
      </trkpt>
      <trkpt lat="42.2646912" lon="-8.62999616">
        <ele>373.5400085449219</ele>
        <time>2018-10-10T13:33:14Z</time>
      </trkpt>
      <trkpt lat="42.26462464" lon="-8.63001728">
        <ele>373.5400085449219</ele>
        <time>2018-10-10T13:33:17Z</time>
      </trkpt>
      <trkpt lat="42.26454528" lon="-8.630048">
        <ele>374.8999938964844</ele>
        <time>2018-10-10T13:33:20Z</time>
      </trkpt>
      <trkpt lat="42.26452224" lon="-8.63006016">
        <ele>376.17999267578125</ele>
        <time>2018-10-10T13:33:22Z</time>
      </trkpt>
      <trkpt lat="42.26447616" lon="-8.63010432">
        <ele>376.17999267578125</ele>
        <time>2018-10-10T13:33:25Z</time>
      </trkpt>
      <trkpt lat="42.26443776" lon="-8.63014784">
        <ele>377.5400085449219</ele>
        <time>2018-10-10T13:33:28Z</time>
      </trkpt>
      <trkpt lat="42.26439936" lon="-8.63022592">
        <ele>377.5400085449219</ele>
        <time>2018-10-10T13:33:32Z</time>
      </trkpt>
      <trkpt lat="42.26439936" lon="-8.6302976">
        <ele>378.7200012207031</ele>
        <time>2018-10-10T13:33:35Z</time>
      </trkpt>
      <trkpt lat="42.26443008" lon="-8.63037952">
        <ele>378.7200012207031</ele>
        <time>2018-10-10T13:33:39Z</time>
      </trkpt>
      <trkpt lat="42.2644608" lon="-8.630432">
        <ele>378.7200012207031</ele>
        <time>2018-10-10T13:33:42Z</time>
      </trkpt>
      <trkpt lat="42.26449664" lon="-8.63048192">
        <ele>379.8999938964844</ele>
        <time>2018-10-10T13:33:45Z</time>
      </trkpt>
      <trkpt lat="42.26452992" lon="-8.63051968">
        <ele>379.8999938964844</ele>
        <time>2018-10-10T13:33:48Z</time>
      </trkpt>
      <trkpt lat="42.26457856" lon="-8.63056192">
        <ele>379.8999938964844</ele>
        <time>2018-10-10T13:33:52Z</time>
      </trkpt>
      <trkpt lat="42.26461696" lon="-8.6305888">
        <ele>379.8999938964844</ele>
        <time>2018-10-10T13:33:55Z</time>
      </trkpt>
      <trkpt lat="42.26467072" lon="-8.63062464">
        <ele>381.0899963378906</ele>
        <time>2018-10-10T13:33:59Z</time>
      </trkpt>
      <trkpt lat="42.26472448" lon="-8.63067328">
        <ele>381.0899963378906</ele>
        <time>2018-10-10T13:34:03Z</time>
      </trkpt>
      <trkpt lat="42.26476032" lon="-8.63073152">
        <ele>381.0899963378906</ele>
        <time>2018-10-10T13:34:06Z</time>
      </trkpt>
      <trkpt lat="42.26478848" lon="-8.63079424">
        <ele>382.2699890136719</ele>
        <time>2018-10-10T13:34:09Z</time>
      </trkpt>
      <trkpt lat="42.26482432" lon="-8.63086208">
        <ele>382.2699890136719</ele>
        <time>2018-10-10T13:34:12Z</time>
      </trkpt>
      <trkpt lat="42.26485504" lon="-8.63092352">
        <ele>383.45001220703125</ele>
        <time>2018-10-10T13:34:15Z</time>
      </trkpt>
      <trkpt lat="42.26489344" lon="-8.63099072">
        <ele>383.45001220703125</ele>
        <time>2018-10-10T13:34:18Z</time>
      </trkpt>
      <trkpt lat="42.26493184" lon="-8.631056">
        <ele>383.45001220703125</ele>
        <time>2018-10-10T13:34:21Z</time>
      </trkpt>
      <trkpt lat="42.26497536" lon="-8.63112704">
        <ele>383.45001220703125</ele>
        <time>2018-10-10T13:34:24Z</time>
      </trkpt>
      <trkpt lat="42.26500608" lon="-8.63117568">
        <ele>383.45001220703125</ele>
        <time>2018-10-10T13:34:26Z</time>
      </trkpt>
      <trkpt lat="42.2650496" lon="-8.63123776">
        <ele>383.45001220703125</ele>
        <time>2018-10-10T13:34:29Z</time>
      </trkpt>
      <trkpt lat="42.26508288" lon="-8.63129408">
        <ele>383.45001220703125</ele>
        <time>2018-10-10T13:34:32Z</time>
      </trkpt>
      <trkpt lat="42.2651136" lon="-8.63135424">
        <ele>384.6300048828125</ele>
        <time>2018-10-10T13:34:35Z</time>
      </trkpt>
      <trkpt lat="42.26514432" lon="-8.63141376">
        <ele>384.6300048828125</ele>
        <time>2018-10-10T13:34:38Z</time>
      </trkpt>
      <trkpt lat="42.26514432" lon="-8.63149184">
        <ele>384.6300048828125</ele>
        <time>2018-10-10T13:34:42Z</time>
      </trkpt>
      <trkpt lat="42.265152" lon="-8.63156096">
        <ele>384.6300048828125</ele>
        <time>2018-10-10T13:34:45Z</time>
      </trkpt>
      <trkpt lat="42.26514432" lon="-8.63165312">
        <ele>386.0</ele>
        <time>2018-10-10T13:34:49Z</time>
      </trkpt>
      <trkpt lat="42.26513408" lon="-8.63171968">
        <ele>386.0</ele>
        <time>2018-10-10T13:34:52Z</time>
      </trkpt>
      <trkpt lat="42.26511872" lon="-8.63178624">
        <ele>386.0</ele>
        <time>2018-10-10T13:34:55Z</time>
      </trkpt>
      <trkpt lat="42.26510336" lon="-8.6318624">
        <ele>386.0</ele>
        <time>2018-10-10T13:34:58Z</time>
      </trkpt>
      <trkpt lat="42.26508288" lon="-8.63194112">
        <ele>387.17999267578125</ele>
        <time>2018-10-10T13:35:01Z</time>
      </trkpt>
      <trkpt lat="42.26506496" lon="-8.63202688">
        <ele>387.17999267578125</ele>
        <time>2018-10-10T13:35:04Z</time>
      </trkpt>
      <trkpt lat="42.26504448" lon="-8.63211712">
        <ele>387.17999267578125</ele>
        <time>2018-10-10T13:35:07Z</time>
      </trkpt>
      <trkpt lat="42.26502144" lon="-8.6322144">
        <ele>388.5400085449219</ele>
        <time>2018-10-10T13:35:10Z</time>
      </trkpt>
      <trkpt lat="42.2650112" lon="-8.63228608">
        <ele>388.5400085449219</ele>
        <time>2018-10-10T13:35:12Z</time>
      </trkpt>
      <trkpt lat="42.26499584" lon="-8.63235776">
        <ele>388.5400085449219</ele>
        <time>2018-10-10T13:35:14Z</time>
      </trkpt>
      <trkpt lat="42.26498816" lon="-8.63242752">
        <ele>389.7200012207031</ele>
        <time>2018-10-10T13:35:16Z</time>
      </trkpt>
      <trkpt lat="42.26497536" lon="-8.63250624">
        <ele>389.7200012207031</ele>
        <time>2018-10-10T13:35:18Z</time>
      </trkpt>
      <trkpt lat="42.26498048" lon="-8.632576">
        <ele>389.7200012207031</ele>
        <time>2018-10-10T13:35:20Z</time>
      </trkpt>
      <trkpt lat="42.26497536" lon="-8.63268288">
        <ele>389.7200012207031</ele>
        <time>2018-10-10T13:35:23Z</time>
      </trkpt>
      <trkpt lat="42.26496768" lon="-8.63274944">
        <ele>389.7200012207031</ele>
        <time>2018-10-10T13:35:25Z</time>
      </trkpt>
      <trkpt lat="42.26496512" lon="-8.63284288">
        <ele>389.7200012207031</ele>
        <time>2018-10-10T13:35:28Z</time>
      </trkpt>
      <trkpt lat="42.26495744" lon="-8.6329184">
        <ele>389.7200012207031</ele>
        <time>2018-10-10T13:35:31Z</time>
      </trkpt>
      <trkpt lat="42.26495744" lon="-8.63300032">
        <ele>389.7200012207031</ele>
        <time>2018-10-10T13:35:34Z</time>
      </trkpt>
      <trkpt lat="42.26495488" lon="-8.633088">
        <ele>389.7200012207031</ele>
        <time>2018-10-10T13:35:37Z</time>
      </trkpt>
      <trkpt lat="42.26495488" lon="-8.63318144">
        <ele>389.7200012207031</ele>
        <time>2018-10-10T13:35:40Z</time>
      </trkpt>
      <trkpt lat="42.26495744" lon="-8.63327488">
        <ele>389.7200012207031</ele>
        <time>2018-10-10T13:35:43Z</time>
      </trkpt>
      <trkpt lat="42.26498048" lon="-8.6333664">
        <ele>389.7200012207031</ele>
        <time>2018-10-10T13:35:46Z</time>
      </trkpt>
      <trkpt lat="42.2649984" lon="-8.6334592">
        <ele>391.0</ele>
        <time>2018-10-10T13:35:49Z</time>
      </trkpt>
      <trkpt lat="42.2650112" lon="-8.63352192">
        <ele>391.0</ele>
        <time>2018-10-10T13:35:51Z</time>
      </trkpt>
      <trkpt lat="42.26502656" lon="-8.6336128">
        <ele>391.0</ele>
        <time>2018-10-10T13:35:54Z</time>
      </trkpt>
      <trkpt lat="42.26505984" lon="-8.63368896">
        <ele>392.2699890136719</ele>
        <time>2018-10-10T13:35:57Z</time>
      </trkpt>
      <trkpt lat="42.26510336" lon="-8.6337632">
        <ele>392.2699890136719</ele>
        <time>2018-10-10T13:36:00Z</time>
      </trkpt>
      <trkpt lat="42.26514432" lon="-8.63383488">
        <ele>393.5400085449219</ele>
        <time>2018-10-10T13:36:03Z</time>
      </trkpt>
      <trkpt lat="42.26517504" lon="-8.63389952">
        <ele>393.5400085449219</ele>
        <time>2018-10-10T13:36:06Z</time>
      </trkpt>
      <trkpt lat="42.26520576" lon="-8.6339648">
        <ele>394.80999755859375</ele>
        <time>2018-10-10T13:36:09Z</time>
      </trkpt>
      <trkpt lat="42.2652288" lon="-8.63403136">
        <ele>394.80999755859375</ele>
        <time>2018-10-10T13:36:12Z</time>
      </trkpt>
      <trkpt lat="42.26525184" lon="-8.63411136">
        <ele>396.0</ele>
        <time>2018-10-10T13:36:16Z</time>
      </trkpt>
      <trkpt lat="42.26525952" lon="-8.63416832">
        <ele>396.0</ele>
        <time>2018-10-10T13:36:19Z</time>
      </trkpt>
      <trkpt lat="42.2652544" lon="-8.63424512">
        <ele>397.17999267578125</ele>
        <time>2018-10-10T13:36:23Z</time>
      </trkpt>
      <trkpt lat="42.26526208" lon="-8.63431232">
        <ele>397.17999267578125</ele>
        <time>2018-10-10T13:36:27Z</time>
      </trkpt>
      <trkpt lat="42.26527744" lon="-8.63439296">
        <ele>398.3599853515625</ele>
        <time>2018-10-10T13:36:31Z</time>
      </trkpt>
      <trkpt lat="42.26528512" lon="-8.63446144">
        <ele>398.3599853515625</ele>
        <time>2018-10-10T13:36:34Z</time>
      </trkpt>
      <trkpt lat="42.2652928" lon="-8.63454912">
        <ele>398.3599853515625</ele>
        <time>2018-10-10T13:36:38Z</time>
      </trkpt>
      <trkpt lat="42.26527744" lon="-8.63461376">
        <ele>398.3599853515625</ele>
        <time>2018-10-10T13:36:41Z</time>
      </trkpt>
      <trkpt lat="42.26527744" lon="-8.63468096">
        <ele>398.3599853515625</ele>
        <time>2018-10-10T13:36:44Z</time>
      </trkpt>
      <trkpt lat="42.26528512" lon="-8.6347616">
        <ele>398.3599853515625</ele>
        <time>2018-10-10T13:36:48Z</time>
      </trkpt>
      <trkpt lat="42.26530048" lon="-8.63484288">
        <ele>398.3599853515625</ele>
        <time>2018-10-10T13:36:52Z</time>
      </trkpt>
      <trkpt lat="42.26531584" lon="-8.63492416">
        <ele>398.3599853515625</ele>
        <time>2018-10-10T13:36:56Z</time>
      </trkpt>
      <trkpt lat="42.26529024" lon="-8.6350048">
        <ele>399.5400085449219</ele>
        <time>2018-10-10T13:37:00Z</time>
      </trkpt>
      <trkpt lat="42.26526976" lon="-8.6350688">
        <ele>399.5400085449219</ele>
        <time>2018-10-10T13:37:03Z</time>
      </trkpt>
      <trkpt lat="42.26523904" lon="-8.63513728">
        <ele>399.5400085449219</ele>
        <time>2018-10-10T13:37:07Z</time>
      </trkpt>
      <trkpt lat="42.26520576" lon="-8.63518528">
        <ele>400.80999755859375</ele>
        <time>2018-10-10T13:37:10Z</time>
      </trkpt>
      <trkpt lat="42.26516992" lon="-8.63525696">
        <ele>400.80999755859375</ele>
        <time>2018-10-10T13:37:14Z</time>
      </trkpt>
      <trkpt lat="42.265152" lon="-8.6353408">
        <ele>400.80999755859375</ele>
        <time>2018-10-10T13:37:18Z</time>
      </trkpt>
      <trkpt lat="42.26514944" lon="-8.63542144">
        <ele>402.0</ele>
        <time>2018-10-10T13:37:21Z</time>
      </trkpt>
      <trkpt lat="42.26514432" lon="-8.6355008">
        <ele>402.0</ele>
        <time>2018-10-10T13:37:24Z</time>
      </trkpt>
      <trkpt lat="42.26512896" lon="-8.63558592">
        <ele>402.0</ele>
        <time>2018-10-10T13:37:27Z</time>
      </trkpt>
      <trkpt lat="42.26511104" lon="-8.63567232">
        <ele>402.0</ele>
        <time>2018-10-10T13:37:30Z</time>
      </trkpt>
      <trkpt lat="42.26508032" lon="-8.63578816">
        <ele>402.0</ele>
        <time>2018-10-10T13:37:33Z</time>
      </trkpt>
      <trkpt lat="42.26506496" lon="-8.63582208">
        <ele>402.0</ele>
        <time>2018-10-10T13:37:35Z</time>
      </trkpt>
      <trkpt lat="42.26502656" lon="-8.63588736">
        <ele>402.0</ele>
        <time>2018-10-10T13:37:38Z</time>
      </trkpt>
      <trkpt lat="42.26498048" lon="-8.63595136">
        <ele>402.0</ele>
        <time>2018-10-10T13:37:41Z</time>
      </trkpt>
      <trkpt lat="42.26492672" lon="-8.63601792">
        <ele>403.17999267578125</ele>
        <time>2018-10-10T13:37:44Z</time>
      </trkpt>
      <trkpt lat="42.26489344" lon="-8.63606464">
        <ele>400.9100036621094</ele>
        <time>2018-10-10T13:37:46Z</time>
      </trkpt>
      <trkpt lat="42.26484992" lon="-8.63610624">
        <ele>400.9100036621094</ele>
        <time>2018-10-10T13:37:48Z</time>
      </trkpt>
      <trkpt lat="42.26478592" lon="-8.63615232">
        <ele>400.9100036621094</ele>
        <time>2018-10-10T13:37:51Z</time>
      </trkpt>
      <trkpt lat="42.26473728" lon="-8.63617408">
        <ele>400.9100036621094</ele>
        <time>2018-10-10T13:37:53Z</time>
      </trkpt>
      <trkpt lat="42.26468352" lon="-8.63619776">
        <ele>400.9100036621094</ele>
        <time>2018-10-10T13:37:55Z</time>
      </trkpt>
      <trkpt lat="42.26463232" lon="-8.63622976">
        <ele>400.9100036621094</ele>
        <time>2018-10-10T13:37:57Z</time>
      </trkpt>
      <trkpt lat="42.26459136" lon="-8.63626496">
        <ele>400.9100036621094</ele>
        <time>2018-10-10T13:37:59Z</time>
      </trkpt>
      <trkpt lat="42.26456064" lon="-8.63634752">
        <ele>400.9100036621094</ele>
        <time>2018-10-10T13:38:02Z</time>
      </trkpt>
      <trkpt lat="42.26456832" lon="-8.63642624">
        <ele>400.9100036621094</ele>
        <time>2018-10-10T13:38:05Z</time>
      </trkpt>
      <trkpt lat="42.26459392" lon="-8.63656512">
        <ele>400.9100036621094</ele>
        <time>2018-10-10T13:38:46Z</time>
      </trkpt>
      <trkpt lat="42.26461696" lon="-8.6366624">
        <ele>400.9100036621094</ele>
        <time>2018-10-10T13:38:50Z</time>
      </trkpt>
      <trkpt lat="42.26463744" lon="-8.6367712">
        <ele>402.17999267578125</ele>
        <time>2018-10-10T13:38:53Z</time>
      </trkpt>
      <trkpt lat="42.26464768" lon="-8.63684288">
        <ele>402.17999267578125</ele>
        <time>2018-10-10T13:38:55Z</time>
      </trkpt>
      <trkpt lat="42.26466048" lon="-8.6369248">
        <ele>402.17999267578125</ele>
        <time>2018-10-10T13:38:57Z</time>
      </trkpt>
      <trkpt lat="42.26468352" lon="-8.63705472">
        <ele>402.17999267578125</ele>
        <time>2018-10-10T13:39:00Z</time>
      </trkpt>
      <trkpt lat="42.26470144" lon="-8.637152">
        <ele>402.17999267578125</ele>
        <time>2018-10-10T13:39:02Z</time>
      </trkpt>
      <trkpt lat="42.26472192" lon="-8.6372544">
        <ele>402.17999267578125</ele>
        <time>2018-10-10T13:39:04Z</time>
      </trkpt>
      <trkpt lat="42.26473728" lon="-8.63736064">
        <ele>402.17999267578125</ele>
        <time>2018-10-10T13:39:06Z</time>
      </trkpt>
      <trkpt lat="42.2647552" lon="-8.63746624">
        <ele>400.80999755859375</ele>
        <time>2018-10-10T13:39:08Z</time>
      </trkpt>
      <trkpt lat="42.26477056" lon="-8.63757312">
        <ele>400.80999755859375</ele>
        <time>2018-10-10T13:39:10Z</time>
      </trkpt>
      <trkpt lat="42.26478592" lon="-8.6376832">
        <ele>400.80999755859375</ele>
        <time>2018-10-10T13:39:12Z</time>
      </trkpt>
      <trkpt lat="42.26480128" lon="-8.63779328">
        <ele>400.80999755859375</ele>
        <time>2018-10-10T13:39:14Z</time>
      </trkpt>
      <trkpt lat="42.26481152" lon="-8.63790784">
        <ele>400.80999755859375</ele>
        <time>2018-10-10T13:39:16Z</time>
      </trkpt>
      <trkpt lat="42.26482688" lon="-8.63802624">
        <ele>400.80999755859375</ele>
        <time>2018-10-10T13:39:18Z</time>
      </trkpt>
      <trkpt lat="42.26484224" lon="-8.63815424">
        <ele>399.6300048828125</ele>
        <time>2018-10-10T13:39:20Z</time>
      </trkpt>
      <trkpt lat="42.2648576" lon="-8.63828096">
        <ele>399.6300048828125</ele>
        <time>2018-10-10T13:39:22Z</time>
      </trkpt>
      <trkpt lat="42.26487808" lon="-8.63843072">
        <ele>399.6300048828125</ele>
        <time>2018-10-10T13:39:24Z</time>
      </trkpt>
      <trkpt lat="42.26488832" lon="-8.6385088">
        <ele>399.6300048828125</ele>
        <time>2018-10-10T13:39:25Z</time>
      </trkpt>
      <trkpt lat="42.2649088" lon="-8.63858624">
        <ele>399.6300048828125</ele>
        <time>2018-10-10T13:39:26Z</time>
      </trkpt>
      <trkpt lat="42.26492672" lon="-8.63866304">
        <ele>399.6300048828125</ele>
        <time>2018-10-10T13:39:27Z</time>
      </trkpt>
      <trkpt lat="42.26494976" lon="-8.63873984">
        <ele>399.6300048828125</ele>
        <time>2018-10-10T13:39:28Z</time>
      </trkpt>
      <trkpt lat="42.26496768" lon="-8.63881472">
        <ele>399.6300048828125</ele>
        <time>2018-10-10T13:39:29Z</time>
      </trkpt>
      <trkpt lat="42.26498048" lon="-8.6388896">
        <ele>399.6300048828125</ele>
        <time>2018-10-10T13:39:30Z</time>
      </trkpt>
      <trkpt lat="42.26499584" lon="-8.63896192">
        <ele>399.6300048828125</ele>
        <time>2018-10-10T13:39:31Z</time>
      </trkpt>
      <trkpt lat="42.26500608" lon="-8.63903552">
        <ele>399.6300048828125</ele>
        <time>2018-10-10T13:39:32Z</time>
      </trkpt>
      <trkpt lat="42.26501376" lon="-8.63910016">
        <ele>399.6300048828125</ele>
        <time>2018-10-10T13:39:33Z</time>
      </trkpt>
      <trkpt lat="42.26502144" lon="-8.63932864">
        <ele>399.6300048828125</ele>
        <time>2018-10-10T13:39:36Z</time>
      </trkpt>
      <trkpt lat="42.26502144" lon="-8.63940928">
        <ele>399.6300048828125</ele>
        <time>2018-10-10T13:39:37Z</time>
      </trkpt>
      <trkpt lat="42.26501888" lon="-8.63949312">
        <ele>399.6300048828125</ele>
        <time>2018-10-10T13:39:38Z</time>
      </trkpt>
      <trkpt lat="42.26501376" lon="-8.63957888">
        <ele>399.6300048828125</ele>
        <time>2018-10-10T13:39:39Z</time>
      </trkpt>
      <trkpt lat="42.2650112" lon="-8.63966656">
        <ele>398.45001220703125</ele>
        <time>2018-10-10T13:39:40Z</time>
      </trkpt>
      <trkpt lat="42.26500608" lon="-8.63975808">
        <ele>398.45001220703125</ele>
        <time>2018-10-10T13:39:41Z</time>
      </trkpt>
      <trkpt lat="42.2649984" lon="-8.63985344">
        <ele>397.0899963378906</ele>
        <time>2018-10-10T13:39:42Z</time>
      </trkpt>
      <trkpt lat="42.26499584" lon="-8.63996608">
        <ele>397.0899963378906</ele>
        <time>2018-10-10T13:39:43Z</time>
      </trkpt>
      <trkpt lat="42.26498304" lon="-8.64006912">
        <ele>395.9100036621094</ele>
        <time>2018-10-10T13:39:44Z</time>
      </trkpt>
      <trkpt lat="42.2649728" lon="-8.64017088">
        <ele>395.9100036621094</ele>
        <time>2018-10-10T13:39:45Z</time>
      </trkpt>
      <trkpt lat="42.26496512" lon="-8.64027712">
        <ele>395.9100036621094</ele>
        <time>2018-10-10T13:39:46Z</time>
      </trkpt>
      <trkpt lat="42.26496" lon="-8.64038016">
        <ele>394.7200012207031</ele>
        <time>2018-10-10T13:39:47Z</time>
      </trkpt>
      <trkpt lat="42.26496768" lon="-8.64047552">
        <ele>394.7200012207031</ele>
        <time>2018-10-10T13:39:48Z</time>
      </trkpt>
      <trkpt lat="42.26498048" lon="-8.64055936">
        <ele>394.7200012207031</ele>
        <time>2018-10-10T13:39:49Z</time>
      </trkpt>
      <trkpt lat="42.2650368" lon="-8.64062208">
        <ele>394.7200012207031</ele>
        <time>2018-10-10T13:39:50Z</time>
      </trkpt>
      <trkpt lat="42.26504448" lon="-8.64067456">
        <ele>394.7200012207031</ele>
        <time>2018-10-10T13:39:51Z</time>
      </trkpt>
      <trkpt lat="42.26501888" lon="-8.64074688">
        <ele>394.7200012207031</ele>
        <time>2018-10-10T13:39:53Z</time>
      </trkpt>
      <trkpt lat="42.26496768" lon="-8.64076928">
        <ele>394.7200012207031</ele>
        <time>2018-10-10T13:39:55Z</time>
      </trkpt>
      <trkpt lat="42.2649088" lon="-8.64072064">
        <ele>394.7200012207031</ele>
        <time>2018-10-10T13:39:58Z</time>
      </trkpt>
      <trkpt lat="42.26487296" lon="-8.64065856">
        <ele>394.7200012207031</ele>
        <time>2018-10-10T13:40:00Z</time>
      </trkpt>
      <trkpt lat="42.264832" lon="-8.64058944">
        <ele>394.7200012207031</ele>
        <time>2018-10-10T13:40:02Z</time>
      </trkpt>
      <trkpt lat="42.26478848" lon="-8.64051328">
        <ele>394.7200012207031</ele>
        <time>2018-10-10T13:40:04Z</time>
      </trkpt>
      <trkpt lat="42.26474752" lon="-8.64043328">
        <ele>394.7200012207031</ele>
        <time>2018-10-10T13:40:06Z</time>
      </trkpt>
      <trkpt lat="42.26471424" lon="-8.6403552">
        <ele>394.7200012207031</ele>
        <time>2018-10-10T13:40:08Z</time>
      </trkpt>
      <trkpt lat="42.26467584" lon="-8.64027968">
        <ele>394.7200012207031</ele>
        <time>2018-10-10T13:40:10Z</time>
      </trkpt>
      <trkpt lat="42.26463744" lon="-8.64020736">
        <ele>394.7200012207031</ele>
        <time>2018-10-10T13:40:12Z</time>
      </trkpt>
      <trkpt lat="42.2646016" lon="-8.64012608">
        <ele>394.7200012207031</ele>
        <time>2018-10-10T13:40:14Z</time>
      </trkpt>
      <trkpt lat="42.26457088" lon="-8.64004928">
        <ele>394.7200012207031</ele>
        <time>2018-10-10T13:40:16Z</time>
      </trkpt>
      <trkpt lat="42.2645376" lon="-8.63996864">
        <ele>394.7200012207031</ele>
        <time>2018-10-10T13:40:18Z</time>
      </trkpt>
      <trkpt lat="42.26450688" lon="-8.63988864">
        <ele>394.7200012207031</ele>
        <time>2018-10-10T13:40:20Z</time>
      </trkpt>
      <trkpt lat="42.2644736" lon="-8.63980864">
        <ele>394.7200012207031</ele>
        <time>2018-10-10T13:40:22Z</time>
      </trkpt>
      <trkpt lat="42.26443776" lon="-8.6397248">
        <ele>393.45001220703125</ele>
        <time>2018-10-10T13:40:24Z</time>
      </trkpt>
      <trkpt lat="42.264384" lon="-8.639664">
        <ele>393.45001220703125</ele>
        <time>2018-10-10T13:40:26Z</time>
      </trkpt>
      <trkpt lat="42.26432" lon="-8.63963904">
        <ele>393.45001220703125</ele>
        <time>2018-10-10T13:40:28Z</time>
      </trkpt>
      <trkpt lat="42.26424832" lon="-8.63964672">
        <ele>393.45001220703125</ele>
        <time>2018-10-10T13:40:30Z</time>
      </trkpt>
      <trkpt lat="42.2641792" lon="-8.63967616">
        <ele>393.45001220703125</ele>
        <time>2018-10-10T13:40:32Z</time>
      </trkpt>
      <trkpt lat="42.2641152" lon="-8.63971712">
        <ele>393.45001220703125</ele>
        <time>2018-10-10T13:40:34Z</time>
      </trkpt>
      <trkpt lat="42.26404608" lon="-8.63977344">
        <ele>393.45001220703125</ele>
        <time>2018-10-10T13:40:36Z</time>
      </trkpt>
      <trkpt lat="42.2639744" lon="-8.63984128">
        <ele>393.45001220703125</ele>
        <time>2018-10-10T13:40:38Z</time>
      </trkpt>
      <trkpt lat="42.26391296" lon="-8.63991232">
        <ele>393.45001220703125</ele>
        <time>2018-10-10T13:40:40Z</time>
      </trkpt>
      <trkpt lat="42.26383616" lon="-8.6399872">
        <ele>392.2699890136719</ele>
        <time>2018-10-10T13:40:42Z</time>
      </trkpt>
      <trkpt lat="42.2637952" lon="-8.64001664">
        <ele>392.2699890136719</ele>
        <time>2018-10-10T13:40:43Z</time>
      </trkpt>
      <trkpt lat="42.2637184" lon="-8.64006912">
        <ele>392.2699890136719</ele>
        <time>2018-10-10T13:40:45Z</time>
      </trkpt>
      <trkpt lat="42.2636416" lon="-8.64011648">
        <ele>392.2699890136719</ele>
        <time>2018-10-10T13:40:47Z</time>
      </trkpt>
      <trkpt lat="42.26356992" lon="-8.64016448">
        <ele>391.0899963378906</ele>
        <time>2018-10-10T13:40:49Z</time>
      </trkpt>
      <trkpt lat="42.26349568" lon="-8.64020736">
        <ele>391.0899963378906</ele>
        <time>2018-10-10T13:40:51Z</time>
      </trkpt>
      <trkpt lat="42.26342656" lon="-8.64024896">
        <ele>389.9100036621094</ele>
        <time>2018-10-10T13:40:53Z</time>
      </trkpt>
      <trkpt lat="42.26336" lon="-8.64029056">
        <ele>388.6300048828125</ele>
        <time>2018-10-10T13:40:55Z</time>
      </trkpt>
      <trkpt lat="42.26329088" lon="-8.64033216">
        <ele>388.6300048828125</ele>
        <time>2018-10-10T13:40:57Z</time>
      </trkpt>
      <trkpt lat="42.2632192" lon="-8.64037504">
        <ele>387.17999267578125</ele>
        <time>2018-10-10T13:40:59Z</time>
      </trkpt>
      <trkpt lat="42.26314496" lon="-8.64042304">
        <ele>385.8999938964844</ele>
        <time>2018-10-10T13:41:01Z</time>
      </trkpt>
      <trkpt lat="42.26307328" lon="-8.64047424">
        <ele>385.8999938964844</ele>
        <time>2018-10-10T13:41:03Z</time>
      </trkpt>
      <trkpt lat="42.26300416" lon="-8.64054208">
        <ele>384.2699890136719</ele>
        <time>2018-10-10T13:41:05Z</time>
      </trkpt>
      <trkpt lat="42.26294016" lon="-8.64061952">
        <ele>384.2699890136719</ele>
        <time>2018-10-10T13:41:07Z</time>
      </trkpt>
      <trkpt lat="42.26289408" lon="-8.64070144">
        <ele>382.6300048828125</ele>
        <time>2018-10-10T13:41:09Z</time>
      </trkpt>
      <trkpt lat="42.26285056" lon="-8.64079104">
        <ele>381.17999267578125</ele>
        <time>2018-10-10T13:41:11Z</time>
      </trkpt>
      <trkpt lat="42.26281728" lon="-8.64087936">
        <ele>381.17999267578125</ele>
        <time>2018-10-10T13:41:13Z</time>
      </trkpt>
      <trkpt lat="42.262784" lon="-8.6409568">
        <ele>379.5400085449219</ele>
        <time>2018-10-10T13:41:15Z</time>
      </trkpt>
      <trkpt lat="42.26275328" lon="-8.64103104">
        <ele>378.17999267578125</ele>
        <time>2018-10-10T13:41:17Z</time>
      </trkpt>
      <trkpt lat="42.2627072" lon="-8.6411296">
        <ele>378.17999267578125</ele>
        <time>2018-10-10T13:41:19Z</time>
      </trkpt>
      <trkpt lat="42.26265344" lon="-8.6412384">
        <ele>376.7200012207031</ele>
        <time>2018-10-10T13:41:21Z</time>
      </trkpt>
      <trkpt lat="42.26262272" lon="-8.64129088">
        <ele>375.2699890136719</ele>
        <time>2018-10-10T13:41:22Z</time>
      </trkpt>
      <trkpt lat="42.26255872" lon="-8.64138688">
        <ele>375.2699890136719</ele>
        <time>2018-10-10T13:41:24Z</time>
      </trkpt>
      <trkpt lat="42.26249984" lon="-8.64147648">
        <ele>375.2699890136719</ele>
        <time>2018-10-10T13:41:26Z</time>
      </trkpt>
      <trkpt lat="42.26245888" lon="-8.64155456">
        <ele>373.8999938964844</ele>
        <time>2018-10-10T13:41:28Z</time>
      </trkpt>
      <trkpt lat="42.2624128" lon="-8.64162432">
        <ele>373.8999938964844</ele>
        <time>2018-10-10T13:41:30Z</time>
      </trkpt>
      <trkpt lat="42.26236672" lon="-8.64167808">
        <ele>373.8999938964844</ele>
        <time>2018-10-10T13:41:32Z</time>
      </trkpt>
      <trkpt lat="42.26232064" lon="-8.64171392">
        <ele>373.8999938964844</ele>
        <time>2018-10-10T13:41:34Z</time>
      </trkpt>
      <trkpt lat="42.26227456" lon="-8.6417472">
        <ele>373.8999938964844</ele>
        <time>2018-10-10T13:41:36Z</time>
      </trkpt>
      <trkpt lat="42.26222336" lon="-8.64178176">
        <ele>375.17999267578125</ele>
        <time>2018-10-10T13:41:38Z</time>
      </trkpt>
      <trkpt lat="42.2621568" lon="-8.64180672">
        <ele>375.17999267578125</ele>
        <time>2018-10-10T13:41:40Z</time>
      </trkpt>
      <trkpt lat="42.26207232" lon="-8.64182848">
        <ele>375.17999267578125</ele>
        <time>2018-10-10T13:41:42Z</time>
      </trkpt>
      <trkpt lat="42.26199808" lon="-8.64186304">
        <ele>375.17999267578125</ele>
        <time>2018-10-10T13:41:44Z</time>
      </trkpt>
      <trkpt lat="42.26194432" lon="-8.64190592">
        <ele>375.17999267578125</ele>
        <time>2018-10-10T13:41:46Z</time>
      </trkpt>
      <trkpt lat="42.26189824" lon="-8.6419584">
        <ele>375.17999267578125</ele>
        <time>2018-10-10T13:41:48Z</time>
      </trkpt>
      <trkpt lat="42.26186752" lon="-8.64200576">
        <ele>375.17999267578125</ele>
        <time>2018-10-10T13:41:50Z</time>
      </trkpt>
      <trkpt lat="42.2618368" lon="-8.64205248">
        <ele>375.17999267578125</ele>
        <time>2018-10-10T13:41:53Z</time>
      </trkpt>
      <trkpt lat="42.26179584" lon="-8.64210496">
        <ele>376.45001220703125</ele>
        <time>2018-10-10T13:41:57Z</time>
      </trkpt>
      <trkpt lat="42.26176512" lon="-8.64215936">
        <ele>378.3599853515625</ele>
        <time>2018-10-10T13:42:01Z</time>
      </trkpt>
      <trkpt lat="42.26172672" lon="-8.642208">
        <ele>381.2699890136719</ele>
        <time>2018-10-10T13:42:05Z</time>
      </trkpt>
      <trkpt lat="42.261696" lon="-8.64227264">
        <ele>381.2699890136719</ele>
        <time>2018-10-10T13:42:09Z</time>
      </trkpt>
      <trkpt lat="42.26166528" lon="-8.64233792">
        <ele>382.45001220703125</ele>
        <time>2018-10-10T13:42:13Z</time>
      </trkpt>
      <trkpt lat="42.26163456" lon="-8.64241152">
        <ele>382.45001220703125</ele>
        <time>2018-10-10T13:42:17Z</time>
      </trkpt>
      <trkpt lat="42.26161152" lon="-8.64248256">
        <ele>382.45001220703125</ele>
        <time>2018-10-10T13:42:21Z</time>
      </trkpt>
      <trkpt lat="42.26158848" lon="-8.64255424">
        <ele>383.6300048828125</ele>
        <time>2018-10-10T13:42:25Z</time>
      </trkpt>
      <trkpt lat="42.26156544" lon="-8.64261696">
        <ele>383.6300048828125</ele>
        <time>2018-10-10T13:42:29Z</time>
      </trkpt>
      <trkpt lat="42.26153472" lon="-8.64267712">
        <ele>384.80999755859375</ele>
        <time>2018-10-10T13:42:33Z</time>
      </trkpt>
      <trkpt lat="42.26150912" lon="-8.64272512">
        <ele>384.80999755859375</ele>
        <time>2018-10-10T13:42:36Z</time>
      </trkpt>
      <trkpt lat="42.26147584" lon="-8.64278208">
        <ele>384.80999755859375</ele>
        <time>2018-10-10T13:42:40Z</time>
      </trkpt>
      <trkpt lat="42.26144" lon="-8.64283968">
        <ele>386.0899963378906</ele>
        <time>2018-10-10T13:42:44Z</time>
      </trkpt>
      <trkpt lat="42.26140928" lon="-8.64289216">
        <ele>386.0899963378906</ele>
        <time>2018-10-10T13:42:47Z</time>
      </trkpt>
      <trkpt lat="42.26137088" lon="-8.64296064">
        <ele>387.2699890136719</ele>
        <time>2018-10-10T13:42:51Z</time>
      </trkpt>
      <trkpt lat="42.26134016" lon="-8.64302528">
        <ele>387.2699890136719</ele>
        <time>2018-10-10T13:42:55Z</time>
      </trkpt>
      <trkpt lat="42.26130944" lon="-8.64308544">
        <ele>388.5400085449219</ele>
        <time>2018-10-10T13:42:59Z</time>
      </trkpt>
      <trkpt lat="42.26126848" lon="-8.64316352">
        <ele>388.5400085449219</ele>
        <time>2018-10-10T13:43:03Z</time>
      </trkpt>
      <trkpt lat="42.2612352" lon="-8.64322496">
        <ele>388.5400085449219</ele>
        <time>2018-10-10T13:43:07Z</time>
      </trkpt>
      <trkpt lat="42.26119936" lon="-8.64329792">
        <ele>389.7200012207031</ele>
        <time>2018-10-10T13:43:11Z</time>
      </trkpt>
      <trkpt lat="42.26116608" lon="-8.64337088">
        <ele>389.7200012207031</ele>
        <time>2018-10-10T13:43:15Z</time>
      </trkpt>
      <trkpt lat="42.26114304" lon="-8.64342592">
        <ele>390.9100036621094</ele>
        <time>2018-10-10T13:43:18Z</time>
      </trkpt>
      <trkpt lat="42.26111232" lon="-8.64348672">
        <ele>390.9100036621094</ele>
        <time>2018-10-10T13:43:21Z</time>
      </trkpt>
      <trkpt lat="42.26108672" lon="-8.64355648">
        <ele>392.17999267578125</ele>
        <time>2018-10-10T13:43:24Z</time>
      </trkpt>
      <trkpt lat="42.26105856" lon="-8.64362304">
        <ele>392.17999267578125</ele>
        <time>2018-10-10T13:43:27Z</time>
      </trkpt>
      <trkpt lat="42.26103296" lon="-8.64368832">
        <ele>392.17999267578125</ele>
        <time>2018-10-10T13:43:30Z</time>
      </trkpt>
      <trkpt lat="42.26102528" lon="-8.64375488">
        <ele>393.6300048828125</ele>
        <time>2018-10-10T13:43:33Z</time>
      </trkpt>
      <trkpt lat="42.26102528" lon="-8.6438176">
        <ele>395.0</ele>
        <time>2018-10-10T13:43:36Z</time>
      </trkpt>
      <trkpt lat="42.26102016" lon="-8.64389824">
        <ele>396.2699890136719</ele>
        <time>2018-10-10T13:43:40Z</time>
      </trkpt>
      <trkpt lat="42.26103296" lon="-8.6439712">
        <ele>397.45001220703125</ele>
        <time>2018-10-10T13:43:44Z</time>
      </trkpt>
      <trkpt lat="42.26104064" lon="-8.64404416">
        <ele>397.45001220703125</ele>
        <time>2018-10-10T13:43:48Z</time>
      </trkpt>
      <trkpt lat="42.26104832" lon="-8.6441184">
        <ele>398.6300048828125</ele>
        <time>2018-10-10T13:43:52Z</time>
      </trkpt>
      <trkpt lat="42.261056" lon="-8.64419072">
        <ele>398.6300048828125</ele>
        <time>2018-10-10T13:43:56Z</time>
      </trkpt>
      <trkpt lat="42.26106368" lon="-8.64426048">
        <ele>399.80999755859375</ele>
        <time>2018-10-10T13:44:00Z</time>
      </trkpt>
      <trkpt lat="42.26107136" lon="-8.64435008">
        <ele>399.80999755859375</ele>
        <time>2018-10-10T13:44:06Z</time>
      </trkpt>
      <trkpt lat="42.26107392" lon="-8.64441408">
        <ele>401.0899963378906</ele>
        <time>2018-10-10T13:44:10Z</time>
      </trkpt>
      <trkpt lat="42.2610816" lon="-8.64447424">
        <ele>401.0899963378906</ele>
        <time>2018-10-10T13:44:14Z</time>
      </trkpt>
      <trkpt lat="42.26108928" lon="-8.64454144">
        <ele>402.3599853515625</ele>
        <time>2018-10-10T13:44:18Z</time>
      </trkpt>
      <trkpt lat="42.26109696" lon="-8.644624">
        <ele>402.3599853515625</ele>
        <time>2018-10-10T13:44:23Z</time>
      </trkpt>
      <trkpt lat="42.26111232" lon="-8.64468736">
        <ele>402.3599853515625</ele>
        <time>2018-10-10T13:44:27Z</time>
      </trkpt>
      <trkpt lat="42.2611584" lon="-8.64474304">
        <ele>403.5400085449219</ele>
        <time>2018-10-10T13:44:31Z</time>
      </trkpt>
      <trkpt lat="42.26118912" lon="-8.64478592">
        <ele>403.5400085449219</ele>
        <time>2018-10-10T13:44:34Z</time>
      </trkpt>
      <trkpt lat="42.2612224" lon="-8.6448384">
        <ele>403.5400085449219</ele>
        <time>2018-10-10T13:44:38Z</time>
      </trkpt>
      <trkpt lat="42.26125824" lon="-8.6448896">
        <ele>404.80999755859375</ele>
        <time>2018-10-10T13:44:42Z</time>
      </trkpt>
      <trkpt lat="42.26130176" lon="-8.64494016">
        <ele>404.80999755859375</ele>
        <time>2018-10-10T13:44:47Z</time>
      </trkpt>
      <trkpt lat="42.26134784" lon="-8.64499776">
        <ele>406.0899963378906</ele>
        <time>2018-10-10T13:44:52Z</time>
      </trkpt>
      <trkpt lat="42.26139904" lon="-8.64504704">
        <ele>406.0899963378906</ele>
        <time>2018-10-10T13:44:56Z</time>
      </trkpt>
      <trkpt lat="42.26143232" lon="-8.64508416">
        <ele>406.0899963378906</ele>
        <time>2018-10-10T13:44:59Z</time>
      </trkpt>
      <trkpt lat="42.2614784" lon="-8.645152">
        <ele>407.3599853515625</ele>
        <time>2018-10-10T13:45:03Z</time>
      </trkpt>
      <trkpt lat="42.26150144" lon="-8.64521024">
        <ele>408.5400085449219</ele>
        <time>2018-10-10T13:45:06Z</time>
      </trkpt>
      <trkpt lat="42.2615168" lon="-8.64529024">
        <ele>408.5400085449219</ele>
        <time>2018-10-10T13:45:10Z</time>
      </trkpt>
      <trkpt lat="42.2615168" lon="-8.64535744">
        <ele>409.80999755859375</ele>
        <time>2018-10-10T13:45:13Z</time>
      </trkpt>
      <trkpt lat="42.26148864" lon="-8.64543936">
        <ele>409.80999755859375</ele>
        <time>2018-10-10T13:45:17Z</time>
      </trkpt>
      <trkpt lat="42.26146304" lon="-8.64549952">
        <ele>411.17999267578125</ele>
        <time>2018-10-10T13:45:20Z</time>
      </trkpt>
      <trkpt lat="42.26142208" lon="-8.6455648">
        <ele>411.17999267578125</ele>
        <time>2018-10-10T13:45:24Z</time>
      </trkpt>
      <trkpt lat="42.261376" lon="-8.64560128">
        <ele>412.6300048828125</ele>
        <time>2018-10-10T13:45:27Z</time>
      </trkpt>
      <trkpt lat="42.2613376" lon="-8.64563456">
        <ele>413.80999755859375</ele>
        <time>2018-10-10T13:45:30Z</time>
      </trkpt>
      <trkpt lat="42.26129152" lon="-8.64566336">
        <ele>413.80999755859375</ele>
        <time>2018-10-10T13:45:34Z</time>
      </trkpt>
      <trkpt lat="42.2612352" lon="-8.64568832">
        <ele>413.80999755859375</ele>
        <time>2018-10-10T13:45:38Z</time>
      </trkpt>
      <trkpt lat="42.261184" lon="-8.64571392">
        <ele>415.0899963378906</ele>
        <time>2018-10-10T13:45:42Z</time>
      </trkpt>
      <trkpt lat="42.26113792" lon="-8.64574592">
        <ele>415.0899963378906</ele>
        <time>2018-10-10T13:45:46Z</time>
      </trkpt>
      <trkpt lat="42.26108928" lon="-8.6457824">
        <ele>416.2699890136719</ele>
        <time>2018-10-10T13:45:50Z</time>
      </trkpt>
      <trkpt lat="42.26103552" lon="-8.64581376">
        <ele>416.2699890136719</ele>
        <time>2018-10-10T13:45:54Z</time>
      </trkpt>
      <trkpt lat="42.26098688" lon="-8.64583808">
        <ele>417.45001220703125</ele>
        <time>2018-10-10T13:45:58Z</time>
      </trkpt>
      <trkpt lat="42.26093312" lon="-8.645856">
        <ele>417.45001220703125</ele>
        <time>2018-10-10T13:46:02Z</time>
      </trkpt>
      <trkpt lat="42.26088704" lon="-8.6458752">
        <ele>417.45001220703125</ele>
        <time>2018-10-10T13:46:06Z</time>
      </trkpt>
      <trkpt lat="42.26083072" lon="-8.64589568">
        <ele>417.45001220703125</ele>
        <time>2018-10-10T13:46:10Z</time>
      </trkpt>
      <trkpt lat="42.26077696" lon="-8.64591616">
        <ele>418.6300048828125</ele>
        <time>2018-10-10T13:46:14Z</time>
      </trkpt>
      <trkpt lat="42.2607232" lon="-8.64593728">
        <ele>418.6300048828125</ele>
        <time>2018-10-10T13:46:18Z</time>
      </trkpt>
      <trkpt lat="42.26066944" lon="-8.6459552">
        <ele>418.6300048828125</ele>
        <time>2018-10-10T13:46:22Z</time>
      </trkpt>
      <trkpt lat="42.2606208" lon="-8.64597312">
        <ele>418.6300048828125</ele>
        <time>2018-10-10T13:46:26Z</time>
      </trkpt>
      <trkpt lat="42.2605696" lon="-8.6459904">
        <ele>419.80999755859375</ele>
        <time>2018-10-10T13:46:30Z</time>
      </trkpt>
      <trkpt lat="42.2605184" lon="-8.64601152">
        <ele>419.80999755859375</ele>
        <time>2018-10-10T13:46:34Z</time>
      </trkpt>
      <trkpt lat="42.26047232" lon="-8.64603072">
        <ele>419.80999755859375</ele>
        <time>2018-10-10T13:46:37Z</time>
      </trkpt>
      <trkpt lat="42.2604032" lon="-8.64605504">
        <ele>421.0</ele>
        <time>2018-10-10T13:46:41Z</time>
      </trkpt>
      <trkpt lat="42.26034944" lon="-8.64604544">
        <ele>421.0</ele>
        <time>2018-10-10T13:46:44Z</time>
      </trkpt>
      <trkpt lat="42.260288" lon="-8.6460448">
        <ele>421.0</ele>
        <time>2018-10-10T13:46:47Z</time>
      </trkpt>
      <trkpt lat="42.26022656" lon="-8.6460544">
        <ele>422.2699890136719</ele>
        <time>2018-10-10T13:46:50Z</time>
      </trkpt>
      <trkpt lat="42.26016512" lon="-8.64607232">
        <ele>422.2699890136719</ele>
        <time>2018-10-10T13:46:53Z</time>
      </trkpt>
      <trkpt lat="42.26010112" lon="-8.64612416">
        <ele>422.2699890136719</ele>
        <time>2018-10-10T13:46:56Z</time>
      </trkpt>
      <trkpt lat="42.26004736" lon="-8.64618752">
        <ele>423.45001220703125</ele>
        <time>2018-10-10T13:46:59Z</time>
      </trkpt>
      <trkpt lat="42.2600064" lon="-8.6462592">
        <ele>423.45001220703125</ele>
        <time>2018-10-10T13:47:02Z</time>
      </trkpt>
      <trkpt lat="42.25997056" lon="-8.64633472">
        <ele>424.6300048828125</ele>
        <time>2018-10-10T13:47:05Z</time>
      </trkpt>
      <trkpt lat="42.25994752" lon="-8.64640832">
        <ele>424.6300048828125</ele>
        <time>2018-10-10T13:47:08Z</time>
      </trkpt>
      <trkpt lat="42.25992192" lon="-8.6464736">
        <ele>424.6300048828125</ele>
        <time>2018-10-10T13:47:11Z</time>
      </trkpt>
      <trkpt lat="42.25989888" lon="-8.64654464">
        <ele>425.80999755859375</ele>
        <time>2018-10-10T13:47:14Z</time>
      </trkpt>
      <trkpt lat="42.25987584" lon="-8.64661504">
        <ele>425.80999755859375</ele>
        <time>2018-10-10T13:47:17Z</time>
      </trkpt>
      <trkpt lat="42.25985792" lon="-8.64667008">
        <ele>427.0</ele>
        <time>2018-10-10T13:47:19Z</time>
      </trkpt>
      <trkpt lat="42.25981952" lon="-8.64675456">
        <ele>427.0</ele>
        <time>2018-10-10T13:47:24Z</time>
      </trkpt>
      <trkpt lat="42.25976064" lon="-8.64681728">
        <ele>427.0</ele>
        <time>2018-10-10T13:47:28Z</time>
      </trkpt>
      <trkpt lat="42.25971712" lon="-8.64686464">
        <ele>428.17999267578125</ele>
        <time>2018-10-10T13:47:31Z</time>
      </trkpt>
      <trkpt lat="42.25966592" lon="-8.6469056">
        <ele>428.17999267578125</ele>
        <time>2018-10-10T13:47:34Z</time>
      </trkpt>
      <trkpt lat="42.25961728" lon="-8.64694784">
        <ele>428.17999267578125</ele>
        <time>2018-10-10T13:47:37Z</time>
      </trkpt>
      <trkpt lat="42.2595712" lon="-8.64700096">
        <ele>428.17999267578125</ele>
        <time>2018-10-10T13:47:40Z</time>
      </trkpt>
      <trkpt lat="42.25952512" lon="-8.6470528">
        <ele>429.3599853515625</ele>
        <time>2018-10-10T13:47:43Z</time>
      </trkpt>
      <trkpt lat="42.25948672" lon="-8.64710016">
        <ele>429.3599853515625</ele>
        <time>2018-10-10T13:47:46Z</time>
      </trkpt>
      <trkpt lat="42.259456" lon="-8.64716032">
        <ele>429.3599853515625</ele>
        <time>2018-10-10T13:47:49Z</time>
      </trkpt>
      <trkpt lat="42.25942528" lon="-8.64722176">
        <ele>429.3599853515625</ele>
        <time>2018-10-10T13:47:52Z</time>
      </trkpt>
      <trkpt lat="42.25939456" lon="-8.64727488">
        <ele>429.3599853515625</ele>
        <time>2018-10-10T13:47:55Z</time>
      </trkpt>
      <trkpt lat="42.2593536" lon="-8.64734528">
        <ele>429.3599853515625</ele>
        <time>2018-10-10T13:47:59Z</time>
      </trkpt>
      <trkpt lat="42.25932032" lon="-8.64740352">
        <ele>429.3599853515625</ele>
        <time>2018-10-10T13:48:02Z</time>
      </trkpt>
      <trkpt lat="42.25928448" lon="-8.64746496">
        <ele>429.3599853515625</ele>
        <time>2018-10-10T13:48:05Z</time>
      </trkpt>
      <trkpt lat="42.25925376" lon="-8.64753024">
        <ele>429.3599853515625</ele>
        <time>2018-10-10T13:48:08Z</time>
      </trkpt>
      <trkpt lat="42.25922816" lon="-8.64759424">
        <ele>430.5400085449219</ele>
        <time>2018-10-10T13:48:11Z</time>
      </trkpt>
      <trkpt lat="42.2592" lon="-8.6476576">
        <ele>430.5400085449219</ele>
        <time>2018-10-10T13:48:14Z</time>
      </trkpt>
      <trkpt lat="42.25916416" lon="-8.64773632">
        <ele>430.5400085449219</ele>
        <time>2018-10-10T13:48:18Z</time>
      </trkpt>
      <trkpt lat="42.25913344" lon="-8.64779264">
        <ele>431.7200012207031</ele>
        <time>2018-10-10T13:48:21Z</time>
      </trkpt>
      <trkpt lat="42.25909504" lon="-8.64785024">
        <ele>431.7200012207031</ele>
        <time>2018-10-10T13:48:24Z</time>
      </trkpt>
      <trkpt lat="42.25904128" lon="-8.64790656">
        <ele>431.7200012207031</ele>
        <time>2018-10-10T13:48:27Z</time>
      </trkpt>
      <trkpt lat="42.2589952" lon="-8.64794176">
        <ele>431.7200012207031</ele>
        <time>2018-10-10T13:48:29Z</time>
      </trkpt>
      <trkpt lat="42.2589568" lon="-8.6479776">
        <ele>432.9100036621094</ele>
        <time>2018-10-10T13:48:31Z</time>
      </trkpt>
      <trkpt lat="42.25889536" lon="-8.64803008">
        <ele>431.7200012207031</ele>
        <time>2018-10-10T13:48:34Z</time>
      </trkpt>
      <trkpt lat="42.2588416" lon="-8.64807872">
        <ele>431.7200012207031</ele>
        <time>2018-10-10T13:48:37Z</time>
      </trkpt>
      <trkpt lat="42.25879552" lon="-8.64811904">
        <ele>431.7200012207031</ele>
        <time>2018-10-10T13:48:40Z</time>
      </trkpt>
      <trkpt lat="42.25874688" lon="-8.64815808">
        <ele>431.7200012207031</ele>
        <time>2018-10-10T13:48:43Z</time>
      </trkpt>
      <trkpt lat="42.2587008" lon="-8.64819648">
        <ele>431.7200012207031</ele>
        <time>2018-10-10T13:48:46Z</time>
      </trkpt>
      <trkpt lat="42.25865472" lon="-8.64823616">
        <ele>433.0899963378906</ele>
        <time>2018-10-10T13:48:49Z</time>
      </trkpt>
      <trkpt lat="42.25861376" lon="-8.64827136">
        <ele>434.45001220703125</ele>
        <time>2018-10-10T13:48:52Z</time>
      </trkpt>
      <trkpt lat="42.2585728" lon="-8.64830848">
        <ele>434.45001220703125</ele>
        <time>2018-10-10T13:48:55Z</time>
      </trkpt>
      <trkpt lat="42.2585216" lon="-8.64836032">
        <ele>435.6300048828125</ele>
        <time>2018-10-10T13:48:59Z</time>
      </trkpt>
      <trkpt lat="42.25848064" lon="-8.64840384">
        <ele>435.6300048828125</ele>
        <time>2018-10-10T13:49:02Z</time>
      </trkpt>
      <trkpt lat="42.25844224" lon="-8.6484736">
        <ele>436.80999755859375</ele>
        <time>2018-10-10T13:49:05Z</time>
      </trkpt>
      <trkpt lat="42.25842176" lon="-8.64852992">
        <ele>436.80999755859375</ele>
        <time>2018-10-10T13:49:07Z</time>
      </trkpt>
      <trkpt lat="42.25838848" lon="-8.64859776">
        <ele>436.80999755859375</ele>
        <time>2018-10-10T13:49:10Z</time>
      </trkpt>
      <trkpt lat="42.25835008" lon="-8.64866048">
        <ele>436.80999755859375</ele>
        <time>2018-10-10T13:49:13Z</time>
      </trkpt>
      <trkpt lat="42.25831168" lon="-8.64872256">
        <ele>436.80999755859375</ele>
        <time>2018-10-10T13:49:16Z</time>
      </trkpt>
      <trkpt lat="42.25827328" lon="-8.64878656">
        <ele>436.80999755859375</ele>
        <time>2018-10-10T13:49:19Z</time>
      </trkpt>
      <trkpt lat="42.25824256" lon="-8.64884928">
        <ele>438.0</ele>
        <time>2018-10-10T13:49:22Z</time>
      </trkpt>
      <trkpt lat="42.25821696" lon="-8.64890752">
        <ele>438.0</ele>
        <time>2018-10-10T13:49:25Z</time>
      </trkpt>
      <trkpt lat="42.25818624" lon="-8.64897472">
        <ele>438.0</ele>
        <time>2018-10-10T13:49:28Z</time>
      </trkpt>
      <trkpt lat="42.25816064" lon="-8.64904192">
        <ele>438.0</ele>
        <time>2018-10-10T13:49:31Z</time>
      </trkpt>
      <trkpt lat="42.25813248" lon="-8.64910784">
        <ele>438.0</ele>
        <time>2018-10-10T13:49:34Z</time>
      </trkpt>
      <trkpt lat="42.25810944" lon="-8.64918336">
        <ele>439.17999267578125</ele>
        <time>2018-10-10T13:49:37Z</time>
      </trkpt>
      <trkpt lat="42.25809152" lon="-8.6492576">
        <ele>439.17999267578125</ele>
        <time>2018-10-10T13:49:40Z</time>
      </trkpt>
      <trkpt lat="42.25807104" lon="-8.64933504">
        <ele>439.17999267578125</ele>
        <time>2018-10-10T13:49:43Z</time>
      </trkpt>
      <trkpt lat="42.25805568" lon="-8.64941056">
        <ele>439.17999267578125</ele>
        <time>2018-10-10T13:49:46Z</time>
      </trkpt>
      <trkpt lat="42.2580608" lon="-8.64947712">
        <ele>439.17999267578125</ele>
        <time>2018-10-10T13:49:49Z</time>
      </trkpt>
      <trkpt lat="42.25801472" lon="-8.64952192">
        <ele>439.17999267578125</ele>
        <time>2018-10-10T13:49:52Z</time>
      </trkpt>
      <trkpt lat="42.2579584" lon="-8.64953984">
        <ele>440.3599853515625</ele>
        <time>2018-10-10T13:49:55Z</time>
      </trkpt>
      <trkpt lat="42.25789952" lon="-8.64953984">
        <ele>440.3599853515625</ele>
        <time>2018-10-10T13:49:58Z</time>
      </trkpt>
      <trkpt lat="42.2578432" lon="-8.64953792">
        <ele>440.3599853515625</ele>
        <time>2018-10-10T13:50:01Z</time>
      </trkpt>
      <trkpt lat="42.25777152" lon="-8.64952448">
        <ele>440.3599853515625</ele>
        <time>2018-10-10T13:50:04Z</time>
      </trkpt>
      <trkpt lat="42.25769728" lon="-8.64950912">
        <ele>440.3599853515625</ele>
        <time>2018-10-10T13:50:07Z</time>
      </trkpt>
      <trkpt lat="42.25764352" lon="-8.64950016">
        <ele>441.5400085449219</ele>
        <time>2018-10-10T13:50:09Z</time>
      </trkpt>
      <trkpt lat="42.25757184" lon="-8.6494944">
        <ele>441.5400085449219</ele>
        <time>2018-10-10T13:50:12Z</time>
      </trkpt>
      <trkpt lat="42.25750016" lon="-8.6494944">
        <ele>440.3599853515625</ele>
        <time>2018-10-10T13:50:15Z</time>
      </trkpt>
      <trkpt lat="42.25742848" lon="-8.64949824">
        <ele>441.6300048828125</ele>
        <time>2018-10-10T13:50:18Z</time>
      </trkpt>
      <trkpt lat="42.2573824" lon="-8.6495008">
        <ele>442.80999755859375</ele>
        <time>2018-10-10T13:50:20Z</time>
      </trkpt>
      <trkpt lat="42.25732096" lon="-8.64950656">
        <ele>442.80999755859375</ele>
        <time>2018-10-10T13:50:23Z</time>
      </trkpt>
      <trkpt lat="42.25726208" lon="-8.64951296">
        <ele>444.0899963378906</ele>
        <time>2018-10-10T13:50:26Z</time>
      </trkpt>
      <trkpt lat="42.25720576" lon="-8.64951616">
        <ele>445.2699890136719</ele>
        <time>2018-10-10T13:50:29Z</time>
      </trkpt>
      <trkpt lat="42.25714944" lon="-8.64951616">
        <ele>445.2699890136719</ele>
        <time>2018-10-10T13:50:32Z</time>
      </trkpt>
      <trkpt lat="42.25709824" lon="-8.64951232">
        <ele>445.2699890136719</ele>
        <time>2018-10-10T13:50:35Z</time>
      </trkpt>
      <trkpt lat="42.25703936" lon="-8.64950464">
        <ele>445.2699890136719</ele>
        <time>2018-10-10T13:50:39Z</time>
      </trkpt>
      <trkpt lat="42.2569856" lon="-8.64949888">
        <ele>445.2699890136719</ele>
        <time>2018-10-10T13:50:42Z</time>
      </trkpt>
      <trkpt lat="42.2569344" lon="-8.64949248">
        <ele>445.2699890136719</ele>
        <time>2018-10-10T13:50:45Z</time>
      </trkpt>
      <trkpt lat="42.25688064" lon="-8.64948672">
        <ele>446.45001220703125</ele>
        <time>2018-10-10T13:50:48Z</time>
      </trkpt>
      <trkpt lat="42.256832" lon="-8.6494816">
        <ele>446.45001220703125</ele>
        <time>2018-10-10T13:50:51Z</time>
      </trkpt>
      <trkpt lat="42.25678336" lon="-8.6494752">
        <ele>446.45001220703125</ele>
        <time>2018-10-10T13:50:54Z</time>
      </trkpt>
      <trkpt lat="42.2567168" lon="-8.6494656">
        <ele>446.45001220703125</ele>
        <time>2018-10-10T13:50:59Z</time>
      </trkpt>
      <trkpt lat="42.25666304" lon="-8.64945728">
        <ele>447.7200012207031</ele>
        <time>2018-10-10T13:51:02Z</time>
      </trkpt>
      <trkpt lat="42.2566144" lon="-8.64944832">
        <ele>447.7200012207031</ele>
        <time>2018-10-10T13:51:05Z</time>
      </trkpt>
      <trkpt lat="42.25654528" lon="-8.64943808">
        <ele>447.7200012207031</ele>
        <time>2018-10-10T13:51:09Z</time>
      </trkpt>
      <trkpt lat="42.25648896" lon="-8.64943232">
        <ele>448.9100036621094</ele>
        <time>2018-10-10T13:51:12Z</time>
      </trkpt>
      <trkpt lat="42.2564352" lon="-8.64942848">
        <ele>448.9100036621094</ele>
        <time>2018-10-10T13:51:15Z</time>
      </trkpt>
      <trkpt lat="42.25637888" lon="-8.64942464">
        <ele>448.9100036621094</ele>
        <time>2018-10-10T13:51:18Z</time>
      </trkpt>
      <trkpt lat="42.25631744" lon="-8.64942272">
        <ele>447.45001220703125</ele>
        <time>2018-10-10T13:51:21Z</time>
      </trkpt>
      <trkpt lat="42.25625344" lon="-8.6494176">
        <ele>447.45001220703125</ele>
        <time>2018-10-10T13:51:24Z</time>
      </trkpt>
      <trkpt lat="42.256192" lon="-8.64941184">
        <time>2018-10-10T13:51:27Z</time>
      </trkpt>
      <trkpt lat="42.25612544" lon="-8.6494048">
        <time>2018-10-10T13:51:30Z</time>
      </trkpt>
      <trkpt lat="42.25606656" lon="-8.64939712">
        <time>2018-10-10T13:51:33Z</time>
      </trkpt>
      <trkpt lat="42.25601536" lon="-8.649392">
        <time>2018-10-10T13:51:35Z</time>
      </trkpt>
      <trkpt lat="42.25595136" lon="-8.6493824">
        <time>2018-10-10T13:51:39Z</time>
      </trkpt>
      <trkpt lat="42.25590016" lon="-8.64937664">
        <time>2018-10-10T13:51:42Z</time>
      </trkpt>
      <trkpt lat="42.25586688" lon="-8.64938624">
        <time>2018-10-10T13:51:46Z</time>
      </trkpt>
      <trkpt lat="42.25581824" lon="-8.64937216">
        <time>2018-10-10T13:52:07Z</time>
      </trkpt>
      <trkpt lat="42.25581824" lon="-8.64937216">
        <time>2018-10-10T13:52:11Z</time>
      </trkpt>
      <trkpt lat="42.25605888" lon="-8.6494048">
        <ele>1.1799999475479126</ele>
        <time>2018-10-10T13:53:29Z</time>
      </trkpt>
      <trkpt lat="42.25605888" lon="-8.6494048">
        <ele>1.1799999475479126</ele>
        <time>2018-10-10T13:53:29Z</time>
      </trkpt>
      <trkpt lat="42.25598208" lon="-8.649392">
        <ele>1.1799999475479126</ele>
        <time>2018-10-10T13:53:30Z</time>
      </trkpt>
      <trkpt lat="42.25595392" lon="-8.64938368">
        <ele>1.1799999475479126</ele>
        <time>2018-10-10T13:53:31Z</time>
      </trkpt>
      <trkpt lat="42.25592832" lon="-8.64937984">
        <ele>1.1799999475479126</ele>
        <time>2018-10-10T13:53:32Z</time>
      </trkpt>
      <trkpt lat="42.25590016" lon="-8.64937856">
        <ele>2.5399999618530273</ele>
        <time>2018-10-10T13:53:33Z</time>
      </trkpt>
      <trkpt lat="42.25587456" lon="-8.6493728">
        <ele>3.809999942779541</ele>
        <time>2018-10-10T13:53:34Z</time>
      </trkpt>
      <trkpt lat="42.25584896" lon="-8.64936192">
        <ele>3.809999942779541</ele>
        <time>2018-10-10T13:53:35Z</time>
      </trkpt>
      <trkpt lat="42.25573376" lon="-8.64936">
        <ele>5.0</ele>
        <time>2018-10-10T13:53:44Z</time>
      </trkpt>
      <trkpt lat="42.25571328" lon="-8.64936512">
        <ele>5.0</ele>
        <time>2018-10-10T13:53:45Z</time>
      </trkpt>
      <trkpt lat="42.2556928" lon="-8.6493728">
        <ele>3.990000009536743</ele>
        <time>2018-10-10T13:53:46Z</time>
      </trkpt>
      <trkpt lat="42.25567744" lon="-8.64938368">
        <ele>3.990000009536743</ele>
        <time>2018-10-10T13:53:47Z</time>
      </trkpt>
      <trkpt lat="42.25566208" lon="-8.64939712">
        <ele>3.990000009536743</ele>
        <time>2018-10-10T13:53:48Z</time>
      </trkpt>
      <trkpt lat="42.25563904" lon="-8.64941056">
        <ele>3.990000009536743</ele>
        <time>2018-10-10T13:53:49Z</time>
      </trkpt>
      <trkpt lat="42.25558016" lon="-8.64945728">
        <ele>3.990000009536743</ele>
        <time>2018-10-10T13:53:52Z</time>
      </trkpt>
      <trkpt lat="42.2555264" lon="-8.6495168">
        <ele>3.990000009536743</ele>
        <time>2018-10-10T13:53:55Z</time>
      </trkpt>
      <trkpt lat="42.2554752" lon="-8.64958208">
        <ele>3.990000009536743</ele>
        <time>2018-10-10T13:53:58Z</time>
      </trkpt>
      <trkpt lat="42.25541632" lon="-8.64963648">
        <ele>7.71999979019165</ele>
        <time>2018-10-10T13:54:01Z</time>
      </trkpt>
      <trkpt lat="42.25536256" lon="-8.64968192">
        <ele>7.71999979019165</ele>
        <time>2018-10-10T13:54:04Z</time>
      </trkpt>
      <trkpt lat="42.25531648" lon="-8.64973184">
        <ele>7.71999979019165</ele>
        <time>2018-10-10T13:54:07Z</time>
      </trkpt>
      <trkpt lat="42.25526784" lon="-8.6497728">
        <ele>7.71999979019165</ele>
        <time>2018-10-10T13:54:10Z</time>
      </trkpt>
      <trkpt lat="42.25521152" lon="-8.64980224">
        <ele>7.71999979019165</ele>
        <time>2018-10-10T13:54:13Z</time>
      </trkpt>
      <trkpt lat="42.25515008" lon="-8.64982976">
        <ele>7.71999979019165</ele>
        <time>2018-10-10T13:54:16Z</time>
      </trkpt>
      <trkpt lat="42.25509376" lon="-8.64985728">
        <ele>7.71999979019165</ele>
        <time>2018-10-10T13:54:19Z</time>
      </trkpt>
      <trkpt lat="42.25504256" lon="-8.64988352">
        <ele>7.71999979019165</ele>
        <time>2018-10-10T13:54:22Z</time>
      </trkpt>
      <trkpt lat="42.25498624" lon="-8.64992256">
        <ele>7.71999979019165</ele>
        <time>2018-10-10T13:54:26Z</time>
      </trkpt>
      <trkpt lat="42.25506304" lon="-8.64989824">
        <ele>7.71999979019165</ele>
        <time>2018-10-10T13:54:37Z</time>
      </trkpt>
      <trkpt lat="42.2551424" lon="-8.64986496">
        <ele>7.71999979019165</ele>
        <time>2018-10-10T13:54:42Z</time>
      </trkpt>
      <trkpt lat="42.25519616" lon="-8.64986432">
        <ele>7.71999979019165</ele>
        <time>2018-10-10T13:54:46Z</time>
      </trkpt>
      <trkpt lat="42.25518336" lon="-8.64982528">
        <ele>6.269999980926514</ele>
        <time>2018-10-10T13:55:01Z</time>
      </trkpt>
      <trkpt lat="42.25511168" lon="-8.6498592">
        <ele>6.269999980926514</ele>
        <time>2018-10-10T13:55:06Z</time>
      </trkpt>
      <trkpt lat="42.25505024" lon="-8.64989376">
        <ele>4.71999979019165</ele>
        <time>2018-10-10T13:55:09Z</time>
      </trkpt>
      <trkpt lat="42.25498624" lon="-8.64994048">
        <ele>4.71999979019165</ele>
        <time>2018-10-10T13:55:12Z</time>
      </trkpt>
      <trkpt lat="42.25493504" lon="-8.6499776">
        <ele>3.180000066757202</ele>
        <time>2018-10-10T13:55:14Z</time>
      </trkpt>
      <trkpt lat="42.25489152" lon="-8.65001472">
        <ele>3.180000066757202</ele>
        <time>2018-10-10T13:55:16Z</time>
      </trkpt>
      <trkpt lat="42.25483264" lon="-8.65005888">
        <ele>1.7200000286102295</ele>
        <time>2018-10-10T13:55:18Z</time>
      </trkpt>
      <trkpt lat="42.25477632" lon="-8.65009472">
        <ele>1.7200000286102295</ele>
        <time>2018-10-10T13:55:20Z</time>
      </trkpt>
      <trkpt lat="42.25472256" lon="-8.65013056">
        <ele>1.7200000286102295</ele>
        <time>2018-10-10T13:55:22Z</time>
      </trkpt>
      <trkpt lat="42.25467392" lon="-8.6501664">
        <ele>0.18000000715255737</ele>
        <time>2018-10-10T13:55:24Z</time>
      </trkpt>
      <trkpt lat="42.25462016" lon="-8.65020864">
        <ele>0.18000000715255737</ele>
        <time>2018-10-10T13:55:26Z</time>
      </trkpt>
      <trkpt lat="42.25456128" lon="-8.65025216">
        <ele>-1.3600000143051147</ele>
        <time>2018-10-10T13:55:28Z</time>
      </trkpt>
      <trkpt lat="42.2545024" lon="-8.65026368">
        <ele>-1.3600000143051147</ele>
        <time>2018-10-10T13:55:30Z</time>
      </trkpt>
      <trkpt lat="42.25443584" lon="-8.65025536">
        <ele>-1.3600000143051147</ele>
        <time>2018-10-10T13:55:32Z</time>
      </trkpt>
      <trkpt lat="42.25437184" lon="-8.65025152">
        <ele>-2.630000114440918</ele>
        <time>2018-10-10T13:55:34Z</time>
      </trkpt>
      <trkpt lat="42.25429248" lon="-8.650256">
        <ele>-2.630000114440918</ele>
        <time>2018-10-10T13:55:36Z</time>
      </trkpt>
      <trkpt lat="42.2541952" lon="-8.65027136">
        <ele>-4.090000152587891</ele>
        <time>2018-10-10T13:55:38Z</time>
      </trkpt>
      <trkpt lat="42.25413888" lon="-8.65027968">
        <ele>-5.360000133514404</ele>
        <time>2018-10-10T13:55:39Z</time>
      </trkpt>
      <trkpt lat="42.25407744" lon="-8.65028864">
        <ele>-5.360000133514404</ele>
        <time>2018-10-10T13:55:40Z</time>
      </trkpt>
      <trkpt lat="42.25398528" lon="-8.65029824">
        <ele>-5.360000133514404</ele>
        <time>2018-10-10T13:55:41Z</time>
      </trkpt>
      <trkpt lat="42.25390592" lon="-8.65030592">
        <ele>-5.360000133514404</ele>
        <time>2018-10-10T13:55:42Z</time>
      </trkpt>
      <trkpt lat="42.25382656" lon="-8.65031168">
        <ele>-6.630000114440918</ele>
        <time>2018-10-10T13:55:43Z</time>
      </trkpt>
      <trkpt lat="42.25375488" lon="-8.65031232">
        <ele>-6.630000114440918</ele>
        <time>2018-10-10T13:55:44Z</time>
      </trkpt>
      <trkpt lat="42.25368832" lon="-8.65030976">
        <ele>-6.630000114440918</ele>
        <time>2018-10-10T13:55:45Z</time>
      </trkpt>
      <trkpt lat="42.25362432" lon="-8.65030848">
        <ele>-6.630000114440918</ele>
        <time>2018-10-10T13:55:46Z</time>
      </trkpt>
      <trkpt lat="42.2535808" lon="-8.65031168">
        <ele>-6.630000114440918</ele>
        <time>2018-10-10T13:55:47Z</time>
      </trkpt>
      <trkpt lat="42.25349376" lon="-8.65038272">
        <ele>-7.809999942779541</ele>
        <time>2018-10-10T13:55:49Z</time>
      </trkpt>
      <trkpt lat="42.2534528" lon="-8.65042752">
        <ele>-7.809999942779541</ele>
        <time>2018-10-10T13:55:50Z</time>
      </trkpt>
      <trkpt lat="42.2534144" lon="-8.65047296">
        <ele>-7.809999942779541</ele>
        <time>2018-10-10T13:55:51Z</time>
      </trkpt>
      <trkpt lat="42.25334528" lon="-8.65054144">
        <ele>-7.809999942779541</ele>
        <time>2018-10-10T13:55:53Z</time>
      </trkpt>
      <trkpt lat="42.2532736" lon="-8.6505696">
        <ele>-7.809999942779541</ele>
        <time>2018-10-10T13:55:55Z</time>
      </trkpt>
      <trkpt lat="42.2531968" lon="-8.6505472">
        <ele>-7.809999942779541</ele>
        <time>2018-10-10T13:55:57Z</time>
      </trkpt>
      <trkpt lat="42.25312" lon="-8.65048704">
        <ele>-7.809999942779541</ele>
        <time>2018-10-10T13:55:59Z</time>
      </trkpt>
      <trkpt lat="42.2530432" lon="-8.65040384">
        <ele>-7.809999942779541</ele>
        <time>2018-10-10T13:56:01Z</time>
      </trkpt>
      <trkpt lat="42.25300224" lon="-8.65035712">
        <ele>-7.809999942779541</ele>
        <time>2018-10-10T13:56:02Z</time>
      </trkpt>
      <trkpt lat="42.25296384" lon="-8.65031424">
        <ele>-7.809999942779541</ele>
        <time>2018-10-10T13:56:03Z</time>
      </trkpt>
      <trkpt lat="42.25292288" lon="-8.65027456">
        <ele>-9.09000015258789</ele>
        <time>2018-10-10T13:56:04Z</time>
      </trkpt>
      <trkpt lat="42.25283072" lon="-8.65020928">
        <ele>-9.09000015258789</ele>
        <time>2018-10-10T13:56:06Z</time>
      </trkpt>
      <trkpt lat="42.25278464" lon="-8.65018304">
        <ele>-9.09000015258789</ele>
        <time>2018-10-10T13:56:07Z</time>
      </trkpt>
      <trkpt lat="42.252736" lon="-8.65015872">
        <ele>-9.09000015258789</ele>
        <time>2018-10-10T13:56:08Z</time>
      </trkpt>
      <trkpt lat="42.25263616" lon="-8.65014912">
        <ele>-9.09000015258789</ele>
        <time>2018-10-10T13:56:10Z</time>
      </trkpt>
      <trkpt lat="42.2525952" lon="-8.65016832">
        <ele>-9.09000015258789</ele>
        <time>2018-10-10T13:56:11Z</time>
      </trkpt>
      <trkpt lat="42.25252608" lon="-8.65024384">
        <ele>-9.09000015258789</ele>
        <time>2018-10-10T13:56:13Z</time>
      </trkpt>
      <trkpt lat="42.25249024" lon="-8.65029248">
        <ele>-9.09000015258789</ele>
        <time>2018-10-10T13:56:14Z</time>
      </trkpt>
      <trkpt lat="42.25241856" lon="-8.65039808">
        <ele>-9.09000015258789</ele>
        <time>2018-10-10T13:56:16Z</time>
      </trkpt>
      <trkpt lat="42.25238528" lon="-8.65045568">
        <ele>-9.09000015258789</ele>
        <time>2018-10-10T13:56:17Z</time>
      </trkpt>
      <trkpt lat="42.25235456" lon="-8.65050816">
        <ele>-9.09000015258789</ele>
        <time>2018-10-10T13:56:18Z</time>
      </trkpt>
      <trkpt lat="42.25227264" lon="-8.65062336">
        <ele>-9.09000015258789</ele>
        <time>2018-10-10T13:56:20Z</time>
      </trkpt>
      <trkpt lat="42.25223168" lon="-8.650672">
        <ele>-9.09000015258789</ele>
        <time>2018-10-10T13:56:21Z</time>
      </trkpt>
      <trkpt lat="42.25218304" lon="-8.65071744">
        <ele>-9.09000015258789</ele>
        <time>2018-10-10T13:56:22Z</time>
      </trkpt>
      <trkpt lat="42.25213184" lon="-8.65075904">
        <ele>-9.09000015258789</ele>
        <time>2018-10-10T13:56:23Z</time>
      </trkpt>
      <trkpt lat="42.2520832" lon="-8.6507872">
        <ele>-9.09000015258789</ele>
        <time>2018-10-10T13:56:24Z</time>
      </trkpt>
      <trkpt lat="42.25202688" lon="-8.65079872">
        <ele>-9.09000015258789</ele>
        <time>2018-10-10T13:56:25Z</time>
      </trkpt>
      <trkpt lat="42.251968" lon="-8.65079104">
        <ele>-9.09000015258789</ele>
        <time>2018-10-10T13:56:26Z</time>
      </trkpt>
      <trkpt lat="42.25191424" lon="-8.6507712">
        <ele>-9.09000015258789</ele>
        <time>2018-10-10T13:56:27Z</time>
      </trkpt>
      <trkpt lat="42.2518656" lon="-8.65073792">
        <ele>-9.09000015258789</ele>
        <time>2018-10-10T13:56:28Z</time>
      </trkpt>
      <trkpt lat="42.25182464" lon="-8.65069312">
        <ele>-9.09000015258789</ele>
        <time>2018-10-10T13:56:29Z</time>
      </trkpt>
      <trkpt lat="42.25178112" lon="-8.65064128">
        <ele>-9.09000015258789</ele>
        <time>2018-10-10T13:56:30Z</time>
      </trkpt>
      <trkpt lat="42.25174016" lon="-8.65058816">
        <ele>-9.09000015258789</ele>
        <time>2018-10-10T13:56:31Z</time>
      </trkpt>
      <trkpt lat="42.25170176" lon="-8.65053376">
        <ele>-9.09000015258789</ele>
        <time>2018-10-10T13:56:32Z</time>
      </trkpt>
      <trkpt lat="42.25165824" lon="-8.65048">
        <ele>-9.09000015258789</ele>
        <time>2018-10-10T13:56:33Z</time>
      </trkpt>
      <trkpt lat="42.25161728" lon="-8.65042688">
        <ele>-9.09000015258789</ele>
        <time>2018-10-10T13:56:34Z</time>
      </trkpt>
      <trkpt lat="42.25157632" lon="-8.6503744">
        <ele>-9.09000015258789</ele>
        <time>2018-10-10T13:56:35Z</time>
      </trkpt>
      <trkpt lat="42.2515328" lon="-8.65032576">
        <ele>-9.09000015258789</ele>
        <time>2018-10-10T13:56:36Z</time>
      </trkpt>
      <trkpt lat="42.25149184" lon="-8.65027648">
        <ele>-9.09000015258789</ele>
        <time>2018-10-10T13:56:37Z</time>
      </trkpt>
      <trkpt lat="42.25145344" lon="-8.650224">
        <ele>-9.09000015258789</ele>
        <time>2018-10-10T13:56:38Z</time>
      </trkpt>
      <trkpt lat="42.25142016" lon="-8.65017152">
        <ele>-9.09000015258789</ele>
        <time>2018-10-10T13:56:39Z</time>
      </trkpt>
      <trkpt lat="42.25138944" lon="-8.65011904">
        <ele>-9.09000015258789</ele>
        <time>2018-10-10T13:56:40Z</time>
      </trkpt>
      <trkpt lat="42.25135872" lon="-8.65006656">
        <ele>-9.09000015258789</ele>
        <time>2018-10-10T13:56:41Z</time>
      </trkpt>
      <trkpt lat="42.25130752" lon="-8.64996224">
        <ele>-9.09000015258789</ele>
        <time>2018-10-10T13:56:43Z</time>
      </trkpt>
      <trkpt lat="42.2512512" lon="-8.64985728">
        <ele>-9.09000015258789</ele>
        <time>2018-10-10T13:56:45Z</time>
      </trkpt>
      <trkpt lat="42.25122816" lon="-8.64980224">
        <ele>-9.09000015258789</ele>
        <time>2018-10-10T13:56:46Z</time>
      </trkpt>
      <trkpt lat="42.2511872" lon="-8.64968704">
        <ele>-7.900000095367432</ele>
        <time>2018-10-10T13:56:48Z</time>
      </trkpt>
      <trkpt lat="42.25115648" lon="-8.64956544">
        <ele>-7.900000095367432</ele>
        <time>2018-10-10T13:56:50Z</time>
      </trkpt>
      <trkpt lat="42.251136" lon="-8.64944448">
        <ele>-7.900000095367432</ele>
        <time>2018-10-10T13:56:52Z</time>
      </trkpt>
      <trkpt lat="42.25112064" lon="-8.6493216">
        <ele>-7.900000095367432</ele>
        <time>2018-10-10T13:56:54Z</time>
      </trkpt>
      <trkpt lat="42.25110528" lon="-8.64919168">
        <ele>-7.900000095367432</ele>
        <time>2018-10-10T13:56:56Z</time>
      </trkpt>
      <trkpt lat="42.2510976" lon="-8.64912576">
        <ele>-7.900000095367432</ele>
        <time>2018-10-10T13:56:57Z</time>
      </trkpt>
      <trkpt lat="42.25108736" lon="-8.64898944">
        <ele>-7.900000095367432</ele>
        <time>2018-10-10T13:56:59Z</time>
      </trkpt>
      <trkpt lat="42.25108224" lon="-8.64892224">
        <ele>-7.900000095367432</ele>
        <time>2018-10-10T13:57:00Z</time>
      </trkpt>
      <trkpt lat="42.25107968" lon="-8.648784">
        <ele>-7.900000095367432</ele>
        <time>2018-10-10T13:57:02Z</time>
      </trkpt>
      <trkpt lat="42.25107968" lon="-8.64864832">
        <ele>-7.900000095367432</ele>
        <time>2018-10-10T13:57:04Z</time>
      </trkpt>
      <trkpt lat="42.25107968" lon="-8.64858368">
        <ele>-7.900000095367432</ele>
        <time>2018-10-10T13:57:05Z</time>
      </trkpt>
      <trkpt lat="42.25108992" lon="-8.6484544">
        <ele>-7.900000095367432</ele>
        <time>2018-10-10T13:57:07Z</time>
      </trkpt>
      <trkpt lat="42.25110528" lon="-8.64833728">
        <ele>-9.359999656677246</ele>
        <time>2018-10-10T13:57:09Z</time>
      </trkpt>
      <trkpt lat="42.25111296" lon="-8.64827712">
        <ele>-9.359999656677246</ele>
        <time>2018-10-10T13:57:10Z</time>
      </trkpt>
      <trkpt lat="42.25112576" lon="-8.6481664">
        <ele>-9.359999656677246</ele>
        <time>2018-10-10T13:57:12Z</time>
      </trkpt>
      <trkpt lat="42.25112832" lon="-8.64805888">
        <ele>-9.359999656677246</ele>
        <time>2018-10-10T13:57:14Z</time>
      </trkpt>
      <trkpt lat="42.25112576" lon="-8.64795968">
        <ele>-10.539999961853027</ele>
        <time>2018-10-10T13:57:16Z</time>
      </trkpt>
      <trkpt lat="42.25111296" lon="-8.64786432">
        <ele>-10.539999961853027</ele>
        <time>2018-10-10T13:57:18Z</time>
      </trkpt>
      <trkpt lat="42.25108992" lon="-8.64777088">
        <ele>-10.539999961853027</ele>
        <time>2018-10-10T13:57:20Z</time>
      </trkpt>
      <trkpt lat="42.25106432" lon="-8.64767552">
        <ele>-10.539999961853027</ele>
        <time>2018-10-10T13:57:22Z</time>
      </trkpt>
      <trkpt lat="42.2510464" lon="-8.64758272">
        <ele>-10.539999961853027</ele>
        <time>2018-10-10T13:57:24Z</time>
      </trkpt>
      <trkpt lat="42.25102592" lon="-8.64748928">
        <ele>-10.539999961853027</ele>
        <time>2018-10-10T13:57:26Z</time>
      </trkpt>
      <trkpt lat="42.25100288" lon="-8.64739136">
        <ele>-11.720000267028809</ele>
        <time>2018-10-10T13:57:28Z</time>
      </trkpt>
      <trkpt lat="42.25097984" lon="-8.64729216">
        <ele>-11.720000267028809</ele>
        <time>2018-10-10T13:57:30Z</time>
      </trkpt>
      <trkpt lat="42.2509568" lon="-8.6471904">
        <ele>-15.630000114440918</ele>
        <time>2018-10-10T13:57:32Z</time>
      </trkpt>
      <trkpt lat="42.25092608" lon="-8.64708736">
        <ele>-15.630000114440918</ele>
        <time>2018-10-10T13:57:34Z</time>
      </trkpt>
      <trkpt lat="42.25090048" lon="-8.64697856">
        <ele>-15.630000114440918</ele>
        <time>2018-10-10T13:57:36Z</time>
      </trkpt>
      <trkpt lat="42.25086976" lon="-8.6468608">
        <ele>-15.630000114440918</ele>
        <time>2018-10-10T13:57:38Z</time>
      </trkpt>
      <trkpt lat="42.25083904" lon="-8.64673408">
        <ele>-15.630000114440918</ele>
        <time>2018-10-10T13:57:40Z</time>
      </trkpt>
      <trkpt lat="42.25082112" lon="-8.64666624">
        <ele>-15.630000114440918</ele>
        <time>2018-10-10T13:57:41Z</time>
      </trkpt>
      <trkpt lat="42.25078528" lon="-8.64652544">
        <ele>-15.630000114440918</ele>
        <time>2018-10-10T13:57:43Z</time>
      </trkpt>
      <trkpt lat="42.25076992" lon="-8.64645312">
        <ele>-15.630000114440918</ele>
        <time>2018-10-10T13:57:44Z</time>
      </trkpt>
      <trkpt lat="42.250752" lon="-8.64638144">
        <ele>-13.630000114440918</ele>
        <time>2018-10-10T13:57:45Z</time>
      </trkpt>
      <trkpt lat="42.25073152" lon="-8.64630976">
        <ele>-13.630000114440918</ele>
        <time>2018-10-10T13:57:46Z</time>
      </trkpt>
      <trkpt lat="42.25071616" lon="-8.64623744">
        <ele>-13.630000114440918</ele>
        <time>2018-10-10T13:57:47Z</time>
      </trkpt>
      <trkpt lat="42.25069824" lon="-8.64616704">
        <ele>-13.630000114440918</ele>
        <time>2018-10-10T13:57:48Z</time>
      </trkpt>
      <trkpt lat="42.25068288" lon="-8.64610176">
        <ele>-13.630000114440918</ele>
        <time>2018-10-10T13:57:49Z</time>
      </trkpt>
      <trkpt lat="42.25066752" lon="-8.6460416">
        <ele>-13.630000114440918</ele>
        <time>2018-10-10T13:57:50Z</time>
      </trkpt>
      <trkpt lat="42.2506368" lon="-8.64594624">
        <ele>-13.630000114440918</ele>
        <time>2018-10-10T13:57:52Z</time>
      </trkpt>
      <trkpt lat="42.2506112" lon="-8.64589568">
        <ele>-15.09000015258789</ele>
        <time>2018-10-10T13:57:54Z</time>
      </trkpt>
      <trkpt lat="42.25058048" lon="-8.6459168">
        <ele>-15.09000015258789</ele>
        <time>2018-10-10T13:58:06Z</time>
      </trkpt>
      <trkpt lat="42.25057536" lon="-8.6458528">
        <ele>-15.09000015258789</ele>
        <time>2018-10-10T13:58:12Z</time>
      </trkpt>
      <trkpt lat="42.25056" lon="-8.64571968">
        <ele>-16.360000610351562</ele>
        <time>2018-10-10T13:58:17Z</time>
      </trkpt>
      <trkpt lat="42.25054976" lon="-8.6456416">
        <ele>-16.360000610351562</ele>
        <time>2018-10-10T13:58:19Z</time>
      </trkpt>
      <trkpt lat="42.25053696" lon="-8.64555648">
        <ele>-16.360000610351562</ele>
        <time>2018-10-10T13:58:21Z</time>
      </trkpt>
      <trkpt lat="42.2505216" lon="-8.64546752">
        <ele>-17.809999465942383</ele>
        <time>2018-10-10T13:58:23Z</time>
      </trkpt>
      <trkpt lat="42.25051136" lon="-8.64537792">
        <ele>-17.809999465942383</ele>
        <time>2018-10-10T13:58:25Z</time>
      </trkpt>
      <trkpt lat="42.250496" lon="-8.64528576">
        <ele>-17.809999465942383</ele>
        <time>2018-10-10T13:58:27Z</time>
      </trkpt>
      <trkpt lat="42.25047808" lon="-8.64519232">
        <ele>-17.809999465942383</ele>
        <time>2018-10-10T13:58:29Z</time>
      </trkpt>
      <trkpt lat="42.25046272" lon="-8.64509312">
        <ele>-19.18000030517578</ele>
        <time>2018-10-10T13:58:31Z</time>
      </trkpt>
      <trkpt lat="42.25044224" lon="-8.64499456">
        <ele>-19.18000030517578</ele>
        <time>2018-10-10T13:58:33Z</time>
      </trkpt>
      <trkpt lat="42.25042688" lon="-8.64490112">
        <ele>-19.18000030517578</ele>
        <time>2018-10-10T13:58:35Z</time>
      </trkpt>
      <trkpt lat="42.25040896" lon="-8.64480384">
        <ele>-20.450000762939453</ele>
        <time>2018-10-10T13:58:37Z</time>
      </trkpt>
      <trkpt lat="42.25038592" lon="-8.64469696">
        <ele>-20.450000762939453</ele>
        <time>2018-10-10T13:58:39Z</time>
      </trkpt>
      <trkpt lat="42.25036288" lon="-8.64459008">
        <ele>-20.450000762939453</ele>
        <time>2018-10-10T13:58:41Z</time>
      </trkpt>
      <trkpt lat="42.25033984" lon="-8.64448384">
        <ele>-20.450000762939453</ele>
        <time>2018-10-10T13:58:43Z</time>
      </trkpt>
      <trkpt lat="42.2503168" lon="-8.64438336">
        <ele>-20.450000762939453</ele>
        <time>2018-10-10T13:58:45Z</time>
      </trkpt>
      <trkpt lat="42.25029376" lon="-8.64428736">
        <ele>-20.450000762939453</ele>
        <time>2018-10-10T13:58:47Z</time>
      </trkpt>
      <trkpt lat="42.25026816" lon="-8.64418304">
        <ele>-20.450000762939453</ele>
        <time>2018-10-10T13:58:49Z</time>
      </trkpt>
      <trkpt lat="42.25024" lon="-8.6440832">
        <ele>-20.450000762939453</ele>
        <time>2018-10-10T13:58:51Z</time>
      </trkpt>
      <trkpt lat="42.2502144" lon="-8.64396672">
        <ele>-21.899999618530273</ele>
        <time>2018-10-10T13:58:53Z</time>
      </trkpt>
      <trkpt lat="42.25017856" lon="-8.64384192">
        <ele>-21.899999618530273</ele>
        <time>2018-10-10T13:58:55Z</time>
      </trkpt>
      <trkpt lat="42.25016064" lon="-8.64377472">
        <ele>-23.360000610351562</ele>
        <time>2018-10-10T13:58:56Z</time>
      </trkpt>
      <trkpt lat="42.25014528" lon="-8.6437056">
        <ele>-23.360000610351562</ele>
        <time>2018-10-10T13:58:57Z</time>
      </trkpt>
      <trkpt lat="42.25012992" lon="-8.64363392">
        <ele>-24.540000915527344</ele>
        <time>2018-10-10T13:58:58Z</time>
      </trkpt>
      <trkpt lat="42.25010688" lon="-8.64355776">
        <ele>-24.540000915527344</ele>
        <time>2018-10-10T13:58:59Z</time>
      </trkpt>
      <trkpt lat="42.25006848" lon="-8.64340096">
        <ele>-24.540000915527344</ele>
        <time>2018-10-10T13:59:01Z</time>
      </trkpt>
      <trkpt lat="42.25005056" lon="-8.64331904">
        <ele>-24.540000915527344</ele>
        <time>2018-10-10T13:59:02Z</time>
      </trkpt>
      <trkpt lat="42.25002752" lon="-8.64323456">
        <ele>-24.540000915527344</ele>
        <time>2018-10-10T13:59:03Z</time>
      </trkpt>
      <trkpt lat="42.24999936" lon="-8.64314816">
        <ele>-24.540000915527344</ele>
        <time>2018-10-10T13:59:04Z</time>
      </trkpt>
      <trkpt lat="42.24997632" lon="-8.64306368">
        <ele>-24.540000915527344</ele>
        <time>2018-10-10T13:59:05Z</time>
      </trkpt>
      <trkpt lat="42.24995328" lon="-8.64297472">
        <ele>-24.540000915527344</ele>
        <time>2018-10-10T13:59:06Z</time>
      </trkpt>
      <trkpt lat="42.24992768" lon="-8.64288704">
        <ele>-24.540000915527344</ele>
        <time>2018-10-10T13:59:07Z</time>
      </trkpt>
      <trkpt lat="42.24990464" lon="-8.64280064">
        <ele>-24.540000915527344</ele>
        <time>2018-10-10T13:59:08Z</time>
      </trkpt>
      <trkpt lat="42.2498816" lon="-8.64271168">
        <ele>-24.540000915527344</ele>
        <time>2018-10-10T13:59:09Z</time>
      </trkpt>
      <trkpt lat="42.24985856" lon="-8.64262272">
        <ele>-24.540000915527344</ele>
        <time>2018-10-10T13:59:10Z</time>
      </trkpt>
      <trkpt lat="42.24983296" lon="-8.64253504">
        <ele>-26.0</ele>
        <time>2018-10-10T13:59:11Z</time>
      </trkpt>
      <trkpt lat="42.24980992" lon="-8.64244736">
        <ele>-26.0</ele>
        <time>2018-10-10T13:59:12Z</time>
      </trkpt>
      <trkpt lat="42.24978688" lon="-8.64235968">
        <ele>-26.0</ele>
        <time>2018-10-10T13:59:13Z</time>
      </trkpt>
      <trkpt lat="42.2497664" lon="-8.642272">
        <ele>-27.719999313354492</ele>
        <time>2018-10-10T13:59:14Z</time>
      </trkpt>
      <trkpt lat="42.24974336" lon="-8.6421888">
        <ele>-29.450000762939453</ele>
        <time>2018-10-10T13:59:15Z</time>
      </trkpt>
      <trkpt lat="42.24972544" lon="-8.64210688">
        <ele>-30.719999313354492</ele>
        <time>2018-10-10T13:59:16Z</time>
      </trkpt>
      <trkpt lat="42.24968704" lon="-8.64194688">
        <ele>-32.18000030517578</ele>
        <time>2018-10-10T13:59:18Z</time>
      </trkpt>
      <trkpt lat="42.24967168" lon="-8.64187648">
        <ele>-33.720001220703125</ele>
        <time>2018-10-10T13:59:19Z</time>
      </trkpt>
      <trkpt lat="42.24965632" lon="-8.64181888">
        <ele>-33.720001220703125</ele>
        <time>2018-10-10T13:59:20Z</time>
      </trkpt>
      <trkpt lat="42.2496384" lon="-8.64174144">
        <ele>-35.09000015258789</ele>
        <time>2018-10-10T13:59:22Z</time>
      </trkpt>
      <trkpt lat="42.24961536" lon="-8.64171392">
        <ele>-35.09000015258789</ele>
        <time>2018-10-10T13:59:25Z</time>
      </trkpt>
      <trkpt lat="42.24957696" lon="-8.64178304">
        <ele>-36.27000045776367</ele>
        <time>2018-10-10T13:59:29Z</time>
      </trkpt>
      <trkpt lat="42.24954624" lon="-8.64190272">
        <ele>-36.27000045776367</ele>
        <time>2018-10-10T13:59:32Z</time>
      </trkpt>
      <trkpt lat="42.24951552" lon="-8.6420192">
        <ele>-37.900001525878906</ele>
        <time>2018-10-10T13:59:34Z</time>
      </trkpt>
      <trkpt lat="42.24950016" lon="-8.64208704">
        <ele>-37.900001525878906</ele>
        <time>2018-10-10T13:59:35Z</time>
      </trkpt>
      <trkpt lat="42.24948224" lon="-8.64215552">
        <ele>-37.900001525878906</ele>
        <time>2018-10-10T13:59:36Z</time>
      </trkpt>
      <trkpt lat="42.24946176" lon="-8.64222272">
        <ele>-39.18000030517578</ele>
        <time>2018-10-10T13:59:37Z</time>
      </trkpt>
      <trkpt lat="42.2494464" lon="-8.64228224">
        <ele>-39.18000030517578</ele>
        <time>2018-10-10T13:59:38Z</time>
      </trkpt>
      <trkpt lat="42.249408" lon="-8.64239424">
        <ele>-40.540000915527344</ele>
        <time>2018-10-10T13:59:40Z</time>
      </trkpt>
      <trkpt lat="42.24937472" lon="-8.642496">
        <ele>-40.540000915527344</ele>
        <time>2018-10-10T13:59:42Z</time>
      </trkpt>
      <trkpt lat="42.24933888" lon="-8.642608">
        <ele>-39.18000030517578</ele>
        <time>2018-10-10T13:59:44Z</time>
      </trkpt>
      <trkpt lat="42.24928256" lon="-8.6427328">
        <ele>-39.18000030517578</ele>
        <time>2018-10-10T13:59:46Z</time>
      </trkpt>
      <trkpt lat="42.2492032" lon="-8.64285184">
        <ele>-39.18000030517578</ele>
        <time>2018-10-10T13:59:48Z</time>
      </trkpt>
      <trkpt lat="42.24915968" lon="-8.64291072">
        <ele>-39.18000030517578</ele>
        <time>2018-10-10T13:59:49Z</time>
      </trkpt>
      <trkpt lat="42.24912384" lon="-8.64296832">
        <ele>-37.900001525878906</ele>
        <time>2018-10-10T13:59:50Z</time>
      </trkpt>
      <trkpt lat="42.249088" lon="-8.64302464">
        <ele>-36.18000030517578</ele>
        <time>2018-10-10T13:59:51Z</time>
      </trkpt>
      <trkpt lat="42.24905728" lon="-8.64307904">
        <ele>-36.18000030517578</ele>
        <time>2018-10-10T13:59:52Z</time>
      </trkpt>
      <trkpt lat="42.24902656" lon="-8.6431296">
        <ele>-34.720001220703125</ele>
        <time>2018-10-10T13:59:53Z</time>
      </trkpt>
      <trkpt lat="42.24896256" lon="-8.64324544">
        <ele>-33.540000915527344</ele>
        <time>2018-10-10T13:59:55Z</time>
      </trkpt>
      <trkpt lat="42.24893696" lon="-8.64331264">
        <ele>-32.36000061035156</ele>
        <time>2018-10-10T13:59:56Z</time>
      </trkpt>
      <trkpt lat="42.2489088" lon="-8.64337664">
        <ele>-32.36000061035156</ele>
        <time>2018-10-10T13:59:57Z</time>
      </trkpt>
      <trkpt lat="42.2488832" lon="-8.64344192">
        <ele>-31.09000015258789</ele>
        <time>2018-10-10T13:59:58Z</time>
      </trkpt>
      <trkpt lat="42.24886016" lon="-8.643504">
        <ele>-31.09000015258789</ele>
        <time>2018-10-10T13:59:59Z</time>
      </trkpt>
      <trkpt lat="42.24883968" lon="-8.64355584">
        <ele>-31.09000015258789</ele>
        <time>2018-10-10T14:00:00Z</time>
      </trkpt>
      <trkpt lat="42.24881664" lon="-8.64361792">
        <ele>-29.899999618530273</ele>
        <time>2018-10-10T14:00:02Z</time>
      </trkpt>
      <trkpt lat="42.2488832" lon="-8.64351872">
        <ele>-29.899999618530273</ele>
        <time>2018-10-10T14:00:18Z</time>
      </trkpt>
      <trkpt lat="42.2489216" lon="-8.64342336">
        <ele>-28.6299991607666</ele>
        <time>2018-10-10T14:00:23Z</time>
      </trkpt>
      <trkpt lat="42.24894208" lon="-8.64335424">
        <ele>-28.6299991607666</ele>
        <time>2018-10-10T14:00:26Z</time>
      </trkpt>
      <trkpt lat="42.2489728" lon="-8.6432832">
        <ele>-28.6299991607666</ele>
        <time>2018-10-10T14:00:29Z</time>
      </trkpt>
      <trkpt lat="42.24900864" lon="-8.64320448">
        <ele>-27.360000610351562</ele>
        <time>2018-10-10T14:00:32Z</time>
      </trkpt>
      <trkpt lat="42.2490496" lon="-8.64313408">
        <ele>-27.360000610351562</ele>
        <time>2018-10-10T14:00:35Z</time>
      </trkpt>
      <trkpt lat="42.24911104" lon="-8.64306368">
        <ele>-26.0</ele>
        <time>2018-10-10T14:00:38Z</time>
      </trkpt>
      <trkpt lat="42.24914432" lon="-8.64301376">
        <ele>-26.0</ele>
        <time>2018-10-10T14:00:40Z</time>
      </trkpt>
      <trkpt lat="42.24918272" lon="-8.64294656">
        <ele>-24.719999313354492</ele>
        <time>2018-10-10T14:00:43Z</time>
      </trkpt>
      <trkpt lat="42.24922624" lon="-8.64287744">
        <ele>-24.719999313354492</ele>
        <time>2018-10-10T14:00:46Z</time>
      </trkpt>
      <trkpt lat="42.24927232" lon="-8.6428096">
        <ele>-24.719999313354492</ele>
        <time>2018-10-10T14:00:49Z</time>
      </trkpt>
      <trkpt lat="42.24931072" lon="-8.64276288">
        <ele>-24.719999313354492</ele>
        <time>2018-10-10T14:00:51Z</time>
      </trkpt>
      <trkpt lat="42.24935936" lon="-8.64269632">
        <ele>-24.719999313354492</ele>
        <time>2018-10-10T14:00:54Z</time>
      </trkpt>
      <trkpt lat="42.24939008" lon="-8.64262592">
        <ele>-24.719999313354492</ele>
        <time>2018-10-10T14:00:57Z</time>
      </trkpt>
      <trkpt lat="42.24941568" lon="-8.64255744">
        <ele>-24.719999313354492</ele>
        <time>2018-10-10T14:01:00Z</time>
      </trkpt>
      <trkpt lat="42.24943872" lon="-8.64248448">
        <ele>-24.719999313354492</ele>
        <time>2018-10-10T14:01:03Z</time>
      </trkpt>
      <trkpt lat="42.24946176" lon="-8.64241408">
        <ele>-24.719999313354492</ele>
        <time>2018-10-10T14:01:06Z</time>
      </trkpt>
      <trkpt lat="42.24948992" lon="-8.64234176">
        <ele>-24.719999313354492</ele>
        <time>2018-10-10T14:01:09Z</time>
      </trkpt>
      <trkpt lat="42.24951552" lon="-8.64225984">
        <ele>-24.719999313354492</ele>
        <time>2018-10-10T14:01:12Z</time>
      </trkpt>
      <trkpt lat="42.24953344" lon="-8.6422016">
        <ele>-24.719999313354492</ele>
        <time>2018-10-10T14:01:14Z</time>
      </trkpt>
      <trkpt lat="42.24955392" lon="-8.6421216">
        <ele>-26.18000030517578</ele>
        <time>2018-10-10T14:01:17Z</time>
      </trkpt>
      <trkpt lat="42.24956928" lon="-8.64205184">
        <ele>-26.18000030517578</ele>
        <time>2018-10-10T14:01:20Z</time>
      </trkpt>
      <trkpt lat="42.24958464" lon="-8.64198272">
        <ele>-27.360000610351562</ele>
        <time>2018-10-10T14:01:23Z</time>
      </trkpt>
      <trkpt lat="42.2496" lon="-8.64191424">
        <ele>-27.360000610351562</ele>
        <time>2018-10-10T14:01:26Z</time>
      </trkpt>
      <trkpt lat="42.24961024" lon="-8.64184384">
        <ele>-28.809999465942383</ele>
        <time>2018-10-10T14:01:29Z</time>
      </trkpt>
      <trkpt lat="42.24963072" lon="-8.64177792">
        <ele>-30.0</ele>
        <time>2018-10-10T14:01:32Z</time>
      </trkpt>
      <trkpt lat="42.24964864" lon="-8.64171136">
        <ele>-30.0</ele>
        <time>2018-10-10T14:01:35Z</time>
      </trkpt>
      <trkpt lat="42.24964864" lon="-8.64162944">
        <ele>-30.0</ele>
        <time>2018-10-10T14:01:38Z</time>
      </trkpt>
      <trkpt lat="42.24961792" lon="-8.6415328">
        <ele>-31.18000030517578</ele>
        <time>2018-10-10T14:01:41Z</time>
      </trkpt>
      <trkpt lat="42.24959232" lon="-8.64147008">
        <ele>-31.18000030517578</ele>
        <time>2018-10-10T14:01:43Z</time>
      </trkpt>
      <trkpt lat="42.24955392" lon="-8.64142528">
        <ele>-31.18000030517578</ele>
        <time>2018-10-10T14:01:45Z</time>
      </trkpt>
      <trkpt lat="42.24950784" lon="-8.64141248">
        <ele>-31.18000030517578</ele>
        <time>2018-10-10T14:01:47Z</time>
      </trkpt>
      <trkpt lat="42.24942848" lon="-8.641408">
        <ele>-31.18000030517578</ele>
        <time>2018-10-10T14:01:50Z</time>
      </trkpt>
      <trkpt lat="42.24936704" lon="-8.64138688">
        <ele>-31.18000030517578</ele>
        <time>2018-10-10T14:01:52Z</time>
      </trkpt>
      <trkpt lat="42.24930304" lon="-8.64136576">
        <ele>-31.18000030517578</ele>
        <time>2018-10-10T14:01:54Z</time>
      </trkpt>
      <trkpt lat="42.24923648" lon="-8.64134784">
        <ele>-31.18000030517578</ele>
        <time>2018-10-10T14:01:56Z</time>
      </trkpt>
      <trkpt lat="42.24917248" lon="-8.64132992">
        <ele>-31.18000030517578</ele>
        <time>2018-10-10T14:01:58Z</time>
      </trkpt>
      <trkpt lat="42.24911872" lon="-8.6413152">
        <ele>-31.18000030517578</ele>
        <time>2018-10-10T14:02:00Z</time>
      </trkpt>
      <trkpt lat="42.24905728" lon="-8.64129152">
        <ele>-31.18000030517578</ele>
        <time>2018-10-10T14:02:03Z</time>
      </trkpt>
      <trkpt lat="42.24900352" lon="-8.64127616">
        <ele>-31.18000030517578</ele>
        <time>2018-10-10T14:02:05Z</time>
      </trkpt>
      <trkpt lat="42.24893952" lon="-8.64125888">
        <ele>-31.18000030517578</ele>
        <time>2018-10-10T14:02:07Z</time>
      </trkpt>
      <trkpt lat="42.2488704" lon="-8.64124288">
        <ele>-31.18000030517578</ele>
        <time>2018-10-10T14:02:09Z</time>
      </trkpt>
      <trkpt lat="42.2487936" lon="-8.64122496">
        <ele>-31.18000030517578</ele>
        <time>2018-10-10T14:02:11Z</time>
      </trkpt>
      <trkpt lat="42.24871936" lon="-8.64120512">
        <ele>-31.18000030517578</ele>
        <time>2018-10-10T14:02:13Z</time>
      </trkpt>
      <trkpt lat="42.24863488" lon="-8.64118208">
        <ele>-31.18000030517578</ele>
        <time>2018-10-10T14:02:15Z</time>
      </trkpt>
      <trkpt lat="42.24855808" lon="-8.64114688">
        <ele>-31.18000030517578</ele>
        <time>2018-10-10T14:02:17Z</time>
      </trkpt>
      <trkpt lat="42.24848128" lon="-8.64109696">
        <ele>-31.18000030517578</ele>
        <time>2018-10-10T14:02:19Z</time>
      </trkpt>
      <trkpt lat="42.24836352" lon="-8.64100928">
        <ele>-31.18000030517578</ele>
        <time>2018-10-10T14:02:22Z</time>
      </trkpt>
      <trkpt lat="42.2482944" lon="-8.64094656">
        <ele>-31.18000030517578</ele>
        <time>2018-10-10T14:02:24Z</time>
      </trkpt>
      <trkpt lat="42.24822528" lon="-8.64087744">
        <ele>-31.18000030517578</ele>
        <time>2018-10-10T14:02:26Z</time>
      </trkpt>
      <trkpt lat="42.24816128" lon="-8.64080448">
        <ele>-32.36000061035156</ele>
        <time>2018-10-10T14:02:28Z</time>
      </trkpt>
      <trkpt lat="42.24809984" lon="-8.64072896">
        <ele>-32.36000061035156</ele>
        <time>2018-10-10T14:02:30Z</time>
      </trkpt>
      <trkpt lat="42.24803584" lon="-8.64066048">
        <ele>-32.36000061035156</ele>
        <time>2018-10-10T14:02:32Z</time>
      </trkpt>
      <trkpt lat="42.24797184" lon="-8.6405888">
        <ele>-33.720001220703125</ele>
        <time>2018-10-10T14:02:34Z</time>
      </trkpt>
      <trkpt lat="42.24789504" lon="-8.64052032">
        <ele>-33.720001220703125</ele>
        <time>2018-10-10T14:02:36Z</time>
      </trkpt>
      <trkpt lat="42.24781824" lon="-8.64046592">
        <ele>-33.720001220703125</ele>
        <time>2018-10-10T14:02:38Z</time>
      </trkpt>
      <trkpt lat="42.24774656" lon="-8.64041216">
        <ele>-33.720001220703125</ele>
        <time>2018-10-10T14:02:40Z</time>
      </trkpt>
      <trkpt lat="42.24767232" lon="-8.64035968">
        <ele>-33.720001220703125</ele>
        <time>2018-10-10T14:02:42Z</time>
      </trkpt>
      <trkpt lat="42.24760064" lon="-8.64030912">
        <ele>-35.09000015258789</ele>
        <time>2018-10-10T14:02:44Z</time>
      </trkpt>
      <trkpt lat="42.24752896" lon="-8.64025408">
        <ele>-35.09000015258789</ele>
        <time>2018-10-10T14:02:46Z</time>
      </trkpt>
      <trkpt lat="42.2474624" lon="-8.64018624">
        <ele>-35.09000015258789</ele>
        <time>2018-10-10T14:02:48Z</time>
      </trkpt>
      <trkpt lat="42.2473984" lon="-8.64012032">
        <ele>-36.36000061035156</ele>
        <time>2018-10-10T14:02:50Z</time>
      </trkpt>
      <trkpt lat="42.2473344" lon="-8.6400576">
        <ele>-36.36000061035156</ele>
        <time>2018-10-10T14:02:52Z</time>
      </trkpt>
      <trkpt lat="42.24727296" lon="-8.63999488">
        <ele>-36.36000061035156</ele>
        <time>2018-10-10T14:02:54Z</time>
      </trkpt>
      <trkpt lat="42.2472064" lon="-8.6399232">
        <ele>-37.630001068115234</ele>
        <time>2018-10-10T14:02:56Z</time>
      </trkpt>
      <trkpt lat="42.24713984" lon="-8.63984192">
        <ele>-37.630001068115234</ele>
        <time>2018-10-10T14:02:58Z</time>
      </trkpt>
      <trkpt lat="42.24707072" lon="-8.63974016">
        <ele>-39.0</ele>
        <time>2018-10-10T14:03:00Z</time>
      </trkpt>
      <trkpt lat="42.24703488" lon="-8.63968">
        <ele>-39.0</ele>
        <time>2018-10-10T14:03:01Z</time>
      </trkpt>
      <trkpt lat="42.2470016" lon="-8.63961536">
        <ele>-39.0</ele>
        <time>2018-10-10T14:03:02Z</time>
      </trkpt>
      <trkpt lat="42.24697088" lon="-8.6395456">
        <ele>-40.45000076293945</ele>
        <time>2018-10-10T14:03:03Z</time>
      </trkpt>
      <trkpt lat="42.24694528" lon="-8.63947328">
        <ele>-40.45000076293945</ele>
        <time>2018-10-10T14:03:04Z</time>
      </trkpt>
      <trkpt lat="42.24691456" lon="-8.63939968">
        <ele>-41.900001525878906</ele>
        <time>2018-10-10T14:03:05Z</time>
      </trkpt>
      <trkpt lat="42.2468864" lon="-8.63932864">
        <ele>-41.900001525878906</ele>
        <time>2018-10-10T14:03:06Z</time>
      </trkpt>
      <trkpt lat="42.24685568" lon="-8.6392576">
        <ele>-43.18000030517578</ele>
        <time>2018-10-10T14:03:07Z</time>
      </trkpt>
      <trkpt lat="42.2468224" lon="-8.63919168">
        <ele>-43.18000030517578</ele>
        <time>2018-10-10T14:03:08Z</time>
      </trkpt>
      <trkpt lat="42.24678144" lon="-8.63913984">
        <ele>-44.45000076293945</ele>
        <time>2018-10-10T14:03:09Z</time>
      </trkpt>
      <trkpt lat="42.24673024" lon="-8.63910208">
        <ele>-44.45000076293945</ele>
        <time>2018-10-10T14:03:10Z</time>
      </trkpt>
      <trkpt lat="42.2466816" lon="-8.63907328">
        <ele>-44.45000076293945</ele>
        <time>2018-10-10T14:03:11Z</time>
      </trkpt>
      <trkpt lat="42.2466304" lon="-8.63905408">
        <ele>-45.810001373291016</ele>
        <time>2018-10-10T14:03:12Z</time>
      </trkpt>
      <trkpt lat="42.24658688" lon="-8.63903808">
        <ele>-45.810001373291016</ele>
        <time>2018-10-10T14:03:13Z</time>
      </trkpt>
      <trkpt lat="42.24649472" lon="-8.6390016">
        <ele>-47.09000015258789</ele>
        <time>2018-10-10T14:03:15Z</time>
      </trkpt>
      <trkpt lat="42.24644352" lon="-8.63897728">
        <ele>-47.09000015258789</ele>
        <time>2018-10-10T14:03:16Z</time>
      </trkpt>
      <trkpt lat="42.24639488" lon="-8.63895296">
        <ele>-48.27000045776367</ele>
        <time>2018-10-10T14:03:17Z</time>
      </trkpt>
      <trkpt lat="42.24634624" lon="-8.63893056">
        <ele>-49.45000076293945</ele>
        <time>2018-10-10T14:03:18Z</time>
      </trkpt>
      <trkpt lat="42.24629504" lon="-8.63890944">
        <ele>-49.45000076293945</ele>
        <time>2018-10-10T14:03:19Z</time>
      </trkpt>
      <trkpt lat="42.24620032" lon="-8.63887296">
        <ele>-49.45000076293945</ele>
        <time>2018-10-10T14:03:21Z</time>
      </trkpt>
      <trkpt lat="42.24615168" lon="-8.63885568">
        <ele>-50.810001373291016</ele>
        <time>2018-10-10T14:03:22Z</time>
      </trkpt>
      <trkpt lat="42.24605184" lon="-8.63883008">
        <ele>-50.810001373291016</ele>
        <time>2018-10-10T14:03:24Z</time>
      </trkpt>
      <trkpt lat="42.2460032" lon="-8.63881984">
        <ele>-52.09000015258789</ele>
        <time>2018-10-10T14:03:25Z</time>
      </trkpt>
      <trkpt lat="42.24590336" lon="-8.63879616">
        <ele>-52.09000015258789</ele>
        <time>2018-10-10T14:03:27Z</time>
      </trkpt>
      <trkpt lat="42.24585216" lon="-8.63878848">
        <ele>-53.45000076293945</ele>
        <time>2018-10-10T14:03:28Z</time>
      </trkpt>
      <trkpt lat="42.24573952" lon="-8.63877184">
        <ele>-53.45000076293945</ele>
        <time>2018-10-10T14:03:31Z</time>
      </trkpt>
      <trkpt lat="42.24568064" lon="-8.63876352">
        <ele>-53.45000076293945</ele>
        <time>2018-10-10T14:03:32Z</time>
      </trkpt>
      <trkpt lat="42.24562944" lon="-8.63875392">
        <ele>-54.900001525878906</ele>
        <time>2018-10-10T14:03:33Z</time>
      </trkpt>
      <trkpt lat="42.24558336" lon="-8.6387424">
        <ele>-54.900001525878906</ele>
        <time>2018-10-10T14:03:34Z</time>
      </trkpt>
      <trkpt lat="42.24553984" lon="-8.63872704">
        <ele>-56.18000030517578</ele>
        <time>2018-10-10T14:03:35Z</time>
      </trkpt>
      <trkpt lat="42.24547584" lon="-8.6386688">
        <ele>-56.18000030517578</ele>
        <time>2018-10-10T14:03:37Z</time>
      </trkpt>
      <trkpt lat="42.24542976" lon="-8.63860224">
        <ele>-57.45000076293945</ele>
        <time>2018-10-10T14:03:39Z</time>
      </trkpt>
      <trkpt lat="42.24537344" lon="-8.63854208">
        <ele>-57.45000076293945</ele>
        <time>2018-10-10T14:03:41Z</time>
      </trkpt>
      <trkpt lat="42.24530432" lon="-8.63850048">
        <ele>-58.900001525878906</ele>
        <time>2018-10-10T14:03:43Z</time>
      </trkpt>
      <trkpt lat="42.24521728" lon="-8.6384736">
        <ele>-58.900001525878906</ele>
        <time>2018-10-10T14:03:45Z</time>
      </trkpt>
      <trkpt lat="42.24512512" lon="-8.63845824">
        <ele>-58.900001525878906</ele>
        <time>2018-10-10T14:03:47Z</time>
      </trkpt>
      <trkpt lat="42.2450304" lon="-8.63844992">
        <ele>-60.630001068115234</ele>
        <time>2018-10-10T14:03:49Z</time>
      </trkpt>
      <trkpt lat="42.2449408" lon="-8.6384256">
        <ele>-60.630001068115234</ele>
        <time>2018-10-10T14:03:51Z</time>
      </trkpt>
      <trkpt lat="42.24488448" lon="-8.63837696">
        <ele>-62.27000045776367</ele>
        <time>2018-10-10T14:03:53Z</time>
      </trkpt>
      <trkpt lat="42.24486144" lon="-8.6382944">
        <ele>-62.27000045776367</ele>
        <time>2018-10-10T14:03:55Z</time>
      </trkpt>
      <trkpt lat="42.24486144" lon="-8.63819968">
        <ele>-63.900001525878906</ele>
        <time>2018-10-10T14:03:57Z</time>
      </trkpt>
      <trkpt lat="42.24487424" lon="-8.63810624">
        <ele>-63.900001525878906</ele>
        <time>2018-10-10T14:03:59Z</time>
      </trkpt>
      <trkpt lat="42.24488448" lon="-8.63801664">
        <ele>-65.08999633789062</ele>
        <time>2018-10-10T14:04:01Z</time>
      </trkpt>
      <trkpt lat="42.24487424" lon="-8.63793728">
        <ele>-65.08999633789062</ele>
        <time>2018-10-10T14:04:03Z</time>
      </trkpt>
      <trkpt lat="42.24483584" lon="-8.637872">
        <ele>-65.08999633789062</ele>
        <time>2018-10-10T14:04:05Z</time>
      </trkpt>
      <trkpt lat="42.24476928" lon="-8.63782976">
        <ele>-66.62999725341797</ele>
        <time>2018-10-10T14:04:07Z</time>
      </trkpt>
      <trkpt lat="42.24468224" lon="-8.63780096">
        <ele>-66.62999725341797</ele>
        <time>2018-10-10T14:04:09Z</time>
      </trkpt>
      <trkpt lat="42.24457472" lon="-8.63776768">
        <ele>-68.0</ele>
        <time>2018-10-10T14:04:11Z</time>
      </trkpt>
      <trkpt lat="42.24451328" lon="-8.6377504">
        <ele>-68.0</ele>
        <time>2018-10-10T14:04:12Z</time>
      </trkpt>
      <trkpt lat="42.2444544" lon="-8.63772864">
        <ele>-69.36000061035156</ele>
        <time>2018-10-10T14:04:13Z</time>
      </trkpt>
      <trkpt lat="42.24439296" lon="-8.6376992">
        <ele>-69.36000061035156</ele>
        <time>2018-10-10T14:04:14Z</time>
      </trkpt>
      <trkpt lat="42.24433408" lon="-8.63765632">
        <ele>-69.36000061035156</ele>
        <time>2018-10-10T14:04:15Z</time>
      </trkpt>
      <trkpt lat="42.24428544" lon="-8.63760384">
        <ele>-73.08999633789062</ele>
        <time>2018-10-10T14:04:16Z</time>
      </trkpt>
      <trkpt lat="42.24425216" lon="-8.63753344">
        <ele>-73.08999633789062</ele>
        <time>2018-10-10T14:04:17Z</time>
      </trkpt>
      <trkpt lat="42.244224" lon="-8.63745408">
        <ele>-73.08999633789062</ele>
        <time>2018-10-10T14:04:18Z</time>
      </trkpt>
      <trkpt lat="42.24421632" lon="-8.63737024">
        <ele>-73.08999633789062</ele>
        <time>2018-10-10T14:04:19Z</time>
      </trkpt>
      <trkpt lat="42.244224" lon="-8.63728832">
        <ele>-71.36000061035156</ele>
        <time>2018-10-10T14:04:20Z</time>
      </trkpt>
      <trkpt lat="42.24424704" lon="-8.6372128">
        <ele>-71.36000061035156</ele>
        <time>2018-10-10T14:04:21Z</time>
      </trkpt>
      <trkpt lat="42.24431104" lon="-8.6371328">
        <ele>-69.9000015258789</ele>
        <time>2018-10-10T14:04:22Z</time>
      </trkpt>
      <trkpt lat="42.24436992" lon="-8.63706112">
        <ele>-69.9000015258789</ele>
        <time>2018-10-10T14:04:23Z</time>
      </trkpt>
      <trkpt lat="42.24443392" lon="-8.63699904">
        <ele>-69.9000015258789</ele>
        <time>2018-10-10T14:04:24Z</time>
      </trkpt>
      <trkpt lat="42.24450048" lon="-8.63694272">
        <ele>-68.62999725341797</ele>
        <time>2018-10-10T14:04:25Z</time>
      </trkpt>
      <trkpt lat="42.24456448" lon="-8.636896">
        <ele>-67.44999694824219</ele>
        <time>2018-10-10T14:04:26Z</time>
      </trkpt>
      <trkpt lat="42.24461824" lon="-8.63685696">
        <ele>-66.08999633789062</ele>
        <time>2018-10-10T14:04:27Z</time>
      </trkpt>
      <trkpt lat="42.24464896" lon="-8.63684352">
        <ele>-66.08999633789062</ele>
        <time>2018-10-10T14:04:28Z</time>
      </trkpt>
      <trkpt lat="42.24467968" lon="-8.636816">
        <ele>-67.2699966430664</ele>
        <time>2018-10-10T14:04:30Z</time>
      </trkpt>
      <trkpt lat="42.24466432" lon="-8.63679232">
        <ele>-68.54000091552734</ele>
        <time>2018-10-10T14:04:36Z</time>
      </trkpt>
      <trkpt lat="42.24464384" lon="-8.6368512">
        <ele>-70.0</ele>
        <time>2018-10-10T14:04:46Z</time>
      </trkpt>
      <trkpt lat="42.24465152" lon="-8.63682944">
        <ele>-71.36000061035156</ele>
        <time>2018-10-10T14:04:50Z</time>
      </trkpt>
      <trkpt lat="42.24457984" lon="-8.63689344">
        <ele>-72.54000091552734</ele>
        <time>2018-10-10T14:04:55Z</time>
      </trkpt>
      <trkpt lat="42.2445184" lon="-8.63694464">
        <ele>-73.72000122070312</ele>
        <time>2018-10-10T14:04:58Z</time>
      </trkpt>
      <trkpt lat="42.24447232" lon="-8.6369792">
        <ele>-73.72000122070312</ele>
        <time>2018-10-10T14:05:00Z</time>
      </trkpt>
      <trkpt lat="42.244416" lon="-8.63700416">
        <ele>-74.9000015258789</ele>
        <time>2018-10-10T14:05:02Z</time>
      </trkpt>
      <trkpt lat="42.2443648" lon="-8.63702848">
        <ele>-74.9000015258789</ele>
        <time>2018-10-10T14:05:04Z</time>
      </trkpt>
      <trkpt lat="42.24431616" lon="-8.63706304">
        <ele>-74.9000015258789</ele>
        <time>2018-10-10T14:05:06Z</time>
      </trkpt>
      <trkpt lat="42.24427776" lon="-8.63710976">
        <ele>-76.18000030517578</ele>
        <time>2018-10-10T14:05:08Z</time>
      </trkpt>
      <trkpt lat="42.24424448" lon="-8.63716032">
        <ele>-76.18000030517578</ele>
        <time>2018-10-10T14:05:10Z</time>
      </trkpt>
      <trkpt lat="42.24420608" lon="-8.63724224">
        <ele>-76.18000030517578</ele>
        <time>2018-10-10T14:05:13Z</time>
      </trkpt>
      <trkpt lat="42.24418304" lon="-8.63732352">
        <ele>-76.18000030517578</ele>
        <time>2018-10-10T14:05:16Z</time>
      </trkpt>
      <trkpt lat="42.24414464" lon="-8.63737216">
        <ele>-77.54000091552734</ele>
        <time>2018-10-10T14:05:19Z</time>
      </trkpt>
      <trkpt lat="42.24405248" lon="-8.63737984">
        <ele>-77.54000091552734</ele>
        <time>2018-10-10T14:05:22Z</time>
      </trkpt>
      <trkpt lat="42.2439808" lon="-8.63736256">
        <ele>-78.80999755859375</ele>
        <time>2018-10-10T14:05:24Z</time>
      </trkpt>
      <trkpt lat="42.24390144" lon="-8.63733184">
        <ele>-78.80999755859375</ele>
        <time>2018-10-10T14:05:26Z</time>
      </trkpt>
      <trkpt lat="42.24381696" lon="-8.63729856">
        <ele>-80.08999633789062</ele>
        <time>2018-10-10T14:05:28Z</time>
      </trkpt>
      <trkpt lat="42.2437248" lon="-8.6372832">
        <ele>-80.08999633789062</ele>
        <time>2018-10-10T14:05:30Z</time>
      </trkpt>
      <trkpt lat="42.24363264" lon="-8.63726976">
        <ele>-81.44999694824219</ele>
        <time>2018-10-10T14:05:32Z</time>
      </trkpt>
      <trkpt lat="42.24353792" lon="-8.63726208">
        <ele>-81.44999694824219</ele>
        <time>2018-10-10T14:05:34Z</time>
      </trkpt>
      <trkpt lat="42.24348416" lon="-8.63726784">
        <ele>-81.44999694824219</ele>
        <time>2018-10-10T14:05:35Z</time>
      </trkpt>
      <trkpt lat="42.2434304" lon="-8.6372736">
        <ele>-82.80999755859375</ele>
        <time>2018-10-10T14:05:36Z</time>
      </trkpt>
      <trkpt lat="42.24337664" lon="-8.63728256">
        <ele>-82.80999755859375</ele>
        <time>2018-10-10T14:05:37Z</time>
      </trkpt>
      <trkpt lat="42.24332032" lon="-8.63728896">
        <ele>-84.0</ele>
        <time>2018-10-10T14:05:38Z</time>
      </trkpt>
      <trkpt lat="42.243264" lon="-8.63729408">
        <ele>-84.0</ele>
        <time>2018-10-10T14:05:39Z</time>
      </trkpt>
      <trkpt lat="42.24320512" lon="-8.63729664">
        <ele>-85.44999694824219</ele>
        <time>2018-10-10T14:05:40Z</time>
      </trkpt>
      <trkpt lat="42.2431488" lon="-8.63729856">
        <ele>-86.9000015258789</ele>
        <time>2018-10-10T14:05:41Z</time>
      </trkpt>
      <trkpt lat="42.24310016" lon="-8.637296">
        <ele>-88.44999694824219</ele>
        <time>2018-10-10T14:05:42Z</time>
      </trkpt>
      <trkpt lat="42.24305664" lon="-8.63728704">
        <ele>-90.08999633789062</ele>
        <time>2018-10-10T14:05:43Z</time>
      </trkpt>
      <trkpt lat="42.24297984" lon="-8.63723072">
        <ele>-91.2699966430664</ele>
        <time>2018-10-10T14:05:45Z</time>
      </trkpt>
      <trkpt lat="42.2428928" lon="-8.63717056">
        <ele>-91.2699966430664</ele>
        <time>2018-10-10T14:05:47Z</time>
      </trkpt>
      <trkpt lat="42.24284672" lon="-8.63714112">
        <ele>-92.80999755859375</ele>
        <time>2018-10-10T14:05:48Z</time>
      </trkpt>
      <trkpt lat="42.24275968" lon="-8.63708288">
        <ele>-94.08999633789062</ele>
        <time>2018-10-10T14:05:50Z</time>
      </trkpt>
      <trkpt lat="42.24265984" lon="-8.63702016">
        <ele>-94.08999633789062</ele>
        <time>2018-10-10T14:05:52Z</time>
      </trkpt>
      <trkpt lat="42.2426112" lon="-8.63699072">
        <ele>-95.2699966430664</ele>
        <time>2018-10-10T14:05:53Z</time>
      </trkpt>
      <trkpt lat="42.24256512" lon="-8.63696192">
        <ele>-95.2699966430664</ele>
        <time>2018-10-10T14:05:54Z</time>
      </trkpt>
      <trkpt lat="42.2424704" lon="-8.63692096">
        <ele>-96.62999725341797</ele>
        <time>2018-10-10T14:05:56Z</time>
      </trkpt>
      <trkpt lat="42.2423808" lon="-8.63692544">
        <ele>-96.62999725341797</ele>
        <time>2018-10-10T14:05:58Z</time>
      </trkpt>
      <trkpt lat="42.24230912" lon="-8.63690944">
        <ele>-98.2699966430664</ele>
        <time>2018-10-10T14:06:00Z</time>
      </trkpt>
      <trkpt lat="42.24223744" lon="-8.63687488">
        <ele>-98.2699966430664</ele>
        <time>2018-10-10T14:06:02Z</time>
      </trkpt>
      <trkpt lat="42.24217344" lon="-8.6368544">
        <ele>-98.2699966430664</ele>
        <time>2018-10-10T14:06:04Z</time>
      </trkpt>
      <trkpt lat="42.24211968" lon="-8.6368416">
        <ele>-100.0</ele>
        <time>2018-10-10T14:06:06Z</time>
      </trkpt>
      <trkpt lat="42.24205056" lon="-8.636832">
        <ele>-100.0</ele>
        <time>2018-10-10T14:06:09Z</time>
      </trkpt>
      <trkpt lat="42.2419968" lon="-8.63682816">
        <ele>-101.2699966430664</ele>
        <time>2018-10-10T14:06:11Z</time>
      </trkpt>
      <trkpt lat="42.24194304" lon="-8.63684096">
        <ele>-101.2699966430664</ele>
        <time>2018-10-10T14:06:13Z</time>
      </trkpt>
      <trkpt lat="42.24188672" lon="-8.63684672">
        <ele>-101.2699966430664</ele>
        <time>2018-10-10T14:06:15Z</time>
      </trkpt>
      <trkpt lat="42.24183552" lon="-8.6368512">
        <ele>-102.72000122070312</ele>
        <time>2018-10-10T14:06:17Z</time>
      </trkpt>
      <trkpt lat="42.24178432" lon="-8.6368512">
        <ele>-102.72000122070312</ele>
        <time>2018-10-10T14:06:19Z</time>
      </trkpt>
      <trkpt lat="42.24173312" lon="-8.63684672">
        <ele>-102.72000122070312</ele>
        <time>2018-10-10T14:06:21Z</time>
      </trkpt>
      <trkpt lat="42.2416768" lon="-8.63683968">
        <ele>-103.9000015258789</ele>
        <time>2018-10-10T14:06:24Z</time>
      </trkpt>
      <trkpt lat="42.24162304" lon="-8.6368352">
        <ele>-103.9000015258789</ele>
        <time>2018-10-10T14:06:27Z</time>
      </trkpt>
      <trkpt lat="42.24155904" lon="-8.6368256">
        <ele>-105.08999633789062</ele>
        <time>2018-10-10T14:06:30Z</time>
      </trkpt>
      <trkpt lat="42.24148992" lon="-8.636816">
        <ele>-105.08999633789062</ele>
        <time>2018-10-10T14:06:32Z</time>
      </trkpt>
      <trkpt lat="42.24140288" lon="-8.63680576">
        <ele>-106.62999725341797</ele>
        <time>2018-10-10T14:06:34Z</time>
      </trkpt>
      <trkpt lat="42.24134912" lon="-8.63679808">
        <ele>-106.62999725341797</ele>
        <time>2018-10-10T14:06:35Z</time>
      </trkpt>
      <trkpt lat="42.24129024" lon="-8.63677056">
        <ele>-108.0</ele>
        <time>2018-10-10T14:06:36Z</time>
      </trkpt>
      <trkpt lat="42.2412288" lon="-8.63674624">
        <ele>-108.0</ele>
        <time>2018-10-10T14:06:37Z</time>
      </trkpt>
      <trkpt lat="42.24116224" lon="-8.63672704">
        <ele>-108.0</ele>
        <time>2018-10-10T14:06:38Z</time>
      </trkpt>
      <trkpt lat="42.24107008" lon="-8.63672192">
        <ele>-109.18000030517578</ele>
        <time>2018-10-10T14:06:39Z</time>
      </trkpt>
      <trkpt lat="42.24098304" lon="-8.63671808">
        <ele>-109.18000030517578</ele>
        <time>2018-10-10T14:06:40Z</time>
      </trkpt>
      <trkpt lat="42.24089344" lon="-8.63671872">
        <ele>-110.44999694824219</ele>
        <time>2018-10-10T14:06:41Z</time>
      </trkpt>
      <trkpt lat="42.24081152" lon="-8.63672448">
        <ele>-110.44999694824219</ele>
        <time>2018-10-10T14:06:42Z</time>
      </trkpt>
      <trkpt lat="42.24072704" lon="-8.63672512">
        <ele>-110.44999694824219</ele>
        <time>2018-10-10T14:06:43Z</time>
      </trkpt>
      <trkpt lat="42.2406528" lon="-8.63672">
        <ele>-110.44999694824219</ele>
        <time>2018-10-10T14:06:44Z</time>
      </trkpt>
      <trkpt lat="42.2405888" lon="-8.6367072">
        <ele>-110.44999694824219</ele>
        <time>2018-10-10T14:06:45Z</time>
      </trkpt>
      <trkpt lat="42.24053504" lon="-8.63668352">
        <ele>-111.62999725341797</ele>
        <time>2018-10-10T14:06:46Z</time>
      </trkpt>
      <trkpt lat="42.24049664" lon="-8.63664064">
        <ele>-111.62999725341797</ele>
        <time>2018-10-10T14:06:47Z</time>
      </trkpt>
      <trkpt lat="42.240448" lon="-8.6365888">
        <ele>-111.62999725341797</ele>
        <time>2018-10-10T14:06:48Z</time>
      </trkpt>
      <trkpt lat="42.2404224" lon="-8.63653824">
        <ele>-111.62999725341797</ele>
        <time>2018-10-10T14:06:49Z</time>
      </trkpt>
      <trkpt lat="42.24040192" lon="-8.63643904">
        <ele>-111.62999725341797</ele>
        <time>2018-10-10T14:06:51Z</time>
      </trkpt>
      <trkpt lat="42.240384" lon="-8.63632512">
        <ele>-111.62999725341797</ele>
        <time>2018-10-10T14:06:53Z</time>
      </trkpt>
      <trkpt lat="42.24036864" lon="-8.63625728">
        <ele>-111.62999725341797</ele>
        <time>2018-10-10T14:06:54Z</time>
      </trkpt>
      <trkpt lat="42.24034816" lon="-8.63618688">
        <ele>-111.62999725341797</ele>
        <time>2018-10-10T14:06:55Z</time>
      </trkpt>
      <trkpt lat="42.24033024" lon="-8.63611904">
        <ele>-112.80999755859375</ele>
        <time>2018-10-10T14:06:56Z</time>
      </trkpt>
      <trkpt lat="42.2403072" lon="-8.63605376">
        <ele>-112.80999755859375</ele>
        <time>2018-10-10T14:06:57Z</time>
      </trkpt>
      <trkpt lat="42.24028672" lon="-8.63599104">
        <ele>-112.80999755859375</ele>
        <time>2018-10-10T14:06:58Z</time>
      </trkpt>
      <trkpt lat="42.24026368" lon="-8.63587264">
        <ele>-112.80999755859375</ele>
        <time>2018-10-10T14:07:00Z</time>
      </trkpt>
      <trkpt lat="42.24027648" lon="-8.63576768">
        <ele>-114.2699966430664</ele>
        <time>2018-10-10T14:07:02Z</time>
      </trkpt>
      <trkpt lat="42.24029952" lon="-8.63566976">
        <ele>-114.2699966430664</ele>
        <time>2018-10-10T14:07:04Z</time>
      </trkpt>
      <trkpt lat="42.24031744" lon="-8.63557632">
        <ele>-115.62999725341797</ele>
        <time>2018-10-10T14:07:06Z</time>
      </trkpt>
      <trkpt lat="42.24032512" lon="-8.63549056">
        <ele>-115.62999725341797</ele>
        <time>2018-10-10T14:07:08Z</time>
      </trkpt>
      <trkpt lat="42.24032512" lon="-8.6354208">
        <ele>-117.0</ele>
        <time>2018-10-10T14:07:10Z</time>
      </trkpt>
      <trkpt lat="42.24030976" lon="-8.63540864">
        <ele>-117.0</ele>
        <time>2018-10-10T14:07:15Z</time>
      </trkpt>
      <trkpt lat="42.24031488" lon="-8.63551872">
        <ele>-118.18000030517578</ele>
        <time>2018-10-10T14:07:20Z</time>
      </trkpt>
      <trkpt lat="42.2402944" lon="-8.63561408">
        <ele>-123.44999694824219</ele>
        <time>2018-10-10T14:07:23Z</time>
      </trkpt>
      <trkpt lat="42.24026368" lon="-8.6356448">
        <ele>-123.44999694824219</ele>
        <time>2018-10-10T14:07:26Z</time>
      </trkpt>
      <trkpt lat="42.2402432" lon="-8.63556224">
        <ele>-123.44999694824219</ele>
        <time>2018-10-10T14:07:30Z</time>
      </trkpt>
      <trkpt lat="42.24022016" lon="-8.6354912">
        <ele>-124.80999755859375</ele>
        <time>2018-10-10T14:07:32Z</time>
      </trkpt>
      <trkpt lat="42.24018432" lon="-8.63540864">
        <ele>-124.80999755859375</ele>
        <time>2018-10-10T14:07:34Z</time>
      </trkpt>
      <trkpt lat="42.24014336" lon="-8.63532288">
        <ele>-126.2699966430664</ele>
        <time>2018-10-10T14:07:36Z</time>
      </trkpt>
      <trkpt lat="42.24009728" lon="-8.63524416">
        <ele>-126.2699966430664</ele>
        <time>2018-10-10T14:07:38Z</time>
      </trkpt>
      <trkpt lat="42.24004096" lon="-8.63518592">
        <ele>-126.2699966430664</ele>
        <time>2018-10-10T14:07:40Z</time>
      </trkpt>
      <trkpt lat="42.23998208" lon="-8.6351584">
        <ele>-127.44999694824219</ele>
        <time>2018-10-10T14:07:42Z</time>
      </trkpt>
      <trkpt lat="42.23992064" lon="-8.63511872">
        <ele>-127.44999694824219</ele>
        <time>2018-10-10T14:07:44Z</time>
      </trkpt>
      <trkpt lat="42.239872" lon="-8.63506816">
        <ele>-127.44999694824219</ele>
        <time>2018-10-10T14:07:46Z</time>
      </trkpt>
      <trkpt lat="42.2398464" lon="-8.63499328">
        <ele>-128.80999755859375</ele>
        <time>2018-10-10T14:07:48Z</time>
      </trkpt>
      <trkpt lat="42.23982336" lon="-8.63489216">
        <ele>-130.17999267578125</ele>
        <time>2018-10-10T14:07:50Z</time>
      </trkpt>
      <trkpt lat="42.23978752" lon="-8.6347936">
        <ele>-130.17999267578125</ele>
        <time>2018-10-10T14:07:52Z</time>
      </trkpt>
      <trkpt lat="42.23974912" lon="-8.63470464">
        <ele>-131.5399932861328</ele>
        <time>2018-10-10T14:07:54Z</time>
      </trkpt>
      <trkpt lat="42.23972608" lon="-8.63464384">
        <ele>-131.5399932861328</ele>
        <time>2018-10-10T14:07:56Z</time>
      </trkpt>
      <trkpt lat="42.23969536" lon="-8.63448832">
        <ele>-132.89999389648438</ele>
        <time>2018-10-10T14:08:06Z</time>
      </trkpt>
      <trkpt lat="42.2396672" lon="-8.63435456">
        <ele>-132.89999389648438</ele>
        <time>2018-10-10T14:08:10Z</time>
      </trkpt>
      <trkpt lat="42.23962112" lon="-8.63426496">
        <ele>-134.27000427246094</ele>
        <time>2018-10-10T14:08:12Z</time>
      </trkpt>
      <trkpt lat="42.23957504" lon="-8.63417408">
        <ele>-134.27000427246094</ele>
        <time>2018-10-10T14:08:14Z</time>
      </trkpt>
      <trkpt lat="42.23953664" lon="-8.6340864">
        <ele>-135.5399932861328</ele>
        <time>2018-10-10T14:08:16Z</time>
      </trkpt>
      <trkpt lat="42.23950848" lon="-8.63400192">
        <ele>-136.72000122070312</ele>
        <time>2018-10-10T14:08:18Z</time>
      </trkpt>
      <trkpt lat="42.23949824" lon="-8.63391232">
        <ele>-136.72000122070312</ele>
        <time>2018-10-10T14:08:20Z</time>
      </trkpt>
      <trkpt lat="42.2395136" lon="-8.63381952">
        <ele>-137.99000549316406</ele>
        <time>2018-10-10T14:08:22Z</time>
      </trkpt>
      <trkpt lat="42.23953152" lon="-8.63373376">
        <ele>-139.27000427246094</ele>
        <time>2018-10-10T14:08:24Z</time>
      </trkpt>
      <trkpt lat="42.23954688" lon="-8.633648">
        <ele>-140.4499969482422</ele>
        <time>2018-10-10T14:08:26Z</time>
      </trkpt>
      <trkpt lat="42.23955968" lon="-8.63355264">
        <ele>-140.4499969482422</ele>
        <time>2018-10-10T14:08:28Z</time>
      </trkpt>
      <trkpt lat="42.2395776" lon="-8.63345408">
        <ele>-140.4499969482422</ele>
        <time>2018-10-10T14:08:30Z</time>
      </trkpt>
      <trkpt lat="42.23960064" lon="-8.6333664">
        <ele>-140.4499969482422</ele>
        <time>2018-10-10T14:08:32Z</time>
      </trkpt>
      <trkpt lat="42.23962112" lon="-8.63329344">
        <ele>-141.72000122070312</ele>
        <time>2018-10-10T14:08:34Z</time>
      </trkpt>
      <trkpt lat="42.23963648" lon="-8.63322048">
        <ele>-141.72000122070312</ele>
        <time>2018-10-10T14:08:36Z</time>
      </trkpt>
      <trkpt lat="42.23965952" lon="-8.6331616">
        <ele>-141.72000122070312</ele>
        <time>2018-10-10T14:08:38Z</time>
      </trkpt>
      <trkpt lat="42.23970304" lon="-8.63310912">
        <ele>-141.72000122070312</ele>
        <time>2018-10-10T14:08:40Z</time>
      </trkpt>
      <trkpt lat="42.23974144" lon="-8.63305408">
        <ele>-142.89999389648438</ele>
        <time>2018-10-10T14:08:42Z</time>
      </trkpt>
      <trkpt lat="42.23977984" lon="-8.6329824">
        <ele>-142.89999389648438</ele>
        <time>2018-10-10T14:08:44Z</time>
      </trkpt>
      <trkpt lat="42.23981824" lon="-8.63289664">
        <ele>-142.89999389648438</ele>
        <time>2018-10-10T14:08:46Z</time>
      </trkpt>
      <trkpt lat="42.23986944" lon="-8.63280576">
        <ele>-144.08999633789062</ele>
        <time>2018-10-10T14:08:48Z</time>
      </trkpt>
      <trkpt lat="42.23993344" lon="-8.6326848">
        <ele>-144.08999633789062</ele>
        <time>2018-10-10T14:08:51Z</time>
      </trkpt>
      <trkpt lat="42.23996416" lon="-8.63262464">
        <ele>-144.08999633789062</ele>
        <time>2018-10-10T14:08:53Z</time>
      </trkpt>
      <trkpt lat="42.24001024" lon="-8.63257408">
        <ele>-145.27000427246094</ele>
        <time>2018-10-10T14:08:55Z</time>
      </trkpt>
      <trkpt lat="42.24004864" lon="-8.63253696">
        <ele>-145.27000427246094</ele>
        <time>2018-10-10T14:08:57Z</time>
      </trkpt>
      <trkpt lat="42.24009984" lon="-8.63249408">
        <ele>-145.27000427246094</ele>
        <time>2018-10-10T14:09:00Z</time>
      </trkpt>
      <trkpt lat="42.24015872" lon="-8.6324512">
        <ele>-146.6300048828125</ele>
        <time>2018-10-10T14:09:03Z</time>
      </trkpt>
      <trkpt lat="42.24023808" lon="-8.63241088">
        <ele>-146.6300048828125</ele>
        <time>2018-10-10T14:09:06Z</time>
      </trkpt>
      <trkpt lat="42.24028672" lon="-8.63238208">
        <ele>-146.6300048828125</ele>
        <time>2018-10-10T14:09:08Z</time>
      </trkpt>
      <trkpt lat="42.24035584" lon="-8.63232704">
        <ele>-147.89999389648438</ele>
        <time>2018-10-10T14:09:11Z</time>
      </trkpt>
      <trkpt lat="42.24039168" lon="-8.63227968">
        <ele>-147.89999389648438</ele>
        <time>2018-10-10T14:09:13Z</time>
      </trkpt>
      <trkpt lat="42.24041472" lon="-8.6322176">
        <ele>-147.89999389648438</ele>
        <time>2018-10-10T14:09:15Z</time>
      </trkpt>
      <trkpt lat="42.24042496" lon="-8.63215168">
        <ele>-149.17999267578125</ele>
        <time>2018-10-10T14:09:17Z</time>
      </trkpt>
      <trkpt lat="42.240448" lon="-8.63205504">
        <ele>-149.17999267578125</ele>
        <time>2018-10-10T14:09:20Z</time>
      </trkpt>
      <trkpt lat="42.24046336" lon="-8.63199552">
        <ele>-149.17999267578125</ele>
        <time>2018-10-10T14:09:22Z</time>
      </trkpt>
      <trkpt lat="42.2404864" lon="-8.6319072">
        <ele>-150.4499969482422</ele>
        <time>2018-10-10T14:09:25Z</time>
      </trkpt>
      <trkpt lat="42.2404864" lon="-8.63183616">
        <ele>-150.4499969482422</ele>
        <time>2018-10-10T14:09:27Z</time>
      </trkpt>
      <trkpt lat="42.24048128" lon="-8.63176064">
        <ele>-150.4499969482422</ele>
        <time>2018-10-10T14:09:29Z</time>
      </trkpt>
      <trkpt lat="42.2404736" lon="-8.63168832">
        <ele>-151.6300048828125</ele>
        <time>2018-10-10T14:09:31Z</time>
      </trkpt>
      <trkpt lat="42.24045824" lon="-8.63160832">
        <ele>-151.6300048828125</ele>
        <time>2018-10-10T14:09:33Z</time>
      </trkpt>
      <trkpt lat="42.24043264" lon="-8.6315136">
        <ele>-153.08999633789062</ele>
        <time>2018-10-10T14:09:35Z</time>
      </trkpt>
      <trkpt lat="42.24039936" lon="-8.63141568">
        <ele>-154.36000061035156</ele>
        <time>2018-10-10T14:09:37Z</time>
      </trkpt>
      <trkpt lat="42.24035584" lon="-8.63133312">
        <ele>-155.99000549316406</ele>
        <time>2018-10-10T14:09:39Z</time>
      </trkpt>
      <trkpt lat="42.24031744" lon="-8.63125888">
        <ele>-157.89999389648438</ele>
        <time>2018-10-10T14:09:41Z</time>
      </trkpt>
      <trkpt lat="42.24028416" lon="-8.63119232">
        <ele>-159.08999633789062</ele>
        <time>2018-10-10T14:09:43Z</time>
      </trkpt>
      <trkpt lat="42.24025344" lon="-8.63112576">
        <ele>-159.08999633789062</ele>
        <time>2018-10-10T14:09:45Z</time>
      </trkpt>
      <trkpt lat="42.24023552" lon="-8.63106944">
        <ele>-161.17999267578125</ele>
        <time>2018-10-10T14:09:47Z</time>
      </trkpt>
      <trkpt lat="42.24018432" lon="-8.63096832">
        <ele>-161.17999267578125</ele>
        <time>2018-10-10T14:09:50Z</time>
      </trkpt>
      <trkpt lat="42.24015104" lon="-8.63090112">
        <ele>-162.80999755859375</ele>
        <time>2018-10-10T14:09:52Z</time>
      </trkpt>
      <trkpt lat="42.24011264" lon="-8.63083392">
        <ele>-162.80999755859375</ele>
        <time>2018-10-10T14:09:54Z</time>
      </trkpt>
      <trkpt lat="42.24006912" lon="-8.63076032">
        <ele>-164.27000427246094</ele>
        <time>2018-10-10T14:09:56Z</time>
      </trkpt>
      <trkpt lat="42.24004864" lon="-8.63068224">
        <ele>-164.27000427246094</ele>
        <time>2018-10-10T14:09:58Z</time>
      </trkpt>
      <trkpt lat="42.24004096" lon="-8.63061248">
        <ele>-164.27000427246094</ele>
        <time>2018-10-10T14:10:00Z</time>
      </trkpt>
      <trkpt lat="42.24004096" lon="-8.63053824">
        <ele>-164.27000427246094</ele>
        <time>2018-10-10T14:10:02Z</time>
      </trkpt>
      <trkpt lat="42.24003584" lon="-8.63046464">
        <ele>-164.27000427246094</ele>
        <time>2018-10-10T14:10:04Z</time>
      </trkpt>
      <trkpt lat="42.24003328" lon="-8.6303968">
        <ele>-164.27000427246094</ele>
        <time>2018-10-10T14:10:06Z</time>
      </trkpt>
      <trkpt lat="42.24001792" lon="-8.63032128">
        <ele>-164.27000427246094</ele>
        <time>2018-10-10T14:10:08Z</time>
      </trkpt>
      <trkpt lat="42.23999744" lon="-8.630224">
        <ele>-164.27000427246094</ele>
        <time>2018-10-10T14:10:10Z</time>
      </trkpt>
      <trkpt lat="42.23998208" lon="-8.63011392">
        <ele>-163.08999633789062</ele>
        <time>2018-10-10T14:10:12Z</time>
      </trkpt>
      <trkpt lat="42.23996416" lon="-8.62986304">
        <ele>-163.08999633789062</ele>
        <time>2018-10-10T14:10:14Z</time>
      </trkpt>
      <trkpt lat="42.23996672" lon="-8.6296864">
        <ele>-163.08999633789062</ele>
        <time>2018-10-10T14:10:15Z</time>
      </trkpt>
      <trkpt lat="42.23997952" lon="-8.6295264">
        <ele>-163.08999633789062</ele>
        <time>2018-10-10T14:10:16Z</time>
      </trkpt>
      <trkpt lat="42.23999488" lon="-8.62939072">
        <ele>-163.08999633789062</ele>
        <time>2018-10-10T14:10:17Z</time>
      </trkpt>
      <trkpt lat="42.24000512" lon="-8.62928128">
        <ele>-163.08999633789062</ele>
        <time>2018-10-10T14:10:18Z</time>
      </trkpt>
      <trkpt lat="42.2400256" lon="-8.62920192">
        <ele>-161.80999755859375</ele>
        <time>2018-10-10T14:10:19Z</time>
      </trkpt>
      <trkpt lat="42.24004864" lon="-8.62914368">
        <ele>-161.80999755859375</ele>
        <time>2018-10-10T14:10:20Z</time>
      </trkpt>
      <trkpt lat="42.24013568" lon="-8.62910912">
        <ele>-161.80999755859375</ele>
        <time>2018-10-10T14:10:23Z</time>
      </trkpt>
      <trkpt lat="42.24017664" lon="-8.6290848">
        <ele>-161.80999755859375</ele>
        <time>2018-10-10T14:10:25Z</time>
      </trkpt>
      <trkpt lat="42.24025088" lon="-8.62907136">
        <ele>-160.5399932861328</ele>
        <time>2018-10-10T14:10:28Z</time>
      </trkpt>
      <trkpt lat="42.24030208" lon="-8.62904448">
        <ele>-160.5399932861328</ele>
        <time>2018-10-10T14:10:31Z</time>
      </trkpt>
      <trkpt lat="42.24035328" lon="-8.62902144">
        <ele>-160.5399932861328</ele>
        <time>2018-10-10T14:10:34Z</time>
      </trkpt>
      <trkpt lat="42.24039424" lon="-8.62893568">
        <ele>-160.5399932861328</ele>
        <time>2018-10-10T14:10:38Z</time>
      </trkpt>
      <trkpt lat="42.24045568" lon="-8.62886784">
        <ele>-160.5399932861328</ele>
        <time>2018-10-10T14:10:41Z</time>
      </trkpt>
      <trkpt lat="42.24050944" lon="-8.62883264">
        <ele>-159.27000427246094</ele>
        <time>2018-10-10T14:10:43Z</time>
      </trkpt>
      <trkpt lat="42.24056576" lon="-8.62879296">
        <ele>-159.27000427246094</ele>
        <time>2018-10-10T14:10:45Z</time>
      </trkpt>
      <trkpt lat="42.24061952" lon="-8.6287488">
        <ele>-159.27000427246094</ele>
        <time>2018-10-10T14:10:47Z</time>
      </trkpt>
      <trkpt lat="42.24066816" lon="-8.62870336">
        <ele>-159.27000427246094</ele>
        <time>2018-10-10T14:10:49Z</time>
      </trkpt>
      <trkpt lat="42.24071424" lon="-8.62865728">
        <ele>-159.27000427246094</ele>
        <time>2018-10-10T14:10:51Z</time>
      </trkpt>
      <trkpt lat="42.24076544" lon="-8.62860992">
        <ele>-159.27000427246094</ele>
        <time>2018-10-10T14:10:53Z</time>
      </trkpt>
      <trkpt lat="42.2408064" lon="-8.62856128">
        <ele>-159.27000427246094</ele>
        <time>2018-10-10T14:10:55Z</time>
      </trkpt>
      <trkpt lat="42.2408448" lon="-8.62849792">
        <ele>-159.27000427246094</ele>
        <time>2018-10-10T14:10:57Z</time>
      </trkpt>
      <trkpt lat="42.2408832" lon="-8.628432">
        <ele>-159.27000427246094</ele>
        <time>2018-10-10T14:10:59Z</time>
      </trkpt>
      <trkpt lat="42.24091392" lon="-8.6283712">
        <ele>-159.27000427246094</ele>
        <time>2018-10-10T14:11:01Z</time>
      </trkpt>
      <trkpt lat="42.24094464" lon="-8.62831232">
        <ele>-159.27000427246094</ele>
        <time>2018-10-10T14:11:03Z</time>
      </trkpt>
      <trkpt lat="42.24096768" lon="-8.62825088">
        <ele>-159.27000427246094</ele>
        <time>2018-10-10T14:11:05Z</time>
      </trkpt>
      <trkpt lat="42.24099328" lon="-8.62818688">
        <ele>-161.0</ele>
        <time>2018-10-10T14:11:07Z</time>
      </trkpt>
      <trkpt lat="42.24102144" lon="-8.62812032">
        <ele>-162.17999267578125</ele>
        <time>2018-10-10T14:11:09Z</time>
      </trkpt>
      <trkpt lat="42.24104192" lon="-8.62805376">
        <ele>-162.17999267578125</ele>
        <time>2018-10-10T14:11:11Z</time>
      </trkpt>
      <trkpt lat="42.24106496" lon="-8.62798528">
        <ele>-162.17999267578125</ele>
        <time>2018-10-10T14:11:13Z</time>
      </trkpt>
      <trkpt lat="42.24108544" lon="-8.62791936">
        <ele>-162.17999267578125</ele>
        <time>2018-10-10T14:11:15Z</time>
      </trkpt>
      <trkpt lat="42.24108032" lon="-8.62785728">
        <ele>-162.17999267578125</ele>
        <time>2018-10-10T14:11:17Z</time>
      </trkpt>
      <trkpt lat="42.24101632" lon="-8.62779904">
        <ele>-161.0</ele>
        <time>2018-10-10T14:11:20Z</time>
      </trkpt>
      <trkpt lat="42.24096256" lon="-8.62778368">
        <ele>-161.0</ele>
        <time>2018-10-10T14:11:22Z</time>
      </trkpt>
      <trkpt lat="42.24090112" lon="-8.62777152">
        <ele>-161.0</ele>
        <time>2018-10-10T14:11:24Z</time>
      </trkpt>
      <trkpt lat="42.2408448" lon="-8.62775808">
        <ele>-161.0</ele>
        <time>2018-10-10T14:11:26Z</time>
      </trkpt>
      <trkpt lat="42.24078848" lon="-8.62774656">
        <ele>-161.0</ele>
        <time>2018-10-10T14:11:28Z</time>
      </trkpt>
      <trkpt lat="42.24072704" lon="-8.62773312">
        <ele>-161.0</ele>
        <time>2018-10-10T14:11:30Z</time>
      </trkpt>
      <trkpt lat="42.24066048" lon="-8.62772288">
        <ele>-161.0</ele>
        <time>2018-10-10T14:11:32Z</time>
      </trkpt>
      <trkpt lat="42.2405888" lon="-8.62771712">
        <ele>-161.0</ele>
        <time>2018-10-10T14:11:34Z</time>
      </trkpt>
      <trkpt lat="42.2405248" lon="-8.62771968">
        <ele>-161.0</ele>
        <time>2018-10-10T14:11:36Z</time>
      </trkpt>
      <trkpt lat="42.24045568" lon="-8.6277216">
        <ele>-161.0</ele>
        <time>2018-10-10T14:11:38Z</time>
      </trkpt>
      <trkpt lat="42.240384" lon="-8.62772288">
        <ele>-161.0</ele>
        <time>2018-10-10T14:11:40Z</time>
      </trkpt>
      <trkpt lat="42.24031744" lon="-8.6277216">
        <ele>-161.0</ele>
        <time>2018-10-10T14:11:42Z</time>
      </trkpt>
      <trkpt lat="42.240256" lon="-8.62771968">
        <ele>-159.80999755859375</ele>
        <time>2018-10-10T14:11:44Z</time>
      </trkpt>
      <trkpt lat="42.24019968" lon="-8.62771904">
        <ele>-159.80999755859375</ele>
        <time>2018-10-10T14:11:46Z</time>
      </trkpt>
      <trkpt lat="42.24014592" lon="-8.62771904">
        <ele>-159.80999755859375</ele>
        <time>2018-10-10T14:11:48Z</time>
      </trkpt>
      <trkpt lat="42.24007424" lon="-8.6277152">
        <ele>-159.80999755859375</ele>
        <time>2018-10-10T14:11:51Z</time>
      </trkpt>
      <trkpt lat="42.2400256" lon="-8.62767872">
        <ele>-159.80999755859375</ele>
        <time>2018-10-10T14:11:54Z</time>
      </trkpt>
      <trkpt lat="42.2399744" lon="-8.62763776">
        <ele>-159.80999755859375</ele>
        <time>2018-10-10T14:11:57Z</time>
      </trkpt>
      <trkpt lat="42.23992064" lon="-8.62760192">
        <ele>-159.80999755859375</ele>
        <time>2018-10-10T14:12:00Z</time>
      </trkpt>
      <trkpt lat="42.23984896" lon="-8.62756736">
        <ele>-159.80999755859375</ele>
        <time>2018-10-10T14:12:03Z</time>
      </trkpt>
      <trkpt lat="42.23980032" lon="-8.62754432">
        <ele>-159.80999755859375</ele>
        <time>2018-10-10T14:12:05Z</time>
      </trkpt>
      <trkpt lat="42.23973888" lon="-8.62752128">
        <ele>-159.80999755859375</ele>
        <time>2018-10-10T14:12:07Z</time>
      </trkpt>
      <trkpt lat="42.23967744" lon="-8.62749888">
        <ele>-159.80999755859375</ele>
        <time>2018-10-10T14:12:09Z</time>
      </trkpt>
      <trkpt lat="42.23961344" lon="-8.62747456">
        <ele>-159.80999755859375</ele>
        <time>2018-10-10T14:12:11Z</time>
      </trkpt>
      <trkpt lat="42.23954688" lon="-8.62745024">
        <ele>-159.80999755859375</ele>
        <time>2018-10-10T14:12:13Z</time>
      </trkpt>
      <trkpt lat="42.23948288" lon="-8.6274272">
        <ele>-159.80999755859375</ele>
        <time>2018-10-10T14:12:15Z</time>
      </trkpt>
      <trkpt lat="42.23941888" lon="-8.627408">
        <ele>-161.27000427246094</ele>
        <time>2018-10-10T14:12:17Z</time>
      </trkpt>
      <trkpt lat="42.23935744" lon="-8.627408">
        <ele>-161.27000427246094</ele>
        <time>2018-10-10T14:12:19Z</time>
      </trkpt>
      <trkpt lat="42.23929088" lon="-8.627408">
        <ele>-162.4499969482422</ele>
        <time>2018-10-10T14:12:21Z</time>
      </trkpt>
      <trkpt lat="42.23921664" lon="-8.627408">
        <ele>-163.6300048828125</ele>
        <time>2018-10-10T14:12:23Z</time>
      </trkpt>
      <trkpt lat="42.23913216" lon="-8.62740992">
        <ele>-163.6300048828125</ele>
        <time>2018-10-10T14:12:26Z</time>
      </trkpt>
      <trkpt lat="42.23907072" lon="-8.62740992">
        <ele>-164.80999755859375</ele>
        <time>2018-10-10T14:12:28Z</time>
      </trkpt>
      <trkpt lat="42.23900672" lon="-8.62740416">
        <ele>-164.80999755859375</ele>
        <time>2018-10-10T14:12:30Z</time>
      </trkpt>
      <trkpt lat="42.2389376" lon="-8.62739584">
        <ele>-164.80999755859375</ele>
        <time>2018-10-10T14:12:32Z</time>
      </trkpt>
      <trkpt lat="42.23886848" lon="-8.62738304">
        <ele>-164.80999755859375</ele>
        <time>2018-10-10T14:12:34Z</time>
      </trkpt>
      <trkpt lat="42.23880704" lon="-8.6273696">
        <ele>-164.80999755859375</ele>
        <time>2018-10-10T14:12:36Z</time>
      </trkpt>
      <trkpt lat="42.2387456" lon="-8.62733824">
        <ele>-166.08999633789062</ele>
        <time>2018-10-10T14:12:38Z</time>
      </trkpt>
      <trkpt lat="42.23868672" lon="-8.62731456">
        <ele>-166.08999633789062</ele>
        <time>2018-10-10T14:12:40Z</time>
      </trkpt>
      <trkpt lat="42.23862528" lon="-8.62729344">
        <ele>-166.08999633789062</ele>
        <time>2018-10-10T14:12:42Z</time>
      </trkpt>
      <trkpt lat="42.23855872" lon="-8.62727936">
        <ele>-166.08999633789062</ele>
        <time>2018-10-10T14:12:44Z</time>
      </trkpt>
      <trkpt lat="42.23848704" lon="-8.62727936">
        <ele>-167.5399932861328</ele>
        <time>2018-10-10T14:12:46Z</time>
      </trkpt>
      <trkpt lat="42.23840256" lon="-8.62727168">
        <ele>-167.5399932861328</ele>
        <time>2018-10-10T14:12:48Z</time>
      </trkpt>
      <trkpt lat="42.23825152" lon="-8.6272544">
        <ele>-167.5399932861328</ele>
        <time>2018-10-10T14:12:51Z</time>
      </trkpt>
      <trkpt lat="42.23819264" lon="-8.627248">
        <ele>-168.72000122070312</ele>
        <time>2018-10-10T14:12:52Z</time>
      </trkpt>
      <trkpt lat="42.23807488" lon="-8.62723136">
        <ele>-168.72000122070312</ele>
        <time>2018-10-10T14:12:54Z</time>
      </trkpt>
      <trkpt lat="42.23801088" lon="-8.62722176">
        <ele>-168.72000122070312</ele>
        <time>2018-10-10T14:12:55Z</time>
      </trkpt>
      <trkpt lat="42.23787776" lon="-8.62719616">
        <ele>-168.72000122070312</ele>
        <time>2018-10-10T14:12:57Z</time>
      </trkpt>
      <trkpt lat="42.23781632" lon="-8.62716992">
        <ele>-168.72000122070312</ele>
        <time>2018-10-10T14:12:58Z</time>
      </trkpt>
      <trkpt lat="42.23774976" lon="-8.62714368">
        <ele>-168.72000122070312</ele>
        <time>2018-10-10T14:12:59Z</time>
      </trkpt>
      <trkpt lat="42.23768576" lon="-8.62712128">
        <ele>-168.72000122070312</ele>
        <time>2018-10-10T14:13:00Z</time>
      </trkpt>
      <trkpt lat="42.23762432" lon="-8.62710272">
        <ele>-168.72000122070312</ele>
        <time>2018-10-10T14:13:01Z</time>
      </trkpt>
      <trkpt lat="42.23756288" lon="-8.62709056">
        <ele>-168.72000122070312</ele>
        <time>2018-10-10T14:13:02Z</time>
      </trkpt>
      <trkpt lat="42.237504" lon="-8.62708672">
        <ele>-168.72000122070312</ele>
        <time>2018-10-10T14:13:03Z</time>
      </trkpt>
      <trkpt lat="42.23743744" lon="-8.62709696">
        <ele>-168.72000122070312</ele>
        <time>2018-10-10T14:13:04Z</time>
      </trkpt>
      <trkpt lat="42.237376" lon="-8.62711616">
        <ele>-168.72000122070312</ele>
        <time>2018-10-10T14:13:05Z</time>
      </trkpt>
      <trkpt lat="42.23731712" lon="-8.62714112">
        <ele>-168.72000122070312</ele>
        <time>2018-10-10T14:13:06Z</time>
      </trkpt>
      <trkpt lat="42.23725056" lon="-8.62716608">
        <ele>-168.72000122070312</ele>
        <time>2018-10-10T14:13:07Z</time>
      </trkpt>
      <trkpt lat="42.23718656" lon="-8.627184">
        <ele>-168.72000122070312</ele>
        <time>2018-10-10T14:13:08Z</time>
      </trkpt>
      <trkpt lat="42.23712256" lon="-8.62719168">
        <ele>-170.0</ele>
        <time>2018-10-10T14:13:09Z</time>
      </trkpt>
      <trkpt lat="42.23700224" lon="-8.6271808">
        <ele>-170.0</ele>
        <time>2018-10-10T14:13:11Z</time>
      </trkpt>
      <trkpt lat="42.23695104" lon="-8.62716032">
        <ele>-170.0</ele>
        <time>2018-10-10T14:13:12Z</time>
      </trkpt>
      <trkpt lat="42.23689728" lon="-8.62713408">
        <ele>-171.17999267578125</ele>
        <time>2018-10-10T14:13:13Z</time>
      </trkpt>
      <trkpt lat="42.2368512" lon="-8.62710592">
        <ele>-171.17999267578125</ele>
        <time>2018-10-10T14:13:14Z</time>
      </trkpt>
      <trkpt lat="42.2368" lon="-8.62707904">
        <ele>-171.17999267578125</ele>
        <time>2018-10-10T14:13:15Z</time>
      </trkpt>
      <trkpt lat="42.23671296" lon="-8.62703296">
        <ele>-172.4499969482422</ele>
        <time>2018-10-10T14:13:17Z</time>
      </trkpt>
      <trkpt lat="42.236672" lon="-8.62701888">
        <ele>-172.4499969482422</ele>
        <time>2018-10-10T14:13:18Z</time>
      </trkpt>
      <trkpt lat="42.23659008" lon="-8.62701056">
        <ele>-172.4499969482422</ele>
        <time>2018-10-10T14:13:20Z</time>
      </trkpt>
      <trkpt lat="42.23651072" lon="-8.62702016">
        <ele>-172.4499969482422</ele>
        <time>2018-10-10T14:13:22Z</time>
      </trkpt>
      <trkpt lat="42.23643136" lon="-8.62703616">
        <ele>-172.4499969482422</ele>
        <time>2018-10-10T14:13:24Z</time>
      </trkpt>
      <trkpt lat="42.23635456" lon="-8.6270592">
        <ele>-173.6300048828125</ele>
        <time>2018-10-10T14:13:26Z</time>
      </trkpt>
      <trkpt lat="42.2362752" lon="-8.6270848">
        <ele>-173.6300048828125</ele>
        <time>2018-10-10T14:13:28Z</time>
      </trkpt>
      <trkpt lat="42.23619072" lon="-8.62711424">
        <ele>-173.6300048828125</ele>
        <time>2018-10-10T14:13:30Z</time>
      </trkpt>
      <trkpt lat="42.23611392" lon="-8.62715712">
        <ele>-173.6300048828125</ele>
        <time>2018-10-10T14:13:32Z</time>
      </trkpt>
      <trkpt lat="42.2360448" lon="-8.62722304">
        <ele>-173.6300048828125</ele>
        <time>2018-10-10T14:13:34Z</time>
      </trkpt>
      <trkpt lat="42.23598592" lon="-8.6273088">
        <ele>-173.6300048828125</ele>
        <time>2018-10-10T14:13:36Z</time>
      </trkpt>
      <trkpt lat="42.23592448" lon="-8.62740032">
        <ele>-173.6300048828125</ele>
        <time>2018-10-10T14:13:38Z</time>
      </trkpt>
      <trkpt lat="42.23585536" lon="-8.6274816">
        <ele>-173.6300048828125</ele>
        <time>2018-10-10T14:13:40Z</time>
      </trkpt>
      <trkpt lat="42.23578368" lon="-8.6275584">
        <ele>-173.6300048828125</ele>
        <time>2018-10-10T14:13:42Z</time>
      </trkpt>
      <trkpt lat="42.23570688" lon="-8.62763712">
        <ele>-173.6300048828125</ele>
        <time>2018-10-10T14:13:44Z</time>
      </trkpt>
      <trkpt lat="42.23566336" lon="-8.62767808">
        <ele>-173.6300048828125</ele>
        <time>2018-10-10T14:13:45Z</time>
      </trkpt>
      <trkpt lat="42.235584" lon="-8.6277664">
        <ele>-173.6300048828125</ele>
        <time>2018-10-10T14:13:47Z</time>
      </trkpt>
      <trkpt lat="42.2355456" lon="-8.62781312">
        <ele>-173.6300048828125</ele>
        <time>2018-10-10T14:13:48Z</time>
      </trkpt>
      <trkpt lat="42.23551232" lon="-8.62786944">
        <ele>-173.6300048828125</ele>
        <time>2018-10-10T14:13:49Z</time>
      </trkpt>
      <trkpt lat="42.2354816" lon="-8.62791808">
        <ele>-173.6300048828125</ele>
        <time>2018-10-10T14:13:50Z</time>
      </trkpt>
      <trkpt lat="42.23542784" lon="-8.6279872">
        <ele>-173.6300048828125</ele>
        <time>2018-10-10T14:13:52Z</time>
      </trkpt>
      <trkpt lat="42.2353664" lon="-8.62801856">
        <ele>-173.6300048828125</ele>
        <time>2018-10-10T14:13:54Z</time>
      </trkpt>
      <trkpt lat="42.23530496" lon="-8.62804608">
        <ele>-173.6300048828125</ele>
        <time>2018-10-10T14:13:56Z</time>
      </trkpt>
      <trkpt lat="42.2352384" lon="-8.62807872">
        <ele>-173.6300048828125</ele>
        <time>2018-10-10T14:13:58Z</time>
      </trkpt>
      <trkpt lat="42.23516416" lon="-8.6281088">
        <ele>-173.6300048828125</ele>
        <time>2018-10-10T14:14:00Z</time>
      </trkpt>
      <trkpt lat="42.23509504" lon="-8.62814336">
        <ele>-173.6300048828125</ele>
        <time>2018-10-10T14:14:02Z</time>
      </trkpt>
      <trkpt lat="42.23503104" lon="-8.6281824">
        <ele>-173.6300048828125</ele>
        <time>2018-10-10T14:14:04Z</time>
      </trkpt>
      <trkpt lat="42.2349696" lon="-8.62821952">
        <ele>-173.6300048828125</ele>
        <time>2018-10-10T14:14:06Z</time>
      </trkpt>
      <trkpt lat="42.23490816" lon="-8.6282528">
        <ele>-173.6300048828125</ele>
        <time>2018-10-10T14:14:08Z</time>
      </trkpt>
      <trkpt lat="42.2348544" lon="-8.62828416">
        <ele>-173.6300048828125</ele>
        <time>2018-10-10T14:14:10Z</time>
      </trkpt>
      <trkpt lat="42.23479808" lon="-8.62831424">
        <ele>-173.6300048828125</ele>
        <time>2018-10-10T14:14:12Z</time>
      </trkpt>
      <trkpt lat="42.234752" lon="-8.62833984">
        <ele>-173.6300048828125</ele>
        <time>2018-10-10T14:14:14Z</time>
      </trkpt>
      <trkpt lat="42.23470336" lon="-8.62836352">
        <ele>-173.6300048828125</ele>
        <time>2018-10-10T14:14:16Z</time>
      </trkpt>
      <trkpt lat="42.23465472" lon="-8.6283648">
        <ele>-174.80999755859375</ele>
        <time>2018-10-10T14:14:18Z</time>
      </trkpt>
      <trkpt lat="42.2345728" lon="-8.62833984">
        <ele>-174.80999755859375</ele>
        <time>2018-10-10T14:14:21Z</time>
      </trkpt>
      <trkpt lat="42.23452416" lon="-8.6283104">
        <ele>-174.80999755859375</ele>
        <time>2018-10-10T14:14:23Z</time>
      </trkpt>
      <trkpt lat="42.2344704" lon="-8.62828032">
        <ele>-176.08999633789062</ele>
        <time>2018-10-10T14:14:25Z</time>
      </trkpt>
      <trkpt lat="42.23441664" lon="-8.62825792">
        <ele>-176.08999633789062</ele>
        <time>2018-10-10T14:14:27Z</time>
      </trkpt>
      <trkpt lat="42.234368" lon="-8.62824064">
        <ele>-177.36000061035156</ele>
        <time>2018-10-10T14:14:29Z</time>
      </trkpt>
      <trkpt lat="42.23430912" lon="-8.62822272">
        <ele>-177.36000061035156</ele>
        <time>2018-10-10T14:14:31Z</time>
      </trkpt>
      <trkpt lat="42.23424512" lon="-8.62820544">
        <ele>-177.36000061035156</ele>
        <time>2018-10-10T14:14:33Z</time>
      </trkpt>
      <trkpt lat="42.23418368" lon="-8.62819072">
        <ele>-177.36000061035156</ele>
        <time>2018-10-10T14:14:35Z</time>
      </trkpt>
      <trkpt lat="42.23412992" lon="-8.62817856">
        <ele>-177.36000061035156</ele>
        <time>2018-10-10T14:14:37Z</time>
      </trkpt>
      <trkpt lat="42.23405824" lon="-8.62816128">
        <ele>-177.36000061035156</ele>
        <time>2018-10-10T14:14:40Z</time>
      </trkpt>
      <trkpt lat="42.23400192" lon="-8.62815744">
        <ele>-178.72000122070312</ele>
        <time>2018-10-10T14:14:42Z</time>
      </trkpt>
      <trkpt lat="42.23393536" lon="-8.62816256">
        <ele>-178.72000122070312</ele>
        <time>2018-10-10T14:14:44Z</time>
      </trkpt>
      <trkpt lat="42.23386368" lon="-8.62817664">
        <ele>-178.72000122070312</ele>
        <time>2018-10-10T14:14:46Z</time>
      </trkpt>
      <trkpt lat="42.23378688" lon="-8.628208">
        <ele>-180.17999267578125</ele>
        <time>2018-10-10T14:14:48Z</time>
      </trkpt>
      <trkpt lat="42.23371008" lon="-8.6282656">
        <ele>-180.17999267578125</ele>
        <time>2018-10-10T14:14:50Z</time>
      </trkpt>
      <trkpt lat="42.23364352" lon="-8.6283424">
        <ele>-180.17999267578125</ele>
        <time>2018-10-10T14:14:52Z</time>
      </trkpt>
      <trkpt lat="42.23356672" lon="-8.62841152">
        <ele>-180.17999267578125</ele>
        <time>2018-10-10T14:14:54Z</time>
      </trkpt>
      <trkpt lat="42.23348736" lon="-8.62844928">
        <ele>-180.17999267578125</ele>
        <time>2018-10-10T14:14:56Z</time>
      </trkpt>
      <trkpt lat="42.23339008" lon="-8.62848192">
        <ele>-180.17999267578125</ele>
        <time>2018-10-10T14:14:58Z</time>
      </trkpt>
      <trkpt lat="42.233344" lon="-8.62850304">
        <ele>-178.99000549316406</ele>
        <time>2018-10-10T14:14:59Z</time>
      </trkpt>
      <trkpt lat="42.23325696" lon="-8.62854976">
        <ele>-178.99000549316406</ele>
        <time>2018-10-10T14:15:01Z</time>
      </trkpt>
      <trkpt lat="42.23321088" lon="-8.628576">
        <ele>-178.99000549316406</ele>
        <time>2018-10-10T14:15:02Z</time>
      </trkpt>
      <trkpt lat="42.23311872" lon="-8.6286336">
        <ele>-178.99000549316406</ele>
        <time>2018-10-10T14:15:04Z</time>
      </trkpt>
      <trkpt lat="42.23303168" lon="-8.62869248">
        <ele>-178.99000549316406</ele>
        <time>2018-10-10T14:15:06Z</time>
      </trkpt>
      <trkpt lat="42.23294464" lon="-8.62875456">
        <ele>-178.99000549316406</ele>
        <time>2018-10-10T14:15:08Z</time>
      </trkpt>
      <trkpt lat="42.2328576" lon="-8.62881536">
        <ele>-178.99000549316406</ele>
        <time>2018-10-10T14:15:10Z</time>
      </trkpt>
      <trkpt lat="42.23279104" lon="-8.62886208">
        <ele>-178.99000549316406</ele>
        <time>2018-10-10T14:15:11Z</time>
      </trkpt>
      <trkpt lat="42.23272448" lon="-8.62891264">
        <ele>-178.99000549316406</ele>
        <time>2018-10-10T14:15:13Z</time>
      </trkpt>
      <trkpt lat="42.23266304" lon="-8.62895936">
        <ele>-178.99000549316406</ele>
        <time>2018-10-10T14:15:15Z</time>
      </trkpt>
      <trkpt lat="42.23263232" lon="-8.62906048">
        <ele>-177.72000122070312</ele>
        <time>2018-10-10T14:15:17Z</time>
      </trkpt>
      <trkpt lat="42.23261696" lon="-8.62915968">
        <ele>-177.72000122070312</ele>
        <time>2018-10-10T14:15:19Z</time>
      </trkpt>
      <trkpt lat="42.23260416" lon="-8.62925888">
        <ele>-177.72000122070312</ele>
        <time>2018-10-10T14:15:21Z</time>
      </trkpt>
      <trkpt lat="42.23259648" lon="-8.62935168">
        <ele>-177.72000122070312</ele>
        <time>2018-10-10T14:15:23Z</time>
      </trkpt>
      <trkpt lat="42.23259392" lon="-8.62944">
        <ele>-178.99000549316406</ele>
        <time>2018-10-10T14:15:25Z</time>
      </trkpt>
      <trkpt lat="42.23257856" lon="-8.6295232">
        <ele>-178.99000549316406</ele>
        <time>2018-10-10T14:15:27Z</time>
      </trkpt>
      <trkpt lat="42.23255552" lon="-8.62960512">
        <ele>-178.99000549316406</ele>
        <time>2018-10-10T14:15:29Z</time>
      </trkpt>
      <trkpt lat="42.2325248" lon="-8.62968128">
        <ele>-178.99000549316406</ele>
        <time>2018-10-10T14:15:31Z</time>
      </trkpt>
      <trkpt lat="42.23249152" lon="-8.62974848">
        <ele>-180.17999267578125</ele>
        <time>2018-10-10T14:15:33Z</time>
      </trkpt>
      <trkpt lat="42.23245568" lon="-8.62980736">
        <ele>-180.17999267578125</ele>
        <time>2018-10-10T14:15:35Z</time>
      </trkpt>
      <trkpt lat="42.23241728" lon="-8.62985728">
        <ele>-180.17999267578125</ele>
        <time>2018-10-10T14:15:37Z</time>
      </trkpt>
      <trkpt lat="42.23237632" lon="-8.6299104">
        <ele>-178.80999755859375</ele>
        <time>2018-10-10T14:15:39Z</time>
      </trkpt>
      <trkpt lat="42.23233792" lon="-8.62996416">
        <ele>-178.80999755859375</ele>
        <time>2018-10-10T14:15:41Z</time>
      </trkpt>
      <trkpt lat="42.23229952" lon="-8.63001984">
        <ele>-180.0</ele>
        <time>2018-10-10T14:15:43Z</time>
      </trkpt>
      <trkpt lat="42.23226112" lon="-8.63007552">
        <ele>-180.0</ele>
        <time>2018-10-10T14:15:45Z</time>
      </trkpt>
      <trkpt lat="42.23222784" lon="-8.63012992">
        <ele>-180.0</ele>
        <time>2018-10-10T14:15:47Z</time>
      </trkpt>
      <trkpt lat="42.23219712" lon="-8.63019264">
        <ele>-180.0</ele>
        <time>2018-10-10T14:15:49Z</time>
      </trkpt>
      <trkpt lat="42.23216128" lon="-8.63026432">
        <ele>-180.0</ele>
        <time>2018-10-10T14:15:51Z</time>
      </trkpt>
      <trkpt lat="42.23212544" lon="-8.6303424">
        <ele>-180.0</ele>
        <time>2018-10-10T14:15:53Z</time>
      </trkpt>
      <trkpt lat="42.23207936" lon="-8.63041984">
        <ele>-180.0</ele>
        <time>2018-10-10T14:15:55Z</time>
      </trkpt>
      <trkpt lat="42.23203328" lon="-8.63049408">
        <ele>-178.72000122070312</ele>
        <time>2018-10-10T14:15:57Z</time>
      </trkpt>
      <trkpt lat="42.23198208" lon="-8.63057408">
        <ele>-178.72000122070312</ele>
        <time>2018-10-10T14:15:59Z</time>
      </trkpt>
      <trkpt lat="42.23193344" lon="-8.6306592">
        <ele>-178.72000122070312</ele>
        <time>2018-10-10T14:16:01Z</time>
      </trkpt>
      <trkpt lat="42.23188736" lon="-8.6307392">
        <ele>-178.72000122070312</ele>
        <time>2018-10-10T14:16:03Z</time>
      </trkpt>
      <trkpt lat="42.23182592" lon="-8.63081536">
        <ele>-178.72000122070312</ele>
        <time>2018-10-10T14:16:05Z</time>
      </trkpt>
      <trkpt lat="42.23175936" lon="-8.63089472">
        <ele>-178.72000122070312</ele>
        <time>2018-10-10T14:16:07Z</time>
      </trkpt>
      <trkpt lat="42.23169792" lon="-8.63097408">
        <ele>-178.72000122070312</ele>
        <time>2018-10-10T14:16:09Z</time>
      </trkpt>
      <trkpt lat="42.23163904" lon="-8.63105088">
        <ele>-178.72000122070312</ele>
        <time>2018-10-10T14:16:11Z</time>
      </trkpt>
      <trkpt lat="42.23158528" lon="-8.63112576">
        <ele>-178.72000122070312</ele>
        <time>2018-10-10T14:16:13Z</time>
      </trkpt>
      <trkpt lat="42.23153664" lon="-8.6311968">
        <ele>-178.72000122070312</ele>
        <time>2018-10-10T14:16:15Z</time>
      </trkpt>
      <trkpt lat="42.231488" lon="-8.63126592">
        <ele>-178.72000122070312</ele>
        <time>2018-10-10T14:16:17Z</time>
      </trkpt>
      <trkpt lat="42.23143424" lon="-8.6313344">
        <ele>-179.89999389648438</ele>
        <time>2018-10-10T14:16:19Z</time>
      </trkpt>
      <trkpt lat="42.23137792" lon="-8.63140096">
        <ele>-179.89999389648438</ele>
        <time>2018-10-10T14:16:21Z</time>
      </trkpt>
      <trkpt lat="42.23131136" lon="-8.6314656">
        <ele>-179.89999389648438</ele>
        <time>2018-10-10T14:16:23Z</time>
      </trkpt>
      <trkpt lat="42.23124736" lon="-8.63153344">
        <ele>-179.89999389648438</ele>
        <time>2018-10-10T14:16:25Z</time>
      </trkpt>
      <trkpt lat="42.23117824" lon="-8.63160064">
        <ele>-179.89999389648438</ele>
        <time>2018-10-10T14:16:27Z</time>
      </trkpt>
      <trkpt lat="42.23111424" lon="-8.63166592">
        <ele>-181.08999633789062</ele>
        <time>2018-10-10T14:16:29Z</time>
      </trkpt>
      <trkpt lat="42.23106048" lon="-8.63175488">
        <ele>-181.08999633789062</ele>
        <time>2018-10-10T14:16:31Z</time>
      </trkpt>
      <trkpt lat="42.23101696" lon="-8.63184832">
        <ele>-181.08999633789062</ele>
        <time>2018-10-10T14:16:33Z</time>
      </trkpt>
      <trkpt lat="42.23094272" lon="-8.63198464">
        <ele>-183.0</ele>
        <time>2018-10-10T14:16:35Z</time>
      </trkpt>
      <trkpt lat="42.23092736" lon="-8.63200768">
        <ele>-183.0</ele>
        <time>2018-10-10T14:16:36Z</time>
      </trkpt>
      <trkpt lat="42.23088128" lon="-8.6320736">
        <ele>-184.27000427246094</ele>
        <time>2018-10-10T14:16:38Z</time>
      </trkpt>
      <trkpt lat="42.23081216" lon="-8.63214848">
        <ele>-184.27000427246094</ele>
        <time>2018-10-10T14:16:40Z</time>
      </trkpt>
      <trkpt lat="42.23073536" lon="-8.6322176">
        <ele>-185.5399932861328</ele>
        <time>2018-10-10T14:16:42Z</time>
      </trkpt>
      <trkpt lat="42.23065088" lon="-8.63227776">
        <ele>-185.5399932861328</ele>
        <time>2018-10-10T14:16:44Z</time>
      </trkpt>
      <trkpt lat="42.23056128" lon="-8.63235072">
        <ele>-185.5399932861328</ele>
        <time>2018-10-10T14:16:46Z</time>
      </trkpt>
      <trkpt lat="42.23051008" lon="-8.6323968">
        <ele>-185.5399932861328</ele>
        <time>2018-10-10T14:16:47Z</time>
      </trkpt>
      <trkpt lat="42.230464" lon="-8.63244992">
        <ele>-186.89999389648438</ele>
        <time>2018-10-10T14:16:48Z</time>
      </trkpt>
      <trkpt lat="42.23041792" lon="-8.63250944">
        <ele>-186.89999389648438</ele>
        <time>2018-10-10T14:16:49Z</time>
      </trkpt>
      <trkpt lat="42.23037696" lon="-8.63257792">
        <ele>-186.89999389648438</ele>
        <time>2018-10-10T14:16:50Z</time>
      </trkpt>
      <trkpt lat="42.230336" lon="-8.6326464">
        <ele>-188.17999267578125</ele>
        <time>2018-10-10T14:16:51Z</time>
      </trkpt>
      <trkpt lat="42.23029248" lon="-8.63271424">
        <ele>-188.17999267578125</ele>
        <time>2018-10-10T14:16:52Z</time>
      </trkpt>
      <trkpt lat="42.23023872" lon="-8.63277504">
        <ele>-188.17999267578125</ele>
        <time>2018-10-10T14:16:53Z</time>
      </trkpt>
      <trkpt lat="42.23017472" lon="-8.63285568">
        <ele>-188.17999267578125</ele>
        <time>2018-10-10T14:16:54Z</time>
      </trkpt>
      <trkpt lat="42.2301056" lon="-8.63291456">
        <ele>-188.17999267578125</ele>
        <time>2018-10-10T14:16:55Z</time>
      </trkpt>
      <trkpt lat="42.23002368" lon="-8.63294528">
        <ele>-189.4499969482422</ele>
        <time>2018-10-10T14:16:56Z</time>
      </trkpt>
      <trkpt lat="42.2299392" lon="-8.63296896">
        <ele>-189.4499969482422</ele>
        <time>2018-10-10T14:16:57Z</time>
      </trkpt>
      <trkpt lat="42.2298496" lon="-8.63298816">
        <ele>-189.4499969482422</ele>
        <time>2018-10-10T14:16:58Z</time>
      </trkpt>
      <trkpt lat="42.22976768" lon="-8.6330016">
        <ele>-189.4499969482422</ele>
        <time>2018-10-10T14:16:59Z</time>
      </trkpt>
      <trkpt lat="42.2296832" lon="-8.63300736">
        <ele>-189.4499969482422</ele>
        <time>2018-10-10T14:17:00Z</time>
      </trkpt>
      <trkpt lat="42.22959872" lon="-8.63300608">
        <ele>-189.4499969482422</ele>
        <time>2018-10-10T14:17:01Z</time>
      </trkpt>
      <trkpt lat="42.22952192" lon="-8.63300864">
        <ele>-189.4499969482422</ele>
        <time>2018-10-10T14:17:02Z</time>
      </trkpt>
      <trkpt lat="42.2294528" lon="-8.63302144">
        <ele>-189.4499969482422</ele>
        <time>2018-10-10T14:17:03Z</time>
      </trkpt>
      <trkpt lat="42.2293888" lon="-8.63304448">
        <ele>-189.4499969482422</ele>
        <time>2018-10-10T14:17:04Z</time>
      </trkpt>
      <trkpt lat="42.229312" lon="-8.63308224">
        <ele>-189.4499969482422</ele>
        <time>2018-10-10T14:17:05Z</time>
      </trkpt>
      <trkpt lat="42.22924032" lon="-8.63312704">
        <ele>-189.4499969482422</ele>
        <time>2018-10-10T14:17:06Z</time>
      </trkpt>
      <trkpt lat="42.229184" lon="-8.6331776">
        <ele>-189.4499969482422</ele>
        <time>2018-10-10T14:17:07Z</time>
      </trkpt>
      <trkpt lat="42.2291328" lon="-8.63322368">
        <ele>-189.4499969482422</ele>
        <time>2018-10-10T14:17:08Z</time>
      </trkpt>
      <trkpt lat="42.22909184" lon="-8.63326656">
        <ele>-189.4499969482422</ele>
        <time>2018-10-10T14:17:09Z</time>
      </trkpt>
      <trkpt lat="42.2290432" lon="-8.63330624">
        <ele>-190.6300048828125</ele>
        <time>2018-10-10T14:17:10Z</time>
      </trkpt>
      <trkpt lat="42.22899968" lon="-8.63334912">
        <ele>-190.6300048828125</ele>
        <time>2018-10-10T14:17:11Z</time>
      </trkpt>
      <trkpt lat="42.22896128" lon="-8.63338944">
        <ele>-191.89999389648438</ele>
        <time>2018-10-10T14:17:12Z</time>
      </trkpt>
      <trkpt lat="42.22890496" lon="-8.63345984">
        <ele>-191.89999389648438</ele>
        <time>2018-10-10T14:17:14Z</time>
      </trkpt>
      <trkpt lat="42.228864" lon="-8.63351168">
        <ele>-193.08999633789062</ele>
        <time>2018-10-10T14:17:16Z</time>
      </trkpt>
      <trkpt lat="42.2288256" lon="-8.63355264">
        <ele>-193.08999633789062</ele>
        <time>2018-10-10T14:17:18Z</time>
      </trkpt>
      <trkpt lat="42.22875648" lon="-8.63355648">
        <ele>-194.36000061035156</ele>
        <time>2018-10-10T14:17:21Z</time>
      </trkpt>
      <trkpt lat="42.22871808" lon="-8.63346944">
        <ele>-194.36000061035156</ele>
        <time>2018-10-10T14:17:24Z</time>
      </trkpt>
      <trkpt lat="42.22869504" lon="-8.63339456">
        <ele>-194.36000061035156</ele>
        <time>2018-10-10T14:17:26Z</time>
      </trkpt>
      <trkpt lat="42.22866944" lon="-8.63332288">
        <ele>-194.36000061035156</ele>
        <time>2018-10-10T14:17:28Z</time>
      </trkpt>
      <trkpt lat="42.22861568" lon="-8.63326656">
        <ele>-194.36000061035156</ele>
        <time>2018-10-10T14:17:30Z</time>
      </trkpt>
      <trkpt lat="42.22854912" lon="-8.63324352">
        <ele>-195.5399932861328</ele>
        <time>2018-10-10T14:17:32Z</time>
      </trkpt>
      <trkpt lat="42.22847744" lon="-8.63324736">
        <ele>-195.5399932861328</ele>
        <time>2018-10-10T14:17:34Z</time>
      </trkpt>
      <trkpt lat="42.22840064" lon="-8.63327104">
        <ele>-195.5399932861328</ele>
        <time>2018-10-10T14:17:36Z</time>
      </trkpt>
      <trkpt lat="42.2283392" lon="-8.63332864">
        <ele>-195.5399932861328</ele>
        <time>2018-10-10T14:17:38Z</time>
      </trkpt>
      <trkpt lat="42.2282752" lon="-8.633456">
        <ele>-195.5399932861328</ele>
        <time>2018-10-10T14:17:41Z</time>
      </trkpt>
      <trkpt lat="42.22823424" lon="-8.6335104">
        <ele>-195.5399932861328</ele>
        <time>2018-10-10T14:17:43Z</time>
      </trkpt>
      <trkpt lat="42.22817536" lon="-8.6335328">
        <ele>-195.5399932861328</ele>
        <time>2018-10-10T14:17:46Z</time>
      </trkpt>
      <trkpt lat="42.22810368" lon="-8.63352">
        <ele>-194.36000061035156</ele>
        <time>2018-10-10T14:17:49Z</time>
      </trkpt>
      <trkpt lat="42.22803968" lon="-8.63350976">
        <ele>-194.36000061035156</ele>
        <time>2018-10-10T14:17:51Z</time>
      </trkpt>
      <trkpt lat="42.2279424" lon="-8.63351552">
        <ele>-194.36000061035156</ele>
        <time>2018-10-10T14:17:54Z</time>
      </trkpt>
      <trkpt lat="42.22787584" lon="-8.63354304">
        <ele>-194.36000061035156</ele>
        <time>2018-10-10T14:17:56Z</time>
      </trkpt>
      <trkpt lat="42.2278016" lon="-8.633584">
        <ele>-194.36000061035156</ele>
        <time>2018-10-10T14:17:58Z</time>
      </trkpt>
      <trkpt lat="42.22772992" lon="-8.6336288">
        <ele>-194.36000061035156</ele>
        <time>2018-10-10T14:18:00Z</time>
      </trkpt>
      <trkpt lat="42.22766848" lon="-8.63364416">
        <ele>-194.36000061035156</ele>
        <time>2018-10-10T14:18:02Z</time>
      </trkpt>
      <trkpt lat="42.22761472" lon="-8.63362432">
        <ele>-194.36000061035156</ele>
        <time>2018-10-10T14:18:04Z</time>
      </trkpt>
      <trkpt lat="42.22757376" lon="-8.63359232">
        <ele>-194.36000061035156</ele>
        <time>2018-10-10T14:18:06Z</time>
      </trkpt>
      <trkpt lat="42.22752256" lon="-8.6335392">
        <ele>-194.36000061035156</ele>
        <time>2018-10-10T14:18:09Z</time>
      </trkpt>
      <trkpt lat="42.2274816" lon="-8.63348864">
        <ele>-194.36000061035156</ele>
        <time>2018-10-10T14:18:12Z</time>
      </trkpt>
      <trkpt lat="42.22745088" lon="-8.63342656">
        <ele>-194.36000061035156</ele>
        <time>2018-10-10T14:18:15Z</time>
      </trkpt>
      <trkpt lat="42.22740224" lon="-8.63338176">
        <ele>-194.36000061035156</ele>
        <time>2018-10-10T14:18:18Z</time>
      </trkpt>
      <trkpt lat="42.22733568" lon="-8.63334848">
        <ele>-194.36000061035156</ele>
        <time>2018-10-10T14:18:21Z</time>
      </trkpt>
      <trkpt lat="42.22726144" lon="-8.63333696">
        <ele>-194.36000061035156</ele>
        <time>2018-10-10T14:18:24Z</time>
      </trkpt>
      <trkpt lat="42.22720768" lon="-8.63334592">
        <ele>-193.17999267578125</ele>
        <time>2018-10-10T14:18:26Z</time>
      </trkpt>
      <trkpt lat="42.2271616" lon="-8.6333568">
        <ele>-193.17999267578125</ele>
        <time>2018-10-10T14:18:28Z</time>
      </trkpt>
      <trkpt lat="42.2270976" lon="-8.63338176">
        <ele>-193.17999267578125</ele>
        <time>2018-10-10T14:18:31Z</time>
      </trkpt>
      <trkpt lat="42.22703872" lon="-8.63340544">
        <ele>-193.17999267578125</ele>
        <time>2018-10-10T14:18:34Z</time>
      </trkpt>
      <trkpt lat="42.22697728" lon="-8.63342784">
        <ele>-193.17999267578125</ele>
        <time>2018-10-10T14:18:37Z</time>
      </trkpt>
      <trkpt lat="42.22691072" lon="-8.63345536">
        <ele>-193.17999267578125</ele>
        <time>2018-10-10T14:18:40Z</time>
      </trkpt>
      <trkpt lat="42.22685696" lon="-8.63348608">
        <ele>-193.17999267578125</ele>
        <time>2018-10-10T14:18:42Z</time>
      </trkpt>
      <trkpt lat="42.22680576" lon="-8.6335136">
        <ele>-191.99000549316406</ele>
        <time>2018-10-10T14:18:44Z</time>
      </trkpt>
      <trkpt lat="42.22675712" lon="-8.63353728">
        <ele>-191.99000549316406</ele>
        <time>2018-10-10T14:18:46Z</time>
      </trkpt>
      <trkpt lat="42.22668032" lon="-8.63357056">
        <ele>-191.99000549316406</ele>
        <time>2018-10-10T14:18:49Z</time>
      </trkpt>
      <trkpt lat="42.22663168" lon="-8.63358208">
        <ele>-191.99000549316406</ele>
        <time>2018-10-10T14:18:51Z</time>
      </trkpt>
      <trkpt lat="42.22655232" lon="-8.63359552">
        <ele>-191.99000549316406</ele>
        <time>2018-10-10T14:18:54Z</time>
      </trkpt>
      <trkpt lat="42.22649856" lon="-8.63361344">
        <ele>-191.99000549316406</ele>
        <time>2018-10-10T14:18:56Z</time>
      </trkpt>
      <trkpt lat="42.22645248" lon="-8.6336384">
        <ele>-190.72000122070312</ele>
        <time>2018-10-10T14:18:58Z</time>
      </trkpt>
      <trkpt lat="42.22640128" lon="-8.63366784">
        <ele>-190.72000122070312</ele>
        <time>2018-10-10T14:19:00Z</time>
      </trkpt>
      <trkpt lat="42.22635008" lon="-8.6337024">
        <ele>-189.4499969482422</ele>
        <time>2018-10-10T14:19:02Z</time>
      </trkpt>
      <trkpt lat="42.226304" lon="-8.63373376">
        <ele>-189.4499969482422</ele>
        <time>2018-10-10T14:19:04Z</time>
      </trkpt>
      <trkpt lat="42.22625792" lon="-8.63376512">
        <ele>-189.4499969482422</ele>
        <time>2018-10-10T14:19:06Z</time>
      </trkpt>
      <trkpt lat="42.22620416" lon="-8.63380032">
        <ele>-189.4499969482422</ele>
        <time>2018-10-10T14:19:08Z</time>
      </trkpt>
      <trkpt lat="42.22614784" lon="-8.63383488">
        <ele>-188.17999267578125</ele>
        <time>2018-10-10T14:19:10Z</time>
      </trkpt>
      <trkpt lat="42.2260864" lon="-8.63386432">
        <ele>-188.17999267578125</ele>
        <time>2018-10-10T14:19:12Z</time>
      </trkpt>
      <trkpt lat="42.22602752" lon="-8.63389184">
        <ele>-188.17999267578125</ele>
        <time>2018-10-10T14:19:14Z</time>
      </trkpt>
      <trkpt lat="42.22597376" lon="-8.63391808">
        <ele>-188.17999267578125</ele>
        <time>2018-10-10T14:19:16Z</time>
      </trkpt>
      <trkpt lat="42.22591744" lon="-8.63394432">
        <ele>-188.17999267578125</ele>
        <time>2018-10-10T14:19:18Z</time>
      </trkpt>
      <trkpt lat="42.22586112" lon="-8.63396864">
        <ele>-186.99000549316406</ele>
        <time>2018-10-10T14:19:20Z</time>
      </trkpt>
      <trkpt lat="42.22580736" lon="-8.63399104">
        <ele>-186.99000549316406</ele>
        <time>2018-10-10T14:19:22Z</time>
      </trkpt>
      <trkpt lat="42.22575872" lon="-8.63401408">
        <ele>-185.80999755859375</ele>
        <time>2018-10-10T14:19:24Z</time>
      </trkpt>
      <trkpt lat="42.22570752" lon="-8.63403904">
        <ele>-185.80999755859375</ele>
        <time>2018-10-10T14:19:26Z</time>
      </trkpt>
      <trkpt lat="42.22565888" lon="-8.634064">
        <ele>-185.80999755859375</ele>
        <time>2018-10-10T14:19:28Z</time>
      </trkpt>
      <trkpt lat="42.22561536" lon="-8.63408576">
        <ele>-185.80999755859375</ele>
        <time>2018-10-10T14:19:30Z</time>
      </trkpt>
      <trkpt lat="42.2255488" lon="-8.63412352">
        <ele>-185.80999755859375</ele>
        <time>2018-10-10T14:19:33Z</time>
      </trkpt>
      <trkpt lat="42.2254976" lon="-8.6341504">
        <ele>-185.80999755859375</ele>
        <time>2018-10-10T14:19:35Z</time>
      </trkpt>
      <trkpt lat="42.22544896" lon="-8.63417792">
        <ele>-184.5399932861328</ele>
        <time>2018-10-10T14:19:37Z</time>
      </trkpt>
      <trkpt lat="42.2253952" lon="-8.6342048">
        <ele>-183.27000427246094</ele>
        <time>2018-10-10T14:19:39Z</time>
      </trkpt>
      <trkpt lat="42.22534912" lon="-8.6342304">
        <ele>-183.27000427246094</ele>
        <time>2018-10-10T14:19:41Z</time>
      </trkpt>
      <trkpt lat="42.22530304" lon="-8.63425664">
        <ele>-182.08999633789062</ele>
        <time>2018-10-10T14:19:43Z</time>
      </trkpt>
      <trkpt lat="42.22523904" lon="-8.63429248">
        <ele>-182.08999633789062</ele>
        <time>2018-10-10T14:19:46Z</time>
      </trkpt>
      <trkpt lat="42.22519808" lon="-8.63431424">
        <ele>-180.89999389648438</ele>
        <time>2018-10-10T14:19:48Z</time>
      </trkpt>
      <trkpt lat="42.22512896" lon="-8.63435008">
        <ele>-180.89999389648438</ele>
        <time>2018-10-10T14:19:51Z</time>
      </trkpt>
      <trkpt lat="42.2250624" lon="-8.63438592">
        <ele>-179.72000122070312</ele>
        <time>2018-10-10T14:19:54Z</time>
      </trkpt>
      <trkpt lat="42.22500608" lon="-8.63442304">
        <ele>-179.72000122070312</ele>
        <time>2018-10-10T14:19:57Z</time>
      </trkpt>
      <trkpt lat="42.22495232" lon="-8.63445952">
        <ele>-179.72000122070312</ele>
        <time>2018-10-10T14:20:00Z</time>
      </trkpt>
      <trkpt lat="42.22490624" lon="-8.63449472">
        <ele>-179.72000122070312</ele>
        <time>2018-10-10T14:20:03Z</time>
      </trkpt>
      <trkpt lat="42.22486528" lon="-8.63452928">
        <ele>-179.72000122070312</ele>
        <time>2018-10-10T14:20:06Z</time>
      </trkpt>
      <trkpt lat="42.22481664" lon="-8.63457408">
        <ele>-178.5399932861328</ele>
        <time>2018-10-10T14:20:10Z</time>
      </trkpt>
      <trkpt lat="42.22476288" lon="-8.63461504">
        <ele>-178.5399932861328</ele>
        <time>2018-10-10T14:20:13Z</time>
      </trkpt>
      <trkpt lat="42.22470144" lon="-8.63465984">
        <ele>-178.5399932861328</ele>
        <time>2018-10-10T14:20:16Z</time>
      </trkpt>
      <trkpt lat="42.22464" lon="-8.63470272">
        <ele>-178.5399932861328</ele>
        <time>2018-10-10T14:20:19Z</time>
      </trkpt>
      <trkpt lat="42.22458368" lon="-8.63474304">
        <ele>-178.5399932861328</ele>
        <time>2018-10-10T14:20:22Z</time>
      </trkpt>
      <trkpt lat="42.2245248" lon="-8.63477888">
        <ele>-178.5399932861328</ele>
        <time>2018-10-10T14:20:25Z</time>
      </trkpt>
      <trkpt lat="42.22446336" lon="-8.63481216">
        <ele>-178.5399932861328</ele>
        <time>2018-10-10T14:20:28Z</time>
      </trkpt>
      <trkpt lat="42.22441216" lon="-8.6348352">
        <ele>-178.5399932861328</ele>
        <time>2018-10-10T14:20:31Z</time>
      </trkpt>
      <trkpt lat="42.2243584" lon="-8.63485312">
        <ele>-178.5399932861328</ele>
        <time>2018-10-10T14:20:34Z</time>
      </trkpt>
      <trkpt lat="42.22430464" lon="-8.634864">
        <ele>-177.36000061035156</ele>
        <time>2018-10-10T14:20:37Z</time>
      </trkpt>
      <trkpt lat="42.22425088" lon="-8.63486784">
        <ele>-177.36000061035156</ele>
        <time>2018-10-10T14:20:40Z</time>
      </trkpt>
      <trkpt lat="42.22418944" lon="-8.6348736">
        <ele>-177.36000061035156</ele>
        <time>2018-10-10T14:20:43Z</time>
      </trkpt>
      <trkpt lat="42.22413312" lon="-8.63487616">
        <ele>-177.36000061035156</ele>
        <time>2018-10-10T14:20:46Z</time>
      </trkpt>
      <trkpt lat="42.2240896" lon="-8.63494976">
        <ele>-177.36000061035156</ele>
        <time>2018-10-10T14:20:49Z</time>
      </trkpt>
      <trkpt lat="42.22406656" lon="-8.63506048">
        <ele>-177.36000061035156</ele>
        <time>2018-10-10T14:20:51Z</time>
      </trkpt>
      <trkpt lat="42.22406656" lon="-8.63508032">
        <ele>-176.17999267578125</ele>
        <time>2018-10-10T14:20:52Z</time>
      </trkpt>
      <trkpt lat="42.2240512" lon="-8.63519872">
        <ele>-176.17999267578125</ele>
        <time>2018-10-10T14:20:55Z</time>
      </trkpt>
      <trkpt lat="42.22403072" lon="-8.63528448">
        <ele>-176.17999267578125</ele>
        <time>2018-10-10T14:20:57Z</time>
      </trkpt>
      <trkpt lat="42.22399488" lon="-8.63536384">
        <ele>-176.17999267578125</ele>
        <time>2018-10-10T14:20:59Z</time>
      </trkpt>
      <trkpt lat="42.22394112" lon="-8.6354304">
        <ele>-176.17999267578125</ele>
        <time>2018-10-10T14:21:01Z</time>
      </trkpt>
      <trkpt lat="42.22387968" lon="-8.63547712">
        <ele>-176.17999267578125</ele>
        <time>2018-10-10T14:21:03Z</time>
      </trkpt>
      <trkpt lat="42.22381312" lon="-8.63549696">
        <ele>-174.99000549316406</ele>
        <time>2018-10-10T14:21:05Z</time>
      </trkpt>
      <trkpt lat="42.223744" lon="-8.63549056">
        <ele>-174.99000549316406</ele>
        <time>2018-10-10T14:21:07Z</time>
      </trkpt>
      <trkpt lat="42.22367488" lon="-8.63546368">
        <ele>-173.6300048828125</ele>
        <time>2018-10-10T14:21:09Z</time>
      </trkpt>
      <trkpt lat="42.22360576" lon="-8.63542848">
        <ele>-173.6300048828125</ele>
        <time>2018-10-10T14:21:11Z</time>
      </trkpt>
      <trkpt lat="42.22354176" lon="-8.63538752">
        <ele>-173.6300048828125</ele>
        <time>2018-10-10T14:21:13Z</time>
      </trkpt>
      <trkpt lat="42.2234752" lon="-8.63534656">
        <ele>-172.4499969482422</ele>
        <time>2018-10-10T14:21:15Z</time>
      </trkpt>
      <trkpt lat="42.22341888" lon="-8.63530048">
        <ele>-172.4499969482422</ele>
        <time>2018-10-10T14:21:17Z</time>
      </trkpt>
      <trkpt lat="42.22335744" lon="-8.63525312">
        <ele>-172.4499969482422</ele>
        <time>2018-10-10T14:21:19Z</time>
      </trkpt>
      <trkpt lat="42.223296" lon="-8.63520448">
        <ele>-171.27000427246094</ele>
        <time>2018-10-10T14:21:21Z</time>
      </trkpt>
      <trkpt lat="42.223232" lon="-8.63515776">
        <ele>-171.27000427246094</ele>
        <time>2018-10-10T14:21:23Z</time>
      </trkpt>
      <trkpt lat="42.22316288" lon="-8.63511552">
        <ele>-171.27000427246094</ele>
        <time>2018-10-10T14:21:25Z</time>
      </trkpt>
      <trkpt lat="42.22309376" lon="-8.6350816">
        <ele>-171.27000427246094</ele>
        <time>2018-10-10T14:21:27Z</time>
      </trkpt>
      <trkpt lat="42.22302976" lon="-8.6350624">
        <ele>-169.99000549316406</ele>
        <time>2018-10-10T14:21:29Z</time>
      </trkpt>
      <trkpt lat="42.22296576" lon="-8.63504192">
        <ele>-169.99000549316406</ele>
        <time>2018-10-10T14:21:31Z</time>
      </trkpt>
      <trkpt lat="42.22290688" lon="-8.63501376">
        <ele>-169.99000549316406</ele>
        <time>2018-10-10T14:21:33Z</time>
      </trkpt>
      <trkpt lat="42.222848" lon="-8.63498112">
        <ele>-169.99000549316406</ele>
        <time>2018-10-10T14:21:35Z</time>
      </trkpt>
      <trkpt lat="42.22278656" lon="-8.63494976">
        <ele>-168.80999755859375</ele>
        <time>2018-10-10T14:21:37Z</time>
      </trkpt>
      <trkpt lat="42.2227328" lon="-8.63492224">
        <ele>-168.80999755859375</ele>
        <time>2018-10-10T14:21:39Z</time>
      </trkpt>
      <trkpt lat="42.22267904" lon="-8.63489728">
        <ele>-168.80999755859375</ele>
        <time>2018-10-10T14:21:41Z</time>
      </trkpt>
      <trkpt lat="42.22262528" lon="-8.6348704">
        <ele>-168.80999755859375</ele>
        <time>2018-10-10T14:21:43Z</time>
      </trkpt>
      <trkpt lat="42.22257152" lon="-8.63484352">
        <ele>-167.5399932861328</ele>
        <time>2018-10-10T14:21:45Z</time>
      </trkpt>
      <trkpt lat="42.22252288" lon="-8.634816">
        <ele>-167.5399932861328</ele>
        <time>2018-10-10T14:21:47Z</time>
      </trkpt>
      <trkpt lat="42.22246912" lon="-8.63478784">
        <ele>-167.5399932861328</ele>
        <time>2018-10-10T14:21:49Z</time>
      </trkpt>
      <trkpt lat="42.22241536" lon="-8.63475904">
        <ele>-167.5399932861328</ele>
        <time>2018-10-10T14:21:51Z</time>
      </trkpt>
      <trkpt lat="42.22236928" lon="-8.63473216">
        <ele>-167.5399932861328</ele>
        <time>2018-10-10T14:21:53Z</time>
      </trkpt>
      <trkpt lat="42.2222976" lon="-8.63468928">
        <ele>-167.5399932861328</ele>
        <time>2018-10-10T14:21:56Z</time>
      </trkpt>
      <trkpt lat="42.22224896" lon="-8.63466176">
        <ele>-167.5399932861328</ele>
        <time>2018-10-10T14:21:58Z</time>
      </trkpt>
      <trkpt lat="42.22219776" lon="-8.63463104">
        <ele>-166.36000061035156</ele>
        <time>2018-10-10T14:22:00Z</time>
      </trkpt>
      <trkpt lat="42.22214912" lon="-8.6346016">
        <ele>-166.36000061035156</ele>
        <time>2018-10-10T14:22:02Z</time>
      </trkpt>
      <trkpt lat="42.22210048" lon="-8.63457216">
        <ele>-166.36000061035156</ele>
        <time>2018-10-10T14:22:04Z</time>
      </trkpt>
      <trkpt lat="42.2220544" lon="-8.63454464">
        <ele>-166.36000061035156</ele>
        <time>2018-10-10T14:22:06Z</time>
      </trkpt>
      <trkpt lat="42.2220032" lon="-8.63451648">
        <ele>-166.36000061035156</ele>
        <time>2018-10-10T14:22:08Z</time>
      </trkpt>
      <trkpt lat="42.22195712" lon="-8.63448896">
        <ele>-165.17999267578125</ele>
        <time>2018-10-10T14:22:10Z</time>
      </trkpt>
      <trkpt lat="42.22189056" lon="-8.634448">
        <ele>-165.17999267578125</ele>
        <time>2018-10-10T14:22:13Z</time>
      </trkpt>
      <trkpt lat="42.22183936" lon="-8.63441664">
        <ele>-165.17999267578125</ele>
        <time>2018-10-10T14:22:15Z</time>
      </trkpt>
      <trkpt lat="42.22179072" lon="-8.63438592">
        <ele>-165.17999267578125</ele>
        <time>2018-10-10T14:22:17Z</time>
      </trkpt>
      <trkpt lat="42.22174464" lon="-8.63435456">
        <ele>-163.89999389648438</ele>
        <time>2018-10-10T14:22:19Z</time>
      </trkpt>
      <trkpt lat="42.221696" lon="-8.63432384">
        <ele>-163.89999389648438</ele>
        <time>2018-10-10T14:22:21Z</time>
      </trkpt>
      <trkpt lat="42.22165248" lon="-8.6342944">
        <ele>-163.89999389648438</ele>
        <time>2018-10-10T14:22:23Z</time>
      </trkpt>
      <trkpt lat="42.22158848" lon="-8.63424896">
        <ele>-163.89999389648438</ele>
        <time>2018-10-10T14:22:26Z</time>
      </trkpt>
      <trkpt lat="42.22152448" lon="-8.63419904">
        <ele>-162.72000122070312</ele>
        <time>2018-10-10T14:22:29Z</time>
      </trkpt>
      <trkpt lat="42.22147328" lon="-8.63416192">
        <ele>-161.5399932861328</ele>
        <time>2018-10-10T14:22:31Z</time>
      </trkpt>
      <trkpt lat="42.2214272" lon="-8.63412864">
        <ele>-161.5399932861328</ele>
        <time>2018-10-10T14:22:33Z</time>
      </trkpt>
      <trkpt lat="42.22138112" lon="-8.63409216">
        <ele>-161.5399932861328</ele>
        <time>2018-10-10T14:22:35Z</time>
      </trkpt>
      <trkpt lat="42.2213376" lon="-8.63405696">
        <ele>-161.5399932861328</ele>
        <time>2018-10-10T14:22:37Z</time>
      </trkpt>
      <trkpt lat="42.2212864" lon="-8.6340192">
        <ele>-160.36000061035156</ele>
        <time>2018-10-10T14:22:39Z</time>
      </trkpt>
      <trkpt lat="42.22123776" lon="-8.63397952">
        <ele>-160.36000061035156</ele>
        <time>2018-10-10T14:22:41Z</time>
      </trkpt>
      <trkpt lat="42.221184" lon="-8.63393984">
        <ele>-160.36000061035156</ele>
        <time>2018-10-10T14:22:43Z</time>
      </trkpt>
      <trkpt lat="42.22113792" lon="-8.6339008">
        <ele>-159.17999267578125</ele>
        <time>2018-10-10T14:22:45Z</time>
      </trkpt>
      <trkpt lat="42.22108928" lon="-8.63386176">
        <ele>-159.17999267578125</ele>
        <time>2018-10-10T14:22:47Z</time>
      </trkpt>
      <trkpt lat="42.22103808" lon="-8.63383552">
        <ele>-159.17999267578125</ele>
        <time>2018-10-10T14:22:49Z</time>
      </trkpt>
      <trkpt lat="42.22097664" lon="-8.63387392">
        <ele>-157.99000549316406</ele>
        <time>2018-10-10T14:22:52Z</time>
      </trkpt>
      <trkpt lat="42.22093312" lon="-8.63394368">
        <ele>-157.99000549316406</ele>
        <time>2018-10-10T14:22:55Z</time>
      </trkpt>
      <trkpt lat="42.2209024" lon="-8.63399488">
        <ele>-157.99000549316406</ele>
        <time>2018-10-10T14:22:57Z</time>
      </trkpt>
      <trkpt lat="42.22085632" lon="-8.63407424">
        <ele>-156.80999755859375</ele>
        <time>2018-10-10T14:23:00Z</time>
      </trkpt>
      <trkpt lat="42.22082816" lon="-8.63412928">
        <ele>-156.80999755859375</ele>
        <time>2018-10-10T14:23:02Z</time>
      </trkpt>
      <trkpt lat="42.22078976" lon="-8.634208">
        <ele>-155.5399932861328</ele>
        <time>2018-10-10T14:23:05Z</time>
      </trkpt>
      <trkpt lat="42.22074624" lon="-8.63428608">
        <ele>-155.5399932861328</ele>
        <time>2018-10-10T14:23:08Z</time>
      </trkpt>
      <trkpt lat="42.2207104" lon="-8.63435904">
        <ele>-154.36000061035156</ele>
        <time>2018-10-10T14:23:11Z</time>
      </trkpt>
      <trkpt lat="42.22067712" lon="-8.63443072">
        <ele>-154.36000061035156</ele>
        <time>2018-10-10T14:23:14Z</time>
      </trkpt>
      <trkpt lat="42.22064128" lon="-8.63450432">
        <ele>-155.72000122070312</ele>
        <time>2018-10-10T14:23:17Z</time>
      </trkpt>
      <trkpt lat="42.220608" lon="-8.63457664">
        <ele>-155.72000122070312</ele>
        <time>2018-10-10T14:23:20Z</time>
      </trkpt>
      <trkpt lat="42.2205696" lon="-8.63464">
        <ele>-155.72000122070312</ele>
        <time>2018-10-10T14:23:23Z</time>
      </trkpt>
      <trkpt lat="42.22052864" lon="-8.63470144">
        <ele>-155.72000122070312</ele>
        <time>2018-10-10T14:23:26Z</time>
      </trkpt>
      <trkpt lat="42.2204672" lon="-8.63475584">
        <ele>-155.72000122070312</ele>
        <time>2018-10-10T14:23:29Z</time>
      </trkpt>
      <trkpt lat="42.22042112" lon="-8.63480832">
        <ele>-154.5399932861328</ele>
        <time>2018-10-10T14:23:32Z</time>
      </trkpt>
      <trkpt lat="42.2203776" lon="-8.634864">
        <ele>-154.5399932861328</ele>
        <time>2018-10-10T14:23:35Z</time>
      </trkpt>
      <trkpt lat="42.22034432" lon="-8.63493056">
        <ele>-153.27000427246094</ele>
        <time>2018-10-10T14:23:38Z</time>
      </trkpt>
      <trkpt lat="42.2203136" lon="-8.63499904">
        <ele>-153.27000427246094</ele>
        <time>2018-10-10T14:23:41Z</time>
      </trkpt>
      <trkpt lat="42.220288" lon="-8.63506496">
        <ele>-153.27000427246094</ele>
        <time>2018-10-10T14:23:44Z</time>
      </trkpt>
      <trkpt lat="42.22025728" lon="-8.63512832">
        <ele>-151.99000549316406</ele>
        <time>2018-10-10T14:23:47Z</time>
      </trkpt>
      <trkpt lat="42.22022656" lon="-8.63518592">
        <ele>-151.99000549316406</ele>
        <time>2018-10-10T14:23:50Z</time>
      </trkpt>
      <trkpt lat="42.22019584" lon="-8.63524352">
        <ele>-151.99000549316406</ele>
        <time>2018-10-10T14:23:53Z</time>
      </trkpt>
      <trkpt lat="42.22017024" lon="-8.63529792">
        <ele>-151.99000549316406</ele>
        <time>2018-10-10T14:23:56Z</time>
      </trkpt>
      <trkpt lat="42.22013952" lon="-8.6353728">
        <ele>-151.99000549316406</ele>
        <time>2018-10-10T14:24:00Z</time>
      </trkpt>
      <trkpt lat="42.22011136" lon="-8.63544448">
        <ele>-151.99000549316406</ele>
        <time>2018-10-10T14:24:04Z</time>
      </trkpt>
      <trkpt lat="42.22006272" lon="-8.63546176">
        <ele>-151.99000549316406</ele>
        <time>2018-10-10T14:24:10Z</time>
      </trkpt>
      <trkpt lat="42.21999104" lon="-8.63541888">
        <ele>-151.99000549316406</ele>
        <time>2018-10-10T14:24:15Z</time>
      </trkpt>
      <trkpt lat="42.21993728" lon="-8.63537408">
        <ele>-151.99000549316406</ele>
        <time>2018-10-10T14:24:18Z</time>
      </trkpt>
      <trkpt lat="42.21988352" lon="-8.63532288">
        <ele>-151.99000549316406</ele>
        <time>2018-10-10T14:24:21Z</time>
      </trkpt>
      <trkpt lat="42.21981696" lon="-8.63526464">
        <ele>-151.99000549316406</ele>
        <time>2018-10-10T14:24:24Z</time>
      </trkpt>
      <trkpt lat="42.21977344" lon="-8.63522432">
        <ele>-153.5399932861328</ele>
        <time>2018-10-10T14:24:26Z</time>
      </trkpt>
      <trkpt lat="42.21972224" lon="-8.635184">
        <ele>-153.5399932861328</ele>
        <time>2018-10-10T14:24:28Z</time>
      </trkpt>
      <trkpt lat="42.21966848" lon="-8.63514112">
        <ele>-153.5399932861328</ele>
        <time>2018-10-10T14:24:30Z</time>
      </trkpt>
      <trkpt lat="42.21961472" lon="-8.63509568">
        <ele>-154.99000549316406</ele>
        <time>2018-10-10T14:24:32Z</time>
      </trkpt>
      <trkpt lat="42.2195584" lon="-8.63504768">
        <ele>-154.99000549316406</ele>
        <time>2018-10-10T14:24:34Z</time>
      </trkpt>
      <trkpt lat="42.21950464" lon="-8.63500224">
        <ele>-156.27000427246094</ele>
        <time>2018-10-10T14:24:36Z</time>
      </trkpt>
      <trkpt lat="42.21944832" lon="-8.63495616">
        <ele>-156.27000427246094</ele>
        <time>2018-10-10T14:24:38Z</time>
      </trkpt>
      <trkpt lat="42.219392" lon="-8.63492992">
        <ele>-156.27000427246094</ele>
        <time>2018-10-10T14:24:40Z</time>
      </trkpt>
      <trkpt lat="42.21933824" lon="-8.63489536">
        <ele>-157.4499969482422</ele>
        <time>2018-10-10T14:24:42Z</time>
      </trkpt>
      <trkpt lat="42.21927936" lon="-8.63485504">
        <ele>-157.4499969482422</ele>
        <time>2018-10-10T14:24:44Z</time>
      </trkpt>
      <trkpt lat="42.21922048" lon="-8.63481728">
        <ele>-157.4499969482422</ele>
        <time>2018-10-10T14:24:46Z</time>
      </trkpt>
      <trkpt lat="42.21915392" lon="-8.63478272">
        <ele>-157.4499969482422</ele>
        <time>2018-10-10T14:24:48Z</time>
      </trkpt>
      <trkpt lat="42.21907712" lon="-8.63476544">
        <ele>-157.4499969482422</ele>
        <time>2018-10-10T14:24:50Z</time>
      </trkpt>
      <trkpt lat="42.2189952" lon="-8.63475584">
        <ele>-158.80999755859375</ele>
        <time>2018-10-10T14:24:52Z</time>
      </trkpt>
      <trkpt lat="42.21888768" lon="-8.63475776">
        <ele>-158.80999755859375</ele>
        <time>2018-10-10T14:24:54Z</time>
      </trkpt>
      <trkpt lat="42.21882624" lon="-8.63476544">
        <ele>-158.80999755859375</ele>
        <time>2018-10-10T14:24:55Z</time>
      </trkpt>
      <trkpt lat="42.21875712" lon="-8.63477888">
        <ele>-158.80999755859375</ele>
        <time>2018-10-10T14:24:56Z</time>
      </trkpt>
      <trkpt lat="42.2186496" lon="-8.6348">
        <ele>-160.08999633789062</ele>
        <time>2018-10-10T14:24:57Z</time>
      </trkpt>
      <trkpt lat="42.21857024" lon="-8.63483072">
        <ele>-160.08999633789062</ele>
        <time>2018-10-10T14:24:58Z</time>
      </trkpt>
      <trkpt lat="42.21849088" lon="-8.63487424">
        <ele>-160.08999633789062</ele>
        <time>2018-10-10T14:24:59Z</time>
      </trkpt>
      <trkpt lat="42.21841408" lon="-8.63492608">
        <ele>-161.27000427246094</ele>
        <time>2018-10-10T14:25:00Z</time>
      </trkpt>
      <trkpt lat="42.2183424" lon="-8.63498496">
        <ele>-161.27000427246094</ele>
        <time>2018-10-10T14:25:01Z</time>
      </trkpt>
      <trkpt lat="42.21827328" lon="-8.63504768">
        <ele>-161.27000427246094</ele>
        <time>2018-10-10T14:25:02Z</time>
      </trkpt>
      <trkpt lat="42.21820416" lon="-8.63511296">
        <ele>-161.27000427246094</ele>
        <time>2018-10-10T14:25:03Z</time>
      </trkpt>
      <trkpt lat="42.21814784" lon="-8.63518208">
        <ele>-161.27000427246094</ele>
        <time>2018-10-10T14:25:04Z</time>
      </trkpt>
      <trkpt lat="42.21808896" lon="-8.63524928">
        <ele>-162.5399932861328</ele>
        <time>2018-10-10T14:25:05Z</time>
      </trkpt>
      <trkpt lat="42.21803776" lon="-8.63531392">
        <ele>-162.5399932861328</ele>
        <time>2018-10-10T14:25:06Z</time>
      </trkpt>
      <trkpt lat="42.21798656" lon="-8.63537792">
        <ele>-162.5399932861328</ele>
        <time>2018-10-10T14:25:07Z</time>
      </trkpt>
      <trkpt lat="42.21794816" lon="-8.63545152">
        <ele>-162.5399932861328</ele>
        <time>2018-10-10T14:25:08Z</time>
      </trkpt>
      <trkpt lat="42.21790208" lon="-8.6355136">
        <ele>-162.5399932861328</ele>
        <time>2018-10-10T14:25:09Z</time>
      </trkpt>
      <trkpt lat="42.21786112" lon="-8.6355712">
        <ele>-162.5399932861328</ele>
        <time>2018-10-10T14:25:10Z</time>
      </trkpt>
      <trkpt lat="42.2178048" lon="-8.63563136">
        <ele>-162.5399932861328</ele>
        <time>2018-10-10T14:25:11Z</time>
      </trkpt>
      <trkpt lat="42.21774336" lon="-8.63569088">
        <ele>-162.5399932861328</ele>
        <time>2018-10-10T14:25:12Z</time>
      </trkpt>
      <trkpt lat="42.21768448" lon="-8.63574528">
        <ele>-164.6300048828125</ele>
        <time>2018-10-10T14:25:13Z</time>
      </trkpt>
      <trkpt lat="42.21761792" lon="-8.63580608">
        <ele>-165.80999755859375</ele>
        <time>2018-10-10T14:25:14Z</time>
      </trkpt>
      <trkpt lat="42.217536" lon="-8.63585088">
        <ele>-165.80999755859375</ele>
        <time>2018-10-10T14:25:15Z</time>
      </trkpt>
      <trkpt lat="42.21745664" lon="-8.63589184">
        <ele>-167.5399932861328</ele>
        <time>2018-10-10T14:25:16Z</time>
      </trkpt>
      <trkpt lat="42.21737728" lon="-8.63593408">
        <ele>-167.5399932861328</ele>
        <time>2018-10-10T14:25:17Z</time>
      </trkpt>
      <trkpt lat="42.21730304" lon="-8.63597952">
        <ele>-167.5399932861328</ele>
        <time>2018-10-10T14:25:18Z</time>
      </trkpt>
      <trkpt lat="42.21723648" lon="-8.63602944">
        <ele>-169.17999267578125</ele>
        <time>2018-10-10T14:25:19Z</time>
      </trkpt>
      <trkpt lat="42.21717504" lon="-8.63608192">
        <ele>-169.17999267578125</ele>
        <time>2018-10-10T14:25:20Z</time>
      </trkpt>
      <trkpt lat="42.2171136" lon="-8.63613632">
        <ele>-169.17999267578125</ele>
        <time>2018-10-10T14:25:21Z</time>
      </trkpt>
      <trkpt lat="42.21705984" lon="-8.63619264">
        <ele>-169.17999267578125</ele>
        <time>2018-10-10T14:25:22Z</time>
      </trkpt>
      <trkpt lat="42.21700608" lon="-8.636256">
        <ele>-170.5399932861328</ele>
        <time>2018-10-10T14:25:23Z</time>
      </trkpt>
      <trkpt lat="42.21696768" lon="-8.63632704">
        <ele>-170.5399932861328</ele>
        <time>2018-10-10T14:25:24Z</time>
      </trkpt>
      <trkpt lat="42.2169216" lon="-8.63638976">
        <ele>-170.5399932861328</ele>
        <time>2018-10-10T14:25:25Z</time>
      </trkpt>
      <trkpt lat="42.21688064" lon="-8.63645824">
        <ele>-170.5399932861328</ele>
        <time>2018-10-10T14:25:26Z</time>
      </trkpt>
      <trkpt lat="42.21684992" lon="-8.63653248">
        <ele>-170.5399932861328</ele>
        <time>2018-10-10T14:25:27Z</time>
      </trkpt>
      <trkpt lat="42.21681664" lon="-8.63661184">
        <ele>-171.89999389648438</ele>
        <time>2018-10-10T14:25:28Z</time>
      </trkpt>
      <trkpt lat="42.21678592" lon="-8.63669568">
        <ele>-171.89999389648438</ele>
        <time>2018-10-10T14:25:29Z</time>
      </trkpt>
      <trkpt lat="42.2167552" lon="-8.63677568">
        <ele>-171.89999389648438</ele>
        <time>2018-10-10T14:25:30Z</time>
      </trkpt>
      <trkpt lat="42.21671936" lon="-8.63685312">
        <ele>-171.89999389648438</ele>
        <time>2018-10-10T14:25:31Z</time>
      </trkpt>
      <trkpt lat="42.2166912" lon="-8.63692864">
        <ele>-171.89999389648438</ele>
        <time>2018-10-10T14:25:32Z</time>
      </trkpt>
      <trkpt lat="42.21665536" lon="-8.637008">
        <ele>-171.89999389648438</ele>
        <time>2018-10-10T14:25:33Z</time>
      </trkpt>
      <trkpt lat="42.21662976" lon="-8.63708672">
        <ele>-171.89999389648438</ele>
        <time>2018-10-10T14:25:34Z</time>
      </trkpt>
      <trkpt lat="42.21659904" lon="-8.637168">
        <ele>-171.89999389648438</ele>
        <time>2018-10-10T14:25:35Z</time>
      </trkpt>
      <trkpt lat="42.21657088" lon="-8.63724736">
        <ele>-171.89999389648438</ele>
        <time>2018-10-10T14:25:36Z</time>
      </trkpt>
      <trkpt lat="42.21654016" lon="-8.63732608">
        <ele>-171.89999389648438</ele>
        <time>2018-10-10T14:25:37Z</time>
      </trkpt>
      <trkpt lat="42.21651456" lon="-8.63740224">
        <ele>-171.89999389648438</ele>
        <time>2018-10-10T14:25:38Z</time>
      </trkpt>
      <trkpt lat="42.21648128" lon="-8.63747392">
        <ele>-171.89999389648438</ele>
        <time>2018-10-10T14:25:39Z</time>
      </trkpt>
      <trkpt lat="42.21644544" lon="-8.63754304">
        <ele>-171.89999389648438</ele>
        <time>2018-10-10T14:25:40Z</time>
      </trkpt>
      <trkpt lat="42.21640448" lon="-8.6376096">
        <ele>-173.17999267578125</ele>
        <time>2018-10-10T14:25:41Z</time>
      </trkpt>
      <trkpt lat="42.2163584" lon="-8.6376736">
        <ele>-173.17999267578125</ele>
        <time>2018-10-10T14:25:42Z</time>
      </trkpt>
      <trkpt lat="42.21631232" lon="-8.63773568">
        <ele>-173.17999267578125</ele>
        <time>2018-10-10T14:25:43Z</time>
      </trkpt>
      <trkpt lat="42.21626624" lon="-8.6377984">
        <ele>-173.17999267578125</ele>
        <time>2018-10-10T14:25:44Z</time>
      </trkpt>
      <trkpt lat="42.21622016" lon="-8.63786112">
        <ele>-174.5399932861328</ele>
        <time>2018-10-10T14:25:45Z</time>
      </trkpt>
      <trkpt lat="42.21617408" lon="-8.6379232">
        <ele>-174.5399932861328</ele>
        <time>2018-10-10T14:25:46Z</time>
      </trkpt>
      <trkpt lat="42.21612544" lon="-8.63798336">
        <ele>-174.5399932861328</ele>
        <time>2018-10-10T14:25:47Z</time>
      </trkpt>
      <trkpt lat="42.21607936" lon="-8.63804352">
        <ele>-174.5399932861328</ele>
        <time>2018-10-10T14:25:48Z</time>
      </trkpt>
      <trkpt lat="42.21603328" lon="-8.63810432">
        <ele>-174.5399932861328</ele>
        <time>2018-10-10T14:25:49Z</time>
      </trkpt>
      <trkpt lat="42.21598464" lon="-8.63816384">
        <ele>-174.5399932861328</ele>
        <time>2018-10-10T14:25:50Z</time>
      </trkpt>
      <trkpt lat="42.21593856" lon="-8.63822272">
        <ele>-175.72000122070312</ele>
        <time>2018-10-10T14:25:51Z</time>
      </trkpt>
      <trkpt lat="42.21589248" lon="-8.63828352">
        <ele>-175.72000122070312</ele>
        <time>2018-10-10T14:25:52Z</time>
      </trkpt>
      <trkpt lat="42.2158464" lon="-8.63834688">
        <ele>-175.72000122070312</ele>
        <time>2018-10-10T14:25:53Z</time>
      </trkpt>
      <trkpt lat="42.21580544" lon="-8.6384096">
        <ele>-175.72000122070312</ele>
        <time>2018-10-10T14:25:54Z</time>
      </trkpt>
      <trkpt lat="42.21576192" lon="-8.63847424">
        <ele>-175.72000122070312</ele>
        <time>2018-10-10T14:25:55Z</time>
      </trkpt>
      <trkpt lat="42.21572096" lon="-8.63853632">
        <ele>-175.72000122070312</ele>
        <time>2018-10-10T14:25:56Z</time>
      </trkpt>
      <trkpt lat="42.21568" lon="-8.6385984">
        <ele>-176.89999389648438</ele>
        <time>2018-10-10T14:25:57Z</time>
      </trkpt>
      <trkpt lat="42.21563392" lon="-8.6386592">
        <ele>-176.89999389648438</ele>
        <time>2018-10-10T14:25:58Z</time>
      </trkpt>
      <trkpt lat="42.21558784" lon="-8.63872448">
        <ele>-176.89999389648438</ele>
        <time>2018-10-10T14:25:59Z</time>
      </trkpt>
      <trkpt lat="42.21554944" lon="-8.63879296">
        <ele>-176.89999389648438</ele>
        <time>2018-10-10T14:26:00Z</time>
      </trkpt>
      <trkpt lat="42.21552384" lon="-8.63886336">
        <ele>-176.89999389648438</ele>
        <time>2018-10-10T14:26:01Z</time>
      </trkpt>
      <trkpt lat="42.2155008" lon="-8.6389344">
        <ele>-176.89999389648438</ele>
        <time>2018-10-10T14:26:02Z</time>
      </trkpt>
      <trkpt lat="42.21547008" lon="-8.63899776">
        <ele>-178.27000427246094</ele>
        <time>2018-10-10T14:26:03Z</time>
      </trkpt>
      <trkpt lat="42.21543168" lon="-8.6390496">
        <ele>-178.27000427246094</ele>
        <time>2018-10-10T14:26:04Z</time>
      </trkpt>
      <trkpt lat="42.21539328" lon="-8.63908928">
        <ele>-178.27000427246094</ele>
        <time>2018-10-10T14:26:05Z</time>
      </trkpt>
      <trkpt lat="42.21529088" lon="-8.63916096">
        <ele>-178.27000427246094</ele>
        <time>2018-10-10T14:26:07Z</time>
      </trkpt>
      <trkpt lat="42.21523968" lon="-8.6392">
        <ele>-179.5399932861328</ele>
        <time>2018-10-10T14:26:08Z</time>
      </trkpt>
      <trkpt lat="42.21519104" lon="-8.63924096">
        <ele>-179.5399932861328</ele>
        <time>2018-10-10T14:26:09Z</time>
      </trkpt>
      <trkpt lat="42.21514496" lon="-8.63928512">
        <ele>-179.5399932861328</ele>
        <time>2018-10-10T14:26:10Z</time>
      </trkpt>
      <trkpt lat="42.21509632" lon="-8.63933184">
        <ele>-179.5399932861328</ele>
        <time>2018-10-10T14:26:11Z</time>
      </trkpt>
      <trkpt lat="42.21505024" lon="-8.6393824">
        <ele>-179.5399932861328</ele>
        <time>2018-10-10T14:26:12Z</time>
      </trkpt>
      <trkpt lat="42.21500672" lon="-8.63943552">
        <ele>-180.72000122070312</ele>
        <time>2018-10-10T14:26:13Z</time>
      </trkpt>
      <trkpt lat="42.2149632" lon="-8.63949312">
        <ele>-180.72000122070312</ele>
        <time>2018-10-10T14:26:14Z</time>
      </trkpt>
      <trkpt lat="42.21491712" lon="-8.63955008">
        <ele>-180.72000122070312</ele>
        <time>2018-10-10T14:26:15Z</time>
      </trkpt>
      <trkpt lat="42.21487104" lon="-8.6396096">
        <ele>-181.89999389648438</ele>
        <time>2018-10-10T14:26:16Z</time>
      </trkpt>
      <trkpt lat="42.21481984" lon="-8.63966848">
        <ele>-181.89999389648438</ele>
        <time>2018-10-10T14:26:17Z</time>
      </trkpt>
      <trkpt lat="42.21477632" lon="-8.63972864">
        <ele>-181.89999389648438</ele>
        <time>2018-10-10T14:26:18Z</time>
      </trkpt>
      <trkpt lat="42.21473024" lon="-8.63979072">
        <ele>-181.89999389648438</ele>
        <time>2018-10-10T14:26:19Z</time>
      </trkpt>
      <trkpt lat="42.21467904" lon="-8.6398528">
        <ele>-183.17999267578125</ele>
        <time>2018-10-10T14:26:20Z</time>
      </trkpt>
      <trkpt lat="42.2146304" lon="-8.6399136">
        <ele>-183.17999267578125</ele>
        <time>2018-10-10T14:26:21Z</time>
      </trkpt>
      <trkpt lat="42.21458432" lon="-8.6399744">
        <ele>-183.17999267578125</ele>
        <time>2018-10-10T14:26:22Z</time>
      </trkpt>
      <trkpt lat="42.21453824" lon="-8.64003648">
        <ele>-184.4499969482422</ele>
        <time>2018-10-10T14:26:23Z</time>
      </trkpt>
      <trkpt lat="42.21449216" lon="-8.64009984">
        <ele>-184.4499969482422</ele>
        <time>2018-10-10T14:26:24Z</time>
      </trkpt>
      <trkpt lat="42.2144512" lon="-8.64017472">
        <ele>-184.4499969482422</ele>
        <time>2018-10-10T14:26:25Z</time>
      </trkpt>
      <trkpt lat="42.21440768" lon="-8.64025216">
        <ele>-184.4499969482422</ele>
        <time>2018-10-10T14:26:26Z</time>
      </trkpt>
      <trkpt lat="42.21437184" lon="-8.64033216">
        <ele>-185.72000122070312</ele>
        <time>2018-10-10T14:26:27Z</time>
      </trkpt>
      <trkpt lat="42.214336" lon="-8.64041408">
        <ele>-185.72000122070312</ele>
        <time>2018-10-10T14:26:28Z</time>
      </trkpt>
      <trkpt lat="42.2143104" lon="-8.64050944">
        <ele>-185.72000122070312</ele>
        <time>2018-10-10T14:26:29Z</time>
      </trkpt>
      <trkpt lat="42.21427968" lon="-8.64059456">
        <ele>-185.72000122070312</ele>
        <time>2018-10-10T14:26:30Z</time>
      </trkpt>
      <trkpt lat="42.21424384" lon="-8.64068096">
        <ele>-186.89999389648438</ele>
        <time>2018-10-10T14:26:31Z</time>
      </trkpt>
      <trkpt lat="42.21421056" lon="-8.64076992">
        <ele>-186.89999389648438</ele>
        <time>2018-10-10T14:26:32Z</time>
      </trkpt>
      <trkpt lat="42.2141696" lon="-8.64085952">
        <ele>-186.89999389648438</ele>
        <time>2018-10-10T14:26:33Z</time>
      </trkpt>
      <trkpt lat="42.2141312" lon="-8.64095104">
        <ele>-186.89999389648438</ele>
        <time>2018-10-10T14:26:34Z</time>
      </trkpt>
      <trkpt lat="42.21408768" lon="-8.64104448">
        <ele>-188.17999267578125</ele>
        <time>2018-10-10T14:26:35Z</time>
      </trkpt>
      <trkpt lat="42.21404672" lon="-8.64114112">
        <ele>-188.17999267578125</ele>
        <time>2018-10-10T14:26:36Z</time>
      </trkpt>
      <trkpt lat="42.21400832" lon="-8.64124032">
        <ele>-188.17999267578125</ele>
        <time>2018-10-10T14:26:37Z</time>
      </trkpt>
      <trkpt lat="42.21397504" lon="-8.6413376">
        <ele>-188.17999267578125</ele>
        <time>2018-10-10T14:26:38Z</time>
      </trkpt>
      <trkpt lat="42.21393152" lon="-8.6414336">
        <ele>-188.17999267578125</ele>
        <time>2018-10-10T14:26:39Z</time>
      </trkpt>
      <trkpt lat="42.21389312" lon="-8.64152832">
        <ele>-188.17999267578125</ele>
        <time>2018-10-10T14:26:40Z</time>
      </trkpt>
      <trkpt lat="42.21385216" lon="-8.64162176">
        <ele>-188.17999267578125</ele>
        <time>2018-10-10T14:26:41Z</time>
      </trkpt>
      <trkpt lat="42.2138112" lon="-8.64171712">
        <ele>-188.17999267578125</ele>
        <time>2018-10-10T14:26:42Z</time>
      </trkpt>
      <trkpt lat="42.21376768" lon="-8.64181312">
        <ele>-189.4499969482422</ele>
        <time>2018-10-10T14:26:43Z</time>
      </trkpt>
      <trkpt lat="42.21372928" lon="-8.64191232">
        <ele>-189.4499969482422</ele>
        <time>2018-10-10T14:26:44Z</time>
      </trkpt>
      <trkpt lat="42.213696" lon="-8.64201472">
        <ele>-189.4499969482422</ele>
        <time>2018-10-10T14:26:45Z</time>
      </trkpt>
      <trkpt lat="42.2136576" lon="-8.64211584">
        <ele>-189.4499969482422</ele>
        <time>2018-10-10T14:26:46Z</time>
      </trkpt>
      <trkpt lat="42.2136192" lon="-8.64221568">
        <ele>-189.4499969482422</ele>
        <time>2018-10-10T14:26:47Z</time>
      </trkpt>
      <trkpt lat="42.21357312" lon="-8.64231424">
        <ele>-189.4499969482422</ele>
        <time>2018-10-10T14:26:48Z</time>
      </trkpt>
      <trkpt lat="42.21352704" lon="-8.6424064">
        <ele>-190.89999389648438</ele>
        <time>2018-10-10T14:26:49Z</time>
      </trkpt>
      <trkpt lat="42.21347328" lon="-8.64249344">
        <ele>-190.89999389648438</ele>
        <time>2018-10-10T14:26:50Z</time>
      </trkpt>
      <trkpt lat="42.2134144" lon="-8.64257024">
        <ele>-190.89999389648438</ele>
        <time>2018-10-10T14:26:51Z</time>
      </trkpt>
      <trkpt lat="42.21335296" lon="-8.6426432">
        <ele>-192.08999633789062</ele>
        <time>2018-10-10T14:26:52Z</time>
      </trkpt>
      <trkpt lat="42.21329408" lon="-8.6427104">
        <ele>-192.08999633789062</ele>
        <time>2018-10-10T14:26:53Z</time>
      </trkpt>
      <trkpt lat="42.2132352" lon="-8.64277248">
        <ele>-192.08999633789062</ele>
        <time>2018-10-10T14:26:54Z</time>
      </trkpt>
      <trkpt lat="42.21317376" lon="-8.6428288">
        <ele>-193.36000061035156</ele>
        <time>2018-10-10T14:26:55Z</time>
      </trkpt>
      <trkpt lat="42.2131072" lon="-8.64288128">
        <ele>-193.36000061035156</ele>
        <time>2018-10-10T14:26:56Z</time>
      </trkpt>
      <trkpt lat="42.21304064" lon="-8.642928">
        <ele>-193.36000061035156</ele>
        <time>2018-10-10T14:26:57Z</time>
      </trkpt>
      <trkpt lat="42.21297152" lon="-8.6429664">
        <ele>-194.5399932861328</ele>
        <time>2018-10-10T14:26:58Z</time>
      </trkpt>
      <trkpt lat="42.21290496" lon="-8.64300416">
        <ele>-194.5399932861328</ele>
        <time>2018-10-10T14:26:59Z</time>
      </trkpt>
      <trkpt lat="42.2128384" lon="-8.64304064">
        <ele>-194.5399932861328</ele>
        <time>2018-10-10T14:27:00Z</time>
      </trkpt>
      <trkpt lat="42.21276416" lon="-8.64307968">
        <ele>-195.80999755859375</ele>
        <time>2018-10-10T14:27:01Z</time>
      </trkpt>
      <trkpt lat="42.21270016" lon="-8.64312064">
        <ele>-195.80999755859375</ele>
        <time>2018-10-10T14:27:02Z</time>
      </trkpt>
      <trkpt lat="42.21262848" lon="-8.64316288">
        <ele>-195.80999755859375</ele>
        <time>2018-10-10T14:27:03Z</time>
      </trkpt>
      <trkpt lat="42.21255168" lon="-8.64320768">
        <ele>-197.17999267578125</ele>
        <time>2018-10-10T14:27:04Z</time>
      </trkpt>
      <trkpt lat="42.21247488" lon="-8.64325056">
        <ele>-197.17999267578125</ele>
        <time>2018-10-10T14:27:05Z</time>
      </trkpt>
      <trkpt lat="42.2124032" lon="-8.64329344">
        <ele>-197.17999267578125</ele>
        <time>2018-10-10T14:27:06Z</time>
      </trkpt>
      <trkpt lat="42.2123264" lon="-8.64333632">
        <ele>-197.17999267578125</ele>
        <time>2018-10-10T14:27:07Z</time>
      </trkpt>
      <trkpt lat="42.21224704" lon="-8.64338048">
        <ele>-197.17999267578125</ele>
        <time>2018-10-10T14:27:08Z</time>
      </trkpt>
      <trkpt lat="42.21217024" lon="-8.64342208">
        <ele>-197.17999267578125</ele>
        <time>2018-10-10T14:27:09Z</time>
      </trkpt>
      <trkpt lat="42.21208832" lon="-8.64346112">
        <ele>-197.17999267578125</ele>
        <time>2018-10-10T14:27:10Z</time>
      </trkpt>
      <trkpt lat="42.2120064" lon="-8.64349632">
        <ele>-197.17999267578125</ele>
        <time>2018-10-10T14:27:11Z</time>
      </trkpt>
      <trkpt lat="42.21192192" lon="-8.64352768">
        <ele>-197.17999267578125</ele>
        <time>2018-10-10T14:27:12Z</time>
      </trkpt>
      <trkpt lat="42.21184256" lon="-8.64355072">
        <ele>-197.17999267578125</ele>
        <time>2018-10-10T14:27:13Z</time>
      </trkpt>
      <trkpt lat="42.21175808" lon="-8.643568">
        <ele>-198.36000061035156</ele>
        <time>2018-10-10T14:27:14Z</time>
      </trkpt>
      <trkpt lat="42.2116736" lon="-8.64358144">
        <ele>-198.36000061035156</ele>
        <time>2018-10-10T14:27:15Z</time>
      </trkpt>
      <trkpt lat="42.21158912" lon="-8.64358912">
        <ele>-198.36000061035156</ele>
        <time>2018-10-10T14:27:16Z</time>
      </trkpt>
      <trkpt lat="42.21150208" lon="-8.6435872">
        <ele>-199.99000549316406</ele>
        <time>2018-10-10T14:27:17Z</time>
      </trkpt>
      <trkpt lat="42.21140992" lon="-8.6435776">
        <ele>-201.4499969482422</ele>
        <time>2018-10-10T14:27:18Z</time>
      </trkpt>
      <trkpt lat="42.21132288" lon="-8.64356352">
        <ele>-202.6300048828125</ele>
        <time>2018-10-10T14:27:19Z</time>
      </trkpt>
      <trkpt lat="42.21123584" lon="-8.64354048">
        <ele>-202.6300048828125</ele>
        <time>2018-10-10T14:27:20Z</time>
      </trkpt>
      <trkpt lat="42.21114624" lon="-8.6435136">
        <ele>-204.27000427246094</ele>
        <time>2018-10-10T14:27:21Z</time>
      </trkpt>
      <trkpt lat="42.21105664" lon="-8.64348288">
        <ele>-204.27000427246094</ele>
        <time>2018-10-10T14:27:22Z</time>
      </trkpt>
      <trkpt lat="42.21096704" lon="-8.64345088">
        <ele>-205.6300048828125</ele>
        <time>2018-10-10T14:27:23Z</time>
      </trkpt>
      <trkpt lat="42.21088" lon="-8.64342016">
        <ele>-205.6300048828125</ele>
        <time>2018-10-10T14:27:24Z</time>
      </trkpt>
      <trkpt lat="42.21079552" lon="-8.64338944">
        <ele>-205.6300048828125</ele>
        <time>2018-10-10T14:27:25Z</time>
      </trkpt>
      <trkpt lat="42.21070848" lon="-8.64336">
        <ele>-205.6300048828125</ele>
        <time>2018-10-10T14:27:26Z</time>
      </trkpt>
      <trkpt lat="42.21053952" lon="-8.64330496">
        <ele>-205.6300048828125</ele>
        <time>2018-10-10T14:27:28Z</time>
      </trkpt>
      <trkpt lat="42.2104576" lon="-8.64327744">
        <ele>-205.6300048828125</ele>
        <time>2018-10-10T14:27:29Z</time>
      </trkpt>
      <trkpt lat="42.21037568" lon="-8.64325056">
        <ele>-205.6300048828125</ele>
        <time>2018-10-10T14:27:30Z</time>
      </trkpt>
      <trkpt lat="42.21029632" lon="-8.64322752">
        <ele>-205.6300048828125</ele>
        <time>2018-10-10T14:27:31Z</time>
      </trkpt>
      <trkpt lat="42.21021184" lon="-8.64321024">
        <ele>-205.6300048828125</ele>
        <time>2018-10-10T14:27:32Z</time>
      </trkpt>
      <trkpt lat="42.2101248" lon="-8.64320576">
        <ele>-205.6300048828125</ele>
        <time>2018-10-10T14:27:33Z</time>
      </trkpt>
      <trkpt lat="42.21004032" lon="-8.64321216">
        <ele>-206.80999755859375</ele>
        <time>2018-10-10T14:27:34Z</time>
      </trkpt>
      <trkpt lat="42.20996096" lon="-8.6432288">
        <ele>-206.80999755859375</ele>
        <time>2018-10-10T14:27:35Z</time>
      </trkpt>
      <trkpt lat="42.20988928" lon="-8.64325312">
        <ele>-208.5399932861328</ele>
        <time>2018-10-10T14:27:36Z</time>
      </trkpt>
      <trkpt lat="42.20981504" lon="-8.64328192">
        <ele>-208.5399932861328</ele>
        <time>2018-10-10T14:27:37Z</time>
      </trkpt>
      <trkpt lat="42.20974848" lon="-8.6433152">
        <ele>-210.08999633789062</ele>
        <time>2018-10-10T14:27:38Z</time>
      </trkpt>
      <trkpt lat="42.20968192" lon="-8.64335168">
        <ele>-210.08999633789062</ele>
        <time>2018-10-10T14:27:39Z</time>
      </trkpt>
      <trkpt lat="42.20956928" lon="-8.64344768">
        <ele>-210.08999633789062</ele>
        <time>2018-10-10T14:27:41Z</time>
      </trkpt>
      <trkpt lat="42.20947712" lon="-8.64349056">
        <ele>-211.36000061035156</ele>
        <time>2018-10-10T14:27:42Z</time>
      </trkpt>
      <trkpt lat="42.20940288" lon="-8.64353856">
        <ele>-211.36000061035156</ele>
        <time>2018-10-10T14:27:43Z</time>
      </trkpt>
      <trkpt lat="42.20933888" lon="-8.64359168">
        <ele>-212.6300048828125</ele>
        <time>2018-10-10T14:27:44Z</time>
      </trkpt>
      <trkpt lat="42.2092672" lon="-8.64364352">
        <ele>-212.6300048828125</ele>
        <time>2018-10-10T14:27:45Z</time>
      </trkpt>
      <trkpt lat="42.20918528" lon="-8.64368448">
        <ele>-214.4499969482422</ele>
        <time>2018-10-10T14:27:46Z</time>
      </trkpt>
      <trkpt lat="42.20910336" lon="-8.64371968">
        <ele>-214.4499969482422</ele>
        <time>2018-10-10T14:27:47Z</time>
      </trkpt>
      <trkpt lat="42.20901888" lon="-8.6437504">
        <ele>-215.89999389648438</ele>
        <time>2018-10-10T14:27:48Z</time>
      </trkpt>
      <trkpt lat="42.20893952" lon="-8.6437728">
        <ele>-215.89999389648438</ele>
        <time>2018-10-10T14:27:49Z</time>
      </trkpt>
      <trkpt lat="42.20884992" lon="-8.64378816">
        <ele>-217.17999267578125</ele>
        <time>2018-10-10T14:27:50Z</time>
      </trkpt>
      <trkpt lat="42.20876032" lon="-8.64380288">
        <ele>-218.5399932861328</ele>
        <time>2018-10-10T14:27:51Z</time>
      </trkpt>
      <trkpt lat="42.20867072" lon="-8.64382144">
        <ele>-218.5399932861328</ele>
        <time>2018-10-10T14:27:52Z</time>
      </trkpt>
      <trkpt lat="42.20858112" lon="-8.64384576">
        <ele>-219.80999755859375</ele>
        <time>2018-10-10T14:27:53Z</time>
      </trkpt>
      <trkpt lat="42.20849152" lon="-8.64387712">
        <ele>-219.80999755859375</ele>
        <time>2018-10-10T14:27:54Z</time>
      </trkpt>
      <trkpt lat="42.20840192" lon="-8.64391232">
        <ele>-221.27000427246094</ele>
        <time>2018-10-10T14:27:55Z</time>
      </trkpt>
      <trkpt lat="42.20832" lon="-8.64394304">
        <ele>-221.27000427246094</ele>
        <time>2018-10-10T14:27:56Z</time>
      </trkpt>
      <trkpt lat="42.20824064" lon="-8.64394944">
        <ele>-222.5399932861328</ele>
        <time>2018-10-10T14:27:57Z</time>
      </trkpt>
      <trkpt lat="42.20816384" lon="-8.64393984">
        <ele>-222.5399932861328</ele>
        <time>2018-10-10T14:27:58Z</time>
      </trkpt>
      <trkpt lat="42.20807936" lon="-8.64392064">
        <ele>-222.5399932861328</ele>
        <time>2018-10-10T14:27:59Z</time>
      </trkpt>
      <trkpt lat="42.20799744" lon="-8.6439008">
        <ele>-224.27000427246094</ele>
        <time>2018-10-10T14:28:00Z</time>
      </trkpt>
      <trkpt lat="42.20790528" lon="-8.64388288">
        <ele>-224.27000427246094</ele>
        <time>2018-10-10T14:28:01Z</time>
      </trkpt>
      <trkpt lat="42.20781312" lon="-8.64386624">
        <ele>-225.72000122070312</ele>
        <time>2018-10-10T14:28:02Z</time>
      </trkpt>
      <trkpt lat="42.20772096" lon="-8.64385408">
        <ele>-225.72000122070312</ele>
        <time>2018-10-10T14:28:03Z</time>
      </trkpt>
      <trkpt lat="42.20762624" lon="-8.6438464">
        <ele>-226.99000549316406</ele>
        <time>2018-10-10T14:28:04Z</time>
      </trkpt>
      <trkpt lat="42.20753408" lon="-8.6438464">
        <ele>-226.99000549316406</ele>
        <time>2018-10-10T14:28:05Z</time>
      </trkpt>
      <trkpt lat="42.20743168" lon="-8.64385216">
        <ele>-226.99000549316406</ele>
        <time>2018-10-10T14:28:06Z</time>
      </trkpt>
      <trkpt lat="42.20720384" lon="-8.64381312">
        <ele>-226.99000549316406</ele>
        <time>2018-10-10T14:28:08Z</time>
      </trkpt>
      <trkpt lat="42.20708352" lon="-8.64380672">
        <ele>-228.27000427246094</ele>
        <time>2018-10-10T14:28:09Z</time>
      </trkpt>
      <trkpt lat="42.20697088" lon="-8.6438144">
        <ele>-228.27000427246094</ele>
        <time>2018-10-10T14:28:10Z</time>
      </trkpt>
      <trkpt lat="42.2068608" lon="-8.64382528">
        <ele>-228.27000427246094</ele>
        <time>2018-10-10T14:28:11Z</time>
      </trkpt>
      <trkpt lat="42.20675328" lon="-8.64384256">
        <ele>-228.27000427246094</ele>
        <time>2018-10-10T14:28:12Z</time>
      </trkpt>
      <trkpt lat="42.20665088" lon="-8.6438656">
        <ele>-228.27000427246094</ele>
        <time>2018-10-10T14:28:13Z</time>
      </trkpt>
      <trkpt lat="42.20654592" lon="-8.64389696">
        <ele>-228.27000427246094</ele>
        <time>2018-10-10T14:28:14Z</time>
      </trkpt>
      <trkpt lat="42.20644864" lon="-8.64393984">
        <ele>-229.6300048828125</ele>
        <time>2018-10-10T14:28:15Z</time>
      </trkpt>
      <trkpt lat="42.20635136" lon="-8.64399552">
        <ele>-229.6300048828125</ele>
        <time>2018-10-10T14:28:16Z</time>
      </trkpt>
      <trkpt lat="42.20626432" lon="-8.6440608">
        <ele>-229.6300048828125</ele>
        <time>2018-10-10T14:28:17Z</time>
      </trkpt>
      <trkpt lat="42.20617984" lon="-8.64413376">
        <ele>-229.6300048828125</ele>
        <time>2018-10-10T14:28:18Z</time>
      </trkpt>
      <trkpt lat="42.20609792" lon="-8.64420864">
        <ele>-230.80999755859375</ele>
        <time>2018-10-10T14:28:19Z</time>
      </trkpt>
      <trkpt lat="42.20602112" lon="-8.64428992">
        <ele>-230.80999755859375</ele>
        <time>2018-10-10T14:28:20Z</time>
      </trkpt>
      <trkpt lat="42.20594688" lon="-8.644368">
        <ele>-230.80999755859375</ele>
        <time>2018-10-10T14:28:21Z</time>
      </trkpt>
      <trkpt lat="42.2058752" lon="-8.64444096">
        <ele>-230.80999755859375</ele>
        <time>2018-10-10T14:28:22Z</time>
      </trkpt>
      <trkpt lat="42.20580352" lon="-8.64450752">
        <ele>-230.80999755859375</ele>
        <time>2018-10-10T14:28:23Z</time>
      </trkpt>
      <trkpt lat="42.2057216" lon="-8.64456768">
        <ele>-232.08999633789062</ele>
        <time>2018-10-10T14:28:24Z</time>
      </trkpt>
      <trkpt lat="42.20564992" lon="-8.64462016">
        <ele>-232.08999633789062</ele>
        <time>2018-10-10T14:28:25Z</time>
      </trkpt>
      <trkpt lat="42.20549376" lon="-8.64469312">
        <ele>-232.08999633789062</ele>
        <time>2018-10-10T14:28:26Z</time>
      </trkpt>
      <trkpt lat="42.20545536" lon="-8.6447008">
        <ele>-233.4499969482422</ele>
        <time>2018-10-10T14:28:27Z</time>
      </trkpt>
      <trkpt lat="42.20532992" lon="-8.64470656">
        <ele>-233.4499969482422</ele>
        <time>2018-10-10T14:28:29Z</time>
      </trkpt>
      <trkpt lat="42.20525312" lon="-8.6446944">
        <ele>-234.89999389648438</ele>
        <time>2018-10-10T14:28:30Z</time>
      </trkpt>
      <trkpt lat="42.20517632" lon="-8.64467648">
        <ele>-234.89999389648438</ele>
        <time>2018-10-10T14:28:31Z</time>
      </trkpt>
      <trkpt lat="42.20510208" lon="-8.64465536">
        <ele>-234.89999389648438</ele>
        <time>2018-10-10T14:28:32Z</time>
      </trkpt>
      <trkpt lat="42.20502784" lon="-8.64463232">
        <ele>-234.89999389648438</ele>
        <time>2018-10-10T14:28:33Z</time>
      </trkpt>
      <trkpt lat="42.20495616" lon="-8.64460672">
        <ele>-234.89999389648438</ele>
        <time>2018-10-10T14:28:34Z</time>
      </trkpt>
      <trkpt lat="42.20488448" lon="-8.64457792">
        <ele>-234.89999389648438</ele>
        <time>2018-10-10T14:28:35Z</time>
      </trkpt>
      <trkpt lat="42.20480768" lon="-8.64454912">
        <ele>-236.4499969482422</ele>
        <time>2018-10-10T14:28:36Z</time>
      </trkpt>
      <trkpt lat="42.204736" lon="-8.64451584">
        <ele>-236.4499969482422</ele>
        <time>2018-10-10T14:28:37Z</time>
      </trkpt>
      <trkpt lat="42.20466176" lon="-8.64448192">
        <ele>-236.4499969482422</ele>
        <time>2018-10-10T14:28:38Z</time>
      </trkpt>
      <trkpt lat="42.20459264" lon="-8.64444416">
        <ele>-237.72000122070312</ele>
        <time>2018-10-10T14:28:39Z</time>
      </trkpt>
      <trkpt lat="42.20452608" lon="-8.64441216">
        <ele>-237.72000122070312</ele>
        <time>2018-10-10T14:28:40Z</time>
      </trkpt>
      <trkpt lat="42.20445952" lon="-8.64438336">
        <ele>-237.72000122070312</ele>
        <time>2018-10-10T14:28:41Z</time>
      </trkpt>
      <trkpt lat="42.20438784" lon="-8.64435456">
        <ele>-237.72000122070312</ele>
        <time>2018-10-10T14:28:42Z</time>
      </trkpt>
      <trkpt lat="42.20431616" lon="-8.64432512">
        <ele>-238.99000549316406</ele>
        <time>2018-10-10T14:28:43Z</time>
      </trkpt>
      <trkpt lat="42.20424704" lon="-8.64429504">
        <ele>-238.99000549316406</ele>
        <time>2018-10-10T14:28:44Z</time>
      </trkpt>
      <trkpt lat="42.2041728" lon="-8.64426304">
        <ele>-238.99000549316406</ele>
        <time>2018-10-10T14:28:45Z</time>
      </trkpt>
      <trkpt lat="42.20410624" lon="-8.64423296">
        <ele>-238.99000549316406</ele>
        <time>2018-10-10T14:28:46Z</time>
      </trkpt>
      <trkpt lat="42.20403968" lon="-8.64420416">
        <ele>-238.99000549316406</ele>
        <time>2018-10-10T14:28:47Z</time>
      </trkpt>
      <trkpt lat="42.20398336" lon="-8.6441792">
        <ele>-238.99000549316406</ele>
        <time>2018-10-10T14:28:48Z</time>
      </trkpt>
      <trkpt lat="42.20392704" lon="-8.64415552">
        <ele>-238.99000549316406</ele>
        <time>2018-10-10T14:28:49Z</time>
      </trkpt>
      <trkpt lat="42.20386048" lon="-8.64413056">
        <ele>-238.99000549316406</ele>
        <time>2018-10-10T14:28:50Z</time>
      </trkpt>
      <trkpt lat="42.20379648" lon="-8.6441088">
        <ele>-238.99000549316406</ele>
        <time>2018-10-10T14:28:51Z</time>
      </trkpt>
      <trkpt lat="42.20372736" lon="-8.64408704">
        <ele>-238.99000549316406</ele>
        <time>2018-10-10T14:28:52Z</time>
      </trkpt>
      <trkpt lat="42.20365568" lon="-8.64407744">
        <ele>-238.99000549316406</ele>
        <time>2018-10-10T14:28:53Z</time>
      </trkpt>
      <trkpt lat="42.20358656" lon="-8.64407168">
        <ele>-238.99000549316406</ele>
        <time>2018-10-10T14:28:54Z</time>
      </trkpt>
      <trkpt lat="42.20351744" lon="-8.64406848">
        <ele>-238.99000549316406</ele>
        <time>2018-10-10T14:28:55Z</time>
      </trkpt>
      <trkpt lat="42.20344832" lon="-8.64406848">
        <ele>-240.27000427246094</ele>
        <time>2018-10-10T14:28:56Z</time>
      </trkpt>
      <trkpt lat="42.20338176" lon="-8.64407552">
        <ele>-240.27000427246094</ele>
        <time>2018-10-10T14:28:57Z</time>
      </trkpt>
      <trkpt lat="42.2033152" lon="-8.64408704">
        <ele>-240.27000427246094</ele>
        <time>2018-10-10T14:28:58Z</time>
      </trkpt>
      <trkpt lat="42.2032512" lon="-8.6441024">
        <ele>-240.27000427246094</ele>
        <time>2018-10-10T14:28:59Z</time>
      </trkpt>
      <trkpt lat="42.2031872" lon="-8.64412224">
        <ele>-240.27000427246094</ele>
        <time>2018-10-10T14:29:00Z</time>
      </trkpt>
      <trkpt lat="42.20312576" lon="-8.6441472">
        <ele>-240.27000427246094</ele>
        <time>2018-10-10T14:29:01Z</time>
      </trkpt>
      <trkpt lat="42.20306688" lon="-8.64417536">
        <ele>-240.27000427246094</ele>
        <time>2018-10-10T14:29:02Z</time>
      </trkpt>
      <trkpt lat="42.20301056" lon="-8.64420992">
        <ele>-240.27000427246094</ele>
        <time>2018-10-10T14:29:03Z</time>
      </trkpt>
      <trkpt lat="42.20295424" lon="-8.64424896">
        <ele>-240.27000427246094</ele>
        <time>2018-10-10T14:29:04Z</time>
      </trkpt>
      <trkpt lat="42.20289536" lon="-8.64428928">
        <ele>-241.6300048828125</ele>
        <time>2018-10-10T14:29:05Z</time>
      </trkpt>
      <trkpt lat="42.20283904" lon="-8.64433024">
        <ele>-241.6300048828125</ele>
        <time>2018-10-10T14:29:06Z</time>
      </trkpt>
      <trkpt lat="42.2027904" lon="-8.64437376">
        <ele>-243.08999633789062</ele>
        <time>2018-10-10T14:29:07Z</time>
      </trkpt>
      <trkpt lat="42.20273664" lon="-8.64441984">
        <ele>-243.08999633789062</ele>
        <time>2018-10-10T14:29:08Z</time>
      </trkpt>
      <trkpt lat="42.20268544" lon="-8.64446528">
        <ele>-244.27000427246094</ele>
        <time>2018-10-10T14:29:09Z</time>
      </trkpt>
      <trkpt lat="42.2026368" lon="-8.64451136">
        <ele>-244.27000427246094</ele>
        <time>2018-10-10T14:29:10Z</time>
      </trkpt>
      <trkpt lat="42.20258304" lon="-8.6445568">
        <ele>-244.27000427246094</ele>
        <time>2018-10-10T14:29:11Z</time>
      </trkpt>
      <trkpt lat="42.20253696" lon="-8.6446048">
        <ele>-245.5399932861328</ele>
        <time>2018-10-10T14:29:12Z</time>
      </trkpt>
      <trkpt lat="42.20248832" lon="-8.64465344">
        <ele>-245.5399932861328</ele>
        <time>2018-10-10T14:29:13Z</time>
      </trkpt>
      <trkpt lat="42.20244224" lon="-8.64470272">
        <ele>-245.5399932861328</ele>
        <time>2018-10-10T14:29:14Z</time>
      </trkpt>
      <trkpt lat="42.20240128" lon="-8.64475456">
        <ele>-245.5399932861328</ele>
        <time>2018-10-10T14:29:15Z</time>
      </trkpt>
      <trkpt lat="42.2023552" lon="-8.64480896">
        <ele>-245.5399932861328</ele>
        <time>2018-10-10T14:29:16Z</time>
      </trkpt>
      <trkpt lat="42.2023168" lon="-8.644864">
        <ele>-245.5399932861328</ele>
        <time>2018-10-10T14:29:17Z</time>
      </trkpt>
      <trkpt lat="42.20227328" lon="-8.64492224">
        <ele>-245.5399932861328</ele>
        <time>2018-10-10T14:29:18Z</time>
      </trkpt>
      <trkpt lat="42.20223744" lon="-8.64498112">
        <ele>-245.5399932861328</ele>
        <time>2018-10-10T14:29:19Z</time>
      </trkpt>
      <trkpt lat="42.20220672" lon="-8.6450432">
        <ele>-245.5399932861328</ele>
        <time>2018-10-10T14:29:20Z</time>
      </trkpt>
      <trkpt lat="42.202176" lon="-8.6451072">
        <ele>-245.5399932861328</ele>
        <time>2018-10-10T14:29:21Z</time>
      </trkpt>
      <trkpt lat="42.20214528" lon="-8.64517376">
        <ele>-245.5399932861328</ele>
        <time>2018-10-10T14:29:22Z</time>
      </trkpt>
      <trkpt lat="42.20211712" lon="-8.64524096">
        <ele>-245.5399932861328</ele>
        <time>2018-10-10T14:29:23Z</time>
      </trkpt>
      <trkpt lat="42.20209408" lon="-8.64531072">
        <ele>-245.5399932861328</ele>
        <time>2018-10-10T14:29:24Z</time>
      </trkpt>
      <trkpt lat="42.20207104" lon="-8.64538176">
        <ele>-245.5399932861328</ele>
        <time>2018-10-10T14:29:25Z</time>
      </trkpt>
      <trkpt lat="42.20205312" lon="-8.64545472">
        <ele>-245.5399932861328</ele>
        <time>2018-10-10T14:29:26Z</time>
      </trkpt>
      <trkpt lat="42.2020352" lon="-8.64552704">
        <ele>-246.99000549316406</ele>
        <time>2018-10-10T14:29:27Z</time>
      </trkpt>
      <trkpt lat="42.20201984" lon="-8.6456">
        <ele>-246.99000549316406</ele>
        <time>2018-10-10T14:29:28Z</time>
      </trkpt>
      <trkpt lat="42.20200448" lon="-8.6456736">
        <ele>-246.99000549316406</ele>
        <time>2018-10-10T14:29:29Z</time>
      </trkpt>
      <trkpt lat="42.20198912" lon="-8.6457472">
        <ele>-246.99000549316406</ele>
        <time>2018-10-10T14:29:30Z</time>
      </trkpt>
      <trkpt lat="42.20197632" lon="-8.6458208">
        <ele>-246.99000549316406</ele>
        <time>2018-10-10T14:29:31Z</time>
      </trkpt>
      <trkpt lat="42.20196608" lon="-8.64589568">
        <ele>-246.99000549316406</ele>
        <time>2018-10-10T14:29:32Z</time>
      </trkpt>
      <trkpt lat="42.20195328" lon="-8.6459712">
        <ele>-248.17999267578125</ele>
        <time>2018-10-10T14:29:33Z</time>
      </trkpt>
      <trkpt lat="42.20194304" lon="-8.64604544">
        <ele>-248.17999267578125</ele>
        <time>2018-10-10T14:29:34Z</time>
      </trkpt>
      <trkpt lat="42.20192768" lon="-8.64611712">
        <ele>-248.17999267578125</ele>
        <time>2018-10-10T14:29:35Z</time>
      </trkpt>
      <trkpt lat="42.20191232" lon="-8.64619136">
        <ele>-248.17999267578125</ele>
        <time>2018-10-10T14:29:36Z</time>
      </trkpt>
      <trkpt lat="42.20189184" lon="-8.64626624">
        <ele>-249.36000061035156</ele>
        <time>2018-10-10T14:29:37Z</time>
      </trkpt>
      <trkpt lat="42.20187392" lon="-8.64634048">
        <ele>-249.36000061035156</ele>
        <time>2018-10-10T14:29:38Z</time>
      </trkpt>
      <trkpt lat="42.20184832" lon="-8.64641472">
        <ele>-249.36000061035156</ele>
        <time>2018-10-10T14:29:39Z</time>
      </trkpt>
      <trkpt lat="42.20182016" lon="-8.64648896">
        <ele>-249.36000061035156</ele>
        <time>2018-10-10T14:29:40Z</time>
      </trkpt>
      <trkpt lat="42.20178944" lon="-8.64656064">
        <ele>-249.36000061035156</ele>
        <time>2018-10-10T14:29:41Z</time>
      </trkpt>
      <trkpt lat="42.20175616" lon="-8.64663424">
        <ele>-249.36000061035156</ele>
        <time>2018-10-10T14:29:42Z</time>
      </trkpt>
      <trkpt lat="42.20172032" lon="-8.64670464">
        <ele>-249.36000061035156</ele>
        <time>2018-10-10T14:29:43Z</time>
      </trkpt>
      <trkpt lat="42.20168192" lon="-8.64677632">
        <ele>-249.36000061035156</ele>
        <time>2018-10-10T14:29:44Z</time>
      </trkpt>
      <trkpt lat="42.20164608" lon="-8.64684864">
        <ele>-249.36000061035156</ele>
        <time>2018-10-10T14:29:45Z</time>
      </trkpt>
      <trkpt lat="42.20160768" lon="-8.64692096">
        <ele>-249.36000061035156</ele>
        <time>2018-10-10T14:29:46Z</time>
      </trkpt>
      <trkpt lat="42.20156416" lon="-8.64699264">
        <ele>-249.36000061035156</ele>
        <time>2018-10-10T14:29:47Z</time>
      </trkpt>
      <trkpt lat="42.2015232" lon="-8.64706624">
        <ele>-249.36000061035156</ele>
        <time>2018-10-10T14:29:48Z</time>
      </trkpt>
      <trkpt lat="42.20147712" lon="-8.64713856">
        <ele>-249.36000061035156</ele>
        <time>2018-10-10T14:29:49Z</time>
      </trkpt>
      <trkpt lat="42.20143104" lon="-8.64721088">
        <ele>-249.36000061035156</ele>
        <time>2018-10-10T14:29:50Z</time>
      </trkpt>
      <trkpt lat="42.20138496" lon="-8.64728192">
        <ele>-249.36000061035156</ele>
        <time>2018-10-10T14:29:51Z</time>
      </trkpt>
      <trkpt lat="42.20133888" lon="-8.64735104">
        <ele>-249.36000061035156</ele>
        <time>2018-10-10T14:29:52Z</time>
      </trkpt>
      <trkpt lat="42.2012928" lon="-8.64742016">
        <ele>-249.36000061035156</ele>
        <time>2018-10-10T14:29:53Z</time>
      </trkpt>
      <trkpt lat="42.20124416" lon="-8.64748864">
        <ele>-249.36000061035156</ele>
        <time>2018-10-10T14:29:54Z</time>
      </trkpt>
      <trkpt lat="42.20119808" lon="-8.64755648">
        <ele>-250.72000122070312</ele>
        <time>2018-10-10T14:29:55Z</time>
      </trkpt>
      <trkpt lat="42.20114944" lon="-8.64762496">
        <ele>-250.72000122070312</ele>
        <time>2018-10-10T14:29:56Z</time>
      </trkpt>
      <trkpt lat="42.20110336" lon="-8.6476928">
        <ele>-251.99000549316406</ele>
        <time>2018-10-10T14:29:57Z</time>
      </trkpt>
      <trkpt lat="42.20105472" lon="-8.64775936">
        <ele>-251.99000549316406</ele>
        <time>2018-10-10T14:29:58Z</time>
      </trkpt>
      <trkpt lat="42.20100864" lon="-8.64782592">
        <ele>-253.17999267578125</ele>
        <time>2018-10-10T14:29:59Z</time>
      </trkpt>
      <trkpt lat="42.20095744" lon="-8.64789376">
        <ele>-253.17999267578125</ele>
        <time>2018-10-10T14:30:00Z</time>
      </trkpt>
      <trkpt lat="42.20091136" lon="-8.6479616">
        <ele>-253.17999267578125</ele>
        <time>2018-10-10T14:30:01Z</time>
      </trkpt>
      <trkpt lat="42.20086272" lon="-8.64803008">
        <ele>-254.72000122070312</ele>
        <time>2018-10-10T14:30:02Z</time>
      </trkpt>
      <trkpt lat="42.20080896" lon="-8.64809792">
        <ele>-256.5400085449219</ele>
        <time>2018-10-10T14:30:03Z</time>
      </trkpt>
      <trkpt lat="42.20076032" lon="-8.64816448">
        <ele>-257.989990234375</ele>
        <time>2018-10-10T14:30:04Z</time>
      </trkpt>
      <trkpt lat="42.20069888" lon="-8.64822848">
        <ele>-257.989990234375</ele>
        <time>2018-10-10T14:30:05Z</time>
      </trkpt>
      <trkpt lat="42.20064256" lon="-8.64829056">
        <ele>-257.989990234375</ele>
        <time>2018-10-10T14:30:06Z</time>
      </trkpt>
      <trkpt lat="42.20058112" lon="-8.64835008">
        <ele>-257.989990234375</ele>
        <time>2018-10-10T14:30:07Z</time>
      </trkpt>
      <trkpt lat="42.20051968" lon="-8.64840512">
        <ele>-257.989990234375</ele>
        <time>2018-10-10T14:30:08Z</time>
      </trkpt>
      <trkpt lat="42.20045824" lon="-8.64845568">
        <ele>-256.17999267578125</ele>
        <time>2018-10-10T14:30:09Z</time>
      </trkpt>
      <trkpt lat="42.2003968" lon="-8.6485024">
        <ele>-254.6300048828125</ele>
        <time>2018-10-10T14:30:10Z</time>
      </trkpt>
      <trkpt lat="42.20033536" lon="-8.648544">
        <ele>-254.6300048828125</ele>
        <time>2018-10-10T14:30:11Z</time>
      </trkpt>
      <trkpt lat="42.20027904" lon="-8.64858048">
        <ele>-254.6300048828125</ele>
        <time>2018-10-10T14:30:12Z</time>
      </trkpt>
      <trkpt lat="42.20018688" lon="-8.64862144">
        <ele>-254.6300048828125</ele>
        <time>2018-10-10T14:30:13Z</time>
      </trkpt>
      <trkpt lat="42.2000896" lon="-8.64863488">
        <ele>-253.4499969482422</ele>
        <time>2018-10-10T14:30:15Z</time>
      </trkpt>
      <trkpt lat="42.19998976" lon="-8.64861888">
        <ele>-253.4499969482422</ele>
        <time>2018-10-10T14:30:17Z</time>
      </trkpt>
      <trkpt lat="42.19993856" lon="-8.64861376">
        <ele>-253.4499969482422</ele>
        <time>2018-10-10T14:30:18Z</time>
      </trkpt>
      <trkpt lat="42.19988992" lon="-8.64861312">
        <ele>-253.4499969482422</ele>
        <time>2018-10-10T14:30:19Z</time>
      </trkpt>
      <trkpt lat="42.1997568" lon="-8.64861952">
        <ele>-252.27000427246094</ele>
        <time>2018-10-10T14:30:22Z</time>
      </trkpt>
      <trkpt lat="42.19966464" lon="-8.64862912">
        <ele>-252.27000427246094</ele>
        <time>2018-10-10T14:30:24Z</time>
      </trkpt>
      <trkpt lat="42.1995776" lon="-8.64863936">
        <ele>-252.27000427246094</ele>
        <time>2018-10-10T14:30:26Z</time>
      </trkpt>
      <trkpt lat="42.19949312" lon="-8.64865216">
        <ele>-252.27000427246094</ele>
        <time>2018-10-10T14:30:28Z</time>
      </trkpt>
      <trkpt lat="42.19940864" lon="-8.64866368">
        <ele>-250.99000549316406</ele>
        <time>2018-10-10T14:30:30Z</time>
      </trkpt>
      <trkpt lat="42.19932928" lon="-8.64867776">
        <ele>-250.99000549316406</ele>
        <time>2018-10-10T14:30:32Z</time>
      </trkpt>
      <trkpt lat="42.19924992" lon="-8.64869312">
        <ele>-250.99000549316406</ele>
        <time>2018-10-10T14:30:34Z</time>
      </trkpt>
      <trkpt lat="42.19917312" lon="-8.64870528">
        <ele>-248.72000122070312</ele>
        <time>2018-10-10T14:30:36Z</time>
      </trkpt>
      <trkpt lat="42.19909632" lon="-8.64871808">
        <ele>-249.99000549316406</ele>
        <time>2018-10-10T14:30:38Z</time>
      </trkpt>
      <trkpt lat="42.19901952" lon="-8.6487296">
        <ele>-249.99000549316406</ele>
        <time>2018-10-10T14:30:40Z</time>
      </trkpt>
      <trkpt lat="42.19895296" lon="-8.64873792">
        <ele>-249.99000549316406</ele>
        <time>2018-10-10T14:30:42Z</time>
      </trkpt>
      <trkpt lat="42.19888384" lon="-8.64874624">
        <ele>-251.17999267578125</ele>
        <time>2018-10-10T14:30:44Z</time>
      </trkpt>
      <trkpt lat="42.19881728" lon="-8.64875392">
        <ele>-249.6300048828125</ele>
        <time>2018-10-10T14:30:46Z</time>
      </trkpt>
      <trkpt lat="42.19875328" lon="-8.6487616">
        <ele>-248.27000427246094</ele>
        <time>2018-10-10T14:30:48Z</time>
      </trkpt>
      <trkpt lat="42.19868928" lon="-8.64876928">
        <ele>-248.27000427246094</ele>
        <time>2018-10-10T14:30:50Z</time>
      </trkpt>
      <trkpt lat="42.19862272" lon="-8.64877696">
        <ele>-248.27000427246094</ele>
        <time>2018-10-10T14:30:52Z</time>
      </trkpt>
      <trkpt lat="42.19856384" lon="-8.64878528">
        <ele>-248.27000427246094</ele>
        <time>2018-10-10T14:30:54Z</time>
      </trkpt>
      <trkpt lat="42.19849728" lon="-8.64879104">
        <ele>-248.27000427246094</ele>
        <time>2018-10-10T14:30:56Z</time>
      </trkpt>
      <trkpt lat="42.19844096" lon="-8.6487968">
        <ele>-249.5399932861328</ele>
        <time>2018-10-10T14:30:58Z</time>
      </trkpt>
      <trkpt lat="42.19838208" lon="-8.64880256">
        <ele>-249.5399932861328</ele>
        <time>2018-10-10T14:31:00Z</time>
      </trkpt>
      <trkpt lat="42.19833088" lon="-8.64880768">
        <ele>-250.72000122070312</ele>
        <time>2018-10-10T14:31:02Z</time>
      </trkpt>
      <trkpt lat="42.1982848" lon="-8.64881408">
        <ele>-250.72000122070312</ele>
        <time>2018-10-10T14:31:04Z</time>
      </trkpt>
      <trkpt lat="42.19823104" lon="-8.64882176">
        <ele>-250.72000122070312</ele>
        <time>2018-10-10T14:31:07Z</time>
      </trkpt>
      <trkpt lat="42.19810816" lon="-8.64886016">
        <ele>-250.72000122070312</ele>
        <time>2018-10-10T14:31:18Z</time>
      </trkpt>
      <trkpt lat="42.19802368" lon="-8.64888256">
        <ele>-251.89999389648438</ele>
        <time>2018-10-10T14:31:23Z</time>
      </trkpt>
      <trkpt lat="42.19795968" lon="-8.64890944">
        <ele>-251.89999389648438</ele>
        <time>2018-10-10T14:31:26Z</time>
      </trkpt>
      <trkpt lat="42.19789568" lon="-8.64893696">
        <ele>-251.89999389648438</ele>
        <time>2018-10-10T14:31:29Z</time>
      </trkpt>
      <trkpt lat="42.19785728" lon="-8.64895616">
        <ele>-253.08999633789062</ele>
        <time>2018-10-10T14:31:31Z</time>
      </trkpt>
      <trkpt lat="42.19780352" lon="-8.64894848">
        <ele>-253.08999633789062</ele>
        <time>2018-10-10T14:31:34Z</time>
      </trkpt>
      <trkpt lat="42.19776512" lon="-8.64884096">
        <ele>-253.08999633789062</ele>
        <time>2018-10-10T14:31:37Z</time>
      </trkpt>
      <trkpt lat="42.19774208" lon="-8.648736">
        <ele>-253.08999633789062</ele>
        <time>2018-10-10T14:31:39Z</time>
      </trkpt>
      <trkpt lat="42.19771136" lon="-8.64861504">
        <ele>-253.08999633789062</ele>
        <time>2018-10-10T14:31:41Z</time>
      </trkpt>
      <trkpt lat="42.197696" lon="-8.64855168">
        <ele>-253.08999633789062</ele>
        <time>2018-10-10T14:31:42Z</time>
      </trkpt>
      <trkpt lat="42.1976576" lon="-8.64842304">
        <ele>-253.08999633789062</ele>
        <time>2018-10-10T14:31:44Z</time>
      </trkpt>
      <trkpt lat="42.19763456" lon="-8.64836288">
        <ele>-253.08999633789062</ele>
        <time>2018-10-10T14:31:45Z</time>
      </trkpt>
      <trkpt lat="42.19757568" lon="-8.64825344">
        <ele>-253.08999633789062</ele>
        <time>2018-10-10T14:31:47Z</time>
      </trkpt>
      <trkpt lat="42.19753728" lon="-8.64820544">
        <ele>-253.08999633789062</ele>
        <time>2018-10-10T14:31:48Z</time>
      </trkpt>
      <trkpt lat="42.19749376" lon="-8.64816064">
        <ele>-253.08999633789062</ele>
        <time>2018-10-10T14:31:49Z</time>
      </trkpt>
      <trkpt lat="42.19744768" lon="-8.64811968">
        <ele>-254.27000427246094</ele>
        <time>2018-10-10T14:31:50Z</time>
      </trkpt>
      <trkpt lat="42.19740416" lon="-8.64808">
        <ele>-254.27000427246094</ele>
        <time>2018-10-10T14:31:51Z</time>
      </trkpt>
      <trkpt lat="42.19735296" lon="-8.6480416">
        <ele>-254.27000427246094</ele>
        <time>2018-10-10T14:31:52Z</time>
      </trkpt>
      <trkpt lat="42.19724544" lon="-8.64796608">
        <ele>-254.27000427246094</ele>
        <time>2018-10-10T14:31:54Z</time>
      </trkpt>
      <trkpt lat="42.19718912" lon="-8.64793408">
        <ele>-254.27000427246094</ele>
        <time>2018-10-10T14:31:55Z</time>
      </trkpt>
      <trkpt lat="42.1970816" lon="-8.64788416">
        <ele>-254.27000427246094</ele>
        <time>2018-10-10T14:31:57Z</time>
      </trkpt>
      <trkpt lat="42.19702784" lon="-8.64786368">
        <ele>-255.5399932861328</ele>
        <time>2018-10-10T14:31:58Z</time>
      </trkpt>
      <trkpt lat="42.1969792" lon="-8.64784512">
        <ele>-255.5399932861328</ele>
        <time>2018-10-10T14:31:59Z</time>
      </trkpt>
      <trkpt lat="42.19692544" lon="-8.6478272">
        <ele>-256.989990234375</ele>
        <time>2018-10-10T14:32:00Z</time>
      </trkpt>
      <trkpt lat="42.19687168" lon="-8.64780992">
        <ele>-256.989990234375</ele>
        <time>2018-10-10T14:32:01Z</time>
      </trkpt>
      <trkpt lat="42.19681536" lon="-8.64779008">
        <ele>-256.989990234375</ele>
        <time>2018-10-10T14:32:02Z</time>
      </trkpt>
      <trkpt lat="42.1967616" lon="-8.64776704">
        <ele>-256.989990234375</ele>
        <time>2018-10-10T14:32:03Z</time>
      </trkpt>
      <trkpt lat="42.19670784" lon="-8.64774336">
        <ele>-256.989990234375</ele>
        <time>2018-10-10T14:32:04Z</time>
      </trkpt>
      <trkpt lat="42.19665408" lon="-8.64771776">
        <ele>-256.989990234375</ele>
        <time>2018-10-10T14:32:05Z</time>
      </trkpt>
      <trkpt lat="42.19660288" lon="-8.64769088">
        <ele>-258.2699890136719</ele>
        <time>2018-10-10T14:32:06Z</time>
      </trkpt>
      <trkpt lat="42.196544" lon="-8.6476672">
        <ele>-258.2699890136719</ele>
        <time>2018-10-10T14:32:07Z</time>
      </trkpt>
      <trkpt lat="42.19649536" lon="-8.647648">
        <ele>-258.2699890136719</ele>
        <time>2018-10-10T14:32:08Z</time>
      </trkpt>
      <trkpt lat="42.19638784" lon="-8.64763712">
        <ele>-258.2699890136719</ele>
        <time>2018-10-10T14:32:10Z</time>
      </trkpt>
      <trkpt lat="42.19633408" lon="-8.64763904">
        <ele>-259.45001220703125</ele>
        <time>2018-10-10T14:32:11Z</time>
      </trkpt>
      <trkpt lat="42.196288" lon="-8.64764224">
        <ele>-261.17999267578125</ele>
        <time>2018-10-10T14:32:12Z</time>
      </trkpt>
      <trkpt lat="42.19619072" lon="-8.647648">
        <ele>-261.17999267578125</ele>
        <time>2018-10-10T14:32:14Z</time>
      </trkpt>
      <trkpt lat="42.19609344" lon="-8.64766016">
        <ele>-261.17999267578125</ele>
        <time>2018-10-10T14:32:16Z</time>
      </trkpt>
      <trkpt lat="42.1960192" lon="-8.64768576">
        <ele>-261.17999267578125</ele>
        <time>2018-10-10T14:32:18Z</time>
      </trkpt>
      <trkpt lat="42.19594496" lon="-8.64769472">
        <ele>-259.8999938964844</ele>
        <time>2018-10-10T14:32:20Z</time>
      </trkpt>
      <trkpt lat="42.19587328" lon="-8.64768192">
        <ele>-258.6300048828125</ele>
        <time>2018-10-10T14:32:22Z</time>
      </trkpt>
      <trkpt lat="42.19580416" lon="-8.64766144">
        <ele>-257.45001220703125</ele>
        <time>2018-10-10T14:32:24Z</time>
      </trkpt>
      <trkpt lat="42.19574016" lon="-8.64763328">
        <ele>-257.45001220703125</ele>
        <time>2018-10-10T14:32:26Z</time>
      </trkpt>
      <trkpt lat="42.1956864" lon="-8.64759616">
        <ele>-256.17999267578125</ele>
        <time>2018-10-10T14:32:28Z</time>
      </trkpt>
      <trkpt lat="42.19563776" lon="-8.6475552">
        <ele>-254.89999389648438</ele>
        <time>2018-10-10T14:32:30Z</time>
      </trkpt>
      <trkpt lat="42.19559424" lon="-8.64751232">
        <ele>-253.72000122070312</ele>
        <time>2018-10-10T14:32:32Z</time>
      </trkpt>
      <trkpt lat="42.19555584" lon="-8.64744832">
        <ele>-253.72000122070312</ele>
        <time>2018-10-10T14:32:35Z</time>
      </trkpt>
      <trkpt lat="42.1955328" lon="-8.64746304">
        <ele>-255.36000061035156</ele>
        <time>2018-10-10T14:32:40Z</time>
      </trkpt>
      <trkpt lat="42.19552256" lon="-8.64740288">
        <ele>-255.36000061035156</ele>
        <time>2018-10-10T14:32:46Z</time>
      </trkpt>
      <trkpt lat="42.19548672" lon="-8.6473312">
        <ele>-255.36000061035156</ele>
        <time>2018-10-10T14:32:50Z</time>
      </trkpt>
      <trkpt lat="42.19545344" lon="-8.64730752">
        <ele>-255.36000061035156</ele>
        <time>2018-10-10T14:32:55Z</time>
      </trkpt>
      <trkpt lat="42.19552512" lon="-8.64739776">
        <ele>-255.36000061035156</ele>
        <time>2018-10-10T14:33:05Z</time>
      </trkpt>
      <trkpt lat="42.19556352" lon="-8.64745984">
        <time>2018-10-10T14:33:10Z</time>
      </trkpt>
      <trkpt lat="42.19554048" lon="-8.64739584">
        <time>2018-10-10T14:33:17Z</time>
      </trkpt>
      <trkpt lat="42.1954944" lon="-8.64735104">
        <time>2018-10-10T14:33:21Z</time>
      </trkpt>
      <trkpt lat="42.1955072" lon="-8.64730432">
        <time>2018-10-10T14:33:26Z</time>
      </trkpt>
      <trkpt lat="42.19555328" lon="-8.6473376">
        <time>2018-10-10T14:33:31Z</time>
      </trkpt>
      <trkpt lat="42.19560704" lon="-8.64736832">
        <time>2018-10-10T14:33:36Z</time>
      </trkpt>
      <trkpt lat="42.1956608" lon="-8.64738624">
        <time>2018-10-10T14:33:41Z</time>
      </trkpt>
      <trkpt lat="42.19570944" lon="-8.6474112">
        <time>2018-10-10T14:33:45Z</time>
      </trkpt>
      <trkpt lat="42.19575808" lon="-8.64743168">
        <time>2018-10-10T14:33:50Z</time>
      </trkpt>
      <trkpt lat="42.19578624" lon="-8.64749056">
        <time>2018-10-10T14:33:54Z</time>
      </trkpt>
      <trkpt lat="42.1958272" lon="-8.64747136">
        <time>2018-10-10T14:34:00Z</time>
      </trkpt>
      <trkpt lat="42.19585792" lon="-8.64751808">
        <time>2018-10-10T14:34:10Z</time>
      </trkpt>
      <trkpt lat="42.19575808" lon="-8.64752896">
        <time>2018-10-10T14:34:27Z</time>
      </trkpt>
      <trkpt lat="42.1958912" lon="-8.64748672">
        <time>2018-10-10T14:35:38Z</time>
      </trkpt>
      <trkpt lat="42.19590656" lon="-8.6475136">
        <time>2018-10-10T14:35:51Z</time>
      </trkpt>
      <trkpt lat="42.19584" lon="-8.64750016">
        <time>2018-10-10T14:36:08Z</time>
      </trkpt>
    </trkseg>
  </trk>
</gpx>
